<?xml version="1.0" encoding="UTF-8" standalone="no" ?>
<gpx xmlns="http://www.topografix.com/GPX/1/1" xmlns:xsi="http://www.w3.org/2001/XMLSchema-instance" xsi:schemaLocation="http://www.topografix.com/GPX/1/1 http://www.topografix.com/GPX/1/1/gpx.xsd" version="1.1" creator="VisuGPX - https://www.visugpx.com">
  <metadata>
    <name>maratrail</name>
    <desc><![CDATA[première trail long je fini en 6h15 je suis 191ème sur 331 
]]></desc>
  </metadata>
  <trk>
    <name><![CDATA[maratrail 2012]]></name>
    <trkseg>
      <trkpt lat="45.74746" lon="6.29301">
        <ele>534.20001220703</ele>
        <time>2012-06-09T05:34:30Z</time>
      </trkpt>
      <trkpt lat="45.7474" lon="6.29301">
        <ele>534.20001220703</ele>
        <time>2012-06-09T05:34:33Z</time>
      </trkpt>
      <trkpt lat="45.74733" lon="6.29299">
        <ele>534.20001220703</ele>
        <time>2012-06-09T05:34:36Z</time>
      </trkpt>
      <trkpt lat="45.74727" lon="6.29298">
        <ele>534.20001220703</ele>
        <time>2012-06-09T05:34:38Z</time>
      </trkpt>
      <trkpt lat="45.74717" lon="6.29295">
        <ele>534.20001220703</ele>
        <time>2012-06-09T05:34:42Z</time>
      </trkpt>
      <trkpt lat="45.74713" lon="6.29292">
        <ele>534.20001220703</ele>
        <time>2012-06-09T05:34:44Z</time>
      </trkpt>
      <trkpt lat="45.74706" lon="6.29287">
        <ele>534.20001220703</ele>
        <time>2012-06-09T05:34:47Z</time>
      </trkpt>
      <trkpt lat="45.74706" lon="6.29272">
        <ele>534.20001220703</ele>
        <time>2012-06-09T05:34:53Z</time>
      </trkpt>
      <trkpt lat="45.74715" lon="6.29256">
        <ele>534.20001220703</ele>
        <time>2012-06-09T05:34:57Z</time>
      </trkpt>
      <trkpt lat="45.74723" lon="6.29242">
        <ele>534.20001220703</ele>
        <time>2012-06-09T05:35:01Z</time>
      </trkpt>
      <trkpt lat="45.74729" lon="6.29224">
        <ele>534.20001220703</ele>
        <time>2012-06-09T05:35:05Z</time>
      </trkpt>
      <trkpt lat="45.74748" lon="6.29172">
        <ele>534.20001220703</ele>
        <time>2012-06-09T05:35:17Z</time>
      </trkpt>
      <trkpt lat="45.74749" lon="6.29167">
        <ele>534.20001220703</ele>
        <time>2012-06-09T05:35:18Z</time>
      </trkpt>
      <trkpt lat="45.74763" lon="6.29115">
        <ele>534.20001220703</ele>
        <time>2012-06-09T05:35:29Z</time>
      </trkpt>
      <trkpt lat="45.74773" lon="6.2909">
        <ele>534.20001220703</ele>
        <time>2012-06-09T05:35:35Z</time>
      </trkpt>
      <trkpt lat="45.74789" lon="6.29054">
        <ele>534.20001220703</ele>
        <time>2012-06-09T05:35:44Z</time>
      </trkpt>
      <trkpt lat="45.7478" lon="6.28995">
        <ele>534.20001220703</ele>
        <time>2012-06-09T05:35:59Z</time>
      </trkpt>
      <trkpt lat="45.74775" lon="6.2898">
        <ele>534.20001220703</ele>
        <time>2012-06-09T05:36:03Z</time>
      </trkpt>
      <trkpt lat="45.74763" lon="6.2895">
        <ele>537.20001220703</ele>
        <time>2012-06-09T05:36:11Z</time>
      </trkpt>
      <trkpt lat="45.74755" lon="6.28927">
        <ele>538.20001220703</ele>
        <time>2012-06-09T05:36:17Z</time>
      </trkpt>
      <trkpt lat="45.74749" lon="6.28908">
        <ele>539.20001220703</ele>
        <time>2012-06-09T05:36:22Z</time>
      </trkpt>
      <trkpt lat="45.74745" lon="6.28894">
        <ele>539.20001220703</ele>
        <time>2012-06-09T05:36:26Z</time>
      </trkpt>
      <trkpt lat="45.74736" lon="6.28868">
        <ele>540.20001220703</ele>
        <time>2012-06-09T05:36:33Z</time>
      </trkpt>
      <trkpt lat="45.74729" lon="6.28848">
        <ele>540.20001220703</ele>
        <time>2012-06-09T05:36:38Z</time>
      </trkpt>
      <trkpt lat="45.74718" lon="6.28819">
        <ele>540.20001220703</ele>
        <time>2012-06-09T05:36:45Z</time>
      </trkpt>
      <trkpt lat="45.74698" lon="6.28757">
        <ele>540.20001220703</ele>
        <time>2012-06-09T05:37:00Z</time>
      </trkpt>
      <trkpt lat="45.74691" lon="6.28733">
        <ele>540.20001220703</ele>
        <time>2012-06-09T05:37:06Z</time>
      </trkpt>
      <trkpt lat="45.7468" lon="6.28699">
        <ele>540.20001220703</ele>
        <time>2012-06-09T05:37:15Z</time>
      </trkpt>
      <trkpt lat="45.74674" lon="6.28676">
        <ele>540.20001220703</ele>
        <time>2012-06-09T05:37:21Z</time>
      </trkpt>
      <trkpt lat="45.74665" lon="6.28647">
        <ele>540.20001220703</ele>
        <time>2012-06-09T05:37:28Z</time>
      </trkpt>
      <trkpt lat="45.74658" lon="6.28622">
        <ele>540.20001220703</ele>
        <time>2012-06-09T05:37:34Z</time>
      </trkpt>
      <trkpt lat="45.74649" lon="6.28595">
        <ele>540.20001220703</ele>
        <time>2012-06-09T05:37:41Z</time>
      </trkpt>
      <trkpt lat="45.74647" lon="6.28591">
        <ele>540.20001220703</ele>
        <time>2012-06-09T05:37:42Z</time>
      </trkpt>
      <trkpt lat="45.74625" lon="6.28543">
        <ele>540.20001220703</ele>
        <time>2012-06-09T05:37:55Z</time>
      </trkpt>
      <trkpt lat="45.74598" lon="6.28508">
        <ele>542.20001220703</ele>
        <time>2012-06-09T05:38:07Z</time>
      </trkpt>
      <trkpt lat="45.74585" lon="6.2849">
        <ele>542.20001220703</ele>
        <time>2012-06-09T05:38:13Z</time>
      </trkpt>
      <trkpt lat="45.74569" lon="6.28471">
        <ele>542.20001220703</ele>
        <time>2012-06-09T05:38:20Z</time>
      </trkpt>
      <trkpt lat="45.74567" lon="6.28469">
        <ele>542.20001220703</ele>
        <time>2012-06-09T05:38:21Z</time>
      </trkpt>
      <trkpt lat="45.74547" lon="6.28458">
        <ele>542.20001220703</ele>
        <time>2012-06-09T05:38:28Z</time>
      </trkpt>
      <trkpt lat="45.74531" lon="6.2846">
        <ele>542.20001220703</ele>
        <time>2012-06-09T05:38:33Z</time>
      </trkpt>
      <trkpt lat="45.74501" lon="6.28485">
        <ele>542.20001220703</ele>
        <time>2012-06-09T05:38:44Z</time>
      </trkpt>
      <trkpt lat="45.74487" lon="6.28505">
        <ele>542.20001220703</ele>
        <time>2012-06-09T05:38:50Z</time>
      </trkpt>
      <trkpt lat="45.74474" lon="6.28527">
        <ele>542.20001220703</ele>
        <time>2012-06-09T05:38:57Z</time>
      </trkpt>
      <trkpt lat="45.7444" lon="6.28559">
        <ele>542.20001220703</ele>
        <time>2012-06-09T05:39:12Z</time>
      </trkpt>
      <trkpt lat="45.74422" lon="6.28566">
        <ele>542.20001220703</ele>
        <time>2012-06-09T05:39:18Z</time>
      </trkpt>
      <trkpt lat="45.74401" lon="6.28566">
        <ele>543.59997558594</ele>
        <time>2012-06-09T05:39:26Z</time>
      </trkpt>
      <trkpt lat="45.74395" lon="6.28565">
        <ele>544.79998779297</ele>
        <time>2012-06-09T05:39:29Z</time>
      </trkpt>
      <trkpt lat="45.74375" lon="6.28566">
        <ele>545.79998779297</ele>
        <time>2012-06-09T05:39:39Z</time>
      </trkpt>
      <trkpt lat="45.74372" lon="6.28567">
        <ele>547</ele>
        <time>2012-06-09T05:39:40Z</time>
      </trkpt>
      <trkpt lat="45.74362" lon="6.28572">
        <ele>548</ele>
        <time>2012-06-09T05:39:45Z</time>
      </trkpt>
      <trkpt lat="45.7435" lon="6.28576">
        <ele>548</ele>
        <time>2012-06-09T05:39:51Z</time>
      </trkpt>
      <trkpt lat="45.74334" lon="6.28586">
        <ele>549.20001220703</ele>
        <time>2012-06-09T05:39:58Z</time>
      </trkpt>
      <trkpt lat="45.74318" lon="6.28599">
        <ele>551.40002441406</ele>
        <time>2012-06-09T05:40:05Z</time>
      </trkpt>
      <trkpt lat="45.74312" lon="6.28605">
        <ele>552.40002441406</ele>
        <time>2012-06-09T05:40:08Z</time>
      </trkpt>
      <trkpt lat="45.74294" lon="6.28618">
        <ele>553.59997558594</ele>
        <time>2012-06-09T05:40:17Z</time>
      </trkpt>
      <trkpt lat="45.74292" lon="6.28619">
        <ele>553.59997558594</ele>
        <time>2012-06-09T05:40:18Z</time>
      </trkpt>
      <trkpt lat="45.74278" lon="6.28628">
        <ele>554.79998779297</ele>
        <time>2012-06-09T05:40:25Z</time>
      </trkpt>
      <trkpt lat="45.74272" lon="6.28632">
        <ele>555.79998779297</ele>
        <time>2012-06-09T05:40:28Z</time>
      </trkpt>
      <trkpt lat="45.74261" lon="6.28639">
        <ele>556.79998779297</ele>
        <time>2012-06-09T05:40:33Z</time>
      </trkpt>
      <trkpt lat="45.74253" lon="6.28645">
        <ele>556.79998779297</ele>
        <time>2012-06-09T05:40:37Z</time>
      </trkpt>
      <trkpt lat="45.74242" lon="6.28652">
        <ele>558</ele>
        <time>2012-06-09T05:40:42Z</time>
      </trkpt>
      <trkpt lat="45.74227" lon="6.28678">
        <ele>559.20001220703</ele>
        <time>2012-06-09T05:40:52Z</time>
      </trkpt>
      <trkpt lat="45.74224" lon="6.28688">
        <ele>560.20001220703</ele>
        <time>2012-06-09T05:40:55Z</time>
      </trkpt>
      <trkpt lat="45.74221" lon="6.28713">
        <ele>561.40002441406</ele>
        <time>2012-06-09T05:41:02Z</time>
      </trkpt>
      <trkpt lat="45.74219" lon="6.2872">
        <ele>561.40002441406</ele>
        <time>2012-06-09T05:41:04Z</time>
      </trkpt>
      <trkpt lat="45.74211" lon="6.28734">
        <ele>562.40002441406</ele>
        <time>2012-06-09T05:41:09Z</time>
      </trkpt>
      <trkpt lat="45.74203" lon="6.28747">
        <ele>563.59997558594</ele>
        <time>2012-06-09T05:41:14Z</time>
      </trkpt>
      <trkpt lat="45.74187" lon="6.28769">
        <ele>564.79998779297</ele>
        <time>2012-06-09T05:41:23Z</time>
      </trkpt>
      <trkpt lat="45.74185" lon="6.28771">
        <ele>564.79998779297</ele>
        <time>2012-06-09T05:41:24Z</time>
      </trkpt>
      <trkpt lat="45.74161" lon="6.28801">
        <ele>567</ele>
        <time>2012-06-09T05:41:37Z</time>
      </trkpt>
      <trkpt lat="45.74135" lon="6.28842">
        <ele>570.59997558594</ele>
        <time>2012-06-09T05:41:52Z</time>
      </trkpt>
      <trkpt lat="45.74132" lon="6.28847">
        <ele>570.59997558594</ele>
        <time>2012-06-09T05:41:54Z</time>
      </trkpt>
      <trkpt lat="45.74121" lon="6.28862">
        <ele>571.59997558594</ele>
        <time>2012-06-09T05:42:01Z</time>
      </trkpt>
      <trkpt lat="45.74117" lon="6.2887">
        <ele>572.59997558594</ele>
        <time>2012-06-09T05:42:04Z</time>
      </trkpt>
      <trkpt lat="45.74114" lon="6.28911">
        <ele>575</ele>
        <time>2012-06-09T05:42:16Z</time>
      </trkpt>
      <trkpt lat="45.74114" lon="6.28929">
        <ele>576.20001220703</ele>
        <time>2012-06-09T05:42:21Z</time>
      </trkpt>
      <trkpt lat="45.74111" lon="6.28949">
        <ele>576.20001220703</ele>
        <time>2012-06-09T05:42:27Z</time>
      </trkpt>
      <trkpt lat="45.74109" lon="6.28959">
        <ele>577.20001220703</ele>
        <time>2012-06-09T05:42:30Z</time>
      </trkpt>
      <trkpt lat="45.74106" lon="6.28978">
        <ele>578.40002441406</ele>
        <time>2012-06-09T05:42:36Z</time>
      </trkpt>
      <trkpt lat="45.74105" lon="6.29015">
        <ele>582</ele>
        <time>2012-06-09T05:42:47Z</time>
      </trkpt>
      <trkpt lat="45.741" lon="6.29041">
        <ele>583</ele>
        <time>2012-06-09T05:42:55Z</time>
      </trkpt>
      <trkpt lat="45.74088" lon="6.29076">
        <ele>585.20001220703</ele>
        <time>2012-06-09T05:43:06Z</time>
      </trkpt>
      <trkpt lat="45.74087" lon="6.2908">
        <ele>585.20001220703</ele>
        <time>2012-06-09T05:43:07Z</time>
      </trkpt>
      <trkpt lat="45.7407" lon="6.29114">
        <ele>586.20001220703</ele>
        <time>2012-06-09T05:43:19Z</time>
      </trkpt>
      <trkpt lat="45.74061" lon="6.29103">
        <ele>587.40002441406</ele>
        <time>2012-06-09T05:43:26Z</time>
      </trkpt>
      <trkpt lat="45.74057" lon="6.29097">
        <ele>588.59997558594</ele>
        <time>2012-06-09T05:43:31Z</time>
      </trkpt>
      <trkpt lat="45.74056" lon="6.29095">
        <ele>589.59997558594</ele>
        <time>2012-06-09T05:43:33Z</time>
      </trkpt>
      <trkpt lat="45.74049" lon="6.29079">
        <ele>592.79998779297</ele>
        <time>2012-06-09T05:43:44Z</time>
      </trkpt>
      <trkpt lat="45.74041" lon="6.29055">
        <ele>595.79998779297</ele>
        <time>2012-06-09T05:43:59Z</time>
      </trkpt>
      <trkpt lat="45.74039" lon="6.2905">
        <ele>595.79998779297</ele>
        <time>2012-06-09T05:44:02Z</time>
      </trkpt>
      <trkpt lat="45.74035" lon="6.29041">
        <ele>598.20001220703</ele>
        <time>2012-06-09T05:44:09Z</time>
      </trkpt>
      <trkpt lat="45.74031" lon="6.29036">
        <ele>599.20001220703</ele>
        <time>2012-06-09T05:44:14Z</time>
      </trkpt>
      <trkpt lat="45.74028" lon="6.2903">
        <ele>601.20001220703</ele>
        <time>2012-06-09T05:44:20Z</time>
      </trkpt>
      <trkpt lat="45.74024" lon="6.29025">
        <ele>602.40002441406</ele>
        <time>2012-06-09T05:44:25Z</time>
      </trkpt>
      <trkpt lat="45.74018" lon="6.29013">
        <ele>604.40002441406</ele>
        <time>2012-06-09T05:44:35Z</time>
      </trkpt>
      <trkpt lat="45.7401" lon="6.29002">
        <ele>606.79998779297</ele>
        <time>2012-06-09T05:44:44Z</time>
      </trkpt>
      <trkpt lat="45.73998" lon="6.28986">
        <ele>608.79998779297</ele>
        <time>2012-06-09T05:44:56Z</time>
      </trkpt>
      <trkpt lat="45.73987" lon="6.28976">
        <ele>611</ele>
        <time>2012-06-09T05:45:06Z</time>
      </trkpt>
      <trkpt lat="45.73985" lon="6.28974">
        <ele>612</ele>
        <time>2012-06-09T05:45:09Z</time>
      </trkpt>
      <trkpt lat="45.73977" lon="6.28969">
        <ele>614</ele>
        <time>2012-06-09T05:45:16Z</time>
      </trkpt>
      <trkpt lat="45.73973" lon="6.28967">
        <ele>615.20001220703</ele>
        <time>2012-06-09T05:45:19Z</time>
      </trkpt>
      <trkpt lat="45.73965" lon="6.28958">
        <ele>616.40002441406</ele>
        <time>2012-06-09T05:45:25Z</time>
      </trkpt>
      <trkpt lat="45.73959" lon="6.28952">
        <ele>617.40002441406</ele>
        <time>2012-06-09T05:45:29Z</time>
      </trkpt>
      <trkpt lat="45.73952" lon="6.2894">
        <ele>618.79998779297</ele>
        <time>2012-06-09T05:45:37Z</time>
      </trkpt>
      <trkpt lat="45.73951" lon="6.28939">
        <ele>619.79998779297</ele>
        <time>2012-06-09T05:45:38Z</time>
      </trkpt>
      <trkpt lat="45.73946" lon="6.28933">
        <ele>619.79998779297</ele>
        <time>2012-06-09T05:45:42Z</time>
      </trkpt>
      <trkpt lat="45.73933" lon="6.28917">
        <ele>623.59997558594</ele>
        <time>2012-06-09T05:45:52Z</time>
      </trkpt>
      <trkpt lat="45.73929" lon="6.28914">
        <ele>623.59997558594</ele>
        <time>2012-06-09T05:45:54Z</time>
      </trkpt>
      <trkpt lat="45.73914" lon="6.28903">
        <ele>624.59997558594</ele>
        <time>2012-06-09T05:46:02Z</time>
      </trkpt>
      <trkpt lat="45.73904" lon="6.289">
        <ele>625.59997558594</ele>
        <time>2012-06-09T05:46:09Z</time>
      </trkpt>
      <trkpt lat="45.73897" lon="6.289">
        <ele>626.79998779297</ele>
        <time>2012-06-09T05:46:15Z</time>
      </trkpt>
      <trkpt lat="45.73895" lon="6.289">
        <ele>627.79998779297</ele>
        <time>2012-06-09T05:46:17Z</time>
      </trkpt>
      <trkpt lat="45.73887" lon="6.289">
        <ele>630</ele>
        <time>2012-06-09T05:46:25Z</time>
      </trkpt>
      <trkpt lat="45.73883" lon="6.289">
        <ele>631.20001220703</ele>
        <time>2012-06-09T05:46:29Z</time>
      </trkpt>
      <trkpt lat="45.73875" lon="6.28901">
        <ele>633.40002441406</ele>
        <time>2012-06-09T05:46:37Z</time>
      </trkpt>
      <trkpt lat="45.73866" lon="6.28904">
        <ele>635.59997558594</ele>
        <time>2012-06-09T05:46:46Z</time>
      </trkpt>
      <trkpt lat="45.73862" lon="6.28905">
        <ele>636.79998779297</ele>
        <time>2012-06-09T05:46:52Z</time>
      </trkpt>
      <trkpt lat="45.73851" lon="6.28913">
        <ele>638.79998779297</ele>
        <time>2012-06-09T05:47:00Z</time>
      </trkpt>
      <trkpt lat="45.7385" lon="6.28913">
        <ele>638.79998779297</ele>
        <time>2012-06-09T05:47:01Z</time>
      </trkpt>
      <trkpt lat="45.73843" lon="6.28918">
        <ele>641</ele>
        <time>2012-06-09T05:47:09Z</time>
      </trkpt>
      <trkpt lat="45.73837" lon="6.28928">
        <ele>643</ele>
        <time>2012-06-09T05:47:18Z</time>
      </trkpt>
      <trkpt lat="45.73832" lon="6.28934">
        <ele>645.20001220703</ele>
        <time>2012-06-09T05:47:24Z</time>
      </trkpt>
      <trkpt lat="45.73831" lon="6.28936">
        <ele>645.20001220703</ele>
        <time>2012-06-09T05:47:25Z</time>
      </trkpt>
      <trkpt lat="45.73821" lon="6.28951">
        <ele>647.20001220703</ele>
        <time>2012-06-09T05:47:35Z</time>
      </trkpt>
      <trkpt lat="45.73806" lon="6.28981">
        <ele>650.79998779297</ele>
        <time>2012-06-09T05:47:48Z</time>
      </trkpt>
      <trkpt lat="45.73804" lon="6.28986">
        <ele>651.79998779297</ele>
        <time>2012-06-09T05:47:50Z</time>
      </trkpt>
      <trkpt lat="45.73798" lon="6.29">
        <ele>653</ele>
        <time>2012-06-09T05:47:56Z</time>
      </trkpt>
      <trkpt lat="45.73795" lon="6.29007">
        <ele>654</ele>
        <time>2012-06-09T05:47:59Z</time>
      </trkpt>
      <trkpt lat="45.73774" lon="6.29034">
        <ele>655</ele>
        <time>2012-06-09T05:48:10Z</time>
      </trkpt>
      <trkpt lat="45.73763" lon="6.29049">
        <ele>655</ele>
        <time>2012-06-09T05:48:16Z</time>
      </trkpt>
      <trkpt lat="45.73746" lon="6.29073">
        <ele>657.20001220703</ele>
        <time>2012-06-09T05:48:25Z</time>
      </trkpt>
      <trkpt lat="45.73741" lon="6.29083">
        <ele>657.20001220703</ele>
        <time>2012-06-09T05:48:28Z</time>
      </trkpt>
      <trkpt lat="45.73726" lon="6.29103">
        <ele>658.20001220703</ele>
        <time>2012-06-09T05:48:36Z</time>
      </trkpt>
      <trkpt lat="45.73704" lon="6.29109">
        <ele>660.40002441406</ele>
        <time>2012-06-09T05:48:48Z</time>
      </trkpt>
      <trkpt lat="45.73693" lon="6.29111">
        <ele>661.40002441406</ele>
        <time>2012-06-09T05:48:54Z</time>
      </trkpt>
      <trkpt lat="45.73679" lon="6.29115">
        <ele>663.79998779297</ele>
        <time>2012-06-09T05:49:01Z</time>
      </trkpt>
      <trkpt lat="45.73673" lon="6.29116">
        <ele>664.79998779297</ele>
        <time>2012-06-09T05:49:05Z</time>
      </trkpt>
      <trkpt lat="45.73668" lon="6.29116">
        <ele>664.79998779297</ele>
        <time>2012-06-09T05:49:10Z</time>
      </trkpt>
      <trkpt lat="45.73664" lon="6.29118">
        <ele>665.79998779297</ele>
        <time>2012-06-09T05:49:14Z</time>
      </trkpt>
      <trkpt lat="45.73655" lon="6.2912">
        <ele>668</ele>
        <time>2012-06-09T05:49:21Z</time>
      </trkpt>
      <trkpt lat="45.73653" lon="6.29121">
        <ele>668</ele>
        <time>2012-06-09T05:49:23Z</time>
      </trkpt>
      <trkpt lat="45.7365" lon="6.29121">
        <ele>669.20001220703</ele>
        <time>2012-06-09T05:49:26Z</time>
      </trkpt>
      <trkpt lat="45.7364" lon="6.29128">
        <ele>671.20001220703</ele>
        <time>2012-06-09T05:49:38Z</time>
      </trkpt>
      <trkpt lat="45.73639" lon="6.2913">
        <ele>672.40002441406</ele>
        <time>2012-06-09T05:49:39Z</time>
      </trkpt>
      <trkpt lat="45.7363" lon="6.29138">
        <ele>674.40002441406</ele>
        <time>2012-06-09T05:49:47Z</time>
      </trkpt>
      <trkpt lat="45.73625" lon="6.29142">
        <ele>675.40002441406</ele>
        <time>2012-06-09T05:49:51Z</time>
      </trkpt>
      <trkpt lat="45.73618" lon="6.29148">
        <ele>676.59997558594</ele>
        <time>2012-06-09T05:49:57Z</time>
      </trkpt>
      <trkpt lat="45.73614" lon="6.2915">
        <ele>676.59997558594</ele>
        <time>2012-06-09T05:50:00Z</time>
      </trkpt>
      <trkpt lat="45.73608" lon="6.29151">
        <ele>678.79998779297</ele>
        <time>2012-06-09T05:50:07Z</time>
      </trkpt>
      <trkpt lat="45.73603" lon="6.29154">
        <ele>679.79998779297</ele>
        <time>2012-06-09T05:50:12Z</time>
      </trkpt>
      <trkpt lat="45.73593" lon="6.29158">
        <ele>682</ele>
        <time>2012-06-09T05:50:24Z</time>
      </trkpt>
      <trkpt lat="45.73582" lon="6.29158">
        <ele>685.20001220703</ele>
        <time>2012-06-09T05:50:37Z</time>
      </trkpt>
      <trkpt lat="45.73579" lon="6.29156">
        <ele>686.40002441406</ele>
        <time>2012-06-09T05:50:43Z</time>
      </trkpt>
      <trkpt lat="45.73572" lon="6.29157">
        <ele>687.40002441406</ele>
        <time>2012-06-09T05:50:50Z</time>
      </trkpt>
      <trkpt lat="45.7357" lon="6.29156">
        <ele>688.40002441406</ele>
        <time>2012-06-09T05:50:52Z</time>
      </trkpt>
      <trkpt lat="45.73561" lon="6.29157">
        <ele>690.40002441406</ele>
        <time>2012-06-09T05:51:01Z</time>
      </trkpt>
      <trkpt lat="45.73557" lon="6.29157">
        <ele>691.59997558594</ele>
        <time>2012-06-09T05:51:05Z</time>
      </trkpt>
      <trkpt lat="45.73547" lon="6.29159">
        <ele>692.59997558594</ele>
        <time>2012-06-09T05:51:19Z</time>
      </trkpt>
      <trkpt lat="45.73546" lon="6.29159">
        <ele>693.59997558594</ele>
        <time>2012-06-09T05:51:20Z</time>
      </trkpt>
      <trkpt lat="45.73537" lon="6.29158">
        <ele>695.79998779297</ele>
        <time>2012-06-09T05:51:32Z</time>
      </trkpt>
      <trkpt lat="45.73526" lon="6.29156">
        <ele>697.79998779297</ele>
        <time>2012-06-09T05:51:47Z</time>
      </trkpt>
      <trkpt lat="45.73525" lon="6.29156">
        <ele>699</ele>
        <time>2012-06-09T05:51:48Z</time>
      </trkpt>
      <trkpt lat="45.73515" lon="6.29156">
        <ele>701.20001220703</ele>
        <time>2012-06-09T05:52:00Z</time>
      </trkpt>
      <trkpt lat="45.7351" lon="6.29156">
        <ele>702.20001220703</ele>
        <time>2012-06-09T05:52:08Z</time>
      </trkpt>
      <trkpt lat="45.73502" lon="6.29156">
        <ele>705.40002441406</ele>
        <time>2012-06-09T05:52:18Z</time>
      </trkpt>
      <trkpt lat="45.73499" lon="6.29156">
        <ele>706.40002441406</ele>
        <time>2012-06-09T05:52:21Z</time>
      </trkpt>
      <trkpt lat="45.7349" lon="6.2916">
        <ele>708.59997558594</ele>
        <time>2012-06-09T05:52:32Z</time>
      </trkpt>
      <trkpt lat="45.73485" lon="6.29162">
        <ele>709.59997558594</ele>
        <time>2012-06-09T05:52:37Z</time>
      </trkpt>
      <trkpt lat="45.73473" lon="6.29161">
        <ele>712</ele>
        <time>2012-06-09T05:52:48Z</time>
      </trkpt>
      <trkpt lat="45.73457" lon="6.29154">
        <ele>715.79998779297</ele>
        <time>2012-06-09T05:53:00Z</time>
      </trkpt>
      <trkpt lat="45.73451" lon="6.29147">
        <ele>716.79998779297</ele>
        <time>2012-06-09T05:53:07Z</time>
      </trkpt>
      <trkpt lat="45.73445" lon="6.29143">
        <ele>718</ele>
        <time>2012-06-09T05:53:14Z</time>
      </trkpt>
      <trkpt lat="45.73444" lon="6.29142">
        <ele>719</ele>
        <time>2012-06-09T05:53:16Z</time>
      </trkpt>
      <trkpt lat="45.73438" lon="6.29139">
        <ele>721.20001220703</ele>
        <time>2012-06-09T05:53:23Z</time>
      </trkpt>
      <trkpt lat="45.73433" lon="6.29137">
        <ele>722.40002441406</ele>
        <time>2012-06-09T05:53:28Z</time>
      </trkpt>
      <trkpt lat="45.73424" lon="6.29133">
        <ele>724.40002441406</ele>
        <time>2012-06-09T05:53:37Z</time>
      </trkpt>
      <trkpt lat="45.73423" lon="6.29132">
        <ele>724.40002441406</ele>
        <time>2012-06-09T05:53:38Z</time>
      </trkpt>
      <trkpt lat="45.73416" lon="6.29128">
        <ele>726.59997558594</ele>
        <time>2012-06-09T05:53:46Z</time>
      </trkpt>
      <trkpt lat="45.73403" lon="6.29125">
        <ele>730.79998779297</ele>
        <time>2012-06-09T05:54:02Z</time>
      </trkpt>
      <trkpt lat="45.73401" lon="6.29124">
        <ele>731.79998779297</ele>
        <time>2012-06-09T05:54:05Z</time>
      </trkpt>
      <trkpt lat="45.73394" lon="6.2912">
        <ele>733</ele>
        <time>2012-06-09T05:54:12Z</time>
      </trkpt>
      <trkpt lat="45.73389" lon="6.29119">
        <ele>735.20001220703</ele>
        <time>2012-06-09T05:54:17Z</time>
      </trkpt>
      <trkpt lat="45.73384" lon="6.29118">
        <ele>736.20001220703</ele>
        <time>2012-06-09T05:54:23Z</time>
      </trkpt>
      <trkpt lat="45.73382" lon="6.29118">
        <ele>737.40002441406</ele>
        <time>2012-06-09T05:54:25Z</time>
      </trkpt>
      <trkpt lat="45.7337" lon="6.29117">
        <ele>739.79998779297</ele>
        <time>2012-06-09T05:54:33Z</time>
      </trkpt>
      <trkpt lat="45.73365" lon="6.29117">
        <ele>740.79998779297</ele>
        <time>2012-06-09T05:54:36Z</time>
      </trkpt>
      <trkpt lat="45.7335" lon="6.29123">
        <ele>742</ele>
        <time>2012-06-09T05:54:44Z</time>
      </trkpt>
      <trkpt lat="45.73335" lon="6.29128">
        <ele>744</ele>
        <time>2012-06-09T05:54:54Z</time>
      </trkpt>
      <trkpt lat="45.73329" lon="6.29128">
        <ele>745</ele>
        <time>2012-06-09T05:54:58Z</time>
      </trkpt>
      <trkpt lat="45.7332" lon="6.29126">
        <ele>746</ele>
        <time>2012-06-09T05:55:08Z</time>
      </trkpt>
      <trkpt lat="45.73319" lon="6.29126">
        <ele>747.20001220703</ele>
        <time>2012-06-09T05:55:09Z</time>
      </trkpt>
      <trkpt lat="45.73311" lon="6.29121">
        <ele>749.40002441406</ele>
        <time>2012-06-09T05:55:17Z</time>
      </trkpt>
      <trkpt lat="45.73308" lon="6.2912">
        <ele>750.59997558594</ele>
        <time>2012-06-09T05:55:21Z</time>
      </trkpt>
      <trkpt lat="45.73298" lon="6.29118">
        <ele>751.79998779297</ele>
        <time>2012-06-09T05:55:30Z</time>
      </trkpt>
      <trkpt lat="45.73294" lon="6.29116">
        <ele>751.79998779297</ele>
        <time>2012-06-09T05:55:34Z</time>
      </trkpt>
      <trkpt lat="45.73286" lon="6.29114">
        <ele>753.79998779297</ele>
        <time>2012-06-09T05:55:40Z</time>
      </trkpt>
      <trkpt lat="45.73268" lon="6.29107">
        <ele>756</ele>
        <time>2012-06-09T05:55:52Z</time>
      </trkpt>
      <trkpt lat="45.73267" lon="6.29107">
        <ele>757.20001220703</ele>
        <time>2012-06-09T05:55:53Z</time>
      </trkpt>
      <trkpt lat="45.73263" lon="6.29106">
        <ele>758.40002441406</ele>
        <time>2012-06-09T05:55:56Z</time>
      </trkpt>
      <trkpt lat="45.73258" lon="6.29104">
        <ele>759.40002441406</ele>
        <time>2012-06-09T05:56:00Z</time>
      </trkpt>
      <trkpt lat="45.73253" lon="6.29101">
        <ele>761.59997558594</ele>
        <time>2012-06-09T05:56:04Z</time>
      </trkpt>
      <trkpt lat="45.73251" lon="6.29098">
        <ele>761.59997558594</ele>
        <time>2012-06-09T05:56:05Z</time>
      </trkpt>
      <trkpt lat="45.73225" lon="6.29079">
        <ele>763.59997558594</ele>
        <time>2012-06-09T05:56:18Z</time>
      </trkpt>
      <trkpt lat="45.73204" lon="6.29082">
        <ele>764.79998779297</ele>
        <time>2012-06-09T05:56:27Z</time>
      </trkpt>
      <trkpt lat="45.73184" lon="6.29086">
        <ele>766</ele>
        <time>2012-06-09T05:56:35Z</time>
      </trkpt>
      <trkpt lat="45.73139" lon="6.29107">
        <ele>767</ele>
        <time>2012-06-09T05:56:54Z</time>
      </trkpt>
      <trkpt lat="45.73115" lon="6.29111">
        <ele>768.20001220703</ele>
        <time>2012-06-09T05:57:04Z</time>
      </trkpt>
      <trkpt lat="45.73121" lon="6.29096">
        <ele>769.59997558594</ele>
        <time>2012-06-09T05:57:12Z</time>
      </trkpt>
      <trkpt lat="45.73123" lon="6.29091">
        <ele>769.59997558594</ele>
        <time>2012-06-09T05:57:14Z</time>
      </trkpt>
      <trkpt lat="45.73152" lon="6.29069">
        <ele>769.59997558594</ele>
        <time>2012-06-09T05:57:29Z</time>
      </trkpt>
      <trkpt lat="45.73169" lon="6.29059">
        <ele>771</ele>
        <time>2012-06-09T05:57:36Z</time>
      </trkpt>
      <trkpt lat="45.73193" lon="6.29039">
        <ele>771</ele>
        <time>2012-06-09T05:57:48Z</time>
      </trkpt>
      <trkpt lat="45.73194" lon="6.29037">
        <ele>772.20001220703</ele>
        <time>2012-06-09T05:57:49Z</time>
      </trkpt>
      <trkpt lat="45.73212" lon="6.29013">
        <ele>773.20001220703</ele>
        <time>2012-06-09T05:58:00Z</time>
      </trkpt>
      <trkpt lat="45.73247" lon="6.28979">
        <ele>775.40002441406</ele>
        <time>2012-06-09T05:58:19Z</time>
      </trkpt>
      <trkpt lat="45.73249" lon="6.28978">
        <ele>776.59997558594</ele>
        <time>2012-06-09T05:58:20Z</time>
      </trkpt>
      <trkpt lat="45.73266" lon="6.28971">
        <ele>778.79998779297</ele>
        <time>2012-06-09T05:58:28Z</time>
      </trkpt>
      <trkpt lat="45.7328" lon="6.28966">
        <ele>780</ele>
        <time>2012-06-09T05:58:35Z</time>
      </trkpt>
      <trkpt lat="45.73293" lon="6.28963">
        <ele>782.20001220703</ele>
        <time>2012-06-09T05:58:41Z</time>
      </trkpt>
      <trkpt lat="45.73295" lon="6.28962">
        <ele>782.20001220703</ele>
        <time>2012-06-09T05:58:42Z</time>
      </trkpt>
      <trkpt lat="45.73311" lon="6.28955">
        <ele>783.40002441406</ele>
        <time>2012-06-09T05:58:49Z</time>
      </trkpt>
      <trkpt lat="45.73317" lon="6.28955">
        <ele>783.40002441406</ele>
        <time>2012-06-09T05:58:52Z</time>
      </trkpt>
      <trkpt lat="45.73317" lon="6.28954">
        <ele>783.40002441406</ele>
        <time>2012-06-09T05:59:07Z</time>
      </trkpt>
      <trkpt lat="45.73316" lon="6.28925">
        <ele>784.59997558594</ele>
        <time>2012-06-09T05:59:17Z</time>
      </trkpt>
      <trkpt lat="45.73312" lon="6.289">
        <ele>785.59997558594</ele>
        <time>2012-06-09T05:59:24Z</time>
      </trkpt>
      <trkpt lat="45.73305" lon="6.28874">
        <ele>786.79998779297</ele>
        <time>2012-06-09T05:59:32Z</time>
      </trkpt>
      <trkpt lat="45.733" lon="6.28864">
        <ele>786.79998779297</ele>
        <time>2012-06-09T05:59:37Z</time>
      </trkpt>
      <trkpt lat="45.73296" lon="6.28857">
        <ele>789</ele>
        <time>2012-06-09T05:59:44Z</time>
      </trkpt>
      <trkpt lat="45.73294" lon="6.28854">
        <ele>790</ele>
        <time>2012-06-09T05:59:49Z</time>
      </trkpt>
      <trkpt lat="45.73286" lon="6.28846">
        <ele>792.20001220703</ele>
        <time>2012-06-09T05:59:58Z</time>
      </trkpt>
      <trkpt lat="45.73285" lon="6.28845">
        <ele>792.20001220703</ele>
        <time>2012-06-09T05:59:59Z</time>
      </trkpt>
      <trkpt lat="45.73276" lon="6.28837">
        <ele>795.59997558594</ele>
        <time>2012-06-09T06:00:11Z</time>
      </trkpt>
      <trkpt lat="45.73269" lon="6.28833">
        <ele>798.79998779297</ele>
        <time>2012-06-09T06:00:20Z</time>
      </trkpt>
      <trkpt lat="45.73268" lon="6.28833">
        <ele>798.79998779297</ele>
        <time>2012-06-09T06:00:21Z</time>
      </trkpt>
      <trkpt lat="45.73263" lon="6.28833">
        <ele>801</ele>
        <time>2012-06-09T06:00:29Z</time>
      </trkpt>
      <trkpt lat="45.73261" lon="6.28832">
        <ele>802</ele>
        <time>2012-06-09T06:00:33Z</time>
      </trkpt>
      <trkpt lat="45.73252" lon="6.2883">
        <ele>805.20001220703</ele>
        <time>2012-06-09T06:00:43Z</time>
      </trkpt>
      <trkpt lat="45.7325" lon="6.28828">
        <ele>805.20001220703</ele>
        <time>2012-06-09T06:00:45Z</time>
      </trkpt>
      <trkpt lat="45.73246" lon="6.28818">
        <ele>807.20001220703</ele>
        <time>2012-06-09T06:00:52Z</time>
      </trkpt>
      <trkpt lat="45.73242" lon="6.28812">
        <ele>808.40002441406</ele>
        <time>2012-06-09T06:00:56Z</time>
      </trkpt>
      <trkpt lat="45.73227" lon="6.28803">
        <ele>809.79998779297</ele>
        <time>2012-06-09T06:01:04Z</time>
      </trkpt>
      <trkpt lat="45.73212" lon="6.28793">
        <ele>814.20001220703</ele>
        <time>2012-06-09T06:01:13Z</time>
      </trkpt>
      <trkpt lat="45.73204" lon="6.28791">
        <ele>815.20001220703</ele>
        <time>2012-06-09T06:01:18Z</time>
      </trkpt>
      <trkpt lat="45.73194" lon="6.28781">
        <ele>819.20001220703</ele>
        <time>2012-06-09T06:01:26Z</time>
      </trkpt>
      <trkpt lat="45.73192" lon="6.28779">
        <ele>819.20001220703</ele>
        <time>2012-06-09T06:01:27Z</time>
      </trkpt>
      <trkpt lat="45.73186" lon="6.28775">
        <ele>821.40002441406</ele>
        <time>2012-06-09T06:01:31Z</time>
      </trkpt>
      <trkpt lat="45.73179" lon="6.28781">
        <ele>823.79998779297</ele>
        <time>2012-06-09T06:01:35Z</time>
      </trkpt>
      <trkpt lat="45.73176" lon="6.28789">
        <ele>825</ele>
        <time>2012-06-09T06:01:38Z</time>
      </trkpt>
      <trkpt lat="45.73174" lon="6.28795">
        <ele>825</ele>
        <time>2012-06-09T06:01:41Z</time>
      </trkpt>
      <trkpt lat="45.73169" lon="6.28811">
        <ele>826</ele>
        <time>2012-06-09T06:01:49Z</time>
      </trkpt>
      <trkpt lat="45.73157" lon="6.28833">
        <ele>828.20001220703</ele>
        <time>2012-06-09T06:02:02Z</time>
      </trkpt>
      <trkpt lat="45.73148" lon="6.28839">
        <ele>828.20001220703</ele>
        <time>2012-06-09T06:02:07Z</time>
      </trkpt>
      <trkpt lat="45.73142" lon="6.28847">
        <ele>828.20001220703</ele>
        <time>2012-06-09T06:02:11Z</time>
      </trkpt>
      <trkpt lat="45.73138" lon="6.28852">
        <ele>828.20001220703</ele>
        <time>2012-06-09T06:02:14Z</time>
      </trkpt>
      <trkpt lat="45.73128" lon="6.28861">
        <ele>829.20001220703</ele>
        <time>2012-06-09T06:02:20Z</time>
      </trkpt>
      <trkpt lat="45.73123" lon="6.28868">
        <ele>829.20001220703</ele>
        <time>2012-06-09T06:02:24Z</time>
      </trkpt>
      <trkpt lat="45.7312" lon="6.28872">
        <ele>825</ele>
        <time>2012-06-09T06:02:27Z</time>
      </trkpt>
      <trkpt lat="45.73117" lon="6.28878">
        <ele>825</ele>
        <time>2012-06-09T06:02:30Z</time>
      </trkpt>
      <trkpt lat="45.73112" lon="6.28886">
        <ele>822.79998779297</ele>
        <time>2012-06-09T06:02:33Z</time>
      </trkpt>
      <trkpt lat="45.73088" lon="6.28916">
        <ele>821.40002441406</ele>
        <time>2012-06-09T06:02:44Z</time>
      </trkpt>
      <trkpt lat="45.73076" lon="6.28927">
        <ele>821.40002441406</ele>
        <time>2012-06-09T06:02:50Z</time>
      </trkpt>
      <trkpt lat="45.73055" lon="6.28954">
        <ele>821.40002441406</ele>
        <time>2012-06-09T06:03:02Z</time>
      </trkpt>
      <trkpt lat="45.73048" lon="6.28962">
        <ele>821.40002441406</ele>
        <time>2012-06-09T06:03:06Z</time>
      </trkpt>
      <trkpt lat="45.73039" lon="6.28972">
        <ele>821.40002441406</ele>
        <time>2012-06-09T06:03:10Z</time>
      </trkpt>
      <trkpt lat="45.73024" lon="6.28977">
        <ele>821.40002441406</ele>
        <time>2012-06-09T06:03:17Z</time>
      </trkpt>
      <trkpt lat="45.73003" lon="6.28986">
        <ele>824.59997558594</ele>
        <time>2012-06-09T06:03:27Z</time>
      </trkpt>
      <trkpt lat="45.72994" lon="6.28989">
        <ele>824.59997558594</ele>
        <time>2012-06-09T06:03:31Z</time>
      </trkpt>
      <trkpt lat="45.72986" lon="6.28994">
        <ele>824.59997558594</ele>
        <time>2012-06-09T06:03:37Z</time>
      </trkpt>
      <trkpt lat="45.72973" lon="6.28991">
        <ele>827.79998779297</ele>
        <time>2012-06-09T06:03:54Z</time>
      </trkpt>
      <trkpt lat="45.72972" lon="6.28991">
        <ele>827.79998779297</ele>
        <time>2012-06-09T06:03:55Z</time>
      </trkpt>
      <trkpt lat="45.72964" lon="6.28988">
        <ele>830.79998779297</ele>
        <time>2012-06-09T06:04:06Z</time>
      </trkpt>
      <trkpt lat="45.72962" lon="6.28988">
        <ele>831.79998779297</ele>
        <time>2012-06-09T06:04:10Z</time>
      </trkpt>
      <trkpt lat="45.72956" lon="6.28986">
        <ele>834</ele>
        <time>2012-06-09T06:04:17Z</time>
      </trkpt>
      <trkpt lat="45.72953" lon="6.28984">
        <ele>835</ele>
        <time>2012-06-09T06:04:21Z</time>
      </trkpt>
      <trkpt lat="45.72947" lon="6.28979">
        <ele>837.20001220703</ele>
        <time>2012-06-09T06:04:28Z</time>
      </trkpt>
      <trkpt lat="45.72937" lon="6.28981">
        <ele>839.20001220703</ele>
        <time>2012-06-09T06:04:34Z</time>
      </trkpt>
      <trkpt lat="45.72926" lon="6.28976">
        <ele>839.20001220703</ele>
        <time>2012-06-09T06:04:42Z</time>
      </trkpt>
      <trkpt lat="45.72914" lon="6.28975">
        <ele>836</ele>
        <time>2012-06-09T06:04:52Z</time>
      </trkpt>
      <trkpt lat="45.72909" lon="6.28973">
        <ele>834.79998779297</ele>
        <time>2012-06-09T06:04:54Z</time>
      </trkpt>
      <trkpt lat="45.72897" lon="6.28967">
        <ele>833.59997558594</ele>
        <time>2012-06-09T06:04:58Z</time>
      </trkpt>
      <trkpt lat="45.72895" lon="6.28966">
        <ele>832.59997558594</ele>
        <time>2012-06-09T06:04:59Z</time>
      </trkpt>
      <trkpt lat="45.72881" lon="6.28957">
        <ele>830.40002441406</ele>
        <time>2012-06-09T06:05:05Z</time>
      </trkpt>
      <trkpt lat="45.72871" lon="6.2895">
        <ele>829.20001220703</ele>
        <time>2012-06-09T06:05:09Z</time>
      </trkpt>
      <trkpt lat="45.72859" lon="6.28945">
        <ele>826.59997558594</ele>
        <time>2012-06-09T06:05:15Z</time>
      </trkpt>
      <trkpt lat="45.72856" lon="6.28946">
        <ele>825.40002441406</ele>
        <time>2012-06-09T06:05:16Z</time>
      </trkpt>
      <trkpt lat="45.72843" lon="6.28946">
        <ele>822.20001220703</ele>
        <time>2012-06-09T06:05:21Z</time>
      </trkpt>
      <trkpt lat="45.72817" lon="6.2893">
        <ele>817.20001220703</ele>
        <time>2012-06-09T06:05:31Z</time>
      </trkpt>
      <trkpt lat="45.72814" lon="6.28928">
        <ele>817.20001220703</ele>
        <time>2012-06-09T06:05:32Z</time>
      </trkpt>
      <trkpt lat="45.72795" lon="6.2892">
        <ele>813.79998779297</ele>
        <time>2012-06-09T06:05:40Z</time>
      </trkpt>
      <trkpt lat="45.72789" lon="6.2892">
        <ele>812.40002441406</ele>
        <time>2012-06-09T06:05:43Z</time>
      </trkpt>
      <trkpt lat="45.7278" lon="6.28921">
        <ele>810</ele>
        <time>2012-06-09T06:05:47Z</time>
      </trkpt>
      <trkpt lat="45.72775" lon="6.28924">
        <ele>808.40002441406</ele>
        <time>2012-06-09T06:05:49Z</time>
      </trkpt>
      <trkpt lat="45.7275" lon="6.2891">
        <ele>808.40002441406</ele>
        <time>2012-06-09T06:06:03Z</time>
      </trkpt>
      <trkpt lat="45.72735" lon="6.28902">
        <ele>808.40002441406</ele>
        <time>2012-06-09T06:06:12Z</time>
      </trkpt>
      <trkpt lat="45.72729" lon="6.289">
        <ele>811.40002441406</ele>
        <time>2012-06-09T06:06:15Z</time>
      </trkpt>
      <trkpt lat="45.72707" lon="6.28905">
        <ele>812.40002441406</ele>
        <time>2012-06-09T06:06:26Z</time>
      </trkpt>
      <trkpt lat="45.72703" lon="6.28918">
        <ele>812.40002441406</ele>
        <time>2012-06-09T06:06:30Z</time>
      </trkpt>
      <trkpt lat="45.72696" lon="6.28929">
        <ele>807.79998779297</ele>
        <time>2012-06-09T06:06:34Z</time>
      </trkpt>
      <trkpt lat="45.72688" lon="6.28927">
        <ele>807.79998779297</ele>
        <time>2012-06-09T06:06:37Z</time>
      </trkpt>
      <trkpt lat="45.72656" lon="6.28913">
        <ele>807.79998779297</ele>
        <time>2012-06-09T06:06:50Z</time>
      </trkpt>
      <trkpt lat="45.72652" lon="6.2891">
        <ele>810</ele>
        <time>2012-06-09T06:06:52Z</time>
      </trkpt>
      <trkpt lat="45.7262" lon="6.28895">
        <ele>811.20001220703</ele>
        <time>2012-06-09T06:07:05Z</time>
      </trkpt>
      <trkpt lat="45.72604" lon="6.28897">
        <ele>811.20001220703</ele>
        <time>2012-06-09T06:07:10Z</time>
      </trkpt>
      <trkpt lat="45.72551" lon="6.28898">
        <ele>811.20001220703</ele>
        <time>2012-06-09T06:07:28Z</time>
      </trkpt>
      <trkpt lat="45.72499" lon="6.28917">
        <ele>811.20001220703</ele>
        <time>2012-06-09T06:07:50Z</time>
      </trkpt>
      <trkpt lat="45.72494" lon="6.28917">
        <ele>811.20001220703</ele>
        <time>2012-06-09T06:07:53Z</time>
      </trkpt>
      <trkpt lat="45.72486" lon="6.28925">
        <ele>808</ele>
        <time>2012-06-09T06:07:58Z</time>
      </trkpt>
      <trkpt lat="45.72478" lon="6.28933">
        <ele>808</ele>
        <time>2012-06-09T06:08:02Z</time>
      </trkpt>
      <trkpt lat="45.72468" lon="6.2894">
        <ele>806</ele>
        <time>2012-06-09T06:08:06Z</time>
      </trkpt>
      <trkpt lat="45.72466" lon="6.28941">
        <ele>804.59997558594</ele>
        <time>2012-06-09T06:08:07Z</time>
      </trkpt>
      <trkpt lat="45.72453" lon="6.28948">
        <ele>803.40002441406</ele>
        <time>2012-06-09T06:08:12Z</time>
      </trkpt>
      <trkpt lat="45.72442" lon="6.28952">
        <ele>801.20001220703</ele>
        <time>2012-06-09T06:08:16Z</time>
      </trkpt>
      <trkpt lat="45.72432" lon="6.28957">
        <ele>799.20001220703</ele>
        <time>2012-06-09T06:08:22Z</time>
      </trkpt>
      <trkpt lat="45.72425" lon="6.28977">
        <ele>794.79998779297</ele>
        <time>2012-06-09T06:08:30Z</time>
      </trkpt>
      <trkpt lat="45.72422" lon="6.28972">
        <ele>792.40002441406</ele>
        <time>2012-06-09T06:08:33Z</time>
      </trkpt>
      <trkpt lat="45.72419" lon="6.28963">
        <ele>791.20001220703</ele>
        <time>2012-06-09T06:08:38Z</time>
      </trkpt>
      <trkpt lat="45.72419" lon="6.28962">
        <ele>791.20001220703</ele>
        <time>2012-06-09T06:08:40Z</time>
      </trkpt>
      <trkpt lat="45.72414" lon="6.28957">
        <ele>790.20001220703</ele>
        <time>2012-06-09T06:08:48Z</time>
      </trkpt>
      <trkpt lat="45.72413" lon="6.28955">
        <ele>789</ele>
        <time>2012-06-09T06:08:50Z</time>
      </trkpt>
      <trkpt lat="45.72405" lon="6.2895">
        <ele>787.79998779297</ele>
        <time>2012-06-09T06:08:56Z</time>
      </trkpt>
      <trkpt lat="45.72403" lon="6.28948">
        <ele>786.59997558594</ele>
        <time>2012-06-09T06:08:57Z</time>
      </trkpt>
      <trkpt lat="45.72394" lon="6.28941">
        <ele>784.40002441406</ele>
        <time>2012-06-09T06:09:02Z</time>
      </trkpt>
      <trkpt lat="45.72375" lon="6.28925">
        <ele>782</ele>
        <time>2012-06-09T06:09:11Z</time>
      </trkpt>
      <trkpt lat="45.72369" lon="6.28918">
        <ele>782</ele>
        <time>2012-06-09T06:09:15Z</time>
      </trkpt>
      <trkpt lat="45.7236" lon="6.28909">
        <ele>779.79998779297</ele>
        <time>2012-06-09T06:09:20Z</time>
      </trkpt>
      <trkpt lat="45.72356" lon="6.28904">
        <ele>778.59997558594</ele>
        <time>2012-06-09T06:09:22Z</time>
      </trkpt>
      <trkpt lat="45.72348" lon="6.28903">
        <ele>775</ele>
        <time>2012-06-09T06:09:25Z</time>
      </trkpt>
      <trkpt lat="45.72342" lon="6.28904">
        <ele>773.79998779297</ele>
        <time>2012-06-09T06:09:27Z</time>
      </trkpt>
      <trkpt lat="45.72326" lon="6.28906">
        <ele>771.40002441406</ele>
        <time>2012-06-09T06:09:32Z</time>
      </trkpt>
      <trkpt lat="45.7232" lon="6.28903">
        <ele>769.20001220703</ele>
        <time>2012-06-09T06:09:35Z</time>
      </trkpt>
      <trkpt lat="45.72312" lon="6.28903">
        <ele>766.79998779297</ele>
        <time>2012-06-09T06:09:40Z</time>
      </trkpt>
      <trkpt lat="45.72302" lon="6.289">
        <ele>762</ele>
        <time>2012-06-09T06:09:45Z</time>
      </trkpt>
      <trkpt lat="45.72293" lon="6.28897">
        <ele>760.59997558594</ele>
        <time>2012-06-09T06:09:49Z</time>
      </trkpt>
      <trkpt lat="45.72281" lon="6.28897">
        <ele>759</ele>
        <time>2012-06-09T06:09:55Z</time>
      </trkpt>
      <trkpt lat="45.72276" lon="6.28902">
        <ele>759</ele>
        <time>2012-06-09T06:09:57Z</time>
      </trkpt>
      <trkpt lat="45.72267" lon="6.28904">
        <ele>758</ele>
        <time>2012-06-09T06:10:01Z</time>
      </trkpt>
      <trkpt lat="45.72251" lon="6.28907">
        <ele>758</ele>
        <time>2012-06-09T06:10:09Z</time>
      </trkpt>
      <trkpt lat="45.72249" lon="6.28911">
        <ele>762</ele>
        <time>2012-06-09T06:10:15Z</time>
      </trkpt>
      <trkpt lat="45.72246" lon="6.28912">
        <ele>763.20001220703</ele>
        <time>2012-06-09T06:10:18Z</time>
      </trkpt>
      <trkpt lat="45.72241" lon="6.28916">
        <ele>765.40002441406</ele>
        <time>2012-06-09T06:10:26Z</time>
      </trkpt>
      <trkpt lat="45.72237" lon="6.28912">
        <ele>768.59997558594</ele>
        <time>2012-06-09T06:10:36Z</time>
      </trkpt>
      <trkpt lat="45.72235" lon="6.28911">
        <ele>768.59997558594</ele>
        <time>2012-06-09T06:10:38Z</time>
      </trkpt>
      <trkpt lat="45.72232" lon="6.28917">
        <ele>770.79998779297</ele>
        <time>2012-06-09T06:10:43Z</time>
      </trkpt>
      <trkpt lat="45.7223" lon="6.2892">
        <ele>771.79998779297</ele>
        <time>2012-06-09T06:10:47Z</time>
      </trkpt>
      <trkpt lat="45.72225" lon="6.28925">
        <ele>773.79998779297</ele>
        <time>2012-06-09T06:10:53Z</time>
      </trkpt>
      <trkpt lat="45.72224" lon="6.28928">
        <ele>775</ele>
        <time>2012-06-09T06:10:55Z</time>
      </trkpt>
      <trkpt lat="45.72216" lon="6.28936">
        <ele>776</ele>
        <time>2012-06-09T06:11:03Z</time>
      </trkpt>
      <trkpt lat="45.72212" lon="6.28946">
        <ele>777</ele>
        <time>2012-06-09T06:11:09Z</time>
      </trkpt>
      <trkpt lat="45.72209" lon="6.28956">
        <ele>779.20001220703</ele>
        <time>2012-06-09T06:11:15Z</time>
      </trkpt>
      <trkpt lat="45.72204" lon="6.2898">
        <ele>781.20001220703</ele>
        <time>2012-06-09T06:11:28Z</time>
      </trkpt>
      <trkpt lat="45.72203" lon="6.28987">
        <ele>782.20001220703</ele>
        <time>2012-06-09T06:11:32Z</time>
      </trkpt>
      <trkpt lat="45.72209" lon="6.28992">
        <ele>784.40002441406</ele>
        <time>2012-06-09T06:11:39Z</time>
      </trkpt>
      <trkpt lat="45.72211" lon="6.28994">
        <ele>784.40002441406</ele>
        <time>2012-06-09T06:11:41Z</time>
      </trkpt>
      <trkpt lat="45.72214" lon="6.29">
        <ele>786.40002441406</ele>
        <time>2012-06-09T06:11:45Z</time>
      </trkpt>
      <trkpt lat="45.72216" lon="6.29013">
        <ele>786.40002441406</ele>
        <time>2012-06-09T06:11:50Z</time>
      </trkpt>
      <trkpt lat="45.72218" lon="6.29026">
        <ele>788.79998779297</ele>
        <time>2012-06-09T06:11:56Z</time>
      </trkpt>
      <trkpt lat="45.72219" lon="6.29028">
        <ele>788.79998779297</ele>
        <time>2012-06-09T06:11:57Z</time>
      </trkpt>
      <trkpt lat="45.72233" lon="6.29035">
        <ele>789.79998779297</ele>
        <time>2012-06-09T06:12:08Z</time>
      </trkpt>
      <trkpt lat="45.72243" lon="6.29041">
        <ele>793</ele>
        <time>2012-06-09T06:12:20Z</time>
      </trkpt>
      <trkpt lat="45.72247" lon="6.29041">
        <ele>794</ele>
        <time>2012-06-09T06:12:24Z</time>
      </trkpt>
      <trkpt lat="45.72254" lon="6.29045">
        <ele>795</ele>
        <time>2012-06-09T06:12:30Z</time>
      </trkpt>
      <trkpt lat="45.72257" lon="6.29049">
        <ele>797.20001220703</ele>
        <time>2012-06-09T06:12:35Z</time>
      </trkpt>
      <trkpt lat="45.72255" lon="6.29049">
        <ele>799.59997558594</ele>
        <time>2012-06-09T06:12:43Z</time>
      </trkpt>
      <trkpt lat="45.72252" lon="6.29048">
        <ele>799.59997558594</ele>
        <time>2012-06-09T06:12:47Z</time>
      </trkpt>
      <trkpt lat="45.72249" lon="6.29051">
        <ele>801.79998779297</ele>
        <time>2012-06-09T06:12:53Z</time>
      </trkpt>
      <trkpt lat="45.72246" lon="6.29056">
        <ele>803</ele>
        <time>2012-06-09T06:12:59Z</time>
      </trkpt>
      <trkpt lat="45.72237" lon="6.29056">
        <ele>804</ele>
        <time>2012-06-09T06:13:08Z</time>
      </trkpt>
      <trkpt lat="45.72233" lon="6.29056">
        <ele>806.20001220703</ele>
        <time>2012-06-09T06:13:15Z</time>
      </trkpt>
      <trkpt lat="45.72227" lon="6.29057">
        <ele>807.20001220703</ele>
        <time>2012-06-09T06:13:21Z</time>
      </trkpt>
      <trkpt lat="45.72221" lon="6.29057">
        <ele>809.40002441406</ele>
        <time>2012-06-09T06:13:27Z</time>
      </trkpt>
      <trkpt lat="45.7222" lon="6.29057">
        <ele>809.40002441406</ele>
        <time>2012-06-09T06:13:28Z</time>
      </trkpt>
      <trkpt lat="45.72212" lon="6.29059">
        <ele>811.40002441406</ele>
        <time>2012-06-09T06:13:36Z</time>
      </trkpt>
      <trkpt lat="45.72207" lon="6.29058">
        <ele>812.59997558594</ele>
        <time>2012-06-09T06:13:43Z</time>
      </trkpt>
      <trkpt lat="45.72204" lon="6.29054">
        <ele>815</ele>
        <time>2012-06-09T06:13:47Z</time>
      </trkpt>
      <trkpt lat="45.72203" lon="6.29052">
        <ele>816.20001220703</ele>
        <time>2012-06-09T06:13:49Z</time>
      </trkpt>
      <trkpt lat="45.72194" lon="6.29045">
        <ele>818.20001220703</ele>
        <time>2012-06-09T06:13:57Z</time>
      </trkpt>
      <trkpt lat="45.72179" lon="6.29038">
        <ele>821.59997558594</ele>
        <time>2012-06-09T06:14:12Z</time>
      </trkpt>
      <trkpt lat="45.72178" lon="6.29038">
        <ele>822.59997558594</ele>
        <time>2012-06-09T06:14:13Z</time>
      </trkpt>
      <trkpt lat="45.72167" lon="6.29033">
        <ele>824.79998779297</ele>
        <time>2012-06-09T06:14:23Z</time>
      </trkpt>
      <trkpt lat="45.72158" lon="6.29026">
        <ele>826.79998779297</ele>
        <time>2012-06-09T06:14:32Z</time>
      </trkpt>
      <trkpt lat="45.72151" lon="6.29021">
        <ele>830</ele>
        <time>2012-06-09T06:14:42Z</time>
      </trkpt>
      <trkpt lat="45.72148" lon="6.29018">
        <ele>831</ele>
        <time>2012-06-09T06:14:44Z</time>
      </trkpt>
      <trkpt lat="45.72142" lon="6.29011">
        <ele>833.40002441406</ele>
        <time>2012-06-09T06:14:52Z</time>
      </trkpt>
      <trkpt lat="45.72138" lon="6.29008">
        <ele>835.40002441406</ele>
        <time>2012-06-09T06:14:57Z</time>
      </trkpt>
      <trkpt lat="45.72138" lon="6.29017">
        <ele>836.40002441406</ele>
        <time>2012-06-09T06:15:02Z</time>
      </trkpt>
      <trkpt lat="45.72144" lon="6.29052">
        <ele>837.40002441406</ele>
        <time>2012-06-09T06:15:13Z</time>
      </trkpt>
      <trkpt lat="45.72143" lon="6.29065">
        <ele>837.40002441406</ele>
        <time>2012-06-09T06:15:16Z</time>
      </trkpt>
      <trkpt lat="45.72137" lon="6.29127">
        <ele>837.40002441406</ele>
        <time>2012-06-09T06:15:31Z</time>
      </trkpt>
      <trkpt lat="45.72138" lon="6.29131">
        <ele>837.40002441406</ele>
        <time>2012-06-09T06:15:32Z</time>
      </trkpt>
      <trkpt lat="45.7215" lon="6.29152">
        <ele>837.40002441406</ele>
        <time>2012-06-09T06:15:39Z</time>
      </trkpt>
      <trkpt lat="45.72158" lon="6.29164">
        <ele>834</ele>
        <time>2012-06-09T06:15:44Z</time>
      </trkpt>
      <trkpt lat="45.72162" lon="6.29185">
        <ele>834</ele>
        <time>2012-06-09T06:15:49Z</time>
      </trkpt>
      <trkpt lat="45.72164" lon="6.29199">
        <ele>832.79998779297</ele>
        <time>2012-06-09T06:15:52Z</time>
      </trkpt>
      <trkpt lat="45.72165" lon="6.29224">
        <ele>831.59997558594</ele>
        <time>2012-06-09T06:15:58Z</time>
      </trkpt>
      <trkpt lat="45.72175" lon="6.29284">
        <ele>829</ele>
        <time>2012-06-09T06:16:13Z</time>
      </trkpt>
      <trkpt lat="45.72177" lon="6.29297">
        <ele>829</ele>
        <time>2012-06-09T06:16:16Z</time>
      </trkpt>
      <trkpt lat="45.72171" lon="6.29341">
        <ele>827.59997558594</ele>
        <time>2012-06-09T06:16:25Z</time>
      </trkpt>
      <trkpt lat="45.72164" lon="6.29384">
        <ele>827.59997558594</ele>
        <time>2012-06-09T06:16:34Z</time>
      </trkpt>
      <trkpt lat="45.7216" lon="6.29415">
        <ele>826.40002441406</ele>
        <time>2012-06-09T06:16:41Z</time>
      </trkpt>
      <trkpt lat="45.72157" lon="6.29415">
        <ele>826.40002441406</ele>
        <time>2012-06-09T06:16:43Z</time>
      </trkpt>
      <trkpt lat="45.72153" lon="6.29389">
        <ele>826.40002441406</ele>
        <time>2012-06-09T06:16:52Z</time>
      </trkpt>
      <trkpt lat="45.72146" lon="6.29385">
        <ele>829.79998779297</ele>
        <time>2012-06-09T06:16:56Z</time>
      </trkpt>
      <trkpt lat="45.7214" lon="6.2938">
        <ele>830.79998779297</ele>
        <time>2012-06-09T06:17:00Z</time>
      </trkpt>
      <trkpt lat="45.72133" lon="6.29373">
        <ele>833</ele>
        <time>2012-06-09T06:17:07Z</time>
      </trkpt>
      <trkpt lat="45.7213" lon="6.29368">
        <ele>834</ele>
        <time>2012-06-09T06:17:12Z</time>
      </trkpt>
      <trkpt lat="45.72126" lon="6.29362">
        <ele>835.20001220703</ele>
        <time>2012-06-09T06:17:18Z</time>
      </trkpt>
      <trkpt lat="45.72124" lon="6.2936">
        <ele>836.20001220703</ele>
        <time>2012-06-09T06:17:20Z</time>
      </trkpt>
      <trkpt lat="45.7212" lon="6.29355">
        <ele>837.20001220703</ele>
        <time>2012-06-09T06:17:25Z</time>
      </trkpt>
      <trkpt lat="45.72113" lon="6.29346">
        <ele>839.40002441406</ele>
        <time>2012-06-09T06:17:33Z</time>
      </trkpt>
      <trkpt lat="45.72103" lon="6.29334">
        <ele>840.59997558594</ele>
        <time>2012-06-09T06:17:43Z</time>
      </trkpt>
      <trkpt lat="45.72102" lon="6.29333">
        <ele>841.59997558594</ele>
        <time>2012-06-09T06:17:44Z</time>
      </trkpt>
      <trkpt lat="45.72093" lon="6.29332">
        <ele>843.79998779297</ele>
        <time>2012-06-09T06:17:52Z</time>
      </trkpt>
      <trkpt lat="45.72081" lon="6.29329">
        <ele>846.79998779297</ele>
        <time>2012-06-09T06:18:04Z</time>
      </trkpt>
      <trkpt lat="45.72081" lon="6.29329">
        <ele>846.79998779297</ele>
        <time>2012-06-09T06:18:05Z</time>
      </trkpt>
      <trkpt lat="45.72074" lon="6.29328">
        <ele>849</ele>
        <time>2012-06-09T06:18:12Z</time>
      </trkpt>
      <trkpt lat="45.72069" lon="6.29327">
        <ele>850</ele>
        <time>2012-06-09T06:18:18Z</time>
      </trkpt>
      <trkpt lat="45.72056" lon="6.29327">
        <ele>852.20001220703</ele>
        <time>2012-06-09T06:18:29Z</time>
      </trkpt>
      <trkpt lat="45.72053" lon="6.29326">
        <ele>853.40002441406</ele>
        <time>2012-06-09T06:18:31Z</time>
      </trkpt>
      <trkpt lat="45.72046" lon="6.29323">
        <ele>854.40002441406</ele>
        <time>2012-06-09T06:18:37Z</time>
      </trkpt>
      <trkpt lat="45.72043" lon="6.29321">
        <ele>855.59997558594</ele>
        <time>2012-06-09T06:18:41Z</time>
      </trkpt>
      <trkpt lat="45.72038" lon="6.29319">
        <ele>856.59997558594</ele>
        <time>2012-06-09T06:18:46Z</time>
      </trkpt>
      <trkpt lat="45.7203" lon="6.29312">
        <ele>857.79998779297</ele>
        <time>2012-06-09T06:18:54Z</time>
      </trkpt>
      <trkpt lat="45.72028" lon="6.29311">
        <ele>858.79998779297</ele>
        <time>2012-06-09T06:18:56Z</time>
      </trkpt>
      <trkpt lat="45.72022" lon="6.29307">
        <ele>861</ele>
        <time>2012-06-09T06:19:02Z</time>
      </trkpt>
      <trkpt lat="45.72018" lon="6.29304">
        <ele>861</ele>
        <time>2012-06-09T06:19:06Z</time>
      </trkpt>
      <trkpt lat="45.7201" lon="6.29295">
        <ele>863.40002441406</ele>
        <time>2012-06-09T06:19:15Z</time>
      </trkpt>
      <trkpt lat="45.72006" lon="6.29291">
        <ele>864.40002441406</ele>
        <time>2012-06-09T06:19:19Z</time>
      </trkpt>
      <trkpt lat="45.7199" lon="6.2927">
        <ele>867.40002441406</ele>
        <time>2012-06-09T06:19:33Z</time>
      </trkpt>
      <trkpt lat="45.71987" lon="6.29265">
        <ele>867.40002441406</ele>
        <time>2012-06-09T06:19:36Z</time>
      </trkpt>
      <trkpt lat="45.71979" lon="6.29253">
        <ele>869.59997558594</ele>
        <time>2012-06-09T06:19:43Z</time>
      </trkpt>
      <trkpt lat="45.71963" lon="6.29234">
        <ele>872.79998779297</ele>
        <time>2012-06-09T06:19:58Z</time>
      </trkpt>
      <trkpt lat="45.71962" lon="6.29233">
        <ele>873.79998779297</ele>
        <time>2012-06-09T06:19:59Z</time>
      </trkpt>
      <trkpt lat="45.71955" lon="6.29222">
        <ele>876.20001220703</ele>
        <time>2012-06-09T06:20:06Z</time>
      </trkpt>
      <trkpt lat="45.71954" lon="6.29219">
        <ele>877.20001220703</ele>
        <time>2012-06-09T06:20:09Z</time>
      </trkpt>
      <trkpt lat="45.71947" lon="6.2921">
        <ele>879.40002441406</ele>
        <time>2012-06-09T06:20:15Z</time>
      </trkpt>
      <trkpt lat="45.71945" lon="6.29209">
        <ele>879.40002441406</ele>
        <time>2012-06-09T06:20:16Z</time>
      </trkpt>
      <trkpt lat="45.71921" lon="6.29201">
        <ele>882</ele>
        <time>2012-06-09T06:20:28Z</time>
      </trkpt>
      <trkpt lat="45.719" lon="6.29205">
        <ele>883</ele>
        <time>2012-06-09T06:20:37Z</time>
      </trkpt>
      <trkpt lat="45.71878" lon="6.29208">
        <ele>885.20001220703</ele>
        <time>2012-06-09T06:20:47Z</time>
      </trkpt>
      <trkpt lat="45.71863" lon="6.29211">
        <ele>886.40002441406</ele>
        <time>2012-06-09T06:20:54Z</time>
      </trkpt>
      <trkpt lat="45.71851" lon="6.29222">
        <ele>887.59997558594</ele>
        <time>2012-06-09T06:21:01Z</time>
      </trkpt>
      <trkpt lat="45.71845" lon="6.29239">
        <ele>890</ele>
        <time>2012-06-09T06:21:10Z</time>
      </trkpt>
      <trkpt lat="45.71845" lon="6.29241">
        <ele>890</ele>
        <time>2012-06-09T06:21:11Z</time>
      </trkpt>
      <trkpt lat="45.7184" lon="6.29273">
        <ele>891</ele>
        <time>2012-06-09T06:21:22Z</time>
      </trkpt>
      <trkpt lat="45.71833" lon="6.29287">
        <ele>892.20001220703</ele>
        <time>2012-06-09T06:21:28Z</time>
      </trkpt>
      <trkpt lat="45.71815" lon="6.29299">
        <ele>894.40002441406</ele>
        <time>2012-06-09T06:21:37Z</time>
      </trkpt>
      <trkpt lat="45.71813" lon="6.29301">
        <ele>895.59997558594</ele>
        <time>2012-06-09T06:21:38Z</time>
      </trkpt>
      <trkpt lat="45.71798" lon="6.29313">
        <ele>896.59997558594</ele>
        <time>2012-06-09T06:21:46Z</time>
      </trkpt>
      <trkpt lat="45.71766" lon="6.29344">
        <ele>899</ele>
        <time>2012-06-09T06:22:01Z</time>
      </trkpt>
      <trkpt lat="45.71763" lon="6.29349">
        <ele>900</ele>
        <time>2012-06-09T06:22:03Z</time>
      </trkpt>
      <trkpt lat="45.71752" lon="6.29369">
        <ele>901.20001220703</ele>
        <time>2012-06-09T06:22:12Z</time>
      </trkpt>
      <trkpt lat="45.71748" lon="6.29384">
        <ele>902.20001220703</ele>
        <time>2012-06-09T06:22:17Z</time>
      </trkpt>
      <trkpt lat="45.71744" lon="6.29409">
        <ele>904.40002441406</ele>
        <time>2012-06-09T06:22:25Z</time>
      </trkpt>
      <trkpt lat="45.71742" lon="6.29419">
        <ele>904.40002441406</ele>
        <time>2012-06-09T06:22:28Z</time>
      </trkpt>
      <trkpt lat="45.71714" lon="6.29471">
        <ele>901.20001220703</ele>
        <time>2012-06-09T06:22:45Z</time>
      </trkpt>
      <trkpt lat="45.71706" lon="6.29483">
        <ele>898.40002441406</ele>
        <time>2012-06-09T06:22:49Z</time>
      </trkpt>
      <trkpt lat="45.71686" lon="6.29519">
        <ele>896.20001220703</ele>
        <time>2012-06-09T06:22:57Z</time>
      </trkpt>
      <trkpt lat="45.71674" lon="6.29559">
        <ele>896.20001220703</ele>
        <time>2012-06-09T06:23:10Z</time>
      </trkpt>
      <trkpt lat="45.71668" lon="6.29573">
        <ele>896.20001220703</ele>
        <time>2012-06-09T06:23:15Z</time>
      </trkpt>
      <trkpt lat="45.71655" lon="6.2961">
        <ele>893.79998779297</ele>
        <time>2012-06-09T06:23:24Z</time>
      </trkpt>
      <trkpt lat="45.71656" lon="6.29613">
        <ele>893.79998779297</ele>
        <time>2012-06-09T06:23:25Z</time>
      </trkpt>
      <trkpt lat="45.71655" lon="6.29626">
        <ele>891</ele>
        <time>2012-06-09T06:23:28Z</time>
      </trkpt>
      <trkpt lat="45.71652" lon="6.29637">
        <ele>890</ele>
        <time>2012-06-09T06:23:31Z</time>
      </trkpt>
      <trkpt lat="45.71648" lon="6.29662">
        <ele>887.40002441406</ele>
        <time>2012-06-09T06:23:37Z</time>
      </trkpt>
      <trkpt lat="45.71648" lon="6.29666">
        <ele>886.40002441406</ele>
        <time>2012-06-09T06:23:38Z</time>
      </trkpt>
      <trkpt lat="45.71649" lon="6.29686">
        <ele>884.20001220703</ele>
        <time>2012-06-09T06:23:43Z</time>
      </trkpt>
      <trkpt lat="45.71648" lon="6.29702">
        <ele>879.79998779297</ele>
        <time>2012-06-09T06:23:48Z</time>
      </trkpt>
      <trkpt lat="45.71647" lon="6.29707">
        <ele>878.59997558594</ele>
        <time>2012-06-09T06:23:49Z</time>
      </trkpt>
      <trkpt lat="45.71645" lon="6.29719">
        <ele>877.59997558594</ele>
        <time>2012-06-09T06:23:55Z</time>
      </trkpt>
      <trkpt lat="45.71645" lon="6.29725">
        <ele>875.20001220703</ele>
        <time>2012-06-09T06:23:57Z</time>
      </trkpt>
      <trkpt lat="45.71645" lon="6.29737">
        <ele>873.79998779297</ele>
        <time>2012-06-09T06:24:00Z</time>
      </trkpt>
      <trkpt lat="45.71646" lon="6.2974">
        <ele>872.59997558594</ele>
        <time>2012-06-09T06:24:01Z</time>
      </trkpt>
      <trkpt lat="45.71648" lon="6.29747">
        <ele>870.40002441406</ele>
        <time>2012-06-09T06:24:04Z</time>
      </trkpt>
      <trkpt lat="45.71651" lon="6.29757">
        <ele>868</ele>
        <time>2012-06-09T06:24:07Z</time>
      </trkpt>
      <trkpt lat="45.71648" lon="6.29771">
        <ele>864.40002441406</ele>
        <time>2012-06-09T06:24:11Z</time>
      </trkpt>
      <trkpt lat="45.71645" lon="6.29785">
        <ele>860.79998779297</ele>
        <time>2012-06-09T06:24:15Z</time>
      </trkpt>
      <trkpt lat="45.71644" lon="6.2979">
        <ele>859.79998779297</ele>
        <time>2012-06-09T06:24:17Z</time>
      </trkpt>
      <trkpt lat="45.71637" lon="6.2981">
        <ele>856.40002441406</ele>
        <time>2012-06-09T06:24:24Z</time>
      </trkpt>
      <trkpt lat="45.71635" lon="6.29814">
        <ele>855.20001220703</ele>
        <time>2012-06-09T06:24:25Z</time>
      </trkpt>
      <trkpt lat="45.71627" lon="6.29832">
        <ele>852.79998779297</ele>
        <time>2012-06-09T06:24:29Z</time>
      </trkpt>
      <trkpt lat="45.71622" lon="6.29843">
        <ele>850.40002441406</ele>
        <time>2012-06-09T06:24:32Z</time>
      </trkpt>
      <trkpt lat="45.71618" lon="6.29859">
        <ele>848</ele>
        <time>2012-06-09T06:24:36Z</time>
      </trkpt>
      <trkpt lat="45.71616" lon="6.29863">
        <ele>848</ele>
        <time>2012-06-09T06:24:37Z</time>
      </trkpt>
      <trkpt lat="45.71607" lon="6.29883">
        <ele>844</ele>
        <time>2012-06-09T06:24:42Z</time>
      </trkpt>
      <trkpt lat="45.71595" lon="6.2991">
        <ele>839</ele>
        <time>2012-06-09T06:24:50Z</time>
      </trkpt>
      <trkpt lat="45.71593" lon="6.29913">
        <ele>837.59997558594</ele>
        <time>2012-06-09T06:24:51Z</time>
      </trkpt>
      <trkpt lat="45.71586" lon="6.29935">
        <ele>835.20001220703</ele>
        <time>2012-06-09T06:24:56Z</time>
      </trkpt>
      <trkpt lat="45.71575" lon="6.29958">
        <ele>832.79998779297</ele>
        <time>2012-06-09T06:25:01Z</time>
      </trkpt>
      <trkpt lat="45.71566" lon="6.29981">
        <ele>829</ele>
        <time>2012-06-09T06:25:06Z</time>
      </trkpt>
      <trkpt lat="45.71564" lon="6.29998">
        <ele>827.59997558594</ele>
        <time>2012-06-09T06:25:10Z</time>
      </trkpt>
      <trkpt lat="45.7156" lon="6.30018">
        <ele>825.20001220703</ele>
        <time>2012-06-09T06:25:15Z</time>
      </trkpt>
      <trkpt lat="45.71547" lon="6.30022">
        <ele>825.20001220703</ele>
        <time>2012-06-09T06:25:19Z</time>
      </trkpt>
      <trkpt lat="45.71499" lon="6.30023">
        <ele>825.20001220703</ele>
        <time>2012-06-09T06:25:36Z</time>
      </trkpt>
      <trkpt lat="45.71471" lon="6.30031">
        <ele>829.40002441406</ele>
        <time>2012-06-09T06:25:47Z</time>
      </trkpt>
      <trkpt lat="45.71457" lon="6.30032">
        <ele>830.59997558594</ele>
        <time>2012-06-09T06:25:53Z</time>
      </trkpt>
      <trkpt lat="45.71437" lon="6.30031">
        <ele>833</ele>
        <time>2012-06-09T06:26:01Z</time>
      </trkpt>
      <trkpt lat="45.71431" lon="6.3003">
        <ele>834.20001220703</ele>
        <time>2012-06-09T06:26:04Z</time>
      </trkpt>
      <trkpt lat="45.71418" lon="6.30026">
        <ele>835.20001220703</ele>
        <time>2012-06-09T06:26:13Z</time>
      </trkpt>
      <trkpt lat="45.71411" lon="6.30023">
        <ele>836.20001220703</ele>
        <time>2012-06-09T06:26:18Z</time>
      </trkpt>
      <trkpt lat="45.71398" lon="6.30019">
        <ele>838.40002441406</ele>
        <time>2012-06-09T06:26:28Z</time>
      </trkpt>
      <trkpt lat="45.71393" lon="6.30018">
        <ele>838.40002441406</ele>
        <time>2012-06-09T06:26:31Z</time>
      </trkpt>
      <trkpt lat="45.71381" lon="6.30014">
        <ele>840.40002441406</ele>
        <time>2012-06-09T06:26:40Z</time>
      </trkpt>
      <trkpt lat="45.7136" lon="6.30007">
        <ele>843.59997558594</ele>
        <time>2012-06-09T06:26:55Z</time>
      </trkpt>
      <trkpt lat="45.71354" lon="6.30007">
        <ele>843.59997558594</ele>
        <time>2012-06-09T06:26:59Z</time>
      </trkpt>
      <trkpt lat="45.71345" lon="6.30005">
        <ele>845.79998779297</ele>
        <time>2012-06-09T06:27:05Z</time>
      </trkpt>
      <trkpt lat="45.7134" lon="6.30004">
        <ele>846.79998779297</ele>
        <time>2012-06-09T06:27:08Z</time>
      </trkpt>
      <trkpt lat="45.71326" lon="6.30003">
        <ele>849</ele>
        <time>2012-06-09T06:27:16Z</time>
      </trkpt>
      <trkpt lat="45.71317" lon="6.30003">
        <ele>849</ele>
        <time>2012-06-09T06:27:21Z</time>
      </trkpt>
      <trkpt lat="45.71306" lon="6.30005">
        <ele>851.40002441406</ele>
        <time>2012-06-09T06:27:27Z</time>
      </trkpt>
      <trkpt lat="45.71302" lon="6.30007">
        <ele>852.40002441406</ele>
        <time>2012-06-09T06:27:29Z</time>
      </trkpt>
      <trkpt lat="45.71287" lon="6.30016">
        <ele>853.59997558594</ele>
        <time>2012-06-09T06:27:38Z</time>
      </trkpt>
      <trkpt lat="45.71265" lon="6.30028">
        <ele>856.40002441406</ele>
        <time>2012-06-09T06:27:49Z</time>
      </trkpt>
      <trkpt lat="45.71239" lon="6.30036">
        <ele>856.40002441406</ele>
        <time>2012-06-09T06:27:59Z</time>
      </trkpt>
      <trkpt lat="45.7121" lon="6.30036">
        <ele>856.40002441406</ele>
        <time>2012-06-09T06:28:09Z</time>
      </trkpt>
      <trkpt lat="45.71204" lon="6.30034">
        <ele>853.20001220703</ele>
        <time>2012-06-09T06:28:11Z</time>
      </trkpt>
      <trkpt lat="45.7117" lon="6.30007">
        <ele>853.20001220703</ele>
        <time>2012-06-09T06:28:24Z</time>
      </trkpt>
      <trkpt lat="45.7115" lon="6.29988">
        <ele>853.20001220703</ele>
        <time>2012-06-09T06:28:35Z</time>
      </trkpt>
      <trkpt lat="45.71137" lon="6.29981">
        <ele>855.20001220703</ele>
        <time>2012-06-09T06:28:42Z</time>
      </trkpt>
      <trkpt lat="45.71135" lon="6.2998">
        <ele>855.20001220703</ele>
        <time>2012-06-09T06:28:43Z</time>
      </trkpt>
      <trkpt lat="45.71114" lon="6.29967">
        <ele>856.40002441406</ele>
        <time>2012-06-09T06:28:53Z</time>
      </trkpt>
      <trkpt lat="45.71066" lon="6.29952">
        <ele>858.79998779297</ele>
        <time>2012-06-09T06:29:14Z</time>
      </trkpt>
      <trkpt lat="45.71064" lon="6.2995">
        <ele>858.79998779297</ele>
        <time>2012-06-09T06:29:15Z</time>
      </trkpt>
      <trkpt lat="45.71052" lon="6.29943">
        <ele>859.79998779297</ele>
        <time>2012-06-09T06:29:22Z</time>
      </trkpt>
      <trkpt lat="45.71048" lon="6.29941">
        <ele>860.79998779297</ele>
        <time>2012-06-09T06:29:24Z</time>
      </trkpt>
      <trkpt lat="45.71037" lon="6.29935">
        <ele>862</ele>
        <time>2012-06-09T06:29:31Z</time>
      </trkpt>
      <trkpt lat="45.71029" lon="6.29931">
        <ele>863</ele>
        <time>2012-06-09T06:29:36Z</time>
      </trkpt>
      <trkpt lat="45.71015" lon="6.29929">
        <ele>865.20001220703</ele>
        <time>2012-06-09T06:29:46Z</time>
      </trkpt>
      <trkpt lat="45.7101" lon="6.29927">
        <ele>865.20001220703</ele>
        <time>2012-06-09T06:29:52Z</time>
      </trkpt>
      <trkpt lat="45.70999" lon="6.29918">
        <ele>867.40002441406</ele>
        <time>2012-06-09T06:30:02Z</time>
      </trkpt>
      <trkpt lat="45.70989" lon="6.29909">
        <ele>869.59997558594</ele>
        <time>2012-06-09T06:30:11Z</time>
      </trkpt>
      <trkpt lat="45.70986" lon="6.29907">
        <ele>870.59997558594</ele>
        <time>2012-06-09T06:30:15Z</time>
      </trkpt>
      <trkpt lat="45.70978" lon="6.29899">
        <ele>872.59997558594</ele>
        <time>2012-06-09T06:30:23Z</time>
      </trkpt>
      <trkpt lat="45.70975" lon="6.29898">
        <ele>873.79998779297</ele>
        <time>2012-06-09T06:30:26Z</time>
      </trkpt>
      <trkpt lat="45.70969" lon="6.29891">
        <ele>874.79998779297</ele>
        <time>2012-06-09T06:30:34Z</time>
      </trkpt>
      <trkpt lat="45.70964" lon="6.29889">
        <ele>876.79998779297</ele>
        <time>2012-06-09T06:30:40Z</time>
      </trkpt>
      <trkpt lat="45.70955" lon="6.2988">
        <ele>879</ele>
        <time>2012-06-09T06:30:51Z</time>
      </trkpt>
      <trkpt lat="45.70954" lon="6.2988">
        <ele>880.20001220703</ele>
        <time>2012-06-09T06:30:52Z</time>
      </trkpt>
      <trkpt lat="45.70943" lon="6.2987">
        <ele>881.40002441406</ele>
        <time>2012-06-09T06:31:04Z</time>
      </trkpt>
      <trkpt lat="45.70928" lon="6.29863">
        <ele>885.40002441406</ele>
        <time>2012-06-09T06:31:18Z</time>
      </trkpt>
      <trkpt lat="45.70926" lon="6.29861">
        <ele>885.40002441406</ele>
        <time>2012-06-09T06:31:20Z</time>
      </trkpt>
      <trkpt lat="45.70919" lon="6.29858">
        <ele>887.59997558594</ele>
        <time>2012-06-09T06:31:26Z</time>
      </trkpt>
      <trkpt lat="45.70912" lon="6.29856">
        <ele>888.59997558594</ele>
        <time>2012-06-09T06:31:32Z</time>
      </trkpt>
      <trkpt lat="45.70904" lon="6.29852">
        <ele>889.79998779297</ele>
        <time>2012-06-09T06:31:38Z</time>
      </trkpt>
      <trkpt lat="45.70902" lon="6.29851">
        <ele>890.79998779297</ele>
        <time>2012-06-09T06:31:40Z</time>
      </trkpt>
      <trkpt lat="45.70895" lon="6.29847">
        <ele>891.79998779297</ele>
        <time>2012-06-09T06:31:46Z</time>
      </trkpt>
      <trkpt lat="45.70887" lon="6.29843">
        <ele>894</ele>
        <time>2012-06-09T06:31:52Z</time>
      </trkpt>
      <trkpt lat="45.70876" lon="6.29839">
        <ele>896</ele>
        <time>2012-06-09T06:32:02Z</time>
      </trkpt>
      <trkpt lat="45.70867" lon="6.29836">
        <ele>898.20001220703</ele>
        <time>2012-06-09T06:32:14Z</time>
      </trkpt>
      <trkpt lat="45.70863" lon="6.29835">
        <ele>899.20001220703</ele>
        <time>2012-06-09T06:32:18Z</time>
      </trkpt>
      <trkpt lat="45.70852" lon="6.29833">
        <ele>901.40002441406</ele>
        <time>2012-06-09T06:32:27Z</time>
      </trkpt>
      <trkpt lat="45.7085" lon="6.29833">
        <ele>902.40002441406</ele>
        <time>2012-06-09T06:32:31Z</time>
      </trkpt>
      <trkpt lat="45.70841" lon="6.29831">
        <ele>904.40002441406</ele>
        <time>2012-06-09T06:32:41Z</time>
      </trkpt>
      <trkpt lat="45.70837" lon="6.2983">
        <ele>905.59997558594</ele>
        <time>2012-06-09T06:32:46Z</time>
      </trkpt>
      <trkpt lat="45.70829" lon="6.29825">
        <ele>906.59997558594</ele>
        <time>2012-06-09T06:32:54Z</time>
      </trkpt>
      <trkpt lat="45.70828" lon="6.29825">
        <ele>907.79998779297</ele>
        <time>2012-06-09T06:32:55Z</time>
      </trkpt>
      <trkpt lat="45.70818" lon="6.29828">
        <ele>910</ele>
        <time>2012-06-09T06:33:06Z</time>
      </trkpt>
      <trkpt lat="45.70806" lon="6.29832">
        <ele>913.40002441406</ele>
        <time>2012-06-09T06:33:20Z</time>
      </trkpt>
      <trkpt lat="45.70805" lon="6.29832">
        <ele>914.40002441406</ele>
        <time>2012-06-09T06:33:23Z</time>
      </trkpt>
      <trkpt lat="45.70797" lon="6.29837">
        <ele>915.40002441406</ele>
        <time>2012-06-09T06:33:31Z</time>
      </trkpt>
      <trkpt lat="45.70788" lon="6.29838">
        <ele>917.79998779297</ele>
        <time>2012-06-09T06:33:37Z</time>
      </trkpt>
      <trkpt lat="45.70775" lon="6.29841">
        <ele>919.79998779297</ele>
        <time>2012-06-09T06:33:49Z</time>
      </trkpt>
      <trkpt lat="45.70773" lon="6.29843">
        <ele>921</ele>
        <time>2012-06-09T06:33:51Z</time>
      </trkpt>
      <trkpt lat="45.70767" lon="6.29843">
        <ele>921</ele>
        <time>2012-06-09T06:33:56Z</time>
      </trkpt>
      <trkpt lat="45.70764" lon="6.29845">
        <ele>923</ele>
        <time>2012-06-09T06:33:59Z</time>
      </trkpt>
      <trkpt lat="45.70758" lon="6.29848">
        <ele>924</ele>
        <time>2012-06-09T06:34:05Z</time>
      </trkpt>
      <trkpt lat="45.70739" lon="6.29852">
        <ele>926</ele>
        <time>2012-06-09T06:34:22Z</time>
      </trkpt>
      <trkpt lat="45.70733" lon="6.29855">
        <ele>928.20001220703</ele>
        <time>2012-06-09T06:34:28Z</time>
      </trkpt>
      <trkpt lat="45.70726" lon="6.2986">
        <ele>928.20001220703</ele>
        <time>2012-06-09T06:34:33Z</time>
      </trkpt>
      <trkpt lat="45.70722" lon="6.29863">
        <ele>929.20001220703</ele>
        <time>2012-06-09T06:34:37Z</time>
      </trkpt>
      <trkpt lat="45.70719" lon="6.29866">
        <ele>930.20001220703</ele>
        <time>2012-06-09T06:34:40Z</time>
      </trkpt>
      <trkpt lat="45.70712" lon="6.29873">
        <ele>931.20001220703</ele>
        <time>2012-06-09T06:34:46Z</time>
      </trkpt>
      <trkpt lat="45.70703" lon="6.29882">
        <ele>933.40002441406</ele>
        <time>2012-06-09T06:34:56Z</time>
      </trkpt>
      <trkpt lat="45.70702" lon="6.29883">
        <ele>934.40002441406</ele>
        <time>2012-06-09T06:34:58Z</time>
      </trkpt>
      <trkpt lat="45.70692" lon="6.29895">
        <ele>936.59997558594</ele>
        <time>2012-06-09T06:35:10Z</time>
      </trkpt>
      <trkpt lat="45.7068" lon="6.29892">
        <ele>938.79998779297</ele>
        <time>2012-06-09T06:35:21Z</time>
      </trkpt>
      <trkpt lat="45.70679" lon="6.29889">
        <ele>940</ele>
        <time>2012-06-09T06:35:22Z</time>
      </trkpt>
      <trkpt lat="45.7067" lon="6.29885">
        <ele>941.20001220703</ele>
        <time>2012-06-09T06:35:29Z</time>
      </trkpt>
      <trkpt lat="45.70661" lon="6.29902">
        <ele>942.20001220703</ele>
        <time>2012-06-09T06:35:35Z</time>
      </trkpt>
      <trkpt lat="45.70646" lon="6.29925">
        <ele>944.59997558594</ele>
        <time>2012-06-09T06:35:46Z</time>
      </trkpt>
      <trkpt lat="45.70644" lon="6.29924">
        <ele>944.59997558594</ele>
        <time>2012-06-09T06:35:47Z</time>
      </trkpt>
      <trkpt lat="45.70634" lon="6.29915">
        <ele>945.59997558594</ele>
        <time>2012-06-09T06:35:53Z</time>
      </trkpt>
      <trkpt lat="45.70629" lon="6.2991">
        <ele>946.79998779297</ele>
        <time>2012-06-09T06:35:59Z</time>
      </trkpt>
      <trkpt lat="45.70621" lon="6.29905">
        <ele>949</ele>
        <time>2012-06-09T06:36:06Z</time>
      </trkpt>
      <trkpt lat="45.70612" lon="6.29904">
        <ele>951.20001220703</ele>
        <time>2012-06-09T06:36:12Z</time>
      </trkpt>
      <trkpt lat="45.70606" lon="6.29906">
        <ele>952.20001220703</ele>
        <time>2012-06-09T06:36:17Z</time>
      </trkpt>
      <trkpt lat="45.70595" lon="6.29909">
        <ele>953.40002441406</ele>
        <time>2012-06-09T06:36:27Z</time>
      </trkpt>
      <trkpt lat="45.70594" lon="6.29909">
        <ele>953.40002441406</ele>
        <time>2012-06-09T06:36:28Z</time>
      </trkpt>
      <trkpt lat="45.70586" lon="6.2991">
        <ele>955.59997558594</ele>
        <time>2012-06-09T06:36:34Z</time>
      </trkpt>
      <trkpt lat="45.70582" lon="6.29907">
        <ele>956.79998779297</ele>
        <time>2012-06-09T06:36:36Z</time>
      </trkpt>
      <trkpt lat="45.7058" lon="6.29902">
        <ele>958</ele>
        <time>2012-06-09T06:36:41Z</time>
      </trkpt>
      <trkpt lat="45.70578" lon="6.299">
        <ele>958</ele>
        <time>2012-06-09T06:36:45Z</time>
      </trkpt>
      <trkpt lat="45.70574" lon="6.29899">
        <ele>959</ele>
        <time>2012-06-09T06:36:51Z</time>
      </trkpt>
      <trkpt lat="45.70566" lon="6.29883">
        <ele>962.40002441406</ele>
        <time>2012-06-09T06:37:03Z</time>
      </trkpt>
      <trkpt lat="45.70561" lon="6.2988">
        <ele>963.40002441406</ele>
        <time>2012-06-09T06:37:07Z</time>
      </trkpt>
      <trkpt lat="45.70554" lon="6.29872">
        <ele>964.59997558594</ele>
        <time>2012-06-09T06:37:14Z</time>
      </trkpt>
      <trkpt lat="45.70551" lon="6.2987">
        <ele>965.59997558594</ele>
        <time>2012-06-09T06:37:18Z</time>
      </trkpt>
      <trkpt lat="45.70547" lon="6.29864">
        <ele>967.79998779297</ele>
        <time>2012-06-09T06:37:26Z</time>
      </trkpt>
      <trkpt lat="45.70545" lon="6.2986">
        <ele>968.79998779297</ele>
        <time>2012-06-09T06:37:28Z</time>
      </trkpt>
      <trkpt lat="45.70537" lon="6.29856">
        <ele>971.20001220703</ele>
        <time>2012-06-09T06:37:35Z</time>
      </trkpt>
      <trkpt lat="45.70528" lon="6.29859">
        <ele>972.40002441406</ele>
        <time>2012-06-09T06:37:41Z</time>
      </trkpt>
      <trkpt lat="45.70511" lon="6.29859">
        <ele>973.59997558594</ele>
        <time>2012-06-09T06:37:50Z</time>
      </trkpt>
      <trkpt lat="45.70488" lon="6.29866">
        <ele>974.79998779297</ele>
        <time>2012-06-09T06:37:58Z</time>
      </trkpt>
      <trkpt lat="45.70482" lon="6.29862">
        <ele>974.79998779297</ele>
        <time>2012-06-09T06:38:01Z</time>
      </trkpt>
      <trkpt lat="45.70472" lon="6.29856">
        <ele>976</ele>
        <time>2012-06-09T06:38:08Z</time>
      </trkpt>
      <trkpt lat="45.70471" lon="6.29855">
        <ele>977.20001220703</ele>
        <time>2012-06-09T06:38:09Z</time>
      </trkpt>
      <trkpt lat="45.70464" lon="6.29848">
        <ele>978.20001220703</ele>
        <time>2012-06-09T06:38:16Z</time>
      </trkpt>
      <trkpt lat="45.70462" lon="6.29843">
        <ele>979.20001220703</ele>
        <time>2012-06-09T06:38:21Z</time>
      </trkpt>
      <trkpt lat="45.70453" lon="6.29835">
        <ele>981.40002441406</ele>
        <time>2012-06-09T06:38:29Z</time>
      </trkpt>
      <trkpt lat="45.7045" lon="6.29833">
        <ele>981.40002441406</ele>
        <time>2012-06-09T06:38:32Z</time>
      </trkpt>
      <trkpt lat="45.70442" lon="6.29829">
        <ele>983.59997558594</ele>
        <time>2012-06-09T06:38:38Z</time>
      </trkpt>
      <trkpt lat="45.70427" lon="6.29822">
        <ele>985.59997558594</ele>
        <time>2012-06-09T06:38:51Z</time>
      </trkpt>
      <trkpt lat="45.70424" lon="6.29821">
        <ele>985.59997558594</ele>
        <time>2012-06-09T06:38:54Z</time>
      </trkpt>
      <trkpt lat="45.70418" lon="6.2982">
        <ele>987.79998779297</ele>
        <time>2012-06-09T06:38:59Z</time>
      </trkpt>
      <trkpt lat="45.70414" lon="6.29819">
        <ele>988.79998779297</ele>
        <time>2012-06-09T06:39:04Z</time>
      </trkpt>
      <trkpt lat="45.70407" lon="6.29815">
        <ele>990</ele>
        <time>2012-06-09T06:39:11Z</time>
      </trkpt>
      <trkpt lat="45.70406" lon="6.29814">
        <ele>991</ele>
        <time>2012-06-09T06:39:12Z</time>
      </trkpt>
      <trkpt lat="45.704" lon="6.29811">
        <ele>992</ele>
        <time>2012-06-09T06:39:16Z</time>
      </trkpt>
      <trkpt lat="45.70397" lon="6.29809">
        <ele>993.20001220703</ele>
        <time>2012-06-09T06:39:19Z</time>
      </trkpt>
      <trkpt lat="45.7039" lon="6.29809">
        <ele>995.40002441406</ele>
        <time>2012-06-09T06:39:27Z</time>
      </trkpt>
      <trkpt lat="45.70369" lon="6.29808">
        <ele>998.40002441406</ele>
        <time>2012-06-09T06:39:44Z</time>
      </trkpt>
      <trkpt lat="45.70362" lon="6.29809">
        <ele>999.40002441406</ele>
        <time>2012-06-09T06:39:49Z</time>
      </trkpt>
      <trkpt lat="45.70358" lon="6.29808">
        <ele>1001.5999755859</ele>
        <time>2012-06-09T06:39:54Z</time>
      </trkpt>
      <trkpt lat="45.70353" lon="6.29808">
        <ele>1002.5999755859</ele>
        <time>2012-06-09T06:39:57Z</time>
      </trkpt>
      <trkpt lat="45.70343" lon="6.29807">
        <ele>1004.799987793</ele>
        <time>2012-06-09T06:40:04Z</time>
      </trkpt>
      <trkpt lat="45.70336" lon="6.29805">
        <ele>1006</ele>
        <time>2012-06-09T06:40:10Z</time>
      </trkpt>
      <trkpt lat="45.70327" lon="6.29804">
        <ele>1009.200012207</ele>
        <time>2012-06-09T06:40:18Z</time>
      </trkpt>
      <trkpt lat="45.70324" lon="6.29805">
        <ele>1009.200012207</ele>
        <time>2012-06-09T06:40:21Z</time>
      </trkpt>
      <trkpt lat="45.70319" lon="6.29803">
        <ele>1011.5999755859</ele>
        <time>2012-06-09T06:40:27Z</time>
      </trkpt>
      <trkpt lat="45.70301" lon="6.29799">
        <ele>1012.799987793</ele>
        <time>2012-06-09T06:40:38Z</time>
      </trkpt>
      <trkpt lat="45.70299" lon="6.29798">
        <ele>1012.799987793</ele>
        <time>2012-06-09T06:40:39Z</time>
      </trkpt>
      <trkpt lat="45.70293" lon="6.29802">
        <ele>1014.799987793</ele>
        <time>2012-06-09T06:40:45Z</time>
      </trkpt>
      <trkpt lat="45.70289" lon="6.29801">
        <ele>1015.799987793</ele>
        <time>2012-06-09T06:40:48Z</time>
      </trkpt>
      <trkpt lat="45.70282" lon="6.29796">
        <ele>1017</ele>
        <time>2012-06-09T06:40:55Z</time>
      </trkpt>
      <trkpt lat="45.7028" lon="6.29793">
        <ele>1018.200012207</ele>
        <time>2012-06-09T06:40:57Z</time>
      </trkpt>
      <trkpt lat="45.70273" lon="6.29789">
        <ele>1020.4000244141</ele>
        <time>2012-06-09T06:41:04Z</time>
      </trkpt>
      <trkpt lat="45.7027" lon="6.29788">
        <ele>1021.4000244141</ele>
        <time>2012-06-09T06:41:08Z</time>
      </trkpt>
      <trkpt lat="45.70263" lon="6.29786">
        <ele>1022.4000244141</ele>
        <time>2012-06-09T06:41:14Z</time>
      </trkpt>
      <trkpt lat="45.70254" lon="6.29782">
        <ele>1025.8000488281</ele>
        <time>2012-06-09T06:41:24Z</time>
      </trkpt>
      <trkpt lat="45.7025" lon="6.29781">
        <ele>1026.8000488281</ele>
        <time>2012-06-09T06:41:28Z</time>
      </trkpt>
      <trkpt lat="45.70244" lon="6.29781">
        <ele>1029</ele>
        <time>2012-06-09T06:41:34Z</time>
      </trkpt>
      <trkpt lat="45.70241" lon="6.29782">
        <ele>1029</ele>
        <time>2012-06-09T06:41:36Z</time>
      </trkpt>
      <trkpt lat="45.70234" lon="6.2978">
        <ele>1031.1999511719</ele>
        <time>2012-06-09T06:41:43Z</time>
      </trkpt>
      <trkpt lat="45.70231" lon="6.29777">
        <ele>1032.1999511719</ele>
        <time>2012-06-09T06:41:47Z</time>
      </trkpt>
      <trkpt lat="45.70226" lon="6.29773">
        <ele>1034.4000244141</ele>
        <time>2012-06-09T06:41:56Z</time>
      </trkpt>
      <trkpt lat="45.70224" lon="6.29772">
        <ele>1034.4000244141</ele>
        <time>2012-06-09T06:41:57Z</time>
      </trkpt>
      <trkpt lat="45.70218" lon="6.29765">
        <ele>1036.4000244141</ele>
        <time>2012-06-09T06:42:05Z</time>
      </trkpt>
      <trkpt lat="45.70208" lon="6.29759">
        <ele>1039.5999755859</ele>
        <time>2012-06-09T06:42:14Z</time>
      </trkpt>
      <trkpt lat="45.70205" lon="6.29756">
        <ele>1039.5999755859</ele>
        <time>2012-06-09T06:42:17Z</time>
      </trkpt>
      <trkpt lat="45.702" lon="6.29753">
        <ele>1041.8000488281</ele>
        <time>2012-06-09T06:42:23Z</time>
      </trkpt>
      <trkpt lat="45.70196" lon="6.29753">
        <ele>1042.8000488281</ele>
        <time>2012-06-09T06:42:27Z</time>
      </trkpt>
      <trkpt lat="45.70191" lon="6.29758">
        <ele>1045</ele>
        <time>2012-06-09T06:42:35Z</time>
      </trkpt>
      <trkpt lat="45.70191" lon="6.29759">
        <ele>1045</ele>
        <time>2012-06-09T06:42:38Z</time>
      </trkpt>
      <trkpt lat="45.70191" lon="6.29763">
        <ele>1047.1999511719</ele>
        <time>2012-06-09T06:42:43Z</time>
      </trkpt>
      <trkpt lat="45.70191" lon="6.29767">
        <ele>1048.1999511719</ele>
        <time>2012-06-09T06:42:48Z</time>
      </trkpt>
      <trkpt lat="45.70186" lon="6.29768">
        <ele>1051.4000244141</ele>
        <time>2012-06-09T06:42:58Z</time>
      </trkpt>
      <trkpt lat="45.70181" lon="6.29767">
        <ele>1053.4000244141</ele>
        <time>2012-06-09T06:43:05Z</time>
      </trkpt>
      <trkpt lat="45.70178" lon="6.29767">
        <ele>1054.4000244141</ele>
        <time>2012-06-09T06:43:09Z</time>
      </trkpt>
      <trkpt lat="45.70173" lon="6.29765">
        <ele>1056.5999755859</ele>
        <time>2012-06-09T06:43:16Z</time>
      </trkpt>
      <trkpt lat="45.70168" lon="6.29761">
        <ele>1057.5999755859</ele>
        <time>2012-06-09T06:43:21Z</time>
      </trkpt>
      <trkpt lat="45.70159" lon="6.29754">
        <ele>1060.8000488281</ele>
        <time>2012-06-09T06:43:32Z</time>
      </trkpt>
      <trkpt lat="45.70155" lon="6.29751">
        <ele>1062</ele>
        <time>2012-06-09T06:43:36Z</time>
      </trkpt>
      <trkpt lat="45.70152" lon="6.29748">
        <ele>1064</ele>
        <time>2012-06-09T06:43:44Z</time>
      </trkpt>
      <trkpt lat="45.70152" lon="6.29747">
        <ele>1064</ele>
        <time>2012-06-09T06:43:45Z</time>
      </trkpt>
      <trkpt lat="45.70149" lon="6.29741">
        <ele>1066.4000244141</ele>
        <time>2012-06-09T06:43:53Z</time>
      </trkpt>
      <trkpt lat="45.70139" lon="6.29733">
        <ele>1075.5999755859</ele>
        <time>2012-06-09T06:44:10Z</time>
      </trkpt>
      <trkpt lat="45.70137" lon="6.29731">
        <ele>1076.5999755859</ele>
        <time>2012-06-09T06:44:13Z</time>
      </trkpt>
      <trkpt lat="45.70127" lon="6.29733">
        <ele>1078.8000488281</ele>
        <time>2012-06-09T06:44:25Z</time>
      </trkpt>
      <trkpt lat="45.70118" lon="6.29731">
        <ele>1080</ele>
        <time>2012-06-09T06:44:34Z</time>
      </trkpt>
      <trkpt lat="45.70106" lon="6.29728">
        <ele>1081</ele>
        <time>2012-06-09T06:44:44Z</time>
      </trkpt>
      <trkpt lat="45.70104" lon="6.29728">
        <ele>1081</ele>
        <time>2012-06-09T06:44:45Z</time>
      </trkpt>
      <trkpt lat="45.70092" lon="6.29735">
        <ele>1081</ele>
        <time>2012-06-09T06:44:57Z</time>
      </trkpt>
      <trkpt lat="45.7009" lon="6.29735">
        <ele>1083</ele>
        <time>2012-06-09T06:44:59Z</time>
      </trkpt>
      <trkpt lat="45.70078" lon="6.29732">
        <ele>1086.4000244141</ele>
        <time>2012-06-09T06:45:08Z</time>
      </trkpt>
      <trkpt lat="45.70061" lon="6.2973">
        <ele>1088.5999755859</ele>
        <time>2012-06-09T06:45:22Z</time>
      </trkpt>
      <trkpt lat="45.70054" lon="6.29729">
        <ele>1089.8000488281</ele>
        <time>2012-06-09T06:45:26Z</time>
      </trkpt>
      <trkpt lat="45.70039" lon="6.29726">
        <ele>1092</ele>
        <time>2012-06-09T06:45:34Z</time>
      </trkpt>
      <trkpt lat="45.70036" lon="6.29724">
        <ele>1092</ele>
        <time>2012-06-09T06:45:36Z</time>
      </trkpt>
      <trkpt lat="45.70026" lon="6.29722">
        <ele>1093.1999511719</ele>
        <time>2012-06-09T06:45:41Z</time>
      </trkpt>
      <trkpt lat="45.70018" lon="6.2972">
        <ele>1094.1999511719</ele>
        <time>2012-06-09T06:45:46Z</time>
      </trkpt>
      <trkpt lat="45.7001" lon="6.29718">
        <ele>1095.4000244141</ele>
        <time>2012-06-09T06:45:51Z</time>
      </trkpt>
      <trkpt lat="45.70008" lon="6.29719">
        <ele>1095.4000244141</ele>
        <time>2012-06-09T06:45:52Z</time>
      </trkpt>
      <trkpt lat="45.69984" lon="6.29713">
        <ele>1096.8000488281</ele>
        <time>2012-06-09T06:46:05Z</time>
      </trkpt>
      <trkpt lat="45.69958" lon="6.29707">
        <ele>1098</ele>
        <time>2012-06-09T06:46:18Z</time>
      </trkpt>
      <trkpt lat="45.69953" lon="6.29707">
        <ele>1099</ele>
        <time>2012-06-09T06:46:21Z</time>
      </trkpt>
      <trkpt lat="45.69946" lon="6.2971">
        <ele>1099</ele>
        <time>2012-06-09T06:46:24Z</time>
      </trkpt>
      <trkpt lat="45.6994" lon="6.29711">
        <ele>1100.1999511719</ele>
        <time>2012-06-09T06:46:27Z</time>
      </trkpt>
      <trkpt lat="45.69934" lon="6.29708">
        <ele>1100.1999511719</ele>
        <time>2012-06-09T06:46:32Z</time>
      </trkpt>
      <trkpt lat="45.69926" lon="6.29707">
        <ele>1100.1999511719</ele>
        <time>2012-06-09T06:46:36Z</time>
      </trkpt>
      <trkpt lat="45.69916" lon="6.29707">
        <ele>1101.1999511719</ele>
        <time>2012-06-09T06:46:40Z</time>
      </trkpt>
      <trkpt lat="45.69907" lon="6.29706">
        <ele>1102.5999755859</ele>
        <time>2012-06-09T06:46:44Z</time>
      </trkpt>
      <trkpt lat="45.69888" lon="6.29703">
        <ele>1103.5999755859</ele>
        <time>2012-06-09T06:46:52Z</time>
      </trkpt>
      <trkpt lat="45.69868" lon="6.29704">
        <ele>1104.8000488281</ele>
        <time>2012-06-09T06:47:01Z</time>
      </trkpt>
      <trkpt lat="45.69846" lon="6.29709">
        <ele>1104.8000488281</ele>
        <time>2012-06-09T06:47:11Z</time>
      </trkpt>
      <trkpt lat="45.69829" lon="6.29713">
        <ele>1106</ele>
        <time>2012-06-09T06:47:20Z</time>
      </trkpt>
      <trkpt lat="45.69827" lon="6.29712">
        <ele>1106</ele>
        <time>2012-06-09T06:47:21Z</time>
      </trkpt>
      <trkpt lat="45.69814" lon="6.29709">
        <ele>1106</ele>
        <time>2012-06-09T06:47:28Z</time>
      </trkpt>
      <trkpt lat="45.69801" lon="6.29708">
        <ele>1107</ele>
        <time>2012-06-09T06:47:34Z</time>
      </trkpt>
      <trkpt lat="45.69788" lon="6.29709">
        <ele>1107</ele>
        <time>2012-06-09T06:47:40Z</time>
      </trkpt>
      <trkpt lat="45.69784" lon="6.29708">
        <ele>1107</ele>
        <time>2012-06-09T06:47:42Z</time>
      </trkpt>
      <trkpt lat="45.69763" lon="6.29702">
        <ele>1108</ele>
        <time>2012-06-09T06:47:50Z</time>
      </trkpt>
      <trkpt lat="45.69738" lon="6.29696">
        <ele>1108</ele>
        <time>2012-06-09T06:48:01Z</time>
      </trkpt>
      <trkpt lat="45.69737" lon="6.29696">
        <ele>1109</ele>
        <time>2012-06-09T06:48:02Z</time>
      </trkpt>
      <trkpt lat="45.69714" lon="6.29695">
        <ele>1109</ele>
        <time>2012-06-09T06:48:10Z</time>
      </trkpt>
      <trkpt lat="45.69705" lon="6.29698">
        <ele>1109</ele>
        <time>2012-06-09T06:48:13Z</time>
      </trkpt>
      <trkpt lat="45.69684" lon="6.29693">
        <ele>1109</ele>
        <time>2012-06-09T06:48:22Z</time>
      </trkpt>
      <trkpt lat="45.69677" lon="6.29691">
        <ele>1110.1999511719</ele>
        <time>2012-06-09T06:48:25Z</time>
      </trkpt>
      <trkpt lat="45.69664" lon="6.29686">
        <ele>1110.1999511719</ele>
        <time>2012-06-09T06:48:31Z</time>
      </trkpt>
      <trkpt lat="45.69657" lon="6.29688">
        <ele>1110.1999511719</ele>
        <time>2012-06-09T06:48:35Z</time>
      </trkpt>
      <trkpt lat="45.69644" lon="6.29685">
        <ele>1113.5999755859</ele>
        <time>2012-06-09T06:48:41Z</time>
      </trkpt>
      <trkpt lat="45.69627" lon="6.29685">
        <ele>1115</ele>
        <time>2012-06-09T06:48:49Z</time>
      </trkpt>
      <trkpt lat="45.69617" lon="6.29681">
        <ele>1115</ele>
        <time>2012-06-09T06:48:55Z</time>
      </trkpt>
      <trkpt lat="45.69605" lon="6.29676">
        <ele>1115</ele>
        <time>2012-06-09T06:49:01Z</time>
      </trkpt>
      <trkpt lat="45.69602" lon="6.29676">
        <ele>1116.1999511719</ele>
        <time>2012-06-09T06:49:02Z</time>
      </trkpt>
      <trkpt lat="45.69595" lon="6.29671">
        <ele>1118.5999755859</ele>
        <time>2012-06-09T06:49:07Z</time>
      </trkpt>
      <trkpt lat="45.69584" lon="6.29666">
        <ele>1120.5999755859</ele>
        <time>2012-06-09T06:49:15Z</time>
      </trkpt>
      <trkpt lat="45.69576" lon="6.29668">
        <ele>1121.5999755859</ele>
        <time>2012-06-09T06:49:23Z</time>
      </trkpt>
      <trkpt lat="45.69571" lon="6.29668">
        <ele>1122.8000488281</ele>
        <time>2012-06-09T06:49:26Z</time>
      </trkpt>
      <trkpt lat="45.69565" lon="6.29667">
        <ele>1122.8000488281</ele>
        <time>2012-06-09T06:49:29Z</time>
      </trkpt>
      <trkpt lat="45.69546" lon="6.2967">
        <ele>1125.1999511719</ele>
        <time>2012-06-09T06:49:41Z</time>
      </trkpt>
      <trkpt lat="45.69544" lon="6.29671">
        <ele>1126.1999511719</ele>
        <time>2012-06-09T06:49:42Z</time>
      </trkpt>
      <trkpt lat="45.69531" lon="6.29672">
        <ele>1127.4000244141</ele>
        <time>2012-06-09T06:49:51Z</time>
      </trkpt>
      <trkpt lat="45.69523" lon="6.29673">
        <ele>1128.5999755859</ele>
        <time>2012-06-09T06:49:58Z</time>
      </trkpt>
      <trkpt lat="45.69518" lon="6.29672">
        <ele>1129.5999755859</ele>
        <time>2012-06-09T06:50:02Z</time>
      </trkpt>
      <trkpt lat="45.69513" lon="6.29672">
        <ele>1130.8000488281</ele>
        <time>2012-06-09T06:50:07Z</time>
      </trkpt>
      <trkpt lat="45.69508" lon="6.29671">
        <ele>1131.8000488281</ele>
        <time>2012-06-09T06:50:13Z</time>
      </trkpt>
      <trkpt lat="45.69505" lon="6.29672">
        <ele>1132.8000488281</ele>
        <time>2012-06-09T06:50:16Z</time>
      </trkpt>
      <trkpt lat="45.69495" lon="6.29671">
        <ele>1133.8000488281</ele>
        <time>2012-06-09T06:50:24Z</time>
      </trkpt>
      <trkpt lat="45.6948" lon="6.29665">
        <ele>1135</ele>
        <time>2012-06-09T06:50:35Z</time>
      </trkpt>
      <trkpt lat="45.69474" lon="6.29663">
        <ele>1136</ele>
        <time>2012-06-09T06:50:40Z</time>
      </trkpt>
      <trkpt lat="45.69467" lon="6.29661">
        <ele>1138.1999511719</ele>
        <time>2012-06-09T06:50:45Z</time>
      </trkpt>
      <trkpt lat="45.69463" lon="6.2966">
        <ele>1138.1999511719</ele>
        <time>2012-06-09T06:50:47Z</time>
      </trkpt>
      <trkpt lat="45.69461" lon="6.2966">
        <ele>1139.1999511719</ele>
        <time>2012-06-09T06:50:51Z</time>
      </trkpt>
      <trkpt lat="45.69457" lon="6.29659">
        <ele>1140.4000244141</ele>
        <time>2012-06-09T06:50:54Z</time>
      </trkpt>
      <trkpt lat="45.69447" lon="6.29663">
        <ele>1142.5999755859</ele>
        <time>2012-06-09T06:51:05Z</time>
      </trkpt>
      <trkpt lat="45.69444" lon="6.29664">
        <ele>1143.8000488281</ele>
        <time>2012-06-09T06:51:07Z</time>
      </trkpt>
      <trkpt lat="45.69437" lon="6.29665">
        <ele>1146</ele>
        <time>2012-06-09T06:51:16Z</time>
      </trkpt>
      <trkpt lat="45.69427" lon="6.29665">
        <ele>1149.1999511719</ele>
        <time>2012-06-09T06:51:27Z</time>
      </trkpt>
      <trkpt lat="45.69424" lon="6.29665">
        <ele>1149.1999511719</ele>
        <time>2012-06-09T06:51:30Z</time>
      </trkpt>
      <trkpt lat="45.69418" lon="6.29664">
        <ele>1151.1999511719</ele>
        <time>2012-06-09T06:51:36Z</time>
      </trkpt>
      <trkpt lat="45.69413" lon="6.29665">
        <ele>1152.1999511719</ele>
        <time>2012-06-09T06:51:41Z</time>
      </trkpt>
      <trkpt lat="45.69405" lon="6.29668">
        <ele>1154.5999755859</ele>
        <time>2012-06-09T06:51:49Z</time>
      </trkpt>
      <trkpt lat="45.69403" lon="6.2967">
        <ele>1155.5999755859</ele>
        <time>2012-06-09T06:51:52Z</time>
      </trkpt>
      <trkpt lat="45.69394" lon="6.29671">
        <ele>1157.8000488281</ele>
        <time>2012-06-09T06:52:00Z</time>
      </trkpt>
      <trkpt lat="45.69385" lon="6.29671">
        <ele>1158.8000488281</ele>
        <time>2012-06-09T06:52:06Z</time>
      </trkpt>
      <trkpt lat="45.69369" lon="6.29676">
        <ele>1161.4000244141</ele>
        <time>2012-06-09T06:52:14Z</time>
      </trkpt>
      <trkpt lat="45.69352" lon="6.29675">
        <ele>1161.4000244141</ele>
        <time>2012-06-09T06:52:23Z</time>
      </trkpt>
      <trkpt lat="45.69337" lon="6.29673">
        <ele>1163.8000488281</ele>
        <time>2012-06-09T06:52:30Z</time>
      </trkpt>
      <trkpt lat="45.69324" lon="6.29673">
        <ele>1165.1999511719</ele>
        <time>2012-06-09T06:52:36Z</time>
      </trkpt>
      <trkpt lat="45.69316" lon="6.29672">
        <ele>1165.1999511719</ele>
        <time>2012-06-09T06:52:40Z</time>
      </trkpt>
      <trkpt lat="45.69297" lon="6.29681">
        <ele>1166.4000244141</ele>
        <time>2012-06-09T06:52:50Z</time>
      </trkpt>
      <trkpt lat="45.69287" lon="6.29692">
        <ele>1167.5999755859</ele>
        <time>2012-06-09T06:52:56Z</time>
      </trkpt>
      <trkpt lat="45.69263" lon="6.29712">
        <ele>1164.5999755859</ele>
        <time>2012-06-09T06:53:08Z</time>
      </trkpt>
      <trkpt lat="45.69257" lon="6.29708">
        <ele>1164.5999755859</ele>
        <time>2012-06-09T06:53:11Z</time>
      </trkpt>
      <trkpt lat="45.69242" lon="6.29698">
        <ele>1163.4000244141</ele>
        <time>2012-06-09T06:53:17Z</time>
      </trkpt>
      <trkpt lat="45.6923" lon="6.29656">
        <ele>1159.4000244141</ele>
        <time>2012-06-09T06:53:30Z</time>
      </trkpt>
      <trkpt lat="45.69229" lon="6.29652">
        <ele>1159.4000244141</ele>
        <time>2012-06-09T06:53:31Z</time>
      </trkpt>
      <trkpt lat="45.69221" lon="6.2965">
        <ele>1155.8000488281</ele>
        <time>2012-06-09T06:53:34Z</time>
      </trkpt>
      <trkpt lat="45.69203" lon="6.29636">
        <ele>1153.8000488281</ele>
        <time>2012-06-09T06:53:42Z</time>
      </trkpt>
      <trkpt lat="45.69182" lon="6.29617">
        <ele>1152.8000488281</ele>
        <time>2012-06-09T06:53:51Z</time>
      </trkpt>
      <trkpt lat="45.69178" lon="6.29607">
        <ele>1151.5999755859</ele>
        <time>2012-06-09T06:53:54Z</time>
      </trkpt>
      <trkpt lat="45.69171" lon="6.29589">
        <ele>1151.5999755859</ele>
        <time>2012-06-09T06:54:01Z</time>
      </trkpt>
      <trkpt lat="45.69164" lon="6.29579">
        <ele>1154.5999755859</ele>
        <time>2012-06-09T06:54:05Z</time>
      </trkpt>
      <trkpt lat="45.69149" lon="6.29552">
        <ele>1155.8000488281</ele>
        <time>2012-06-09T06:54:16Z</time>
      </trkpt>
      <trkpt lat="45.69135" lon="6.29504">
        <ele>1155.8000488281</ele>
        <time>2012-06-09T06:54:30Z</time>
      </trkpt>
      <trkpt lat="45.69121" lon="6.29487">
        <ele>1155.8000488281</ele>
        <time>2012-06-09T06:54:38Z</time>
      </trkpt>
      <trkpt lat="45.69109" lon="6.29469">
        <ele>1157.1999511719</ele>
        <time>2012-06-09T06:54:46Z</time>
      </trkpt>
      <trkpt lat="45.69105" lon="6.29459">
        <ele>1157.1999511719</ele>
        <time>2012-06-09T06:54:49Z</time>
      </trkpt>
      <trkpt lat="45.6909" lon="6.29446">
        <ele>1158.1999511719</ele>
        <time>2012-06-09T06:54:56Z</time>
      </trkpt>
      <trkpt lat="45.69074" lon="6.29433">
        <ele>1159.1999511719</ele>
        <time>2012-06-09T06:55:04Z</time>
      </trkpt>
      <trkpt lat="45.6906" lon="6.29415">
        <ele>1160.5999755859</ele>
        <time>2012-06-09T06:55:13Z</time>
      </trkpt>
      <trkpt lat="45.69061" lon="6.29413">
        <ele>1160.5999755859</ele>
        <time>2012-06-09T06:55:14Z</time>
      </trkpt>
      <trkpt lat="45.69052" lon="6.29395">
        <ele>1161.5999755859</ele>
        <time>2012-06-09T06:55:22Z</time>
      </trkpt>
      <trkpt lat="45.69037" lon="6.2938">
        <ele>1163.8000488281</ele>
        <time>2012-06-09T06:55:32Z</time>
      </trkpt>
      <trkpt lat="45.69036" lon="6.29378">
        <ele>1163.8000488281</ele>
        <time>2012-06-09T06:55:33Z</time>
      </trkpt>
      <trkpt lat="45.69032" lon="6.29358">
        <ele>1165.4000244141</ele>
        <time>2012-06-09T06:55:42Z</time>
      </trkpt>
      <trkpt lat="45.69031" lon="6.29355">
        <ele>1166.4000244141</ele>
        <time>2012-06-09T06:55:45Z</time>
      </trkpt>
      <trkpt lat="45.69027" lon="6.29337">
        <ele>1167.5999755859</ele>
        <time>2012-06-09T06:55:51Z</time>
      </trkpt>
      <trkpt lat="45.69023" lon="6.29326">
        <ele>1167.5999755859</ele>
        <time>2012-06-09T06:55:55Z</time>
      </trkpt>
      <trkpt lat="45.69013" lon="6.29317">
        <ele>1169.8000488281</ele>
        <time>2012-06-09T06:56:04Z</time>
      </trkpt>
      <trkpt lat="45.69007" lon="6.29309">
        <ele>1170.8000488281</ele>
        <time>2012-06-09T06:56:09Z</time>
      </trkpt>
      <trkpt lat="45.69002" lon="6.29301">
        <ele>1172.1999511719</ele>
        <time>2012-06-09T06:56:15Z</time>
      </trkpt>
      <trkpt lat="45.68997" lon="6.29286">
        <ele>1174.1999511719</ele>
        <time>2012-06-09T06:56:23Z</time>
      </trkpt>
      <trkpt lat="45.68995" lon="6.29279">
        <ele>1174.1999511719</ele>
        <time>2012-06-09T06:56:28Z</time>
      </trkpt>
      <trkpt lat="45.68992" lon="6.29266">
        <ele>1175.5999755859</ele>
        <time>2012-06-09T06:56:34Z</time>
      </trkpt>
      <trkpt lat="45.6899" lon="6.29262">
        <ele>1176.5999755859</ele>
        <time>2012-06-09T06:56:36Z</time>
      </trkpt>
      <trkpt lat="45.68989" lon="6.29258">
        <ele>1177.5999755859</ele>
        <time>2012-06-09T06:56:40Z</time>
      </trkpt>
      <trkpt lat="45.68986" lon="6.29252">
        <ele>1178.8000488281</ele>
        <time>2012-06-09T06:56:45Z</time>
      </trkpt>
      <trkpt lat="45.68984" lon="6.29241">
        <ele>1180</ele>
        <time>2012-06-09T06:56:51Z</time>
      </trkpt>
      <trkpt lat="45.68983" lon="6.29239">
        <ele>1181</ele>
        <time>2012-06-09T06:56:52Z</time>
      </trkpt>
      <trkpt lat="45.68973" lon="6.29226">
        <ele>1182.1999511719</ele>
        <time>2012-06-09T06:56:59Z</time>
      </trkpt>
      <trkpt lat="45.68967" lon="6.29203">
        <ele>1183.4000244141</ele>
        <time>2012-06-09T06:57:10Z</time>
      </trkpt>
      <trkpt lat="45.68965" lon="6.29201">
        <ele>1183.4000244141</ele>
        <time>2012-06-09T06:57:11Z</time>
      </trkpt>
      <trkpt lat="45.68962" lon="6.29189">
        <ele>1184.4000244141</ele>
        <time>2012-06-09T06:57:18Z</time>
      </trkpt>
      <trkpt lat="45.6896" lon="6.29187">
        <ele>1185.5999755859</ele>
        <time>2012-06-09T06:57:20Z</time>
      </trkpt>
      <trkpt lat="45.68955" lon="6.29169">
        <ele>1187.5999755859</ele>
        <time>2012-06-09T06:57:29Z</time>
      </trkpt>
      <trkpt lat="45.68954" lon="6.29166">
        <ele>1187.5999755859</ele>
        <time>2012-06-09T06:57:31Z</time>
      </trkpt>
      <trkpt lat="45.68953" lon="6.29154">
        <ele>1189.8000488281</ele>
        <time>2012-06-09T06:57:38Z</time>
      </trkpt>
      <trkpt lat="45.68952" lon="6.29144">
        <ele>1190.8000488281</ele>
        <time>2012-06-09T06:57:43Z</time>
      </trkpt>
      <trkpt lat="45.68952" lon="6.29136">
        <ele>1192</ele>
        <time>2012-06-09T06:57:48Z</time>
      </trkpt>
      <trkpt lat="45.68952" lon="6.291">
        <ele>1194</ele>
        <time>2012-06-09T06:58:04Z</time>
      </trkpt>
      <trkpt lat="45.68952" lon="6.29095">
        <ele>1195.1999511719</ele>
        <time>2012-06-09T06:58:06Z</time>
      </trkpt>
      <trkpt lat="45.68949" lon="6.2908">
        <ele>1197.1999511719</ele>
        <time>2012-06-09T06:58:15Z</time>
      </trkpt>
      <trkpt lat="45.68947" lon="6.29072">
        <ele>1198.4000244141</ele>
        <time>2012-06-09T06:58:18Z</time>
      </trkpt>
      <trkpt lat="45.68946" lon="6.29058">
        <ele>1199.4000244141</ele>
        <time>2012-06-09T06:58:25Z</time>
      </trkpt>
      <trkpt lat="45.68944" lon="6.29048">
        <ele>1200.5999755859</ele>
        <time>2012-06-09T06:58:30Z</time>
      </trkpt>
      <trkpt lat="45.68939" lon="6.29036">
        <ele>1202.8000488281</ele>
        <time>2012-06-09T06:58:37Z</time>
      </trkpt>
      <trkpt lat="45.68938" lon="6.2903">
        <ele>1202.8000488281</ele>
        <time>2012-06-09T06:58:40Z</time>
      </trkpt>
      <trkpt lat="45.68933" lon="6.29026">
        <ele>1203.8000488281</ele>
        <time>2012-06-09T06:58:44Z</time>
      </trkpt>
      <trkpt lat="45.68925" lon="6.29017">
        <ele>1204.8000488281</ele>
        <time>2012-06-09T06:58:53Z</time>
      </trkpt>
      <trkpt lat="45.68924" lon="6.29011">
        <ele>1206</ele>
        <time>2012-06-09T06:58:57Z</time>
      </trkpt>
      <trkpt lat="45.68917" lon="6.29004">
        <ele>1208.1999511719</ele>
        <time>2012-06-09T06:59:06Z</time>
      </trkpt>
      <trkpt lat="45.68911" lon="6.29002">
        <ele>1209.4000244141</ele>
        <time>2012-06-09T06:59:11Z</time>
      </trkpt>
      <trkpt lat="45.68902" lon="6.28995">
        <ele>1210.4000244141</ele>
        <time>2012-06-09T06:59:19Z</time>
      </trkpt>
      <trkpt lat="45.689" lon="6.28992">
        <ele>1211.4000244141</ele>
        <time>2012-06-09T06:59:21Z</time>
      </trkpt>
      <trkpt lat="45.68892" lon="6.28984">
        <ele>1212.5999755859</ele>
        <time>2012-06-09T06:59:29Z</time>
      </trkpt>
      <trkpt lat="45.6889" lon="6.28976">
        <ele>1214.8000488281</ele>
        <time>2012-06-09T06:59:33Z</time>
      </trkpt>
      <trkpt lat="45.68889" lon="6.2896">
        <ele>1215.8000488281</ele>
        <time>2012-06-09T06:59:42Z</time>
      </trkpt>
      <trkpt lat="45.6889" lon="6.2894">
        <ele>1217.1999511719</ele>
        <time>2012-06-09T06:59:50Z</time>
      </trkpt>
      <trkpt lat="45.6889" lon="6.28923">
        <ele>1218.1999511719</ele>
        <time>2012-06-09T06:59:57Z</time>
      </trkpt>
      <trkpt lat="45.68889" lon="6.28911">
        <ele>1220.4000244141</ele>
        <time>2012-06-09T07:00:04Z</time>
      </trkpt>
      <trkpt lat="45.68888" lon="6.28904">
        <ele>1220.4000244141</ele>
        <time>2012-06-09T07:00:06Z</time>
      </trkpt>
      <trkpt lat="45.68888" lon="6.28893">
        <ele>1221.4000244141</ele>
        <time>2012-06-09T07:00:11Z</time>
      </trkpt>
      <trkpt lat="45.68886" lon="6.28881">
        <ele>1221.4000244141</ele>
        <time>2012-06-09T07:00:17Z</time>
      </trkpt>
      <trkpt lat="45.68884" lon="6.28874">
        <ele>1222.5999755859</ele>
        <time>2012-06-09T07:00:22Z</time>
      </trkpt>
      <trkpt lat="45.68882" lon="6.28868">
        <ele>1223.5999755859</ele>
        <time>2012-06-09T07:00:26Z</time>
      </trkpt>
      <trkpt lat="45.6888" lon="6.28858">
        <ele>1224.5999755859</ele>
        <time>2012-06-09T07:00:33Z</time>
      </trkpt>
      <trkpt lat="45.68878" lon="6.28838">
        <ele>1228</ele>
        <time>2012-06-09T07:00:44Z</time>
      </trkpt>
      <trkpt lat="45.6888" lon="6.28829">
        <ele>1228</ele>
        <time>2012-06-09T07:00:50Z</time>
      </trkpt>
      <trkpt lat="45.68881" lon="6.28823">
        <ele>1229</ele>
        <time>2012-06-09T07:00:54Z</time>
      </trkpt>
      <trkpt lat="45.68881" lon="6.28823">
        <ele>1230.1999511719</ele>
        <time>2012-06-09T07:00:56Z</time>
      </trkpt>
      <trkpt lat="45.68884" lon="6.28822">
        <ele>1232.4000244141</ele>
        <time>2012-06-09T07:01:02Z</time>
      </trkpt>
      <trkpt lat="45.68886" lon="6.28819">
        <ele>1232.4000244141</ele>
        <time>2012-06-09T07:01:06Z</time>
      </trkpt>
      <trkpt lat="45.68888" lon="6.28813">
        <ele>1234.5999755859</ele>
        <time>2012-06-09T07:01:12Z</time>
      </trkpt>
      <trkpt lat="45.6889" lon="6.28805">
        <ele>1236.5999755859</ele>
        <time>2012-06-09T07:01:21Z</time>
      </trkpt>
      <trkpt lat="45.68892" lon="6.28794">
        <ele>1238.8000488281</ele>
        <time>2012-06-09T07:01:31Z</time>
      </trkpt>
      <trkpt lat="45.68891" lon="6.28779">
        <ele>1242</ele>
        <time>2012-06-09T07:01:44Z</time>
      </trkpt>
      <trkpt lat="45.68891" lon="6.28773">
        <ele>1244</ele>
        <time>2012-06-09T07:01:52Z</time>
      </trkpt>
      <trkpt lat="45.68891" lon="6.28763">
        <ele>1245.1999511719</ele>
        <time>2012-06-09T07:01:59Z</time>
      </trkpt>
      <trkpt lat="45.68893" lon="6.28758">
        <ele>1246.1999511719</ele>
        <time>2012-06-09T07:02:03Z</time>
      </trkpt>
      <trkpt lat="45.68892" lon="6.28753">
        <ele>1247.1999511719</ele>
        <time>2012-06-09T07:02:09Z</time>
      </trkpt>
      <trkpt lat="45.68892" lon="6.28746">
        <ele>1249.4000244141</ele>
        <time>2012-06-09T07:02:18Z</time>
      </trkpt>
      <trkpt lat="45.68892" lon="6.28737">
        <ele>1250.4000244141</ele>
        <time>2012-06-09T07:02:25Z</time>
      </trkpt>
      <trkpt lat="45.68891" lon="6.28735">
        <ele>1251.4000244141</ele>
        <time>2012-06-09T07:02:28Z</time>
      </trkpt>
      <trkpt lat="45.68888" lon="6.28729">
        <ele>1252.4000244141</ele>
        <time>2012-06-09T07:02:35Z</time>
      </trkpt>
      <trkpt lat="45.68886" lon="6.28718">
        <ele>1256.5999755859</ele>
        <time>2012-06-09T07:02:54Z</time>
      </trkpt>
      <trkpt lat="45.68886" lon="6.28715">
        <ele>1256.5999755859</ele>
        <time>2012-06-09T07:02:56Z</time>
      </trkpt>
      <trkpt lat="45.68883" lon="6.28707">
        <ele>1259.8000488281</ele>
        <time>2012-06-09T07:03:05Z</time>
      </trkpt>
      <trkpt lat="45.68883" lon="6.28703">
        <ele>1260.8000488281</ele>
        <time>2012-06-09T07:03:10Z</time>
      </trkpt>
      <trkpt lat="45.68882" lon="6.28698">
        <ele>1262</ele>
        <time>2012-06-09T07:03:16Z</time>
      </trkpt>
      <trkpt lat="45.68882" lon="6.28697">
        <ele>1263</ele>
        <time>2012-06-09T07:03:17Z</time>
      </trkpt>
      <trkpt lat="45.68882" lon="6.28692">
        <ele>1265</ele>
        <time>2012-06-09T07:03:26Z</time>
      </trkpt>
      <trkpt lat="45.68882" lon="6.28688">
        <ele>1267.1999511719</ele>
        <time>2012-06-09T07:03:32Z</time>
      </trkpt>
      <trkpt lat="45.68881" lon="6.28681">
        <ele>1268.1999511719</ele>
        <time>2012-06-09T07:03:40Z</time>
      </trkpt>
      <trkpt lat="45.68877" lon="6.28673">
        <ele>1271.4000244141</ele>
        <time>2012-06-09T07:03:49Z</time>
      </trkpt>
      <trkpt lat="45.68874" lon="6.28663">
        <ele>1272.5999755859</ele>
        <time>2012-06-09T07:03:57Z</time>
      </trkpt>
      <trkpt lat="45.68872" lon="6.28658">
        <ele>1273.5999755859</ele>
        <time>2012-06-09T07:04:02Z</time>
      </trkpt>
      <trkpt lat="45.68872" lon="6.28655">
        <ele>1274.8000488281</ele>
        <time>2012-06-09T07:04:05Z</time>
      </trkpt>
      <trkpt lat="45.6887" lon="6.2864">
        <ele>1277</ele>
        <time>2012-06-09T07:04:14Z</time>
      </trkpt>
      <trkpt lat="45.68869" lon="6.28637">
        <ele>1278</ele>
        <time>2012-06-09T07:04:17Z</time>
      </trkpt>
      <trkpt lat="45.68868" lon="6.28625">
        <ele>1280</ele>
        <time>2012-06-09T07:04:26Z</time>
      </trkpt>
      <trkpt lat="45.68868" lon="6.28621">
        <ele>1281</ele>
        <time>2012-06-09T07:04:29Z</time>
      </trkpt>
      <trkpt lat="45.68867" lon="6.28609">
        <ele>1282</ele>
        <time>2012-06-09T07:04:38Z</time>
      </trkpt>
      <trkpt lat="45.68866" lon="6.28593">
        <ele>1286.4000244141</ele>
        <time>2012-06-09T07:04:51Z</time>
      </trkpt>
      <trkpt lat="45.68865" lon="6.28589">
        <ele>1287.5999755859</ele>
        <time>2012-06-09T07:04:54Z</time>
      </trkpt>
      <trkpt lat="45.68864" lon="6.28581">
        <ele>1289.5999755859</ele>
        <time>2012-06-09T07:05:02Z</time>
      </trkpt>
      <trkpt lat="45.68863" lon="6.28579">
        <ele>1290.8000488281</ele>
        <time>2012-06-09T07:05:04Z</time>
      </trkpt>
      <trkpt lat="45.6886" lon="6.28568">
        <ele>1292.8000488281</ele>
        <time>2012-06-09T07:05:13Z</time>
      </trkpt>
      <trkpt lat="45.6886" lon="6.28565">
        <ele>1292.8000488281</ele>
        <time>2012-06-09T07:05:15Z</time>
      </trkpt>
      <trkpt lat="45.68866" lon="6.2856">
        <ele>1295</ele>
        <time>2012-06-09T07:05:25Z</time>
      </trkpt>
      <trkpt lat="45.68869" lon="6.28556">
        <ele>1296</ele>
        <time>2012-06-09T07:05:29Z</time>
      </trkpt>
      <trkpt lat="45.68872" lon="6.28551">
        <ele>1297.1999511719</ele>
        <time>2012-06-09T07:05:37Z</time>
      </trkpt>
      <trkpt lat="45.68866" lon="6.28544">
        <ele>1299.4000244141</ele>
        <time>2012-06-09T07:05:44Z</time>
      </trkpt>
      <trkpt lat="45.68861" lon="6.28539">
        <ele>1301.5999755859</ele>
        <time>2012-06-09T07:05:51Z</time>
      </trkpt>
      <trkpt lat="45.68856" lon="6.28533">
        <ele>1302.8000488281</ele>
        <time>2012-06-09T07:05:57Z</time>
      </trkpt>
      <trkpt lat="45.68847" lon="6.28529">
        <ele>1302.8000488281</ele>
        <time>2012-06-09T07:06:03Z</time>
      </trkpt>
      <trkpt lat="45.68836" lon="6.28534">
        <ele>1302.8000488281</ele>
        <time>2012-06-09T07:06:11Z</time>
      </trkpt>
      <trkpt lat="45.68827" lon="6.28538">
        <ele>1303.8000488281</ele>
        <time>2012-06-09T07:06:16Z</time>
      </trkpt>
      <trkpt lat="45.68811" lon="6.28547">
        <ele>1305.8000488281</ele>
        <time>2012-06-09T07:06:26Z</time>
      </trkpt>
      <trkpt lat="45.68809" lon="6.28546">
        <ele>1305.8000488281</ele>
        <time>2012-06-09T07:06:28Z</time>
      </trkpt>
      <trkpt lat="45.68802" lon="6.28549">
        <ele>1306.8000488281</ele>
        <time>2012-06-09T07:06:33Z</time>
      </trkpt>
      <trkpt lat="45.68788" lon="6.28551">
        <ele>1310</ele>
        <time>2012-06-09T07:06:44Z</time>
      </trkpt>
      <trkpt lat="45.68783" lon="6.28551">
        <ele>1311</ele>
        <time>2012-06-09T07:06:47Z</time>
      </trkpt>
      <trkpt lat="45.68779" lon="6.28549">
        <ele>1311</ele>
        <time>2012-06-09T07:06:53Z</time>
      </trkpt>
      <trkpt lat="45.68775" lon="6.28549">
        <ele>1312.1999511719</ele>
        <time>2012-06-09T07:06:55Z</time>
      </trkpt>
      <trkpt lat="45.68766" lon="6.28546">
        <ele>1314.1999511719</ele>
        <time>2012-06-09T07:07:03Z</time>
      </trkpt>
      <trkpt lat="45.6876" lon="6.28545">
        <ele>1315.1999511719</ele>
        <time>2012-06-09T07:07:08Z</time>
      </trkpt>
      <trkpt lat="45.68748" lon="6.28545">
        <ele>1316.4000244141</ele>
        <time>2012-06-09T07:07:16Z</time>
      </trkpt>
      <trkpt lat="45.68743" lon="6.28546">
        <ele>1317.4000244141</ele>
        <time>2012-06-09T07:07:19Z</time>
      </trkpt>
      <trkpt lat="45.68737" lon="6.28545">
        <ele>1319.5999755859</ele>
        <time>2012-06-09T07:07:23Z</time>
      </trkpt>
      <trkpt lat="45.68725" lon="6.28541">
        <ele>1319.5999755859</ele>
        <time>2012-06-09T07:07:32Z</time>
      </trkpt>
      <trkpt lat="45.68721" lon="6.28542">
        <ele>1320.5999755859</ele>
        <time>2012-06-09T07:07:35Z</time>
      </trkpt>
      <trkpt lat="45.68718" lon="6.28538">
        <ele>1321.8000488281</ele>
        <time>2012-06-09T07:07:39Z</time>
      </trkpt>
      <trkpt lat="45.68713" lon="6.2854">
        <ele>1321.8000488281</ele>
        <time>2012-06-09T07:07:42Z</time>
      </trkpt>
      <trkpt lat="45.68706" lon="6.2854">
        <ele>1323.8000488281</ele>
        <time>2012-06-09T07:07:48Z</time>
      </trkpt>
      <trkpt lat="45.68701" lon="6.28539">
        <ele>1324.8000488281</ele>
        <time>2012-06-09T07:07:52Z</time>
      </trkpt>
      <trkpt lat="45.6869" lon="6.28535">
        <ele>1326</ele>
        <time>2012-06-09T07:08:01Z</time>
      </trkpt>
      <trkpt lat="45.68688" lon="6.28533">
        <ele>1327</ele>
        <time>2012-06-09T07:08:03Z</time>
      </trkpt>
      <trkpt lat="45.68682" lon="6.28528">
        <ele>1328.1999511719</ele>
        <time>2012-06-09T07:08:08Z</time>
      </trkpt>
      <trkpt lat="45.68672" lon="6.2852">
        <ele>1331.4000244141</ele>
        <time>2012-06-09T07:08:18Z</time>
      </trkpt>
      <trkpt lat="45.68668" lon="6.28518">
        <ele>1331.4000244141</ele>
        <time>2012-06-09T07:08:22Z</time>
      </trkpt>
      <trkpt lat="45.68664" lon="6.28514">
        <ele>1332.5999755859</ele>
        <time>2012-06-09T07:08:27Z</time>
      </trkpt>
      <trkpt lat="45.68653" lon="6.28513">
        <ele>1334.5999755859</ele>
        <time>2012-06-09T07:08:37Z</time>
      </trkpt>
      <trkpt lat="45.68645" lon="6.28507">
        <ele>1335.8000488281</ele>
        <time>2012-06-09T07:08:46Z</time>
      </trkpt>
      <trkpt lat="45.68644" lon="6.28505">
        <ele>1336.8000488281</ele>
        <time>2012-06-09T07:08:47Z</time>
      </trkpt>
      <trkpt lat="45.68635" lon="6.28499">
        <ele>1338.8000488281</ele>
        <time>2012-06-09T07:08:55Z</time>
      </trkpt>
      <trkpt lat="45.68629" lon="6.28497">
        <ele>1340</ele>
        <time>2012-06-09T07:09:00Z</time>
      </trkpt>
      <trkpt lat="45.68625" lon="6.28488">
        <ele>1341</ele>
        <time>2012-06-09T07:09:06Z</time>
      </trkpt>
      <trkpt lat="45.68627" lon="6.28469">
        <ele>1343.1999511719</ele>
        <time>2012-06-09T07:09:16Z</time>
      </trkpt>
      <trkpt lat="45.68626" lon="6.28463">
        <ele>1344.1999511719</ele>
        <time>2012-06-09T07:09:19Z</time>
      </trkpt>
      <trkpt lat="45.68627" lon="6.28451">
        <ele>1345.1999511719</ele>
        <time>2012-06-09T07:09:27Z</time>
      </trkpt>
      <trkpt lat="45.68627" lon="6.28449">
        <ele>1346.1999511719</ele>
        <time>2012-06-09T07:09:28Z</time>
      </trkpt>
      <trkpt lat="45.6863" lon="6.28438">
        <ele>1348.1999511719</ele>
        <time>2012-06-09T07:09:36Z</time>
      </trkpt>
      <trkpt lat="45.68631" lon="6.28432">
        <ele>1349.4000244141</ele>
        <time>2012-06-09T07:09:40Z</time>
      </trkpt>
      <trkpt lat="45.68635" lon="6.2842">
        <ele>1350.4000244141</ele>
        <time>2012-06-09T07:09:48Z</time>
      </trkpt>
      <trkpt lat="45.68635" lon="6.28418">
        <ele>1351.5999755859</ele>
        <time>2012-06-09T07:09:49Z</time>
      </trkpt>
      <trkpt lat="45.68644" lon="6.2841">
        <ele>1352.5999755859</ele>
        <time>2012-06-09T07:09:55Z</time>
      </trkpt>
      <trkpt lat="45.68655" lon="6.28396">
        <ele>1354.8000488281</ele>
        <time>2012-06-09T07:10:03Z</time>
      </trkpt>
      <trkpt lat="45.68657" lon="6.28384">
        <ele>1354.8000488281</ele>
        <time>2012-06-09T07:10:06Z</time>
      </trkpt>
      <trkpt lat="45.68651" lon="6.28348">
        <ele>1354.8000488281</ele>
        <time>2012-06-09T07:10:16Z</time>
      </trkpt>
      <trkpt lat="45.68647" lon="6.28342">
        <ele>1356</ele>
        <time>2012-06-09T07:10:19Z</time>
      </trkpt>
      <trkpt lat="45.68636" lon="6.28316">
        <ele>1356</ele>
        <time>2012-06-09T07:10:29Z</time>
      </trkpt>
      <trkpt lat="45.68634" lon="6.28312">
        <ele>1356</ele>
        <time>2012-06-09T07:10:31Z</time>
      </trkpt>
      <trkpt lat="45.68627" lon="6.283">
        <ele>1357</ele>
        <time>2012-06-09T07:10:37Z</time>
      </trkpt>
      <trkpt lat="45.68624" lon="6.28293">
        <ele>1357</ele>
        <time>2012-06-09T07:10:40Z</time>
      </trkpt>
      <trkpt lat="45.68608" lon="6.28272">
        <ele>1358</ele>
        <time>2012-06-09T07:10:50Z</time>
      </trkpt>
      <trkpt lat="45.686" lon="6.2825">
        <ele>1359.4000244141</ele>
        <time>2012-06-09T07:10:58Z</time>
      </trkpt>
      <trkpt lat="45.68594" lon="6.28247">
        <ele>1360.4000244141</ele>
        <time>2012-06-09T07:11:02Z</time>
      </trkpt>
      <trkpt lat="45.68585" lon="6.28226">
        <ele>1361.5999755859</ele>
        <time>2012-06-09T07:11:11Z</time>
      </trkpt>
      <trkpt lat="45.6858" lon="6.28215">
        <ele>1362.8000488281</ele>
        <time>2012-06-09T07:11:16Z</time>
      </trkpt>
      <trkpt lat="45.68571" lon="6.28185">
        <ele>1363.8000488281</ele>
        <time>2012-06-09T07:11:25Z</time>
      </trkpt>
      <trkpt lat="45.68571" lon="6.2818">
        <ele>1363.8000488281</ele>
        <time>2012-06-09T07:11:27Z</time>
      </trkpt>
      <trkpt lat="45.68566" lon="6.28165">
        <ele>1365</ele>
        <time>2012-06-09T07:11:35Z</time>
      </trkpt>
      <trkpt lat="45.68564" lon="6.28161">
        <ele>1366</ele>
        <time>2012-06-09T07:11:39Z</time>
      </trkpt>
      <trkpt lat="45.68558" lon="6.2815">
        <ele>1367.1999511719</ele>
        <time>2012-06-09T07:11:47Z</time>
      </trkpt>
      <trkpt lat="45.68552" lon="6.28136">
        <ele>1370.1999511719</ele>
        <time>2012-06-09T07:11:57Z</time>
      </trkpt>
      <trkpt lat="45.68552" lon="6.28132">
        <ele>1370.1999511719</ele>
        <time>2012-06-09T07:12:00Z</time>
      </trkpt>
      <trkpt lat="45.68551" lon="6.28125">
        <ele>1372.4000244141</ele>
        <time>2012-06-09T07:12:06Z</time>
      </trkpt>
      <trkpt lat="45.68546" lon="6.28123">
        <ele>1373.5999755859</ele>
        <time>2012-06-09T07:12:10Z</time>
      </trkpt>
      <trkpt lat="45.68537" lon="6.28115">
        <ele>1375.8000488281</ele>
        <time>2012-06-09T07:12:18Z</time>
      </trkpt>
      <trkpt lat="45.68535" lon="6.28113">
        <ele>1375.8000488281</ele>
        <time>2012-06-09T07:12:20Z</time>
      </trkpt>
      <trkpt lat="45.68531" lon="6.28105">
        <ele>1379</ele>
        <time>2012-06-09T07:12:28Z</time>
      </trkpt>
      <trkpt lat="45.68529" lon="6.281">
        <ele>1380</ele>
        <time>2012-06-09T07:12:31Z</time>
      </trkpt>
      <trkpt lat="45.68527" lon="6.2809">
        <ele>1382.1999511719</ele>
        <time>2012-06-09T07:12:38Z</time>
      </trkpt>
      <trkpt lat="45.68516" lon="6.28079">
        <ele>1385.5999755859</ele>
        <time>2012-06-09T07:12:51Z</time>
      </trkpt>
      <trkpt lat="45.68513" lon="6.28075">
        <ele>1386.5999755859</ele>
        <time>2012-06-09T07:12:55Z</time>
      </trkpt>
      <trkpt lat="45.68508" lon="6.28066">
        <ele>1387.8000488281</ele>
        <time>2012-06-09T07:13:03Z</time>
      </trkpt>
      <trkpt lat="45.68506" lon="6.28064">
        <ele>1389</ele>
        <time>2012-06-09T07:13:05Z</time>
      </trkpt>
      <trkpt lat="45.68501" lon="6.28062">
        <ele>1390</ele>
        <time>2012-06-09T07:13:10Z</time>
      </trkpt>
      <trkpt lat="45.68498" lon="6.28057">
        <ele>1390</ele>
        <time>2012-06-09T07:13:14Z</time>
      </trkpt>
      <trkpt lat="45.68492" lon="6.28041">
        <ele>1392.1999511719</ele>
        <time>2012-06-09T07:13:23Z</time>
      </trkpt>
      <trkpt lat="45.68491" lon="6.28037">
        <ele>1393.4000244141</ele>
        <time>2012-06-09T07:13:26Z</time>
      </trkpt>
      <trkpt lat="45.68489" lon="6.28021">
        <ele>1394.4000244141</ele>
        <time>2012-06-09T07:13:34Z</time>
      </trkpt>
      <trkpt lat="45.68487" lon="6.28003">
        <ele>1396.8000488281</ele>
        <time>2012-06-09T07:13:44Z</time>
      </trkpt>
      <trkpt lat="45.68487" lon="6.27994">
        <ele>1397.8000488281</ele>
        <time>2012-06-09T07:13:49Z</time>
      </trkpt>
      <trkpt lat="45.68486" lon="6.27988">
        <ele>1397.8000488281</ele>
        <time>2012-06-09T07:13:54Z</time>
      </trkpt>
      <trkpt lat="45.68483" lon="6.27982">
        <ele>1398.8000488281</ele>
        <time>2012-06-09T07:13:58Z</time>
      </trkpt>
      <trkpt lat="45.68476" lon="6.27972">
        <ele>1401</ele>
        <time>2012-06-09T07:14:06Z</time>
      </trkpt>
      <trkpt lat="45.68475" lon="6.27969">
        <ele>1401</ele>
        <time>2012-06-09T07:14:08Z</time>
      </trkpt>
      <trkpt lat="45.68474" lon="6.27959">
        <ele>1402.1999511719</ele>
        <time>2012-06-09T07:14:14Z</time>
      </trkpt>
      <trkpt lat="45.68473" lon="6.27956">
        <ele>1403.1999511719</ele>
        <time>2012-06-09T07:14:16Z</time>
      </trkpt>
      <trkpt lat="45.68471" lon="6.27941">
        <ele>1404.1999511719</ele>
        <time>2012-06-09T07:14:23Z</time>
      </trkpt>
      <trkpt lat="45.6847" lon="6.27924">
        <ele>1406.1999511719</ele>
        <time>2012-06-09T07:14:34Z</time>
      </trkpt>
      <trkpt lat="45.68469" lon="6.27906">
        <ele>1407.5999755859</ele>
        <time>2012-06-09T07:14:40Z</time>
      </trkpt>
      <trkpt lat="45.68462" lon="6.27878">
        <ele>1409.8000488281</ele>
        <time>2012-06-09T07:14:54Z</time>
      </trkpt>
      <trkpt lat="45.68461" lon="6.27875">
        <ele>1409.8000488281</ele>
        <time>2012-06-09T07:14:56Z</time>
      </trkpt>
      <trkpt lat="45.68459" lon="6.27866">
        <ele>1410.8000488281</ele>
        <time>2012-06-09T07:15:01Z</time>
      </trkpt>
      <trkpt lat="45.68456" lon="6.27861">
        <ele>1411.8000488281</ele>
        <time>2012-06-09T07:15:05Z</time>
      </trkpt>
      <trkpt lat="45.6845" lon="6.27855">
        <ele>1413</ele>
        <time>2012-06-09T07:15:13Z</time>
      </trkpt>
      <trkpt lat="45.68449" lon="6.27854">
        <ele>1414.1999511719</ele>
        <time>2012-06-09T07:15:14Z</time>
      </trkpt>
      <trkpt lat="45.68446" lon="6.2785">
        <ele>1415.4000244141</ele>
        <time>2012-06-09T07:15:19Z</time>
      </trkpt>
      <trkpt lat="45.68442" lon="6.27838">
        <ele>1418.5999755859</ele>
        <time>2012-06-09T07:15:31Z</time>
      </trkpt>
      <trkpt lat="45.68442" lon="6.27837">
        <ele>1418.5999755859</ele>
        <time>2012-06-09T07:15:33Z</time>
      </trkpt>
      <trkpt lat="45.68442" lon="6.27829">
        <ele>1420.8000488281</ele>
        <time>2012-06-09T07:15:40Z</time>
      </trkpt>
      <trkpt lat="45.68442" lon="6.27823">
        <ele>1421.8000488281</ele>
        <time>2012-06-09T07:15:46Z</time>
      </trkpt>
      <trkpt lat="45.68444" lon="6.27814">
        <ele>1424</ele>
        <time>2012-06-09T07:15:54Z</time>
      </trkpt>
      <trkpt lat="45.68444" lon="6.27812">
        <ele>1424</ele>
        <time>2012-06-09T07:15:56Z</time>
      </trkpt>
      <trkpt lat="45.68443" lon="6.27805">
        <ele>1426</ele>
        <time>2012-06-09T07:16:02Z</time>
      </trkpt>
      <trkpt lat="45.6844" lon="6.27799">
        <ele>1427.1999511719</ele>
        <time>2012-06-09T07:16:09Z</time>
      </trkpt>
      <trkpt lat="45.68438" lon="6.27793">
        <ele>1430.4000244141</ele>
        <time>2012-06-09T07:16:18Z</time>
      </trkpt>
      <trkpt lat="45.6844" lon="6.27784">
        <ele>1432.4000244141</ele>
        <time>2012-06-09T07:16:28Z</time>
      </trkpt>
      <trkpt lat="45.68441" lon="6.2778">
        <ele>1433.5999755859</ele>
        <time>2012-06-09T07:16:32Z</time>
      </trkpt>
      <trkpt lat="45.68443" lon="6.27771">
        <ele>1435.5999755859</ele>
        <time>2012-06-09T07:16:40Z</time>
      </trkpt>
      <trkpt lat="45.68445" lon="6.27768">
        <ele>1436.5999755859</ele>
        <time>2012-06-09T07:16:44Z</time>
      </trkpt>
      <trkpt lat="45.68447" lon="6.27758">
        <ele>1437.8000488281</ele>
        <time>2012-06-09T07:16:54Z</time>
      </trkpt>
      <trkpt lat="45.68448" lon="6.27755">
        <ele>1439.8000488281</ele>
        <time>2012-06-09T07:16:57Z</time>
      </trkpt>
      <trkpt lat="45.6845" lon="6.27746">
        <ele>1441</ele>
        <time>2012-06-09T07:17:06Z</time>
      </trkpt>
      <trkpt lat="45.6845" lon="6.27746">
        <ele>1442</ele>
        <time>2012-06-09T07:17:08Z</time>
      </trkpt>
      <trkpt lat="45.68455" lon="6.27744">
        <ele>1444</ele>
        <time>2012-06-09T07:17:15Z</time>
      </trkpt>
      <trkpt lat="45.68461" lon="6.2775">
        <ele>1446</ele>
        <time>2012-06-09T07:17:27Z</time>
      </trkpt>
      <trkpt lat="45.68461" lon="6.27753">
        <ele>1447.1999511719</ele>
        <time>2012-06-09T07:17:29Z</time>
      </trkpt>
      <trkpt lat="45.68467" lon="6.27752">
        <ele>1447.1999511719</ele>
        <time>2012-06-09T07:17:35Z</time>
      </trkpt>
      <trkpt lat="45.68469" lon="6.27751">
        <ele>1448.1999511719</ele>
        <time>2012-06-09T07:17:37Z</time>
      </trkpt>
      <trkpt lat="45.68474" lon="6.27758">
        <ele>1449.1999511719</ele>
        <time>2012-06-09T07:17:45Z</time>
      </trkpt>
      <trkpt lat="45.68474" lon="6.27763">
        <ele>1450.1999511719</ele>
        <time>2012-06-09T07:17:47Z</time>
      </trkpt>
      <trkpt lat="45.68478" lon="6.27764">
        <ele>1451.4000244141</ele>
        <time>2012-06-09T07:17:53Z</time>
      </trkpt>
      <trkpt lat="45.68481" lon="6.27767">
        <ele>1452.4000244141</ele>
        <time>2012-06-09T07:17:58Z</time>
      </trkpt>
      <trkpt lat="45.68485" lon="6.27776">
        <ele>1454.5999755859</ele>
        <time>2012-06-09T07:18:06Z</time>
      </trkpt>
      <trkpt lat="45.68493" lon="6.27784">
        <ele>1455.5999755859</ele>
        <time>2012-06-09T07:18:16Z</time>
      </trkpt>
      <trkpt lat="45.685" lon="6.27786">
        <ele>1456.5999755859</ele>
        <time>2012-06-09T07:18:21Z</time>
      </trkpt>
      <trkpt lat="45.68509" lon="6.27792">
        <ele>1458.8000488281</ele>
        <time>2012-06-09T07:18:26Z</time>
      </trkpt>
      <trkpt lat="45.68513" lon="6.27797">
        <ele>1458.8000488281</ele>
        <time>2012-06-09T07:18:29Z</time>
      </trkpt>
      <trkpt lat="45.68521" lon="6.27806">
        <ele>1461</ele>
        <time>2012-06-09T07:18:35Z</time>
      </trkpt>
      <trkpt lat="45.68523" lon="6.27809">
        <ele>1461</ele>
        <time>2012-06-09T07:18:37Z</time>
      </trkpt>
      <trkpt lat="45.6853" lon="6.27813">
        <ele>1462.1999511719</ele>
        <time>2012-06-09T07:18:41Z</time>
      </trkpt>
      <trkpt lat="45.68532" lon="6.27818">
        <ele>1462.1999511719</ele>
        <time>2012-06-09T07:18:44Z</time>
      </trkpt>
      <trkpt lat="45.68539" lon="6.27827">
        <ele>1464.1999511719</ele>
        <time>2012-06-09T07:18:52Z</time>
      </trkpt>
      <trkpt lat="45.68543" lon="6.27837">
        <ele>1466.4000244141</ele>
        <time>2012-06-09T07:19:03Z</time>
      </trkpt>
      <trkpt lat="45.68547" lon="6.27842">
        <ele>1466.4000244141</ele>
        <time>2012-06-09T07:19:08Z</time>
      </trkpt>
      <trkpt lat="45.68551" lon="6.27848">
        <ele>1468.5999755859</ele>
        <time>2012-06-09T07:19:14Z</time>
      </trkpt>
      <trkpt lat="45.68555" lon="6.27855">
        <ele>1469.5999755859</ele>
        <time>2012-06-09T07:19:19Z</time>
      </trkpt>
      <trkpt lat="45.68561" lon="6.27857">
        <ele>1470.5999755859</ele>
        <time>2012-06-09T07:19:25Z</time>
      </trkpt>
      <trkpt lat="45.68563" lon="6.27858">
        <ele>1471.5999755859</ele>
        <time>2012-06-09T07:19:28Z</time>
      </trkpt>
      <trkpt lat="45.68567" lon="6.27863">
        <ele>1471.5999755859</ele>
        <time>2012-06-09T07:19:33Z</time>
      </trkpt>
      <trkpt lat="45.68567" lon="6.27869">
        <ele>1472.8000488281</ele>
        <time>2012-06-09T07:19:36Z</time>
      </trkpt>
      <trkpt lat="45.68576" lon="6.27872">
        <ele>1474.8000488281</ele>
        <time>2012-06-09T07:19:44Z</time>
      </trkpt>
      <trkpt lat="45.68583" lon="6.27878">
        <ele>1476.8000488281</ele>
        <time>2012-06-09T07:19:51Z</time>
      </trkpt>
      <trkpt lat="45.68583" lon="6.27879">
        <ele>1476.8000488281</ele>
        <time>2012-06-09T07:19:53Z</time>
      </trkpt>
      <trkpt lat="45.6859" lon="6.27885">
        <ele>1478</ele>
        <time>2012-06-09T07:19:59Z</time>
      </trkpt>
      <trkpt lat="45.68592" lon="6.27886">
        <ele>1478</ele>
        <time>2012-06-09T07:20:00Z</time>
      </trkpt>
      <trkpt lat="45.68606" lon="6.27891">
        <ele>1479</ele>
        <time>2012-06-09T07:20:07Z</time>
      </trkpt>
      <trkpt lat="45.68614" lon="6.27894">
        <ele>1481.1999511719</ele>
        <time>2012-06-09T07:20:16Z</time>
      </trkpt>
      <trkpt lat="45.68626" lon="6.27892">
        <ele>1483.1999511719</ele>
        <time>2012-06-09T07:20:25Z</time>
      </trkpt>
      <trkpt lat="45.68629" lon="6.27894">
        <ele>1483.1999511719</ele>
        <time>2012-06-09T07:20:29Z</time>
      </trkpt>
      <trkpt lat="45.68638" lon="6.27895">
        <ele>1484.4000244141</ele>
        <time>2012-06-09T07:20:38Z</time>
      </trkpt>
      <trkpt lat="45.68653" lon="6.27911">
        <ele>1485.4000244141</ele>
        <time>2012-06-09T07:20:56Z</time>
      </trkpt>
      <trkpt lat="45.68653" lon="6.27915">
        <ele>1485.4000244141</ele>
        <time>2012-06-09T07:21:00Z</time>
      </trkpt>
      <trkpt lat="45.68657" lon="6.27941">
        <ele>1485.4000244141</ele>
        <time>2012-06-09T07:21:08Z</time>
      </trkpt>
      <trkpt lat="45.68663" lon="6.2795">
        <ele>1486.4000244141</ele>
        <time>2012-06-09T07:21:15Z</time>
      </trkpt>
      <trkpt lat="45.68669" lon="6.27956">
        <ele>1488.5999755859</ele>
        <time>2012-06-09T07:21:22Z</time>
      </trkpt>
      <trkpt lat="45.6867" lon="6.27957">
        <ele>1489.5999755859</ele>
        <time>2012-06-09T07:21:23Z</time>
      </trkpt>
      <trkpt lat="45.6868" lon="6.27959">
        <ele>1490.5999755859</ele>
        <time>2012-06-09T07:21:31Z</time>
      </trkpt>
      <trkpt lat="45.68682" lon="6.2796">
        <ele>1490.5999755859</ele>
        <time>2012-06-09T07:21:33Z</time>
      </trkpt>
      <trkpt lat="45.68686" lon="6.27974">
        <ele>1492.8000488281</ele>
        <time>2012-06-09T07:21:43Z</time>
      </trkpt>
      <trkpt lat="45.68698" lon="6.27982">
        <ele>1495</ele>
        <time>2012-06-09T07:21:53Z</time>
      </trkpt>
      <trkpt lat="45.687" lon="6.27985">
        <ele>1495</ele>
        <time>2012-06-09T07:21:56Z</time>
      </trkpt>
      <trkpt lat="45.68703" lon="6.27988">
        <ele>1497</ele>
        <time>2012-06-09T07:22:01Z</time>
      </trkpt>
      <trkpt lat="45.68706" lon="6.27992">
        <ele>1497</ele>
        <time>2012-06-09T07:22:04Z</time>
      </trkpt>
      <trkpt lat="45.68712" lon="6.28">
        <ele>1498</ele>
        <time>2012-06-09T07:22:10Z</time>
      </trkpt>
      <trkpt lat="45.68715" lon="6.28005">
        <ele>1499.1999511719</ele>
        <time>2012-06-09T07:22:13Z</time>
      </trkpt>
      <trkpt lat="45.68725" lon="6.28019">
        <ele>1501.4000244141</ele>
        <time>2012-06-09T07:22:23Z</time>
      </trkpt>
      <trkpt lat="45.68727" lon="6.28019">
        <ele>1501.4000244141</ele>
        <time>2012-06-09T07:22:25Z</time>
      </trkpt>
      <trkpt lat="45.68738" lon="6.28027">
        <ele>1503.5999755859</ele>
        <time>2012-06-09T07:22:35Z</time>
      </trkpt>
      <trkpt lat="45.68751" lon="6.28038">
        <ele>1505.5999755859</ele>
        <time>2012-06-09T07:22:50Z</time>
      </trkpt>
      <trkpt lat="45.68754" lon="6.28041">
        <ele>1505.5999755859</ele>
        <time>2012-06-09T07:22:55Z</time>
      </trkpt>
      <trkpt lat="45.68759" lon="6.28051">
        <ele>1507.5999755859</ele>
        <time>2012-06-09T07:23:03Z</time>
      </trkpt>
      <trkpt lat="45.68763" lon="6.28051">
        <ele>1508.8000488281</ele>
        <time>2012-06-09T07:23:08Z</time>
      </trkpt>
      <trkpt lat="45.68777" lon="6.28051">
        <ele>1509.8000488281</ele>
        <time>2012-06-09T07:23:17Z</time>
      </trkpt>
      <trkpt lat="45.68781" lon="6.28051">
        <ele>1510.8000488281</ele>
        <time>2012-06-09T07:23:19Z</time>
      </trkpt>
      <trkpt lat="45.68789" lon="6.28049">
        <ele>1511.8000488281</ele>
        <time>2012-06-09T07:23:25Z</time>
      </trkpt>
      <trkpt lat="45.68794" lon="6.2805">
        <ele>1514</ele>
        <time>2012-06-09T07:23:30Z</time>
      </trkpt>
      <trkpt lat="45.68803" lon="6.28049">
        <ele>1515.1999511719</ele>
        <time>2012-06-09T07:23:37Z</time>
      </trkpt>
      <trkpt lat="45.68815" lon="6.28046">
        <ele>1517.4000244141</ele>
        <time>2012-06-09T07:23:51Z</time>
      </trkpt>
      <trkpt lat="45.68819" lon="6.28043">
        <ele>1518.5999755859</ele>
        <time>2012-06-09T07:23:54Z</time>
      </trkpt>
      <trkpt lat="45.68826" lon="6.28036">
        <ele>1519.5999755859</ele>
        <time>2012-06-09T07:24:02Z</time>
      </trkpt>
      <trkpt lat="45.68827" lon="6.28036">
        <ele>1520.5999755859</ele>
        <time>2012-06-09T07:24:04Z</time>
      </trkpt>
      <trkpt lat="45.68828" lon="6.28036">
        <ele>1522.8000488281</ele>
        <time>2012-06-09T07:24:13Z</time>
      </trkpt>
      <trkpt lat="45.68834" lon="6.28027">
        <ele>1523.8000488281</ele>
        <time>2012-06-09T07:24:22Z</time>
      </trkpt>
      <trkpt lat="45.68837" lon="6.28022">
        <ele>1525.8000488281</ele>
        <time>2012-06-09T07:24:29Z</time>
      </trkpt>
      <trkpt lat="45.68842" lon="6.28017">
        <ele>1525.8000488281</ele>
        <time>2012-06-09T07:24:33Z</time>
      </trkpt>
      <trkpt lat="45.68844" lon="6.28018">
        <ele>1528</ele>
        <time>2012-06-09T07:24:38Z</time>
      </trkpt>
      <trkpt lat="45.6885" lon="6.28013">
        <ele>1530</ele>
        <time>2012-06-09T07:24:47Z</time>
      </trkpt>
      <trkpt lat="45.68852" lon="6.28014">
        <ele>1530</ele>
        <time>2012-06-09T07:24:49Z</time>
      </trkpt>
      <trkpt lat="45.6886" lon="6.28004">
        <ele>1530</ele>
        <time>2012-06-09T07:24:56Z</time>
      </trkpt>
      <trkpt lat="45.68864" lon="6.27997">
        <ele>1532.1999511719</ele>
        <time>2012-06-09T07:25:03Z</time>
      </trkpt>
      <trkpt lat="45.68868" lon="6.27992">
        <ele>1533.1999511719</ele>
        <time>2012-06-09T07:25:12Z</time>
      </trkpt>
      <trkpt lat="45.6887" lon="6.27991">
        <ele>1533.1999511719</ele>
        <time>2012-06-09T07:25:14Z</time>
      </trkpt>
      <trkpt lat="45.68869" lon="6.27996">
        <ele>1535.1999511719</ele>
        <time>2012-06-09T07:25:19Z</time>
      </trkpt>
      <trkpt lat="45.68874" lon="6.27992">
        <ele>1536.4000244141</ele>
        <time>2012-06-09T07:25:23Z</time>
      </trkpt>
      <trkpt lat="45.68882" lon="6.27988">
        <ele>1537.4000244141</ele>
        <time>2012-06-09T07:25:33Z</time>
      </trkpt>
      <trkpt lat="45.68883" lon="6.27994">
        <ele>1539.5999755859</ele>
        <time>2012-06-09T07:25:41Z</time>
      </trkpt>
      <trkpt lat="45.68881" lon="6.27993">
        <ele>1541.8000488281</ele>
        <time>2012-06-09T07:25:46Z</time>
      </trkpt>
      <trkpt lat="45.68886" lon="6.27986">
        <ele>1542.8000488281</ele>
        <time>2012-06-09T07:25:55Z</time>
      </trkpt>
      <trkpt lat="45.68889" lon="6.27983">
        <ele>1544</ele>
        <time>2012-06-09T07:25:57Z</time>
      </trkpt>
      <trkpt lat="45.68894" lon="6.27983">
        <ele>1546.1999511719</ele>
        <time>2012-06-09T07:26:09Z</time>
      </trkpt>
      <trkpt lat="45.68892" lon="6.27982">
        <ele>1547.1999511719</ele>
        <time>2012-06-09T07:26:14Z</time>
      </trkpt>
      <trkpt lat="45.68889" lon="6.27978">
        <ele>1549.1999511719</ele>
        <time>2012-06-09T07:26:21Z</time>
      </trkpt>
      <trkpt lat="45.68888" lon="6.27974">
        <ele>1549.1999511719</ele>
        <time>2012-06-09T07:26:24Z</time>
      </trkpt>
      <trkpt lat="45.68886" lon="6.27971">
        <ele>1550.4000244141</ele>
        <time>2012-06-09T07:26:31Z</time>
      </trkpt>
      <trkpt lat="45.68884" lon="6.27957">
        <ele>1551.5999755859</ele>
        <time>2012-06-09T07:26:46Z</time>
      </trkpt>
      <trkpt lat="45.68884" lon="6.27957">
        <ele>1552.5999755859</ele>
        <time>2012-06-09T07:26:48Z</time>
      </trkpt>
      <trkpt lat="45.68878" lon="6.27961">
        <ele>1553.8000488281</ele>
        <time>2012-06-09T07:26:55Z</time>
      </trkpt>
      <trkpt lat="45.68874" lon="6.27959">
        <ele>1554.8000488281</ele>
        <time>2012-06-09T07:26:59Z</time>
      </trkpt>
      <trkpt lat="45.68868" lon="6.27952">
        <ele>1556.8000488281</ele>
        <time>2012-06-09T07:27:08Z</time>
      </trkpt>
      <trkpt lat="45.68866" lon="6.27951">
        <ele>1557.8000488281</ele>
        <time>2012-06-09T07:27:11Z</time>
      </trkpt>
      <trkpt lat="45.68859" lon="6.27946">
        <ele>1559</ele>
        <time>2012-06-09T07:27:19Z</time>
      </trkpt>
      <trkpt lat="45.68857" lon="6.27942">
        <ele>1560</ele>
        <time>2012-06-09T07:27:22Z</time>
      </trkpt>
      <trkpt lat="45.68848" lon="6.27942">
        <ele>1561.4000244141</ele>
        <time>2012-06-09T07:27:28Z</time>
      </trkpt>
      <trkpt lat="45.68843" lon="6.2794">
        <ele>1561.4000244141</ele>
        <time>2012-06-09T07:27:36Z</time>
      </trkpt>
      <trkpt lat="45.68838" lon="6.2794">
        <ele>1562.4000244141</ele>
        <time>2012-06-09T07:27:39Z</time>
      </trkpt>
      <trkpt lat="45.68828" lon="6.27944">
        <ele>1562.4000244141</ele>
        <time>2012-06-09T07:27:47Z</time>
      </trkpt>
      <trkpt lat="45.68828" lon="6.27944">
        <ele>1563.4000244141</ele>
        <time>2012-06-09T07:27:48Z</time>
      </trkpt>
      <trkpt lat="45.68818" lon="6.27946">
        <ele>1564.4000244141</ele>
        <time>2012-06-09T07:27:52Z</time>
      </trkpt>
      <trkpt lat="45.68809" lon="6.27944">
        <ele>1565.4000244141</ele>
        <time>2012-06-09T07:27:58Z</time>
      </trkpt>
      <trkpt lat="45.68807" lon="6.27937">
        <ele>1566.5999755859</ele>
        <time>2012-06-09T07:28:05Z</time>
      </trkpt>
      <trkpt lat="45.68807" lon="6.27933">
        <ele>1566.5999755859</ele>
        <time>2012-06-09T07:28:06Z</time>
      </trkpt>
      <trkpt lat="45.68797" lon="6.27925">
        <ele>1568.5999755859</ele>
        <time>2012-06-09T07:28:15Z</time>
      </trkpt>
      <trkpt lat="45.68785" lon="6.27914">
        <ele>1571.8000488281</ele>
        <time>2012-06-09T07:28:29Z</time>
      </trkpt>
      <trkpt lat="45.68784" lon="6.27912">
        <ele>1571.8000488281</ele>
        <time>2012-06-09T07:28:30Z</time>
      </trkpt>
      <trkpt lat="45.68779" lon="6.2791">
        <ele>1573</ele>
        <time>2012-06-09T07:28:36Z</time>
      </trkpt>
      <trkpt lat="45.68775" lon="6.2791">
        <ele>1573</ele>
        <time>2012-06-09T07:28:38Z</time>
      </trkpt>
      <trkpt lat="45.68772" lon="6.27907">
        <ele>1575</ele>
        <time>2012-06-09T07:28:42Z</time>
      </trkpt>
      <trkpt lat="45.68771" lon="6.27904">
        <ele>1575</ele>
        <time>2012-06-09T07:28:44Z</time>
      </trkpt>
      <trkpt lat="45.68768" lon="6.27894">
        <ele>1575</ele>
        <time>2012-06-09T07:28:50Z</time>
      </trkpt>
      <trkpt lat="45.68765" lon="6.27883">
        <ele>1576.1999511719</ele>
        <time>2012-06-09T07:28:57Z</time>
      </trkpt>
      <trkpt lat="45.68769" lon="6.27861">
        <ele>1579.4000244141</ele>
        <time>2012-06-09T07:29:07Z</time>
      </trkpt>
      <trkpt lat="45.68771" lon="6.27841">
        <ele>1581.4000244141</ele>
        <time>2012-06-09T07:29:19Z</time>
      </trkpt>
      <trkpt lat="45.68772" lon="6.27836">
        <ele>1581.4000244141</ele>
        <time>2012-06-09T07:29:23Z</time>
      </trkpt>
      <trkpt lat="45.68772" lon="6.27826">
        <ele>1583.5999755859</ele>
        <time>2012-06-09T07:29:30Z</time>
      </trkpt>
      <trkpt lat="45.68771" lon="6.27825">
        <ele>1583.5999755859</ele>
        <time>2012-06-09T07:29:32Z</time>
      </trkpt>
      <trkpt lat="45.68763" lon="6.27815">
        <ele>1585.5999755859</ele>
        <time>2012-06-09T07:29:42Z</time>
      </trkpt>
      <trkpt lat="45.68759" lon="6.27811">
        <ele>1586.8000488281</ele>
        <time>2012-06-09T07:29:46Z</time>
      </trkpt>
      <trkpt lat="45.68751" lon="6.27802">
        <ele>1588.8000488281</ele>
        <time>2012-06-09T07:29:55Z</time>
      </trkpt>
      <trkpt lat="45.6875" lon="6.278">
        <ele>1589.8000488281</ele>
        <time>2012-06-09T07:29:56Z</time>
      </trkpt>
      <trkpt lat="45.68736" lon="6.27795">
        <ele>1590.8000488281</ele>
        <time>2012-06-09T07:30:04Z</time>
      </trkpt>
      <trkpt lat="45.68724" lon="6.27774">
        <ele>1590.8000488281</ele>
        <time>2012-06-09T07:30:17Z</time>
      </trkpt>
      <trkpt lat="45.68718" lon="6.27772">
        <ele>1590.8000488281</ele>
        <time>2012-06-09T07:30:21Z</time>
      </trkpt>
      <trkpt lat="45.68714" lon="6.27769">
        <ele>1593</ele>
        <time>2012-06-09T07:30:26Z</time>
      </trkpt>
      <trkpt lat="45.68707" lon="6.27763">
        <ele>1594</ele>
        <time>2012-06-09T07:30:32Z</time>
      </trkpt>
      <trkpt lat="45.68702" lon="6.27753">
        <ele>1596</ele>
        <time>2012-06-09T07:30:42Z</time>
      </trkpt>
      <trkpt lat="45.68705" lon="6.27747">
        <ele>1597</ele>
        <time>2012-06-09T07:30:45Z</time>
      </trkpt>
      <trkpt lat="45.68704" lon="6.27741">
        <ele>1598.1999511719</ele>
        <time>2012-06-09T07:30:50Z</time>
      </trkpt>
      <trkpt lat="45.68704" lon="6.27734">
        <ele>1599.1999511719</ele>
        <time>2012-06-09T07:30:55Z</time>
      </trkpt>
      <trkpt lat="45.68699" lon="6.27723">
        <ele>1600.1999511719</ele>
        <time>2012-06-09T07:31:04Z</time>
      </trkpt>
      <trkpt lat="45.687" lon="6.27712">
        <ele>1602.4000244141</ele>
        <time>2012-06-09T07:31:13Z</time>
      </trkpt>
      <trkpt lat="45.68696" lon="6.27706">
        <ele>1603.4000244141</ele>
        <time>2012-06-09T07:31:20Z</time>
      </trkpt>
      <trkpt lat="45.68694" lon="6.277">
        <ele>1605.5999755859</ele>
        <time>2012-06-09T07:31:27Z</time>
      </trkpt>
      <trkpt lat="45.68694" lon="6.27699">
        <ele>1605.5999755859</ele>
        <time>2012-06-09T07:31:29Z</time>
      </trkpt>
      <trkpt lat="45.68694" lon="6.27685">
        <ele>1607.8000488281</ele>
        <time>2012-06-09T07:31:36Z</time>
      </trkpt>
      <trkpt lat="45.68691" lon="6.27676">
        <ele>1608.8000488281</ele>
        <time>2012-06-09T07:31:43Z</time>
      </trkpt>
      <trkpt lat="45.68692" lon="6.27665">
        <ele>1611</ele>
        <time>2012-06-09T07:31:52Z</time>
      </trkpt>
      <trkpt lat="45.68692" lon="6.27659">
        <ele>1611</ele>
        <time>2012-06-09T07:31:56Z</time>
      </trkpt>
      <trkpt lat="45.68693" lon="6.27646">
        <ele>1613.1999511719</ele>
        <time>2012-06-09T07:32:05Z</time>
      </trkpt>
      <trkpt lat="45.68697" lon="6.27644">
        <ele>1614.1999511719</ele>
        <time>2012-06-09T07:32:14Z</time>
      </trkpt>
      <trkpt lat="45.68697" lon="6.27644">
        <ele>1614.1999511719</ele>
        <time>2012-06-09T07:32:15Z</time>
      </trkpt>
      <trkpt lat="45.68697" lon="6.27647">
        <ele>1616.4000244141</ele>
        <time>2012-06-09T07:32:21Z</time>
      </trkpt>
      <trkpt lat="45.68699" lon="6.2765">
        <ele>1617.4000244141</ele>
        <time>2012-06-09T07:32:26Z</time>
      </trkpt>
      <trkpt lat="45.68701" lon="6.27663">
        <ele>1619.5999755859</ele>
        <time>2012-06-09T07:32:36Z</time>
      </trkpt>
      <trkpt lat="45.68702" lon="6.27666">
        <ele>1620.5999755859</ele>
        <time>2012-06-09T07:32:39Z</time>
      </trkpt>
      <trkpt lat="45.68709" lon="6.27669">
        <ele>1621.5999755859</ele>
        <time>2012-06-09T07:32:47Z</time>
      </trkpt>
      <trkpt lat="45.68713" lon="6.2767">
        <ele>1622.5999755859</ele>
        <time>2012-06-09T07:32:52Z</time>
      </trkpt>
      <trkpt lat="45.68718" lon="6.27675">
        <ele>1624.8000488281</ele>
        <time>2012-06-09T07:33:02Z</time>
      </trkpt>
      <trkpt lat="45.68729" lon="6.27683">
        <ele>1626.8000488281</ele>
        <time>2012-06-09T07:33:15Z</time>
      </trkpt>
      <trkpt lat="45.68732" lon="6.2769">
        <ele>1628</ele>
        <time>2012-06-09T07:33:21Z</time>
      </trkpt>
      <trkpt lat="45.68736" lon="6.27697">
        <ele>1629</ele>
        <time>2012-06-09T07:33:27Z</time>
      </trkpt>
      <trkpt lat="45.68738" lon="6.27696">
        <ele>1629</ele>
        <time>2012-06-09T07:33:29Z</time>
      </trkpt>
      <trkpt lat="45.68744" lon="6.27699">
        <ele>1631.1999511719</ele>
        <time>2012-06-09T07:33:37Z</time>
      </trkpt>
      <trkpt lat="45.68751" lon="6.277">
        <ele>1632.1999511719</ele>
        <time>2012-06-09T07:33:43Z</time>
      </trkpt>
      <trkpt lat="45.68756" lon="6.27708">
        <ele>1633.4000244141</ele>
        <time>2012-06-09T07:33:52Z</time>
      </trkpt>
      <trkpt lat="45.68757" lon="6.2771">
        <ele>1634.4000244141</ele>
        <time>2012-06-09T07:33:53Z</time>
      </trkpt>
      <trkpt lat="45.68766" lon="6.27716">
        <ele>1636.4000244141</ele>
        <time>2012-06-09T07:34:05Z</time>
      </trkpt>
      <trkpt lat="45.6878" lon="6.27726">
        <ele>1639.8000488281</ele>
        <time>2012-06-09T07:34:19Z</time>
      </trkpt>
      <trkpt lat="45.68781" lon="6.27725">
        <ele>1639.8000488281</ele>
        <time>2012-06-09T07:34:20Z</time>
      </trkpt>
      <trkpt lat="45.68793" lon="6.27728">
        <ele>1642</ele>
        <time>2012-06-09T07:34:30Z</time>
      </trkpt>
      <trkpt lat="45.68797" lon="6.27728">
        <ele>1643</ele>
        <time>2012-06-09T07:34:35Z</time>
      </trkpt>
      <trkpt lat="45.68799" lon="6.27727">
        <ele>1645.1999511719</ele>
        <time>2012-06-09T07:34:41Z</time>
      </trkpt>
      <trkpt lat="45.68798" lon="6.27729">
        <ele>1645.1999511719</ele>
        <time>2012-06-09T07:34:45Z</time>
      </trkpt>
      <trkpt lat="45.68797" lon="6.27723">
        <ele>1647.4000244141</ele>
        <time>2012-06-09T07:34:51Z</time>
      </trkpt>
      <trkpt lat="45.68795" lon="6.27719">
        <ele>1648.5999755859</ele>
        <time>2012-06-09T07:34:56Z</time>
      </trkpt>
      <trkpt lat="45.68791" lon="6.27711">
        <ele>1649.5999755859</ele>
        <time>2012-06-09T07:35:05Z</time>
      </trkpt>
      <trkpt lat="45.68788" lon="6.27702">
        <ele>1651.8000488281</ele>
        <time>2012-06-09T07:35:15Z</time>
      </trkpt>
      <trkpt lat="45.68791" lon="6.27702">
        <ele>1653</ele>
        <time>2012-06-09T07:35:20Z</time>
      </trkpt>
      <trkpt lat="45.68797" lon="6.27698">
        <ele>1655.4000244141</ele>
        <time>2012-06-09T07:35:30Z</time>
      </trkpt>
      <trkpt lat="45.68799" lon="6.27699">
        <ele>1656.5999755859</ele>
        <time>2012-06-09T07:35:34Z</time>
      </trkpt>
      <trkpt lat="45.68795" lon="6.27695">
        <ele>1657.5999755859</ele>
        <time>2012-06-09T07:35:40Z</time>
      </trkpt>
      <trkpt lat="45.68793" lon="6.27692">
        <ele>1658.5999755859</ele>
        <time>2012-06-09T07:35:45Z</time>
      </trkpt>
      <trkpt lat="45.68791" lon="6.27686">
        <ele>1660.8000488281</ele>
        <time>2012-06-09T07:35:56Z</time>
      </trkpt>
      <trkpt lat="45.68791" lon="6.27683">
        <ele>1661.8000488281</ele>
        <time>2012-06-09T07:35:59Z</time>
      </trkpt>
      <trkpt lat="45.68791" lon="6.27677">
        <ele>1663.8000488281</ele>
        <time>2012-06-09T07:36:09Z</time>
      </trkpt>
      <trkpt lat="45.68797" lon="6.27674">
        <ele>1667</ele>
        <time>2012-06-09T07:36:24Z</time>
      </trkpt>
      <trkpt lat="45.68797" lon="6.27674">
        <ele>1667</ele>
        <time>2012-06-09T07:36:25Z</time>
      </trkpt>
      <trkpt lat="45.68799" lon="6.27669">
        <ele>1669.1999511719</ele>
        <time>2012-06-09T07:36:33Z</time>
      </trkpt>
      <trkpt lat="45.688" lon="6.27669">
        <ele>1670.1999511719</ele>
        <time>2012-06-09T07:36:37Z</time>
      </trkpt>
      <trkpt lat="45.68805" lon="6.27669">
        <ele>1672.1999511719</ele>
        <time>2012-06-09T07:36:45Z</time>
      </trkpt>
      <trkpt lat="45.68806" lon="6.2767">
        <ele>1673.4000244141</ele>
        <time>2012-06-09T07:36:46Z</time>
      </trkpt>
      <trkpt lat="45.68819" lon="6.27669">
        <ele>1674.4000244141</ele>
        <time>2012-06-09T07:36:59Z</time>
      </trkpt>
      <trkpt lat="45.68823" lon="6.27667">
        <ele>1675.4000244141</ele>
        <time>2012-06-09T07:37:05Z</time>
      </trkpt>
      <trkpt lat="45.6883" lon="6.27662">
        <ele>1677.5999755859</ele>
        <time>2012-06-09T07:37:12Z</time>
      </trkpt>
      <trkpt lat="45.68847" lon="6.27655">
        <ele>1679.8000488281</ele>
        <time>2012-06-09T07:37:23Z</time>
      </trkpt>
      <trkpt lat="45.68866" lon="6.27653">
        <ele>1680.8000488281</ele>
        <time>2012-06-09T07:37:35Z</time>
      </trkpt>
      <trkpt lat="45.68875" lon="6.27649">
        <ele>1681.8000488281</ele>
        <time>2012-06-09T07:37:44Z</time>
      </trkpt>
      <trkpt lat="45.68878" lon="6.2765">
        <ele>1681.8000488281</ele>
        <time>2012-06-09T07:37:48Z</time>
      </trkpt>
      <trkpt lat="45.68884" lon="6.27648">
        <ele>1683</ele>
        <time>2012-06-09T07:37:54Z</time>
      </trkpt>
      <trkpt lat="45.68895" lon="6.27645">
        <ele>1684</ele>
        <time>2012-06-09T07:38:07Z</time>
      </trkpt>
      <trkpt lat="45.68908" lon="6.27648">
        <ele>1685.1999511719</ele>
        <time>2012-06-09T07:38:16Z</time>
      </trkpt>
      <trkpt lat="45.68915" lon="6.27646">
        <ele>1685.1999511719</ele>
        <time>2012-06-09T07:38:20Z</time>
      </trkpt>
      <trkpt lat="45.68921" lon="6.27647">
        <ele>1685.1999511719</ele>
        <time>2012-06-09T07:38:26Z</time>
      </trkpt>
      <trkpt lat="45.68935" lon="6.27637">
        <ele>1686.1999511719</ele>
        <time>2012-06-09T07:38:37Z</time>
      </trkpt>
      <trkpt lat="45.68938" lon="6.2764">
        <ele>1686.1999511719</ele>
        <time>2012-06-09T07:38:39Z</time>
      </trkpt>
      <trkpt lat="45.68944" lon="6.27642">
        <ele>1688.1999511719</ele>
        <time>2012-06-09T07:38:44Z</time>
      </trkpt>
      <trkpt lat="45.6896" lon="6.27647">
        <ele>1688.1999511719</ele>
        <time>2012-06-09T07:38:52Z</time>
      </trkpt>
      <trkpt lat="45.68975" lon="6.27638">
        <ele>1689.1999511719</ele>
        <time>2012-06-09T07:39:01Z</time>
      </trkpt>
      <trkpt lat="45.68979" lon="6.27644">
        <ele>1689.1999511719</ele>
        <time>2012-06-09T07:39:06Z</time>
      </trkpt>
      <trkpt lat="45.68985" lon="6.27652">
        <ele>1691.4000244141</ele>
        <time>2012-06-09T07:39:13Z</time>
      </trkpt>
      <trkpt lat="45.68995" lon="6.27655">
        <ele>1691.4000244141</ele>
        <time>2012-06-09T07:39:19Z</time>
      </trkpt>
      <trkpt lat="45.69003" lon="6.2766">
        <ele>1691.4000244141</ele>
        <time>2012-06-09T07:39:24Z</time>
      </trkpt>
      <trkpt lat="45.69015" lon="6.27668">
        <ele>1687.4000244141</ele>
        <time>2012-06-09T07:39:33Z</time>
      </trkpt>
      <trkpt lat="45.69016" lon="6.2767">
        <ele>1686.1999511719</ele>
        <time>2012-06-09T07:39:36Z</time>
      </trkpt>
      <trkpt lat="45.6902" lon="6.27672">
        <ele>1685.1999511719</ele>
        <time>2012-06-09T07:39:42Z</time>
      </trkpt>
      <trkpt lat="45.69024" lon="6.27675">
        <ele>1685.1999511719</ele>
        <time>2012-06-09T07:39:47Z</time>
      </trkpt>
      <trkpt lat="45.69034" lon="6.27684">
        <ele>1682.8000488281</ele>
        <time>2012-06-09T07:39:55Z</time>
      </trkpt>
      <trkpt lat="45.6904" lon="6.27688">
        <ele>1682.8000488281</ele>
        <time>2012-06-09T07:39:59Z</time>
      </trkpt>
      <trkpt lat="45.69052" lon="6.27698">
        <ele>1681.5999755859</ele>
        <time>2012-06-09T07:40:07Z</time>
      </trkpt>
      <trkpt lat="45.69055" lon="6.27702">
        <ele>1681.5999755859</ele>
        <time>2012-06-09T07:40:09Z</time>
      </trkpt>
      <trkpt lat="45.69066" lon="6.27711">
        <ele>1679.4000244141</ele>
        <time>2012-06-09T07:40:15Z</time>
      </trkpt>
      <trkpt lat="45.69096" lon="6.27745">
        <ele>1679.4000244141</ele>
        <time>2012-06-09T07:40:33Z</time>
      </trkpt>
      <trkpt lat="45.69093" lon="6.27754">
        <ele>1679.4000244141</ele>
        <time>2012-06-09T07:40:37Z</time>
      </trkpt>
      <trkpt lat="45.69111" lon="6.2778">
        <ele>1677.4000244141</ele>
        <time>2012-06-09T07:40:47Z</time>
      </trkpt>
      <trkpt lat="45.69121" lon="6.27786">
        <ele>1676.4000244141</ele>
        <time>2012-06-09T07:40:51Z</time>
      </trkpt>
      <trkpt lat="45.69125" lon="6.27795">
        <ele>1675.1999511719</ele>
        <time>2012-06-09T07:40:55Z</time>
      </trkpt>
      <trkpt lat="45.69126" lon="6.27798">
        <ele>1675.1999511719</ele>
        <time>2012-06-09T07:41:00Z</time>
      </trkpt>
      <trkpt lat="45.6914" lon="6.27806">
        <ele>1675.1999511719</ele>
        <time>2012-06-09T07:41:19Z</time>
      </trkpt>
      <trkpt lat="45.6916" lon="6.27823">
        <ele>1675.1999511719</ele>
        <time>2012-06-09T07:41:29Z</time>
      </trkpt>
      <trkpt lat="45.6919" lon="6.27836">
        <ele>1675.1999511719</ele>
        <time>2012-06-09T07:41:43Z</time>
      </trkpt>
      <trkpt lat="45.69208" lon="6.27841">
        <ele>1678.5999755859</ele>
        <time>2012-06-09T07:41:53Z</time>
      </trkpt>
      <trkpt lat="45.69214" lon="6.27843">
        <ele>1679.5999755859</ele>
        <time>2012-06-09T07:41:57Z</time>
      </trkpt>
      <trkpt lat="45.69229" lon="6.27875">
        <ele>1679.5999755859</ele>
        <time>2012-06-09T07:42:09Z</time>
      </trkpt>
      <trkpt lat="45.69234" lon="6.27881">
        <ele>1679.5999755859</ele>
        <time>2012-06-09T07:42:12Z</time>
      </trkpt>
      <trkpt lat="45.69251" lon="6.27904">
        <ele>1679.5999755859</ele>
        <time>2012-06-09T07:42:23Z</time>
      </trkpt>
      <trkpt lat="45.6926" lon="6.27914">
        <ele>1679.5999755859</ele>
        <time>2012-06-09T07:42:28Z</time>
      </trkpt>
      <trkpt lat="45.69267" lon="6.27925">
        <ele>1679.5999755859</ele>
        <time>2012-06-09T07:42:33Z</time>
      </trkpt>
      <trkpt lat="45.69276" lon="6.2794">
        <ele>1679.5999755859</ele>
        <time>2012-06-09T07:42:39Z</time>
      </trkpt>
      <trkpt lat="45.69288" lon="6.27967">
        <ele>1679.5999755859</ele>
        <time>2012-06-09T07:42:50Z</time>
      </trkpt>
      <trkpt lat="45.69296" lon="6.28004">
        <ele>1679.5999755859</ele>
        <time>2012-06-09T07:43:04Z</time>
      </trkpt>
      <trkpt lat="45.69299" lon="6.28012">
        <ele>1679.5999755859</ele>
        <time>2012-06-09T07:43:07Z</time>
      </trkpt>
      <trkpt lat="45.69301" lon="6.28039">
        <ele>1681.8000488281</ele>
        <time>2012-06-09T07:43:18Z</time>
      </trkpt>
      <trkpt lat="45.69301" lon="6.28045">
        <ele>1681.8000488281</ele>
        <time>2012-06-09T07:43:21Z</time>
      </trkpt>
      <trkpt lat="45.69302" lon="6.28069">
        <ele>1681.8000488281</ele>
        <time>2012-06-09T07:43:33Z</time>
      </trkpt>
      <trkpt lat="45.69302" lon="6.28074">
        <ele>1681.8000488281</ele>
        <time>2012-06-09T07:43:35Z</time>
      </trkpt>
      <trkpt lat="45.69304" lon="6.28088">
        <ele>1683.8000488281</ele>
        <time>2012-06-09T07:43:40Z</time>
      </trkpt>
      <trkpt lat="45.69307" lon="6.28103">
        <ele>1683.8000488281</ele>
        <time>2012-06-09T07:43:46Z</time>
      </trkpt>
      <trkpt lat="45.69312" lon="6.2813">
        <ele>1683.8000488281</ele>
        <time>2012-06-09T07:43:54Z</time>
      </trkpt>
      <trkpt lat="45.69326" lon="6.28185">
        <ele>1683.8000488281</ele>
        <time>2012-06-09T07:44:15Z</time>
      </trkpt>
      <trkpt lat="45.69328" lon="6.28191">
        <ele>1683.8000488281</ele>
        <time>2012-06-09T07:44:20Z</time>
      </trkpt>
      <trkpt lat="45.6933" lon="6.28206">
        <ele>1686.1999511719</ele>
        <time>2012-06-09T07:44:29Z</time>
      </trkpt>
      <trkpt lat="45.69331" lon="6.28211">
        <ele>1686.1999511719</ele>
        <time>2012-06-09T07:44:31Z</time>
      </trkpt>
      <trkpt lat="45.69335" lon="6.28228">
        <ele>1687.1999511719</ele>
        <time>2012-06-09T07:44:43Z</time>
      </trkpt>
      <trkpt lat="45.69335" lon="6.28228">
        <ele>1687.1999511719</ele>
        <time>2012-06-09T07:44:50Z</time>
      </trkpt>
      <trkpt lat="45.69336" lon="6.28229">
        <ele>1687.1999511719</ele>
        <time>2012-06-09T07:45:06Z</time>
      </trkpt>
      <trkpt lat="45.69339" lon="6.28234">
        <ele>1688.1999511719</ele>
        <time>2012-06-09T07:45:13Z</time>
      </trkpt>
      <trkpt lat="45.69343" lon="6.28248">
        <ele>1690.8000488281</ele>
        <time>2012-06-09T07:45:19Z</time>
      </trkpt>
      <trkpt lat="45.69351" lon="6.28278">
        <ele>1693</ele>
        <time>2012-06-09T07:45:30Z</time>
      </trkpt>
      <trkpt lat="45.69353" lon="6.2828">
        <ele>1694.4000244141</ele>
        <time>2012-06-09T07:45:31Z</time>
      </trkpt>
      <trkpt lat="45.6936" lon="6.28287">
        <ele>1695.4000244141</ele>
        <time>2012-06-09T07:45:36Z</time>
      </trkpt>
      <trkpt lat="45.69366" lon="6.28289">
        <ele>1696.4000244141</ele>
        <time>2012-06-09T07:45:42Z</time>
      </trkpt>
      <trkpt lat="45.69374" lon="6.28291">
        <ele>1698.5999755859</ele>
        <time>2012-06-09T07:45:49Z</time>
      </trkpt>
      <trkpt lat="45.6938" lon="6.28292">
        <ele>1699.8000488281</ele>
        <time>2012-06-09T07:45:53Z</time>
      </trkpt>
      <trkpt lat="45.69386" lon="6.28292">
        <ele>1700.8000488281</ele>
        <time>2012-06-09T07:45:59Z</time>
      </trkpt>
      <trkpt lat="45.69392" lon="6.28292">
        <ele>1701.8000488281</ele>
        <time>2012-06-09T07:46:04Z</time>
      </trkpt>
      <trkpt lat="45.69399" lon="6.28291">
        <ele>1703.1999511719</ele>
        <time>2012-06-09T07:46:10Z</time>
      </trkpt>
      <trkpt lat="45.69399" lon="6.28282">
        <ele>1705.4000244141</ele>
        <time>2012-06-09T07:46:19Z</time>
      </trkpt>
      <trkpt lat="45.69398" lon="6.28274">
        <ele>1706.4000244141</ele>
        <time>2012-06-09T07:46:25Z</time>
      </trkpt>
      <trkpt lat="45.69396" lon="6.28267">
        <ele>1707.5999755859</ele>
        <time>2012-06-09T07:46:31Z</time>
      </trkpt>
      <trkpt lat="45.69395" lon="6.28263">
        <ele>1708.5999755859</ele>
        <time>2012-06-09T07:46:34Z</time>
      </trkpt>
      <trkpt lat="45.69392" lon="6.28256">
        <ele>1709.8000488281</ele>
        <time>2012-06-09T07:46:40Z</time>
      </trkpt>
      <trkpt lat="45.6939" lon="6.28247">
        <ele>1711.8000488281</ele>
        <time>2012-06-09T07:46:47Z</time>
      </trkpt>
      <trkpt lat="45.69387" lon="6.28236">
        <ele>1713.8000488281</ele>
        <time>2012-06-09T07:46:55Z</time>
      </trkpt>
      <trkpt lat="45.69387" lon="6.28235">
        <ele>1713.8000488281</ele>
        <time>2012-06-09T07:46:56Z</time>
      </trkpt>
      <trkpt lat="45.69385" lon="6.28222">
        <ele>1716</ele>
        <time>2012-06-09T07:47:06Z</time>
      </trkpt>
      <trkpt lat="45.69402" lon="6.28225">
        <ele>1719.1999511719</ele>
        <time>2012-06-09T07:47:22Z</time>
      </trkpt>
      <trkpt lat="45.69405" lon="6.28223">
        <ele>1719.1999511719</ele>
        <time>2012-06-09T07:47:25Z</time>
      </trkpt>
      <trkpt lat="45.69411" lon="6.28218">
        <ele>1722.5999755859</ele>
        <time>2012-06-09T07:47:34Z</time>
      </trkpt>
      <trkpt lat="45.69423" lon="6.28229">
        <ele>1722.5999755859</ele>
        <time>2012-06-09T07:47:40Z</time>
      </trkpt>
      <trkpt lat="45.69438" lon="6.28237">
        <ele>1718.4000244141</ele>
        <time>2012-06-09T07:47:46Z</time>
      </trkpt>
      <trkpt lat="45.69446" lon="6.28237">
        <ele>1717</ele>
        <time>2012-06-09T07:47:49Z</time>
      </trkpt>
      <trkpt lat="45.6947" lon="6.2824">
        <ele>1714.4000244141</ele>
        <time>2012-06-09T07:47:58Z</time>
      </trkpt>
      <trkpt lat="45.69482" lon="6.28236">
        <ele>1713.1999511719</ele>
        <time>2012-06-09T07:48:02Z</time>
      </trkpt>
      <trkpt lat="45.69514" lon="6.28213">
        <ele>1710.8000488281</ele>
        <time>2012-06-09T07:48:16Z</time>
      </trkpt>
      <trkpt lat="45.69528" lon="6.28202">
        <ele>1706.4000244141</ele>
        <time>2012-06-09T07:48:21Z</time>
      </trkpt>
      <trkpt lat="45.69532" lon="6.28198">
        <ele>1705</ele>
        <time>2012-06-09T07:48:23Z</time>
      </trkpt>
      <trkpt lat="45.69545" lon="6.28185">
        <ele>1702.8000488281</ele>
        <time>2012-06-09T07:48:28Z</time>
      </trkpt>
      <trkpt lat="45.69548" lon="6.28182">
        <ele>1701.5999755859</ele>
        <time>2012-06-09T07:48:29Z</time>
      </trkpt>
      <trkpt lat="45.69561" lon="6.28174">
        <ele>1699.4000244141</ele>
        <time>2012-06-09T07:48:34Z</time>
      </trkpt>
      <trkpt lat="45.69569" lon="6.28164">
        <ele>1698.4000244141</ele>
        <time>2012-06-09T07:48:37Z</time>
      </trkpt>
      <trkpt lat="45.69579" lon="6.28155">
        <ele>1695.5999755859</ele>
        <time>2012-06-09T07:48:41Z</time>
      </trkpt>
      <trkpt lat="45.69585" lon="6.28144">
        <ele>1694.4000244141</ele>
        <time>2012-06-09T07:48:44Z</time>
      </trkpt>
      <trkpt lat="45.69584" lon="6.28119">
        <ele>1692</ele>
        <time>2012-06-09T07:48:50Z</time>
      </trkpt>
      <trkpt lat="45.69617" lon="6.28068">
        <ele>1695.1999511719</ele>
        <time>2012-06-09T07:49:08Z</time>
      </trkpt>
      <trkpt lat="45.69622" lon="6.28059">
        <ele>1695.1999511719</ele>
        <time>2012-06-09T07:49:12Z</time>
      </trkpt>
      <trkpt lat="45.69638" lon="6.28045">
        <ele>1696.4000244141</ele>
        <time>2012-06-09T07:49:26Z</time>
      </trkpt>
      <trkpt lat="45.6964" lon="6.28041">
        <ele>1698.4000244141</ele>
        <time>2012-06-09T07:49:30Z</time>
      </trkpt>
      <trkpt lat="45.69646" lon="6.2803">
        <ele>1699.4000244141</ele>
        <time>2012-06-09T07:49:38Z</time>
      </trkpt>
      <trkpt lat="45.6965" lon="6.28025">
        <ele>1699.4000244141</ele>
        <time>2012-06-09T07:49:42Z</time>
      </trkpt>
      <trkpt lat="45.69655" lon="6.2802">
        <ele>1701.5999755859</ele>
        <time>2012-06-09T07:49:48Z</time>
      </trkpt>
      <trkpt lat="45.69663" lon="6.28016">
        <ele>1703.8000488281</ele>
        <time>2012-06-09T07:49:56Z</time>
      </trkpt>
      <trkpt lat="45.69669" lon="6.28011">
        <ele>1704.8000488281</ele>
        <time>2012-06-09T07:50:05Z</time>
      </trkpt>
      <trkpt lat="45.69686" lon="6.28001">
        <ele>1708</ele>
        <time>2012-06-09T07:50:21Z</time>
      </trkpt>
      <trkpt lat="45.69692" lon="6.27997">
        <ele>1709</ele>
        <time>2012-06-09T07:50:28Z</time>
      </trkpt>
      <trkpt lat="45.69701" lon="6.2799">
        <ele>1711.1999511719</ele>
        <time>2012-06-09T07:50:37Z</time>
      </trkpt>
      <trkpt lat="45.69704" lon="6.27987">
        <ele>1712.1999511719</ele>
        <time>2012-06-09T07:50:40Z</time>
      </trkpt>
      <trkpt lat="45.69708" lon="6.27978">
        <ele>1713.4000244141</ele>
        <time>2012-06-09T07:50:48Z</time>
      </trkpt>
      <trkpt lat="45.69708" lon="6.27976">
        <ele>1714.4000244141</ele>
        <time>2012-06-09T07:50:50Z</time>
      </trkpt>
      <trkpt lat="45.69701" lon="6.2797">
        <ele>1716.5999755859</ele>
        <time>2012-06-09T07:50:59Z</time>
      </trkpt>
      <trkpt lat="45.697" lon="6.2797">
        <ele>1716.5999755859</ele>
        <time>2012-06-09T07:51:00Z</time>
      </trkpt>
      <trkpt lat="45.69691" lon="6.27966">
        <ele>1718.8000488281</ele>
        <time>2012-06-09T07:51:09Z</time>
      </trkpt>
      <trkpt lat="45.69678" lon="6.27953">
        <ele>1721.8000488281</ele>
        <time>2012-06-09T07:51:23Z</time>
      </trkpt>
      <trkpt lat="45.69677" lon="6.27952">
        <ele>1721.8000488281</ele>
        <time>2012-06-09T07:51:24Z</time>
      </trkpt>
      <trkpt lat="45.69671" lon="6.27947">
        <ele>1724</ele>
        <time>2012-06-09T07:51:31Z</time>
      </trkpt>
      <trkpt lat="45.69666" lon="6.27942">
        <ele>1725</ele>
        <time>2012-06-09T07:51:37Z</time>
      </trkpt>
      <trkpt lat="45.69661" lon="6.27935">
        <ele>1726.1999511719</ele>
        <time>2012-06-09T07:51:44Z</time>
      </trkpt>
      <trkpt lat="45.69661" lon="6.27934">
        <ele>1726.1999511719</ele>
        <time>2012-06-09T07:51:45Z</time>
      </trkpt>
      <trkpt lat="45.69658" lon="6.27925">
        <ele>1728.4000244141</ele>
        <time>2012-06-09T07:51:51Z</time>
      </trkpt>
      <trkpt lat="45.69655" lon="6.27917">
        <ele>1729.4000244141</ele>
        <time>2012-06-09T07:51:57Z</time>
      </trkpt>
      <trkpt lat="45.69653" lon="6.27906">
        <ele>1730.4000244141</ele>
        <time>2012-06-09T07:52:04Z</time>
      </trkpt>
      <trkpt lat="45.69659" lon="6.27886">
        <ele>1733.5999755859</ele>
        <time>2012-06-09T07:52:16Z</time>
      </trkpt>
      <trkpt lat="45.69664" lon="6.27883">
        <ele>1734.8000488281</ele>
        <time>2012-06-09T07:52:20Z</time>
      </trkpt>
      <trkpt lat="45.69685" lon="6.27871">
        <ele>1735.8000488281</ele>
        <time>2012-06-09T07:52:32Z</time>
      </trkpt>
      <trkpt lat="45.69694" lon="6.2786">
        <ele>1735.8000488281</ele>
        <time>2012-06-09T07:52:37Z</time>
      </trkpt>
      <trkpt lat="45.69699" lon="6.27803">
        <ele>1735.8000488281</ele>
        <time>2012-06-09T07:52:54Z</time>
      </trkpt>
      <trkpt lat="45.69696" lon="6.27794">
        <ele>1735.8000488281</ele>
        <time>2012-06-09T07:52:59Z</time>
      </trkpt>
      <trkpt lat="45.69696" lon="6.27782">
        <ele>1738.1999511719</ele>
        <time>2012-06-09T07:53:06Z</time>
      </trkpt>
      <trkpt lat="45.69696" lon="6.27776">
        <ele>1738.1999511719</ele>
        <time>2012-06-09T07:53:08Z</time>
      </trkpt>
      <trkpt lat="45.69695" lon="6.27759">
        <ele>1739.4000244141</ele>
        <time>2012-06-09T07:53:14Z</time>
      </trkpt>
      <trkpt lat="45.69688" lon="6.27731">
        <ele>1740.4000244141</ele>
        <time>2012-06-09T07:53:24Z</time>
      </trkpt>
      <trkpt lat="45.69685" lon="6.27728">
        <ele>1741.5999755859</ele>
        <time>2012-06-09T07:53:26Z</time>
      </trkpt>
      <trkpt lat="45.69679" lon="6.27709">
        <ele>1741.5999755859</ele>
        <time>2012-06-09T07:53:35Z</time>
      </trkpt>
      <trkpt lat="45.69678" lon="6.27696">
        <ele>1741.5999755859</ele>
        <time>2012-06-09T07:53:41Z</time>
      </trkpt>
      <trkpt lat="45.69678" lon="6.27682">
        <ele>1742.5999755859</ele>
        <time>2012-06-09T07:53:48Z</time>
      </trkpt>
      <trkpt lat="45.69678" lon="6.27678">
        <ele>1743.8000488281</ele>
        <time>2012-06-09T07:53:51Z</time>
      </trkpt>
      <trkpt lat="45.69675" lon="6.27666">
        <ele>1745.8000488281</ele>
        <time>2012-06-09T07:53:58Z</time>
      </trkpt>
      <trkpt lat="45.69672" lon="6.27656">
        <ele>1746.8000488281</ele>
        <time>2012-06-09T07:54:04Z</time>
      </trkpt>
      <trkpt lat="45.6967" lon="6.27639">
        <ele>1750</ele>
        <time>2012-06-09T07:54:15Z</time>
      </trkpt>
      <trkpt lat="45.6967" lon="6.27629">
        <ele>1752.1999511719</ele>
        <time>2012-06-09T07:54:24Z</time>
      </trkpt>
      <trkpt lat="45.69671" lon="6.27623">
        <ele>1753.4000244141</ele>
        <time>2012-06-09T07:54:29Z</time>
      </trkpt>
      <trkpt lat="45.69675" lon="6.27605">
        <ele>1755.5999755859</ele>
        <time>2012-06-09T07:54:41Z</time>
      </trkpt>
      <trkpt lat="45.69675" lon="6.27601">
        <ele>1756.5999755859</ele>
        <time>2012-06-09T07:54:43Z</time>
      </trkpt>
      <trkpt lat="45.69682" lon="6.2759">
        <ele>1758.8000488281</ele>
        <time>2012-06-09T07:54:52Z</time>
      </trkpt>
      <trkpt lat="45.69686" lon="6.27593">
        <ele>1759.8000488281</ele>
        <time>2012-06-09T07:54:58Z</time>
      </trkpt>
      <trkpt lat="45.69693" lon="6.27606">
        <ele>1763.1999511719</ele>
        <time>2012-06-09T07:55:11Z</time>
      </trkpt>
      <trkpt lat="45.69694" lon="6.27608">
        <ele>1763.1999511719</ele>
        <time>2012-06-09T07:55:13Z</time>
      </trkpt>
      <trkpt lat="45.69696" lon="6.27615">
        <ele>1765.4000244141</ele>
        <time>2012-06-09T07:55:19Z</time>
      </trkpt>
      <trkpt lat="45.69708" lon="6.27621">
        <ele>1767.5999755859</ele>
        <time>2012-06-09T07:55:32Z</time>
      </trkpt>
      <trkpt lat="45.69709" lon="6.27621">
        <ele>1768.5999755859</ele>
        <time>2012-06-09T07:55:33Z</time>
      </trkpt>
      <trkpt lat="45.69712" lon="6.276">
        <ele>1769.5999755859</ele>
        <time>2012-06-09T07:55:44Z</time>
      </trkpt>
      <trkpt lat="45.69716" lon="6.27585">
        <ele>1770.5999755859</ele>
        <time>2012-06-09T07:55:53Z</time>
      </trkpt>
      <trkpt lat="45.69717" lon="6.27574">
        <ele>1772.8000488281</ele>
        <time>2012-06-09T07:56:00Z</time>
      </trkpt>
      <trkpt lat="45.69716" lon="6.27569">
        <ele>1773.8000488281</ele>
        <time>2012-06-09T07:56:03Z</time>
      </trkpt>
      <trkpt lat="45.6971" lon="6.27557">
        <ele>1775.8000488281</ele>
        <time>2012-06-09T07:56:11Z</time>
      </trkpt>
      <trkpt lat="45.69708" lon="6.27552">
        <ele>1777</ele>
        <time>2012-06-09T07:56:15Z</time>
      </trkpt>
      <trkpt lat="45.69704" lon="6.27542">
        <ele>1778</ele>
        <time>2012-06-09T07:56:21Z</time>
      </trkpt>
      <trkpt lat="45.69694" lon="6.27513">
        <ele>1781.4000244141</ele>
        <time>2012-06-09T07:56:38Z</time>
      </trkpt>
      <trkpt lat="45.69687" lon="6.27486">
        <ele>1781.4000244141</ele>
        <time>2012-06-09T07:56:52Z</time>
      </trkpt>
      <trkpt lat="45.6968" lon="6.27463">
        <ele>1783.4000244141</ele>
        <time>2012-06-09T07:57:05Z</time>
      </trkpt>
      <trkpt lat="45.69678" lon="6.27456">
        <ele>1784.4000244141</ele>
        <time>2012-06-09T07:57:10Z</time>
      </trkpt>
      <trkpt lat="45.69678" lon="6.27441">
        <ele>1786.5999755859</ele>
        <time>2012-06-09T07:57:19Z</time>
      </trkpt>
      <trkpt lat="45.6968" lon="6.27434">
        <ele>1787.5999755859</ele>
        <time>2012-06-09T07:57:23Z</time>
      </trkpt>
      <trkpt lat="45.69681" lon="6.27426">
        <ele>1788.8000488281</ele>
        <time>2012-06-09T07:57:28Z</time>
      </trkpt>
      <trkpt lat="45.69681" lon="6.27421">
        <ele>1788.8000488281</ele>
        <time>2012-06-09T07:57:30Z</time>
      </trkpt>
      <trkpt lat="45.6968" lon="6.27405">
        <ele>1791</ele>
        <time>2012-06-09T07:57:38Z</time>
      </trkpt>
      <trkpt lat="45.69684" lon="6.27382">
        <ele>1794.1999511719</ele>
        <time>2012-06-09T07:57:51Z</time>
      </trkpt>
      <trkpt lat="45.69685" lon="6.27378">
        <ele>1795.4000244141</ele>
        <time>2012-06-09T07:57:54Z</time>
      </trkpt>
      <trkpt lat="45.69689" lon="6.27373">
        <ele>1796.4000244141</ele>
        <time>2012-06-09T07:58:00Z</time>
      </trkpt>
      <trkpt lat="45.69695" lon="6.27365">
        <ele>1798.4000244141</ele>
        <time>2012-06-09T07:58:08Z</time>
      </trkpt>
      <trkpt lat="45.69688" lon="6.27355">
        <ele>1800.8000488281</ele>
        <time>2012-06-09T07:58:17Z</time>
      </trkpt>
      <trkpt lat="45.69687" lon="6.27354">
        <ele>1800.8000488281</ele>
        <time>2012-06-09T07:58:18Z</time>
      </trkpt>
      <trkpt lat="45.69675" lon="6.27351">
        <ele>1802.8000488281</ele>
        <time>2012-06-09T07:58:29Z</time>
      </trkpt>
      <trkpt lat="45.69669" lon="6.27349">
        <ele>1804</ele>
        <time>2012-06-09T07:58:34Z</time>
      </trkpt>
      <trkpt lat="45.69666" lon="6.27342">
        <ele>1805</ele>
        <time>2012-06-09T07:58:41Z</time>
      </trkpt>
      <trkpt lat="45.69671" lon="6.27336">
        <ele>1808.1999511719</ele>
        <time>2012-06-09T07:58:49Z</time>
      </trkpt>
      <trkpt lat="45.69675" lon="6.27328">
        <ele>1809.1999511719</ele>
        <time>2012-06-09T07:58:55Z</time>
      </trkpt>
      <trkpt lat="45.69678" lon="6.27322">
        <ele>1810.1999511719</ele>
        <time>2012-06-09T07:59:00Z</time>
      </trkpt>
      <trkpt lat="45.6968" lon="6.27319">
        <ele>1811.4000244141</ele>
        <time>2012-06-09T07:59:03Z</time>
      </trkpt>
      <trkpt lat="45.6968" lon="6.27311">
        <ele>1812.4000244141</ele>
        <time>2012-06-09T07:59:07Z</time>
      </trkpt>
      <trkpt lat="45.6968" lon="6.27305">
        <ele>1813.4000244141</ele>
        <time>2012-06-09T07:59:11Z</time>
      </trkpt>
      <trkpt lat="45.69681" lon="6.27291">
        <ele>1815.5999755859</ele>
        <time>2012-06-09T07:59:21Z</time>
      </trkpt>
      <trkpt lat="45.69681" lon="6.27285">
        <ele>1816.5999755859</ele>
        <time>2012-06-09T07:59:25Z</time>
      </trkpt>
      <trkpt lat="45.69681" lon="6.27281">
        <ele>1817.8000488281</ele>
        <time>2012-06-09T07:59:28Z</time>
      </trkpt>
      <trkpt lat="45.6968" lon="6.27261">
        <ele>1821</ele>
        <time>2012-06-09T07:59:44Z</time>
      </trkpt>
      <trkpt lat="45.6968" lon="6.2726">
        <ele>1822</ele>
        <time>2012-06-09T07:59:45Z</time>
      </trkpt>
      <trkpt lat="45.69685" lon="6.27248">
        <ele>1823.1999511719</ele>
        <time>2012-06-09T07:59:55Z</time>
      </trkpt>
      <trkpt lat="45.69691" lon="6.27241">
        <ele>1825.1999511719</ele>
        <time>2012-06-09T08:00:02Z</time>
      </trkpt>
      <trkpt lat="45.69702" lon="6.27233">
        <ele>1827.4000244141</ele>
        <time>2012-06-09T08:00:12Z</time>
      </trkpt>
      <trkpt lat="45.69705" lon="6.27231">
        <ele>1828.4000244141</ele>
        <time>2012-06-09T08:00:16Z</time>
      </trkpt>
      <trkpt lat="45.69715" lon="6.27223">
        <ele>1829.5999755859</ele>
        <time>2012-06-09T08:00:25Z</time>
      </trkpt>
      <trkpt lat="45.69723" lon="6.27219">
        <ele>1830.5999755859</ele>
        <time>2012-06-09T08:00:31Z</time>
      </trkpt>
      <trkpt lat="45.69731" lon="6.2721">
        <ele>1832.5999755859</ele>
        <time>2012-06-09T08:00:40Z</time>
      </trkpt>
      <trkpt lat="45.69731" lon="6.272">
        <ele>1834.5999755859</ele>
        <time>2012-06-09T08:00:47Z</time>
      </trkpt>
      <trkpt lat="45.69729" lon="6.27193">
        <ele>1835.5999755859</ele>
        <time>2012-06-09T08:00:52Z</time>
      </trkpt>
      <trkpt lat="45.69727" lon="6.27183">
        <ele>1837.8000488281</ele>
        <time>2012-06-09T08:00:59Z</time>
      </trkpt>
      <trkpt lat="45.69728" lon="6.2718">
        <ele>1838.8000488281</ele>
        <time>2012-06-09T08:01:01Z</time>
      </trkpt>
      <trkpt lat="45.69735" lon="6.2717">
        <ele>1841</ele>
        <time>2012-06-09T08:01:10Z</time>
      </trkpt>
      <trkpt lat="45.69736" lon="6.27168">
        <ele>1842.1999511719</ele>
        <time>2012-06-09T08:01:13Z</time>
      </trkpt>
      <trkpt lat="45.6974" lon="6.27165">
        <ele>1843.1999511719</ele>
        <time>2012-06-09T08:01:18Z</time>
      </trkpt>
      <trkpt lat="45.69742" lon="6.27164">
        <ele>1844.1999511719</ele>
        <time>2012-06-09T08:01:21Z</time>
      </trkpt>
      <trkpt lat="45.69752" lon="6.27162">
        <ele>1845.4000244141</ele>
        <time>2012-06-09T08:01:30Z</time>
      </trkpt>
      <trkpt lat="45.69771" lon="6.2716">
        <ele>1849.5999755859</ele>
        <time>2012-06-09T08:01:48Z</time>
      </trkpt>
      <trkpt lat="45.69772" lon="6.2716">
        <ele>1849.5999755859</ele>
        <time>2012-06-09T08:01:49Z</time>
      </trkpt>
      <trkpt lat="45.69793" lon="6.27156">
        <ele>1849.5999755859</ele>
        <time>2012-06-09T08:01:59Z</time>
      </trkpt>
      <trkpt lat="45.69814" lon="6.27161">
        <ele>1849.5999755859</ele>
        <time>2012-06-09T08:02:09Z</time>
      </trkpt>
      <trkpt lat="45.69839" lon="6.27141">
        <ele>1845.4000244141</ele>
        <time>2012-06-09T08:02:21Z</time>
      </trkpt>
      <trkpt lat="45.69843" lon="6.27133">
        <ele>1845.4000244141</ele>
        <time>2012-06-09T08:02:24Z</time>
      </trkpt>
      <trkpt lat="45.6985" lon="6.27124">
        <ele>1841</ele>
        <time>2012-06-09T08:02:28Z</time>
      </trkpt>
      <trkpt lat="45.69854" lon="6.27119">
        <ele>1838.4000244141</ele>
        <time>2012-06-09T08:02:30Z</time>
      </trkpt>
      <trkpt lat="45.69863" lon="6.27108">
        <ele>1836</ele>
        <time>2012-06-09T08:02:35Z</time>
      </trkpt>
      <trkpt lat="45.69879" lon="6.27119">
        <ele>1831.5999755859</ele>
        <time>2012-06-09T08:02:43Z</time>
      </trkpt>
      <trkpt lat="45.69882" lon="6.27127">
        <ele>1830</ele>
        <time>2012-06-09T08:02:45Z</time>
      </trkpt>
      <trkpt lat="45.69888" lon="6.27145">
        <ele>1826.5999755859</ele>
        <time>2012-06-09T08:02:50Z</time>
      </trkpt>
      <trkpt lat="45.6989" lon="6.27151">
        <ele>1825.1999511719</ele>
        <time>2012-06-09T08:02:52Z</time>
      </trkpt>
      <trkpt lat="45.69897" lon="6.27164">
        <ele>1823</ele>
        <time>2012-06-09T08:02:56Z</time>
      </trkpt>
      <trkpt lat="45.69901" lon="6.27171">
        <ele>1822</ele>
        <time>2012-06-09T08:02:58Z</time>
      </trkpt>
      <trkpt lat="45.69911" lon="6.27189">
        <ele>1818</ele>
        <time>2012-06-09T08:03:04Z</time>
      </trkpt>
      <trkpt lat="45.69914" lon="6.27197">
        <ele>1816.8000488281</ele>
        <time>2012-06-09T08:03:06Z</time>
      </trkpt>
      <trkpt lat="45.69916" lon="6.27207">
        <ele>1814</ele>
        <time>2012-06-09T08:03:09Z</time>
      </trkpt>
      <trkpt lat="45.69927" lon="6.27236">
        <ele>1808</ele>
        <time>2012-06-09T08:03:17Z</time>
      </trkpt>
      <trkpt lat="45.69928" lon="6.2724">
        <ele>1807</ele>
        <time>2012-06-09T08:03:18Z</time>
      </trkpt>
      <trkpt lat="45.69939" lon="6.27256">
        <ele>1803.4000244141</ele>
        <time>2012-06-09T08:03:24Z</time>
      </trkpt>
      <trkpt lat="45.69945" lon="6.27264">
        <ele>1801.1999511719</ele>
        <time>2012-06-09T08:03:28Z</time>
      </trkpt>
      <trkpt lat="45.69954" lon="6.27269">
        <ele>1798.4000244141</ele>
        <time>2012-06-09T08:03:33Z</time>
      </trkpt>
      <trkpt lat="45.69958" lon="6.2727">
        <ele>1795.8000488281</ele>
        <time>2012-06-09T08:03:35Z</time>
      </trkpt>
      <trkpt lat="45.69968" lon="6.27259">
        <ele>1792.1999511719</ele>
        <time>2012-06-09T08:03:41Z</time>
      </trkpt>
      <trkpt lat="45.69973" lon="6.2725">
        <ele>1791</ele>
        <time>2012-06-09T08:03:44Z</time>
      </trkpt>
      <trkpt lat="45.69978" lon="6.27234">
        <ele>1787.5999755859</ele>
        <time>2012-06-09T08:03:48Z</time>
      </trkpt>
      <trkpt lat="45.69984" lon="6.27209">
        <ele>1783.1999511719</ele>
        <time>2012-06-09T08:03:55Z</time>
      </trkpt>
      <trkpt lat="45.69987" lon="6.27199">
        <ele>1781</ele>
        <time>2012-06-09T08:03:58Z</time>
      </trkpt>
      <trkpt lat="45.69989" lon="6.27184">
        <ele>1778.4000244141</ele>
        <time>2012-06-09T08:04:02Z</time>
      </trkpt>
      <trkpt lat="45.6999" lon="6.27174">
        <ele>1777</ele>
        <time>2012-06-09T08:04:05Z</time>
      </trkpt>
      <trkpt lat="45.69991" lon="6.27161">
        <ele>1773.8000488281</ele>
        <time>2012-06-09T08:04:09Z</time>
      </trkpt>
      <trkpt lat="45.69996" lon="6.27151">
        <ele>1771.4000244141</ele>
        <time>2012-06-09T08:04:12Z</time>
      </trkpt>
      <trkpt lat="45.70001" lon="6.27129">
        <ele>1767.5999755859</ele>
        <time>2012-06-09T08:04:19Z</time>
      </trkpt>
      <trkpt lat="45.70003" lon="6.27127">
        <ele>1766.4000244141</ele>
        <time>2012-06-09T08:04:20Z</time>
      </trkpt>
      <trkpt lat="45.70009" lon="6.27127">
        <ele>1765.1999511719</ele>
        <time>2012-06-09T08:04:23Z</time>
      </trkpt>
      <trkpt lat="45.70016" lon="6.27154">
        <ele>1761.8000488281</ele>
        <time>2012-06-09T08:04:30Z</time>
      </trkpt>
      <trkpt lat="45.70018" lon="6.27157">
        <ele>1760.5999755859</ele>
        <time>2012-06-09T08:04:31Z</time>
      </trkpt>
      <trkpt lat="45.70023" lon="6.27173">
        <ele>1758.5999755859</ele>
        <time>2012-06-09T08:04:35Z</time>
      </trkpt>
      <trkpt lat="45.70026" lon="6.2719">
        <ele>1757.5999755859</ele>
        <time>2012-06-09T08:04:39Z</time>
      </trkpt>
      <trkpt lat="45.70035" lon="6.27241">
        <ele>1755.1999511719</ele>
        <time>2012-06-09T08:04:51Z</time>
      </trkpt>
      <trkpt lat="45.70041" lon="6.2726">
        <ele>1754.1999511719</ele>
        <time>2012-06-09T08:04:56Z</time>
      </trkpt>
      <trkpt lat="45.70042" lon="6.27277">
        <ele>1751.4000244141</ele>
        <time>2012-06-09T08:05:00Z</time>
      </trkpt>
      <trkpt lat="45.70043" lon="6.27286">
        <ele>1750.4000244141</ele>
        <time>2012-06-09T08:05:02Z</time>
      </trkpt>
      <trkpt lat="45.70047" lon="6.27307">
        <ele>1745.8000488281</ele>
        <time>2012-06-09T08:05:07Z</time>
      </trkpt>
      <trkpt lat="45.70052" lon="6.2733">
        <ele>1743.5999755859</ele>
        <time>2012-06-09T08:05:13Z</time>
      </trkpt>
      <trkpt lat="45.70058" lon="6.27347">
        <ele>1741.4000244141</ele>
        <time>2012-06-09T08:05:17Z</time>
      </trkpt>
      <trkpt lat="45.70061" lon="6.27365">
        <ele>1738</ele>
        <time>2012-06-09T08:05:21Z</time>
      </trkpt>
      <trkpt lat="45.70062" lon="6.27369">
        <ele>1737</ele>
        <time>2012-06-09T08:05:22Z</time>
      </trkpt>
      <trkpt lat="45.70067" lon="6.27375">
        <ele>1734.4000244141</ele>
        <time>2012-06-09T08:05:25Z</time>
      </trkpt>
      <trkpt lat="45.70071" lon="6.27366">
        <ele>1733.1999511719</ele>
        <time>2012-06-09T08:05:28Z</time>
      </trkpt>
      <trkpt lat="45.70073" lon="6.27353">
        <ele>1732</ele>
        <time>2012-06-09T08:05:31Z</time>
      </trkpt>
      <trkpt lat="45.70074" lon="6.27347">
        <ele>1730.8000488281</ele>
        <time>2012-06-09T08:05:32Z</time>
      </trkpt>
      <trkpt lat="45.70076" lon="6.27319">
        <ele>1727</ele>
        <time>2012-06-09T08:05:39Z</time>
      </trkpt>
      <trkpt lat="45.70086" lon="6.27283">
        <ele>1722.1999511719</ele>
        <time>2012-06-09T08:05:48Z</time>
      </trkpt>
      <trkpt lat="45.70086" lon="6.27281">
        <ele>1720.5999755859</ele>
        <time>2012-06-09T08:05:49Z</time>
      </trkpt>
      <trkpt lat="45.70093" lon="6.27266">
        <ele>1717</ele>
        <time>2012-06-09T08:05:53Z</time>
      </trkpt>
      <trkpt lat="45.701" lon="6.27249">
        <ele>1715</ele>
        <time>2012-06-09T08:05:58Z</time>
      </trkpt>
      <trkpt lat="45.70113" lon="6.27226">
        <ele>1711</ele>
        <time>2012-06-09T08:06:05Z</time>
      </trkpt>
      <trkpt lat="45.70115" lon="6.27223">
        <ele>1711</ele>
        <time>2012-06-09T08:06:06Z</time>
      </trkpt>
      <trkpt lat="45.70127" lon="6.27196">
        <ele>1707.5999755859</ele>
        <time>2012-06-09T08:06:14Z</time>
      </trkpt>
      <trkpt lat="45.7013" lon="6.27185">
        <ele>1706.1999511719</ele>
        <time>2012-06-09T08:06:17Z</time>
      </trkpt>
      <trkpt lat="45.70132" lon="6.2715">
        <ele>1702.4000244141</ele>
        <time>2012-06-09T08:06:26Z</time>
      </trkpt>
      <trkpt lat="45.70137" lon="6.27127">
        <ele>1699.1999511719</ele>
        <time>2012-06-09T08:06:32Z</time>
      </trkpt>
      <trkpt lat="45.70139" lon="6.27115">
        <ele>1697</ele>
        <time>2012-06-09T08:06:35Z</time>
      </trkpt>
      <trkpt lat="45.70141" lon="6.27095">
        <ele>1694.8000488281</ele>
        <time>2012-06-09T08:06:40Z</time>
      </trkpt>
      <trkpt lat="45.7014" lon="6.27088">
        <ele>1694.8000488281</ele>
        <time>2012-06-09T08:06:42Z</time>
      </trkpt>
      <trkpt lat="45.70146" lon="6.27073">
        <ele>1692</ele>
        <time>2012-06-09T08:06:46Z</time>
      </trkpt>
      <trkpt lat="45.70152" lon="6.27071">
        <ele>1689.5999755859</ele>
        <time>2012-06-09T08:06:48Z</time>
      </trkpt>
      <trkpt lat="45.70162" lon="6.27079">
        <ele>1687.4000244141</ele>
        <time>2012-06-09T08:06:51Z</time>
      </trkpt>
      <trkpt lat="45.70168" lon="6.27088">
        <ele>1687.4000244141</ele>
        <time>2012-06-09T08:06:53Z</time>
      </trkpt>
      <trkpt lat="45.70176" lon="6.27106">
        <ele>1683.5999755859</ele>
        <time>2012-06-09T08:06:57Z</time>
      </trkpt>
      <trkpt lat="45.70183" lon="6.27137">
        <ele>1679.5999755859</ele>
        <time>2012-06-09T08:07:04Z</time>
      </trkpt>
      <trkpt lat="45.70185" lon="6.27141">
        <ele>1678.4000244141</ele>
        <time>2012-06-09T08:07:05Z</time>
      </trkpt>
      <trkpt lat="45.70189" lon="6.27164">
        <ele>1676</ele>
        <time>2012-06-09T08:07:11Z</time>
      </trkpt>
      <trkpt lat="45.70191" lon="6.27171">
        <ele>1673.8000488281</ele>
        <time>2012-06-09T08:07:13Z</time>
      </trkpt>
      <trkpt lat="45.70196" lon="6.27192">
        <ele>1670</ele>
        <time>2012-06-09T08:07:18Z</time>
      </trkpt>
      <trkpt lat="45.70199" lon="6.272">
        <ele>1668.8000488281</ele>
        <time>2012-06-09T08:07:20Z</time>
      </trkpt>
      <trkpt lat="45.70201" lon="6.27216">
        <ele>1665.1999511719</ele>
        <time>2012-06-09T08:07:25Z</time>
      </trkpt>
      <trkpt lat="45.70203" lon="6.27221">
        <ele>1664.1999511719</ele>
        <time>2012-06-09T08:07:27Z</time>
      </trkpt>
      <trkpt lat="45.70209" lon="6.27223">
        <ele>1661</ele>
        <time>2012-06-09T08:07:32Z</time>
      </trkpt>
      <trkpt lat="45.70215" lon="6.2721">
        <ele>1657.8000488281</ele>
        <time>2012-06-09T08:07:37Z</time>
      </trkpt>
      <trkpt lat="45.70218" lon="6.27197">
        <ele>1655.1999511719</ele>
        <time>2012-06-09T08:07:41Z</time>
      </trkpt>
      <trkpt lat="45.70223" lon="6.27171">
        <ele>1652.8000488281</ele>
        <time>2012-06-09T08:07:47Z</time>
      </trkpt>
      <trkpt lat="45.70223" lon="6.2716">
        <ele>1651.4000244141</ele>
        <time>2012-06-09T08:07:50Z</time>
      </trkpt>
      <trkpt lat="45.70224" lon="6.27144">
        <ele>1649</ele>
        <time>2012-06-09T08:07:54Z</time>
      </trkpt>
      <trkpt lat="45.70226" lon="6.27136">
        <ele>1648</ele>
        <time>2012-06-09T08:07:56Z</time>
      </trkpt>
      <trkpt lat="45.70231" lon="6.27125">
        <ele>1645.4000244141</ele>
        <time>2012-06-09T08:08:00Z</time>
      </trkpt>
      <trkpt lat="45.70233" lon="6.27126">
        <ele>1645.4000244141</ele>
        <time>2012-06-09T08:08:01Z</time>
      </trkpt>
      <trkpt lat="45.70239" lon="6.27127">
        <ele>1643.1999511719</ele>
        <time>2012-06-09T08:08:04Z</time>
      </trkpt>
      <trkpt lat="45.7025" lon="6.27159">
        <ele>1638.4000244141</ele>
        <time>2012-06-09T08:08:13Z</time>
      </trkpt>
      <trkpt lat="45.70254" lon="6.27169">
        <ele>1637.1999511719</ele>
        <time>2012-06-09T08:08:16Z</time>
      </trkpt>
      <trkpt lat="45.70258" lon="6.27179">
        <ele>1634.8000488281</ele>
        <time>2012-06-09T08:08:19Z</time>
      </trkpt>
      <trkpt lat="45.7026" lon="6.27189">
        <ele>1633.4000244141</ele>
        <time>2012-06-09T08:08:22Z</time>
      </trkpt>
      <trkpt lat="45.70262" lon="6.27205">
        <ele>1630.1999511719</ele>
        <time>2012-06-09T08:08:26Z</time>
      </trkpt>
      <trkpt lat="45.70263" lon="6.27209">
        <ele>1628.5999755859</ele>
        <time>2012-06-09T08:08:27Z</time>
      </trkpt>
      <trkpt lat="45.70268" lon="6.27224">
        <ele>1625</ele>
        <time>2012-06-09T08:08:31Z</time>
      </trkpt>
      <trkpt lat="45.70273" lon="6.27233">
        <ele>1622.8000488281</ele>
        <time>2012-06-09T08:08:34Z</time>
      </trkpt>
      <trkpt lat="45.70284" lon="6.27253">
        <ele>1618.8000488281</ele>
        <time>2012-06-09T08:08:40Z</time>
      </trkpt>
      <trkpt lat="45.70304" lon="6.27289">
        <ele>1614</ele>
        <time>2012-06-09T08:08:51Z</time>
      </trkpt>
      <trkpt lat="45.70311" lon="6.2731">
        <ele>1611.1999511719</ele>
        <time>2012-06-09T08:08:57Z</time>
      </trkpt>
      <trkpt lat="45.70315" lon="6.27327">
        <ele>1608.4000244141</ele>
        <time>2012-06-09T08:09:02Z</time>
      </trkpt>
      <trkpt lat="45.7032" lon="6.27335">
        <ele>1607.1999511719</ele>
        <time>2012-06-09T08:09:05Z</time>
      </trkpt>
      <trkpt lat="45.70325" lon="6.27316">
        <ele>1605</ele>
        <time>2012-06-09T08:09:12Z</time>
      </trkpt>
      <trkpt lat="45.70322" lon="6.27309">
        <ele>1603.8000488281</ele>
        <time>2012-06-09T08:09:14Z</time>
      </trkpt>
      <trkpt lat="45.7032" lon="6.27299">
        <ele>1599.5999755859</ele>
        <time>2012-06-09T08:09:17Z</time>
      </trkpt>
      <trkpt lat="45.7032" lon="6.27288">
        <ele>1598.5999755859</ele>
        <time>2012-06-09T08:09:20Z</time>
      </trkpt>
      <trkpt lat="45.70322" lon="6.27266">
        <ele>1595</ele>
        <time>2012-06-09T08:09:26Z</time>
      </trkpt>
      <trkpt lat="45.7033" lon="6.27208">
        <ele>1589.8000488281</ele>
        <time>2012-06-09T08:09:41Z</time>
      </trkpt>
      <trkpt lat="45.70333" lon="6.27208">
        <ele>1588.5999755859</ele>
        <time>2012-06-09T08:09:42Z</time>
      </trkpt>
      <trkpt lat="45.70345" lon="6.2723">
        <ele>1585.4000244141</ele>
        <time>2012-06-09T08:09:48Z</time>
      </trkpt>
      <trkpt lat="45.70349" lon="6.27244">
        <ele>1584.4000244141</ele>
        <time>2012-06-09T08:09:51Z</time>
      </trkpt>
      <trkpt lat="45.70354" lon="6.27261">
        <ele>1582</ele>
        <time>2012-06-09T08:09:55Z</time>
      </trkpt>
      <trkpt lat="45.70358" lon="6.27268">
        <ele>1582</ele>
        <time>2012-06-09T08:09:57Z</time>
      </trkpt>
      <trkpt lat="45.70364" lon="6.27285">
        <ele>1578.4000244141</ele>
        <time>2012-06-09T08:10:01Z</time>
      </trkpt>
      <trkpt lat="45.70373" lon="6.27303">
        <ele>1576</ele>
        <time>2012-06-09T08:10:05Z</time>
      </trkpt>
      <trkpt lat="45.7038" lon="6.27325">
        <ele>1573.5999755859</ele>
        <time>2012-06-09T08:10:11Z</time>
      </trkpt>
      <trkpt lat="45.70399" lon="6.27346">
        <ele>1569.8000488281</ele>
        <time>2012-06-09T08:10:19Z</time>
      </trkpt>
      <trkpt lat="45.70412" lon="6.27355">
        <ele>1568.5999755859</ele>
        <time>2012-06-09T08:10:24Z</time>
      </trkpt>
      <trkpt lat="45.70434" lon="6.27397">
        <ele>1567.1999511719</ele>
        <time>2012-06-09T08:10:37Z</time>
      </trkpt>
      <trkpt lat="45.70436" lon="6.27399">
        <ele>1565.8000488281</ele>
        <time>2012-06-09T08:10:38Z</time>
      </trkpt>
      <trkpt lat="45.70451" lon="6.27421">
        <ele>1563.4000244141</ele>
        <time>2012-06-09T08:10:45Z</time>
      </trkpt>
      <trkpt lat="45.70462" lon="6.27435">
        <ele>1560</ele>
        <time>2012-06-09T08:10:50Z</time>
      </trkpt>
      <trkpt lat="45.7047" lon="6.2745">
        <ele>1557.5999755859</ele>
        <time>2012-06-09T08:10:55Z</time>
      </trkpt>
      <trkpt lat="45.70474" lon="6.27455">
        <ele>1556.5999755859</ele>
        <time>2012-06-09T08:10:57Z</time>
      </trkpt>
      <trkpt lat="45.70487" lon="6.27467">
        <ele>1553.1999511719</ele>
        <time>2012-06-09T08:11:02Z</time>
      </trkpt>
      <trkpt lat="45.70499" lon="6.2748">
        <ele>1548.4000244141</ele>
        <time>2012-06-09T08:11:09Z</time>
      </trkpt>
      <trkpt lat="45.70503" lon="6.27483">
        <ele>1548.4000244141</ele>
        <time>2012-06-09T08:11:11Z</time>
      </trkpt>
      <trkpt lat="45.7051" lon="6.2749">
        <ele>1545</ele>
        <time>2012-06-09T08:11:15Z</time>
      </trkpt>
      <trkpt lat="45.70514" lon="6.27494">
        <ele>1543.4000244141</ele>
        <time>2012-06-09T08:11:17Z</time>
      </trkpt>
      <trkpt lat="45.70524" lon="6.275">
        <ele>1541.1999511719</ele>
        <time>2012-06-09T08:11:22Z</time>
      </trkpt>
      <trkpt lat="45.70526" lon="6.27501">
        <ele>1540</ele>
        <time>2012-06-09T08:11:23Z</time>
      </trkpt>
      <trkpt lat="45.70539" lon="6.27508">
        <ele>1536.5999755859</ele>
        <time>2012-06-09T08:11:29Z</time>
      </trkpt>
      <trkpt lat="45.70544" lon="6.2751">
        <ele>1534.1999511719</ele>
        <time>2012-06-09T08:11:31Z</time>
      </trkpt>
      <trkpt lat="45.70551" lon="6.27519">
        <ele>1531.4000244141</ele>
        <time>2012-06-09T08:11:35Z</time>
      </trkpt>
      <trkpt lat="45.70568" lon="6.27521">
        <ele>1528</ele>
        <time>2012-06-09T08:11:43Z</time>
      </trkpt>
      <trkpt lat="45.70569" lon="6.2751">
        <ele>1525.8000488281</ele>
        <time>2012-06-09T08:11:47Z</time>
      </trkpt>
      <trkpt lat="45.70567" lon="6.27497">
        <ele>1522.5999755859</ele>
        <time>2012-06-09T08:11:51Z</time>
      </trkpt>
      <trkpt lat="45.70567" lon="6.27494">
        <ele>1521.4000244141</ele>
        <time>2012-06-09T08:11:52Z</time>
      </trkpt>
      <trkpt lat="45.70569" lon="6.2747">
        <ele>1518</ele>
        <time>2012-06-09T08:11:59Z</time>
      </trkpt>
      <trkpt lat="45.7057" lon="6.27462">
        <ele>1516.8000488281</ele>
        <time>2012-06-09T08:12:01Z</time>
      </trkpt>
      <trkpt lat="45.70572" lon="6.27446">
        <ele>1513.1999511719</ele>
        <time>2012-06-09T08:12:06Z</time>
      </trkpt>
      <trkpt lat="45.70573" lon="6.27442">
        <ele>1512.1999511719</ele>
        <time>2012-06-09T08:12:07Z</time>
      </trkpt>
      <trkpt lat="45.7058" lon="6.27434">
        <ele>1509</ele>
        <time>2012-06-09T08:12:11Z</time>
      </trkpt>
      <trkpt lat="45.70598" lon="6.27435">
        <ele>1502.5999755859</ele>
        <time>2012-06-09T08:12:20Z</time>
      </trkpt>
      <trkpt lat="45.70603" lon="6.27436">
        <ele>1501.4000244141</ele>
        <time>2012-06-09T08:12:22Z</time>
      </trkpt>
      <trkpt lat="45.70612" lon="6.2744">
        <ele>1499.1999511719</ele>
        <time>2012-06-09T08:12:26Z</time>
      </trkpt>
      <trkpt lat="45.70618" lon="6.27444">
        <ele>1496.4000244141</ele>
        <time>2012-06-09T08:12:29Z</time>
      </trkpt>
      <trkpt lat="45.70626" lon="6.27454">
        <ele>1494</ele>
        <time>2012-06-09T08:12:34Z</time>
      </trkpt>
      <trkpt lat="45.70628" lon="6.27456">
        <ele>1492.8000488281</ele>
        <time>2012-06-09T08:12:35Z</time>
      </trkpt>
      <trkpt lat="45.70635" lon="6.27468">
        <ele>1490.1999511719</ele>
        <time>2012-06-09T08:12:39Z</time>
      </trkpt>
      <trkpt lat="45.70639" lon="6.27474">
        <ele>1489.1999511719</ele>
        <time>2012-06-09T08:12:41Z</time>
      </trkpt>
      <trkpt lat="45.70649" lon="6.27493">
        <ele>1487</ele>
        <time>2012-06-09T08:12:46Z</time>
      </trkpt>
      <trkpt lat="45.70659" lon="6.27522">
        <ele>1483.5999755859</ele>
        <time>2012-06-09T08:12:54Z</time>
      </trkpt>
      <trkpt lat="45.70661" lon="6.27536">
        <ele>1482.4000244141</ele>
        <time>2012-06-09T08:12:57Z</time>
      </trkpt>
      <trkpt lat="45.70664" lon="6.27558">
        <ele>1480.1999511719</ele>
        <time>2012-06-09T08:13:02Z</time>
      </trkpt>
      <trkpt lat="45.70666" lon="6.27571">
        <ele>1479.1999511719</ele>
        <time>2012-06-09T08:13:05Z</time>
      </trkpt>
      <trkpt lat="45.70668" lon="6.27587">
        <ele>1477.1999511719</ele>
        <time>2012-06-09T08:13:09Z</time>
      </trkpt>
      <trkpt lat="45.70669" lon="6.27607">
        <ele>1474.5999755859</ele>
        <time>2012-06-09T08:13:14Z</time>
      </trkpt>
      <trkpt lat="45.70674" lon="6.27635">
        <ele>1472.1999511719</ele>
        <time>2012-06-09T08:13:21Z</time>
      </trkpt>
      <trkpt lat="45.70675" lon="6.27642">
        <ele>1471.1999511719</ele>
        <time>2012-06-09T08:13:23Z</time>
      </trkpt>
      <trkpt lat="45.70679" lon="6.27675">
        <ele>1468.1999511719</ele>
        <time>2012-06-09T08:13:31Z</time>
      </trkpt>
      <trkpt lat="45.70685" lon="6.27717">
        <ele>1464.5999755859</ele>
        <time>2012-06-09T08:13:41Z</time>
      </trkpt>
      <trkpt lat="45.70684" lon="6.27733">
        <ele>1464.5999755859</ele>
        <time>2012-06-09T08:13:45Z</time>
      </trkpt>
      <trkpt lat="45.70685" lon="6.27759">
        <ele>1461.4000244141</ele>
        <time>2012-06-09T08:13:51Z</time>
      </trkpt>
      <trkpt lat="45.70685" lon="6.27781">
        <ele>1460.1999511719</ele>
        <time>2012-06-09T08:13:56Z</time>
      </trkpt>
      <trkpt lat="45.70682" lon="6.27817">
        <ele>1456.5999755859</ele>
        <time>2012-06-09T08:14:05Z</time>
      </trkpt>
      <trkpt lat="45.7068" lon="6.2783">
        <ele>1455.5999755859</ele>
        <time>2012-06-09T08:14:08Z</time>
      </trkpt>
      <trkpt lat="45.70676" lon="6.27851">
        <ele>1453.5999755859</ele>
        <time>2012-06-09T08:14:13Z</time>
      </trkpt>
      <trkpt lat="45.70668" lon="6.27867">
        <ele>1452.4000244141</ele>
        <time>2012-06-09T08:14:18Z</time>
      </trkpt>
      <trkpt lat="45.7065" lon="6.27883">
        <ele>1448.5999755859</ele>
        <time>2012-06-09T08:14:25Z</time>
      </trkpt>
      <trkpt lat="45.70626" lon="6.2791">
        <ele>1444</ele>
        <time>2012-06-09T08:14:34Z</time>
      </trkpt>
      <trkpt lat="45.70625" lon="6.27922">
        <ele>1442.5999755859</ele>
        <time>2012-06-09T08:14:37Z</time>
      </trkpt>
      <trkpt lat="45.70636" lon="6.27928">
        <ele>1438.8000488281</ele>
        <time>2012-06-09T08:14:42Z</time>
      </trkpt>
      <trkpt lat="45.70638" lon="6.27926">
        <ele>1437.4000244141</ele>
        <time>2012-06-09T08:14:43Z</time>
      </trkpt>
      <trkpt lat="45.70655" lon="6.27924">
        <ele>1433.5999755859</ele>
        <time>2012-06-09T08:14:49Z</time>
      </trkpt>
      <trkpt lat="45.70663" lon="6.27923">
        <ele>1432.1999511719</ele>
        <time>2012-06-09T08:14:52Z</time>
      </trkpt>
      <trkpt lat="45.70668" lon="6.27933">
        <ele>1430.5999755859</ele>
        <time>2012-06-09T08:14:56Z</time>
      </trkpt>
      <trkpt lat="45.70668" lon="6.27938">
        <ele>1429.5999755859</ele>
        <time>2012-06-09T08:14:57Z</time>
      </trkpt>
      <trkpt lat="45.70666" lon="6.27948">
        <ele>1428.5999755859</ele>
        <time>2012-06-09T08:15:00Z</time>
      </trkpt>
      <trkpt lat="45.70663" lon="6.27967">
        <ele>1423.1999511719</ele>
        <time>2012-06-09T08:15:06Z</time>
      </trkpt>
      <trkpt lat="45.70661" lon="6.27973">
        <ele>1423.1999511719</ele>
        <time>2012-06-09T08:15:08Z</time>
      </trkpt>
      <trkpt lat="45.70656" lon="6.28001">
        <ele>1420.1999511719</ele>
        <time>2012-06-09T08:15:15Z</time>
      </trkpt>
      <trkpt lat="45.70652" lon="6.28015">
        <ele>1419</ele>
        <time>2012-06-09T08:15:19Z</time>
      </trkpt>
      <trkpt lat="45.70648" lon="6.28034">
        <ele>1415.5999755859</ele>
        <time>2012-06-09T08:15:24Z</time>
      </trkpt>
      <trkpt lat="45.70646" lon="6.2805">
        <ele>1414.1999511719</ele>
        <time>2012-06-09T08:15:28Z</time>
      </trkpt>
      <trkpt lat="45.70643" lon="6.2807">
        <ele>1411.4000244141</ele>
        <time>2012-06-09T08:15:33Z</time>
      </trkpt>
      <trkpt lat="45.70642" lon="6.28079">
        <ele>1410.4000244141</ele>
        <time>2012-06-09T08:15:35Z</time>
      </trkpt>
      <trkpt lat="45.70639" lon="6.28109">
        <ele>1408</ele>
        <time>2012-06-09T08:15:42Z</time>
      </trkpt>
      <trkpt lat="45.70647" lon="6.28161">
        <ele>1405.5999755859</ele>
        <time>2012-06-09T08:15:55Z</time>
      </trkpt>
      <trkpt lat="45.70657" lon="6.28192">
        <ele>1404.4000244141</ele>
        <time>2012-06-09T08:16:03Z</time>
      </trkpt>
      <trkpt lat="45.70665" lon="6.28238">
        <ele>1402</ele>
        <time>2012-06-09T08:16:14Z</time>
      </trkpt>
      <trkpt lat="45.70667" lon="6.28252">
        <ele>1400.5999755859</ele>
        <time>2012-06-09T08:16:17Z</time>
      </trkpt>
      <trkpt lat="45.70676" lon="6.28282">
        <ele>1398.4000244141</ele>
        <time>2012-06-09T08:16:25Z</time>
      </trkpt>
      <trkpt lat="45.70688" lon="6.28309">
        <ele>1395.8000488281</ele>
        <time>2012-06-09T08:16:34Z</time>
      </trkpt>
      <trkpt lat="45.707" lon="6.28329">
        <ele>1393.5999755859</ele>
        <time>2012-06-09T08:16:40Z</time>
      </trkpt>
      <trkpt lat="45.70704" lon="6.28336">
        <ele>1392.4000244141</ele>
        <time>2012-06-09T08:16:42Z</time>
      </trkpt>
      <trkpt lat="45.70719" lon="6.28362">
        <ele>1391</ele>
        <time>2012-06-09T08:16:50Z</time>
      </trkpt>
      <trkpt lat="45.70747" lon="6.28392">
        <ele>1387.5999755859</ele>
        <time>2012-06-09T08:17:03Z</time>
      </trkpt>
      <trkpt lat="45.70752" lon="6.28395">
        <ele>1387.5999755859</ele>
        <time>2012-06-09T08:17:05Z</time>
      </trkpt>
      <trkpt lat="45.7077" lon="6.28403">
        <ele>1384.8000488281</ele>
        <time>2012-06-09T08:17:12Z</time>
      </trkpt>
      <trkpt lat="45.7078" lon="6.28406">
        <ele>1383.5999755859</ele>
        <time>2012-06-09T08:17:16Z</time>
      </trkpt>
      <trkpt lat="45.7079" lon="6.28407">
        <ele>1380.4000244141</ele>
        <time>2012-06-09T08:17:20Z</time>
      </trkpt>
      <trkpt lat="45.70793" lon="6.28408">
        <ele>1380.4000244141</ele>
        <time>2012-06-09T08:17:21Z</time>
      </trkpt>
      <trkpt lat="45.70805" lon="6.28409">
        <ele>1376.8000488281</ele>
        <time>2012-06-09T08:17:25Z</time>
      </trkpt>
      <trkpt lat="45.7081" lon="6.28409">
        <ele>1375.5999755859</ele>
        <time>2012-06-09T08:17:27Z</time>
      </trkpt>
      <trkpt lat="45.70833" lon="6.28401">
        <ele>1371.8000488281</ele>
        <time>2012-06-09T08:17:35Z</time>
      </trkpt>
      <trkpt lat="45.7084" lon="6.28384">
        <ele>1368</ele>
        <time>2012-06-09T08:17:40Z</time>
      </trkpt>
      <trkpt lat="45.70839" lon="6.28367">
        <ele>1365.4000244141</ele>
        <time>2012-06-09T08:17:44Z</time>
      </trkpt>
      <trkpt lat="45.70834" lon="6.28351">
        <ele>1363.4000244141</ele>
        <time>2012-06-09T08:17:48Z</time>
      </trkpt>
      <trkpt lat="45.70828" lon="6.28342">
        <ele>1362</ele>
        <time>2012-06-09T08:17:51Z</time>
      </trkpt>
      <trkpt lat="45.70817" lon="6.28327">
        <ele>1359.4000244141</ele>
        <time>2012-06-09T08:17:56Z</time>
      </trkpt>
      <trkpt lat="45.70805" lon="6.28312">
        <ele>1357.1999511719</ele>
        <time>2012-06-09T08:18:01Z</time>
      </trkpt>
      <trkpt lat="45.70787" lon="6.28287">
        <ele>1356.1999511719</ele>
        <time>2012-06-09T08:18:09Z</time>
      </trkpt>
      <trkpt lat="45.70785" lon="6.28284">
        <ele>1355.1999511719</ele>
        <time>2012-06-09T08:18:10Z</time>
      </trkpt>
      <trkpt lat="45.70767" lon="6.28255">
        <ele>1353.1999511719</ele>
        <time>2012-06-09T08:18:18Z</time>
      </trkpt>
      <trkpt lat="45.70753" lon="6.28211">
        <ele>1349.5999755859</ele>
        <time>2012-06-09T08:18:30Z</time>
      </trkpt>
      <trkpt lat="45.70754" lon="6.282">
        <ele>1349.5999755859</ele>
        <time>2012-06-09T08:18:33Z</time>
      </trkpt>
      <trkpt lat="45.70756" lon="6.28174">
        <ele>1348.5999755859</ele>
        <time>2012-06-09T08:18:39Z</time>
      </trkpt>
      <trkpt lat="45.70761" lon="6.2816">
        <ele>1347.1999511719</ele>
        <time>2012-06-09T08:18:43Z</time>
      </trkpt>
      <trkpt lat="45.70765" lon="6.2814">
        <ele>1347.1999511719</ele>
        <time>2012-06-09T08:18:48Z</time>
      </trkpt>
      <trkpt lat="45.70766" lon="6.28136">
        <ele>1346.1999511719</ele>
        <time>2012-06-09T08:18:49Z</time>
      </trkpt>
      <trkpt lat="45.70786" lon="6.28084">
        <ele>1344</ele>
        <time>2012-06-09T08:19:02Z</time>
      </trkpt>
      <trkpt lat="45.70794" lon="6.28065">
        <ele>1344</ele>
        <time>2012-06-09T08:19:07Z</time>
      </trkpt>
      <trkpt lat="45.70808" lon="6.2804">
        <ele>1341.4000244141</ele>
        <time>2012-06-09T08:19:14Z</time>
      </trkpt>
      <trkpt lat="45.70832" lon="6.28022">
        <ele>1339.1999511719</ele>
        <time>2012-06-09T08:19:23Z</time>
      </trkpt>
      <trkpt lat="45.70847" lon="6.2801">
        <ele>1338.1999511719</ele>
        <time>2012-06-09T08:19:29Z</time>
      </trkpt>
      <trkpt lat="45.70868" lon="6.28001">
        <ele>1335.5999755859</ele>
        <time>2012-06-09T08:19:37Z</time>
      </trkpt>
      <trkpt lat="45.70878" lon="6.28007">
        <ele>1334.5999755859</ele>
        <time>2012-06-09T08:19:41Z</time>
      </trkpt>
      <trkpt lat="45.70901" lon="6.28028">
        <ele>1334.5999755859</ele>
        <time>2012-06-09T08:19:50Z</time>
      </trkpt>
      <trkpt lat="45.70915" lon="6.28051">
        <ele>1334.5999755859</ele>
        <time>2012-06-09T08:20:00Z</time>
      </trkpt>
      <trkpt lat="45.70927" lon="6.28056">
        <ele>1334.5999755859</ele>
        <time>2012-06-09T08:20:21Z</time>
      </trkpt>
      <trkpt lat="45.70938" lon="6.28049">
        <ele>1334.5999755859</ele>
        <time>2012-06-09T08:20:26Z</time>
      </trkpt>
      <trkpt lat="45.70961" lon="6.28039">
        <ele>1330.8000488281</ele>
        <time>2012-06-09T08:20:34Z</time>
      </trkpt>
      <trkpt lat="45.70994" lon="6.28022">
        <ele>1326.4000244141</ele>
        <time>2012-06-09T08:20:46Z</time>
      </trkpt>
      <trkpt lat="45.71003" lon="6.28021">
        <ele>1325.1999511719</ele>
        <time>2012-06-09T08:20:49Z</time>
      </trkpt>
      <trkpt lat="45.71021" lon="6.28022">
        <ele>1321.8000488281</ele>
        <time>2012-06-09T08:20:54Z</time>
      </trkpt>
      <trkpt lat="45.71031" lon="6.28022">
        <ele>1319.5999755859</ele>
        <time>2012-06-09T08:20:57Z</time>
      </trkpt>
      <trkpt lat="45.71045" lon="6.28026">
        <ele>1314.8000488281</ele>
        <time>2012-06-09T08:21:02Z</time>
      </trkpt>
      <trkpt lat="45.71048" lon="6.28027">
        <ele>1313.4000244141</ele>
        <time>2012-06-09T08:21:04Z</time>
      </trkpt>
      <trkpt lat="45.71063" lon="6.28036">
        <ele>1311</ele>
        <time>2012-06-09T08:21:08Z</time>
      </trkpt>
      <trkpt lat="45.71073" lon="6.2804">
        <ele>1310</ele>
        <time>2012-06-09T08:21:12Z</time>
      </trkpt>
      <trkpt lat="45.71095" lon="6.28045">
        <ele>1306.1999511719</ele>
        <time>2012-06-09T08:21:19Z</time>
      </trkpt>
      <trkpt lat="45.71119" lon="6.28052">
        <ele>1302.5999755859</ele>
        <time>2012-06-09T08:21:28Z</time>
      </trkpt>
      <trkpt lat="45.71134" lon="6.28058">
        <ele>1301.4000244141</ele>
        <time>2012-06-09T08:21:33Z</time>
      </trkpt>
      <trkpt lat="45.71146" lon="6.28063">
        <ele>1299.1999511719</ele>
        <time>2012-06-09T08:21:38Z</time>
      </trkpt>
      <trkpt lat="45.71151" lon="6.28066">
        <ele>1299.1999511719</ele>
        <time>2012-06-09T08:21:40Z</time>
      </trkpt>
      <trkpt lat="45.71178" lon="6.28068">
        <ele>1297</ele>
        <time>2012-06-09T08:21:48Z</time>
      </trkpt>
      <trkpt lat="45.71192" lon="6.28061">
        <ele>1295.5999755859</ele>
        <time>2012-06-09T08:21:53Z</time>
      </trkpt>
      <trkpt lat="45.71201" lon="6.28045">
        <ele>1291.8000488281</ele>
        <time>2012-06-09T08:21:58Z</time>
      </trkpt>
      <trkpt lat="45.71203" lon="6.28042">
        <ele>1291.8000488281</ele>
        <time>2012-06-09T08:21:59Z</time>
      </trkpt>
      <trkpt lat="45.71208" lon="6.28028">
        <ele>1288.1999511719</ele>
        <time>2012-06-09T08:22:03Z</time>
      </trkpt>
      <trkpt lat="45.7121" lon="6.27996">
        <ele>1284.5999755859</ele>
        <time>2012-06-09T08:22:11Z</time>
      </trkpt>
      <trkpt lat="45.7121" lon="6.27993">
        <ele>1283.4000244141</ele>
        <time>2012-06-09T08:22:12Z</time>
      </trkpt>
      <trkpt lat="45.71207" lon="6.27979">
        <ele>1279.8000488281</ele>
        <time>2012-06-09T08:22:16Z</time>
      </trkpt>
      <trkpt lat="45.71205" lon="6.27967">
        <ele>1278.8000488281</ele>
        <time>2012-06-09T08:22:19Z</time>
      </trkpt>
      <trkpt lat="45.71202" lon="6.27951">
        <ele>1276</ele>
        <time>2012-06-09T08:22:23Z</time>
      </trkpt>
      <trkpt lat="45.71199" lon="6.27948">
        <ele>1274.5999755859</ele>
        <time>2012-06-09T08:22:24Z</time>
      </trkpt>
      <trkpt lat="45.71193" lon="6.27926">
        <ele>1272.4000244141</ele>
        <time>2012-06-09T08:22:30Z</time>
      </trkpt>
      <trkpt lat="45.71188" lon="6.27914">
        <ele>1270</ele>
        <time>2012-06-09T08:22:34Z</time>
      </trkpt>
      <trkpt lat="45.71182" lon="6.27901">
        <ele>1267.8000488281</ele>
        <time>2012-06-09T08:22:38Z</time>
      </trkpt>
      <trkpt lat="45.71171" lon="6.2787">
        <ele>1265.8000488281</ele>
        <time>2012-06-09T08:22:48Z</time>
      </trkpt>
      <trkpt lat="45.71168" lon="6.27854">
        <ele>1264.4000244141</ele>
        <time>2012-06-09T08:22:53Z</time>
      </trkpt>
      <trkpt lat="45.71167" lon="6.27843">
        <ele>1260.8000488281</ele>
        <time>2012-06-09T08:22:57Z</time>
      </trkpt>
      <trkpt lat="45.71167" lon="6.27839">
        <ele>1260.8000488281</ele>
        <time>2012-06-09T08:22:58Z</time>
      </trkpt>
      <trkpt lat="45.71169" lon="6.27822">
        <ele>1258.8000488281</ele>
        <time>2012-06-09T08:23:03Z</time>
      </trkpt>
      <trkpt lat="45.7117" lon="6.27811">
        <ele>1256.4000244141</ele>
        <time>2012-06-09T08:23:06Z</time>
      </trkpt>
      <trkpt lat="45.71172" lon="6.27791">
        <ele>1254</ele>
        <time>2012-06-09T08:23:11Z</time>
      </trkpt>
      <trkpt lat="45.71173" lon="6.27784">
        <ele>1254</ele>
        <time>2012-06-09T08:23:13Z</time>
      </trkpt>
      <trkpt lat="45.71177" lon="6.27765">
        <ele>1250.8000488281</ele>
        <time>2012-06-09T08:23:18Z</time>
      </trkpt>
      <trkpt lat="45.71194" lon="6.2776">
        <ele>1246</ele>
        <time>2012-06-09T08:23:27Z</time>
      </trkpt>
      <trkpt lat="45.71196" lon="6.27761">
        <ele>1244.8000488281</ele>
        <time>2012-06-09T08:23:28Z</time>
      </trkpt>
      <trkpt lat="45.71206" lon="6.27763">
        <ele>1241.5999755859</ele>
        <time>2012-06-09T08:23:33Z</time>
      </trkpt>
      <trkpt lat="45.71214" lon="6.27761">
        <ele>1239.1999511719</ele>
        <time>2012-06-09T08:23:37Z</time>
      </trkpt>
      <trkpt lat="45.71221" lon="6.27756">
        <ele>1235.8000488281</ele>
        <time>2012-06-09T08:23:41Z</time>
      </trkpt>
      <trkpt lat="45.71223" lon="6.27754">
        <ele>1234.1999511719</ele>
        <time>2012-06-09T08:23:42Z</time>
      </trkpt>
      <trkpt lat="45.71231" lon="6.2775">
        <ele>1230.8000488281</ele>
        <time>2012-06-09T08:23:46Z</time>
      </trkpt>
      <trkpt lat="45.71235" lon="6.27746">
        <ele>1230.8000488281</ele>
        <time>2012-06-09T08:23:48Z</time>
      </trkpt>
      <trkpt lat="45.71241" lon="6.27741">
        <ele>1228.1999511719</ele>
        <time>2012-06-09T08:23:51Z</time>
      </trkpt>
      <trkpt lat="45.71257" lon="6.27753">
        <ele>1227.1999511719</ele>
        <time>2012-06-09T08:23:57Z</time>
      </trkpt>
      <trkpt lat="45.71266" lon="6.27763">
        <ele>1226</ele>
        <time>2012-06-09T08:24:01Z</time>
      </trkpt>
      <trkpt lat="45.71282" lon="6.27777">
        <ele>1222.1999511719</ele>
        <time>2012-06-09T08:24:07Z</time>
      </trkpt>
      <trkpt lat="45.71284" lon="6.27779">
        <ele>1222.1999511719</ele>
        <time>2012-06-09T08:24:08Z</time>
      </trkpt>
      <trkpt lat="45.71298" lon="6.27788">
        <ele>1219.5999755859</ele>
        <time>2012-06-09T08:24:13Z</time>
      </trkpt>
      <trkpt lat="45.71311" lon="6.27798">
        <ele>1217.1999511719</ele>
        <time>2012-06-09T08:24:18Z</time>
      </trkpt>
      <trkpt lat="45.71326" lon="6.27812">
        <ele>1214.8000488281</ele>
        <time>2012-06-09T08:24:24Z</time>
      </trkpt>
      <trkpt lat="45.7133" lon="6.27817">
        <ele>1213.8000488281</ele>
        <time>2012-06-09T08:24:26Z</time>
      </trkpt>
      <trkpt lat="45.71344" lon="6.27834">
        <ele>1210.1999511719</ele>
        <time>2012-06-09T08:24:32Z</time>
      </trkpt>
      <trkpt lat="45.71362" lon="6.27856">
        <ele>1207</ele>
        <time>2012-06-09T08:24:41Z</time>
      </trkpt>
      <trkpt lat="45.71369" lon="6.27855">
        <ele>1207</ele>
        <time>2012-06-09T08:24:44Z</time>
      </trkpt>
      <trkpt lat="45.71372" lon="6.27832">
        <ele>1203.8000488281</ele>
        <time>2012-06-09T08:24:51Z</time>
      </trkpt>
      <trkpt lat="45.7137" lon="6.27812">
        <ele>1202.5999755859</ele>
        <time>2012-06-09T08:24:56Z</time>
      </trkpt>
      <trkpt lat="45.71366" lon="6.27786">
        <ele>1199</ele>
        <time>2012-06-09T08:25:03Z</time>
      </trkpt>
      <trkpt lat="45.71365" lon="6.27778">
        <ele>1198</ele>
        <time>2012-06-09T08:25:05Z</time>
      </trkpt>
      <trkpt lat="45.71363" lon="6.27748">
        <ele>1194.5999755859</ele>
        <time>2012-06-09T08:25:13Z</time>
      </trkpt>
      <trkpt lat="45.71361" lon="6.27732">
        <ele>1193.5999755859</ele>
        <time>2012-06-09T08:25:17Z</time>
      </trkpt>
      <trkpt lat="45.71357" lon="6.27698">
        <ele>1190</ele>
        <time>2012-06-09T08:25:25Z</time>
      </trkpt>
      <trkpt lat="45.7134" lon="6.27647">
        <ele>1188</ele>
        <time>2012-06-09T08:25:39Z</time>
      </trkpt>
      <trkpt lat="45.71332" lon="6.27614">
        <ele>1188</ele>
        <time>2012-06-09T08:25:47Z</time>
      </trkpt>
      <trkpt lat="45.71326" lon="6.27565">
        <ele>1187</ele>
        <time>2012-06-09T08:25:59Z</time>
      </trkpt>
      <trkpt lat="45.71325" lon="6.27562">
        <ele>1187</ele>
        <time>2012-06-09T08:26:00Z</time>
      </trkpt>
      <trkpt lat="45.71326" lon="6.27551">
        <ele>1185.8000488281</ele>
        <time>2012-06-09T08:26:03Z</time>
      </trkpt>
      <trkpt lat="45.7133" lon="6.27521">
        <ele>1185.8000488281</ele>
        <time>2012-06-09T08:26:11Z</time>
      </trkpt>
      <trkpt lat="45.71333" lon="6.27503">
        <ele>1183.5999755859</ele>
        <time>2012-06-09T08:26:18Z</time>
      </trkpt>
      <trkpt lat="45.71333" lon="6.27502">
        <ele>1183.5999755859</ele>
        <time>2012-06-09T08:26:25Z</time>
      </trkpt>
      <trkpt lat="45.71335" lon="6.27503">
        <ele>1182.5999755859</ele>
        <time>2012-06-09T08:26:33Z</time>
      </trkpt>
      <trkpt lat="45.71336" lon="6.27502">
        <ele>1182.5999755859</ele>
        <time>2012-06-09T08:26:46Z</time>
      </trkpt>
      <trkpt lat="45.71337" lon="6.27502">
        <ele>1182.5999755859</ele>
        <time>2012-06-09T08:26:50Z</time>
      </trkpt>
      <trkpt lat="45.71337" lon="6.27503">
        <ele>1182.5999755859</ele>
        <time>2012-06-09T08:27:01Z</time>
      </trkpt>
      <trkpt lat="45.71339" lon="6.27503">
        <ele>1182.5999755859</ele>
        <time>2012-06-09T08:27:16Z</time>
      </trkpt>
      <trkpt lat="45.71339" lon="6.27504">
        <ele>1182.5999755859</ele>
        <time>2012-06-09T08:27:29Z</time>
      </trkpt>
      <trkpt lat="45.71339" lon="6.27504">
        <ele>1182.5999755859</ele>
        <time>2012-06-09T08:27:30Z</time>
      </trkpt>
      <trkpt lat="45.71339" lon="6.27505">
        <ele>1182.5999755859</ele>
        <time>2012-06-09T08:27:46Z</time>
      </trkpt>
      <trkpt lat="45.7134" lon="6.27506">
        <ele>1182.5999755859</ele>
        <time>2012-06-09T08:28:03Z</time>
      </trkpt>
      <trkpt lat="45.71338" lon="6.27506">
        <ele>1182.5999755859</ele>
        <time>2012-06-09T08:28:28Z</time>
      </trkpt>
      <trkpt lat="45.71338" lon="6.27503">
        <ele>1182.5999755859</ele>
        <time>2012-06-09T08:28:55Z</time>
      </trkpt>
      <trkpt lat="45.71337" lon="6.27504">
        <ele>1182.5999755859</ele>
        <time>2012-06-09T08:29:05Z</time>
      </trkpt>
      <trkpt lat="45.71343" lon="6.27497">
        <ele>1182.5999755859</ele>
        <time>2012-06-09T08:29:20Z</time>
      </trkpt>
      <trkpt lat="45.71343" lon="6.27497">
        <ele>1182.5999755859</ele>
        <time>2012-06-09T08:29:24Z</time>
      </trkpt>
      <trkpt lat="45.71344" lon="6.27497">
        <ele>1182.5999755859</ele>
        <time>2012-06-09T08:29:35Z</time>
      </trkpt>
      <trkpt lat="45.71343" lon="6.27495">
        <ele>1182.5999755859</ele>
        <time>2012-06-09T08:29:47Z</time>
      </trkpt>
      <trkpt lat="45.71343" lon="6.27492">
        <ele>1181.4000244141</ele>
        <time>2012-06-09T08:30:00Z</time>
      </trkpt>
      <trkpt lat="45.71343" lon="6.27491">
        <ele>1181.4000244141</ele>
        <time>2012-06-09T08:30:05Z</time>
      </trkpt>
      <trkpt lat="45.71343" lon="6.2749">
        <ele>1181.4000244141</ele>
        <time>2012-06-09T08:30:22Z</time>
      </trkpt>
      <trkpt lat="45.71339" lon="6.27484">
        <ele>1181.4000244141</ele>
        <time>2012-06-09T08:30:37Z</time>
      </trkpt>
      <trkpt lat="45.71338" lon="6.27481">
        <ele>1181.4000244141</ele>
        <time>2012-06-09T08:30:38Z</time>
      </trkpt>
      <trkpt lat="45.71335" lon="6.27469">
        <ele>1181.4000244141</ele>
        <time>2012-06-09T08:30:45Z</time>
      </trkpt>
      <trkpt lat="45.71335" lon="6.27458">
        <ele>1184.4000244141</ele>
        <time>2012-06-09T08:30:50Z</time>
      </trkpt>
      <trkpt lat="45.71335" lon="6.27442">
        <ele>1185.8000488281</ele>
        <time>2012-06-09T08:30:56Z</time>
      </trkpt>
      <trkpt lat="45.71335" lon="6.27439">
        <ele>1186.8000488281</ele>
        <time>2012-06-09T08:30:57Z</time>
      </trkpt>
      <trkpt lat="45.71337" lon="6.27425">
        <ele>1188.1999511719</ele>
        <time>2012-06-09T08:31:03Z</time>
      </trkpt>
      <trkpt lat="45.71338" lon="6.27415">
        <ele>1189.4000244141</ele>
        <time>2012-06-09T08:31:07Z</time>
      </trkpt>
      <trkpt lat="45.71339" lon="6.27404">
        <ele>1190.4000244141</ele>
        <time>2012-06-09T08:31:11Z</time>
      </trkpt>
      <trkpt lat="45.71342" lon="6.2738">
        <ele>1192.4000244141</ele>
        <time>2012-06-09T08:31:23Z</time>
      </trkpt>
      <trkpt lat="45.71343" lon="6.27368">
        <ele>1193.4000244141</ele>
        <time>2012-06-09T08:31:29Z</time>
      </trkpt>
      <trkpt lat="45.71345" lon="6.27355">
        <ele>1194.5999755859</ele>
        <time>2012-06-09T08:31:36Z</time>
      </trkpt>
      <trkpt lat="45.71346" lon="6.27351">
        <ele>1195.5999755859</ele>
        <time>2012-06-09T08:31:38Z</time>
      </trkpt>
      <trkpt lat="45.71346" lon="6.27342">
        <ele>1196.8000488281</ele>
        <time>2012-06-09T08:31:44Z</time>
      </trkpt>
      <trkpt lat="45.71343" lon="6.27333">
        <ele>1197.8000488281</ele>
        <time>2012-06-09T08:31:49Z</time>
      </trkpt>
      <trkpt lat="45.71341" lon="6.27317">
        <ele>1199</ele>
        <time>2012-06-09T08:31:59Z</time>
      </trkpt>
      <trkpt lat="45.71341" lon="6.27314">
        <ele>1200</ele>
        <time>2012-06-09T08:32:01Z</time>
      </trkpt>
      <trkpt lat="45.71337" lon="6.27297">
        <ele>1201</ele>
        <time>2012-06-09T08:32:11Z</time>
      </trkpt>
      <trkpt lat="45.71332" lon="6.2728">
        <ele>1204.1999511719</ele>
        <time>2012-06-09T08:32:22Z</time>
      </trkpt>
      <trkpt lat="45.71331" lon="6.27279">
        <ele>1204.1999511719</ele>
        <time>2012-06-09T08:32:23Z</time>
      </trkpt>
      <trkpt lat="45.71328" lon="6.27269">
        <ele>1205.1999511719</ele>
        <time>2012-06-09T08:32:31Z</time>
      </trkpt>
      <trkpt lat="45.71327" lon="6.2727">
        <ele>1205.1999511719</ele>
        <time>2012-06-09T08:32:37Z</time>
      </trkpt>
      <trkpt lat="45.71321" lon="6.27254">
        <ele>1207.5999755859</ele>
        <time>2012-06-09T08:32:48Z</time>
      </trkpt>
      <trkpt lat="45.7132" lon="6.27251">
        <ele>1207.5999755859</ele>
        <time>2012-06-09T08:32:49Z</time>
      </trkpt>
      <trkpt lat="45.71311" lon="6.2723">
        <ele>1209.8000488281</ele>
        <time>2012-06-09T08:33:00Z</time>
      </trkpt>
      <trkpt lat="45.71306" lon="6.27222">
        <ele>1210.8000488281</ele>
        <time>2012-06-09T08:33:06Z</time>
      </trkpt>
      <trkpt lat="45.71299" lon="6.27213">
        <ele>1211.8000488281</ele>
        <time>2012-06-09T08:33:13Z</time>
      </trkpt>
      <trkpt lat="45.71289" lon="6.27202">
        <ele>1213.8000488281</ele>
        <time>2012-06-09T08:33:22Z</time>
      </trkpt>
      <trkpt lat="45.71283" lon="6.27194">
        <ele>1215</ele>
        <time>2012-06-09T08:33:28Z</time>
      </trkpt>
      <trkpt lat="45.71279" lon="6.27189">
        <ele>1216.1999511719</ele>
        <time>2012-06-09T08:33:32Z</time>
      </trkpt>
      <trkpt lat="45.71271" lon="6.2718">
        <ele>1216.1999511719</ele>
        <time>2012-06-09T08:33:39Z</time>
      </trkpt>
      <trkpt lat="45.71257" lon="6.27167">
        <ele>1219.4000244141</ele>
        <time>2012-06-09T08:33:50Z</time>
      </trkpt>
      <trkpt lat="45.71245" lon="6.27157">
        <ele>1220.4000244141</ele>
        <time>2012-06-09T08:33:59Z</time>
      </trkpt>
      <trkpt lat="45.71231" lon="6.27147">
        <ele>1222.5999755859</ele>
        <time>2012-06-09T08:34:09Z</time>
      </trkpt>
      <trkpt lat="45.71224" lon="6.27145">
        <ele>1222.5999755859</ele>
        <time>2012-06-09T08:34:14Z</time>
      </trkpt>
      <trkpt lat="45.71217" lon="6.27145">
        <ele>1224.5999755859</ele>
        <time>2012-06-09T08:34:20Z</time>
      </trkpt>
      <trkpt lat="45.71203" lon="6.27145">
        <ele>1226.8000488281</ele>
        <time>2012-06-09T08:34:31Z</time>
      </trkpt>
      <trkpt lat="45.71202" lon="6.27144">
        <ele>1228</ele>
        <time>2012-06-09T08:34:32Z</time>
      </trkpt>
      <trkpt lat="45.71194" lon="6.27138">
        <ele>1230.1999511719</ele>
        <time>2012-06-09T08:34:40Z</time>
      </trkpt>
      <trkpt lat="45.7119" lon="6.27136">
        <ele>1231.1999511719</ele>
        <time>2012-06-09T08:34:44Z</time>
      </trkpt>
      <trkpt lat="45.71181" lon="6.27133">
        <ele>1232.4000244141</ele>
        <time>2012-06-09T08:34:52Z</time>
      </trkpt>
      <trkpt lat="45.7118" lon="6.27132">
        <ele>1233.4000244141</ele>
        <time>2012-06-09T08:34:53Z</time>
      </trkpt>
      <trkpt lat="45.71172" lon="6.27132">
        <ele>1234.5999755859</ele>
        <time>2012-06-09T08:35:01Z</time>
      </trkpt>
      <trkpt lat="45.71169" lon="6.27131">
        <ele>1235.5999755859</ele>
        <time>2012-06-09T08:35:04Z</time>
      </trkpt>
      <trkpt lat="45.71161" lon="6.27128">
        <ele>1237.8000488281</ele>
        <time>2012-06-09T08:35:11Z</time>
      </trkpt>
      <trkpt lat="45.71148" lon="6.27121">
        <ele>1239</ele>
        <time>2012-06-09T08:35:23Z</time>
      </trkpt>
      <trkpt lat="45.71146" lon="6.27121">
        <ele>1240</ele>
        <time>2012-06-09T08:35:25Z</time>
      </trkpt>
      <trkpt lat="45.71124" lon="6.27118">
        <ele>1241.1999511719</ele>
        <time>2012-06-09T08:35:41Z</time>
      </trkpt>
      <trkpt lat="45.71123" lon="6.27118">
        <ele>1242.1999511719</ele>
        <time>2012-06-09T08:35:42Z</time>
      </trkpt>
      <trkpt lat="45.71111" lon="6.27113">
        <ele>1244.5999755859</ele>
        <time>2012-06-09T08:35:52Z</time>
      </trkpt>
      <trkpt lat="45.71104" lon="6.27111">
        <ele>1244.5999755859</ele>
        <time>2012-06-09T08:35:59Z</time>
      </trkpt>
      <trkpt lat="45.71099" lon="6.27109">
        <ele>1245.5999755859</ele>
        <time>2012-06-09T08:36:04Z</time>
      </trkpt>
      <trkpt lat="45.71097" lon="6.27107">
        <ele>1246.5999755859</ele>
        <time>2012-06-09T08:36:06Z</time>
      </trkpt>
      <trkpt lat="45.71091" lon="6.27106">
        <ele>1247.5999755859</ele>
        <time>2012-06-09T08:36:12Z</time>
      </trkpt>
      <trkpt lat="45.71075" lon="6.27098">
        <ele>1249.8000488281</ele>
        <time>2012-06-09T08:36:26Z</time>
      </trkpt>
      <trkpt lat="45.71071" lon="6.27095">
        <ele>1250.8000488281</ele>
        <time>2012-06-09T08:36:30Z</time>
      </trkpt>
      <trkpt lat="45.71063" lon="6.27088">
        <ele>1251.8000488281</ele>
        <time>2012-06-09T08:36:37Z</time>
      </trkpt>
      <trkpt lat="45.71059" lon="6.27087">
        <ele>1252.8000488281</ele>
        <time>2012-06-09T08:36:41Z</time>
      </trkpt>
      <trkpt lat="45.71044" lon="6.27076">
        <ele>1255</ele>
        <time>2012-06-09T08:36:55Z</time>
      </trkpt>
      <trkpt lat="45.7104" lon="6.27073">
        <ele>1255</ele>
        <time>2012-06-09T08:36:58Z</time>
      </trkpt>
      <trkpt lat="45.7103" lon="6.27068">
        <ele>1257.1999511719</ele>
        <time>2012-06-09T08:37:06Z</time>
      </trkpt>
      <trkpt lat="45.71021" lon="6.27063">
        <ele>1258.1999511719</ele>
        <time>2012-06-09T08:37:12Z</time>
      </trkpt>
      <trkpt lat="45.71013" lon="6.27057">
        <ele>1259.4000244141</ele>
        <time>2012-06-09T08:37:19Z</time>
      </trkpt>
      <trkpt lat="45.71002" lon="6.27051">
        <ele>1261.4000244141</ele>
        <time>2012-06-09T08:37:28Z</time>
      </trkpt>
      <trkpt lat="45.70994" lon="6.27044">
        <ele>1262.4000244141</ele>
        <time>2012-06-09T08:37:35Z</time>
      </trkpt>
      <trkpt lat="45.70981" lon="6.27032">
        <ele>1264.4000244141</ele>
        <time>2012-06-09T08:37:46Z</time>
      </trkpt>
      <trkpt lat="45.70979" lon="6.27029">
        <ele>1264.4000244141</ele>
        <time>2012-06-09T08:37:48Z</time>
      </trkpt>
      <trkpt lat="45.70969" lon="6.27018">
        <ele>1265.5999755859</ele>
        <time>2012-06-09T08:37:57Z</time>
      </trkpt>
      <trkpt lat="45.70961" lon="6.27012">
        <ele>1266.5999755859</ele>
        <time>2012-06-09T08:38:06Z</time>
      </trkpt>
      <trkpt lat="45.70954" lon="6.27007">
        <ele>1267.5999755859</ele>
        <time>2012-06-09T08:38:11Z</time>
      </trkpt>
      <trkpt lat="45.70954" lon="6.27007">
        <ele>1268.8000488281</ele>
        <time>2012-06-09T08:38:12Z</time>
      </trkpt>
      <trkpt lat="45.70943" lon="6.26998">
        <ele>1269.8000488281</ele>
        <time>2012-06-09T08:38:22Z</time>
      </trkpt>
      <trkpt lat="45.7093" lon="6.26984">
        <ele>1270.8000488281</ele>
        <time>2012-06-09T08:38:34Z</time>
      </trkpt>
      <trkpt lat="45.70928" lon="6.26982">
        <ele>1270.8000488281</ele>
        <time>2012-06-09T08:38:36Z</time>
      </trkpt>
      <trkpt lat="45.70913" lon="6.26969">
        <ele>1273</ele>
        <time>2012-06-09T08:38:47Z</time>
      </trkpt>
      <trkpt lat="45.70905" lon="6.26966">
        <ele>1273</ele>
        <time>2012-06-09T08:38:55Z</time>
      </trkpt>
      <trkpt lat="45.70892" lon="6.2696">
        <ele>1274.1999511719</ele>
        <time>2012-06-09T08:39:05Z</time>
      </trkpt>
      <trkpt lat="45.7089" lon="6.2696">
        <ele>1274.1999511719</ele>
        <time>2012-06-09T08:39:06Z</time>
      </trkpt>
      <trkpt lat="45.70876" lon="6.26957">
        <ele>1275.1999511719</ele>
        <time>2012-06-09T08:39:14Z</time>
      </trkpt>
      <trkpt lat="45.70868" lon="6.26955">
        <ele>1275.1999511719</ele>
        <time>2012-06-09T08:39:19Z</time>
      </trkpt>
      <trkpt lat="45.7085" lon="6.26948">
        <ele>1276.1999511719</ele>
        <time>2012-06-09T08:39:24Z</time>
      </trkpt>
      <trkpt lat="45.70843" lon="6.26942">
        <ele>1277.4000244141</ele>
        <time>2012-06-09T08:39:35Z</time>
      </trkpt>
      <trkpt lat="45.70828" lon="6.26933">
        <ele>1278.4000244141</ele>
        <time>2012-06-09T08:39:41Z</time>
      </trkpt>
      <trkpt lat="45.70828" lon="6.26929">
        <ele>1279.5999755859</ele>
        <time>2012-06-09T08:39:48Z</time>
      </trkpt>
      <trkpt lat="45.70828" lon="6.26928">
        <ele>1279.5999755859</ele>
        <time>2012-06-09T08:39:50Z</time>
      </trkpt>
      <trkpt lat="45.70822" lon="6.26919">
        <ele>1281.5999755859</ele>
        <time>2012-06-09T08:40:00Z</time>
      </trkpt>
      <trkpt lat="45.70821" lon="6.26916">
        <ele>1282.5999755859</ele>
        <time>2012-06-09T08:40:02Z</time>
      </trkpt>
      <trkpt lat="45.70809" lon="6.26903">
        <ele>1284.8000488281</ele>
        <time>2012-06-09T08:40:15Z</time>
      </trkpt>
      <trkpt lat="45.708" lon="6.26896">
        <ele>1285.8000488281</ele>
        <time>2012-06-09T08:40:19Z</time>
      </trkpt>
      <trkpt lat="45.70793" lon="6.26886">
        <ele>1287</ele>
        <time>2012-06-09T08:40:27Z</time>
      </trkpt>
      <trkpt lat="45.70789" lon="6.26877">
        <ele>1288</ele>
        <time>2012-06-09T08:40:34Z</time>
      </trkpt>
      <trkpt lat="45.70787" lon="6.26874">
        <ele>1288</ele>
        <time>2012-06-09T08:40:36Z</time>
      </trkpt>
      <trkpt lat="45.70783" lon="6.26865">
        <ele>1290</ele>
        <time>2012-06-09T08:40:42Z</time>
      </trkpt>
      <trkpt lat="45.7078" lon="6.26856">
        <ele>1290</ele>
        <time>2012-06-09T08:40:49Z</time>
      </trkpt>
      <trkpt lat="45.70774" lon="6.2685">
        <ele>1291</ele>
        <time>2012-06-09T08:40:54Z</time>
      </trkpt>
      <trkpt lat="45.70772" lon="6.26849">
        <ele>1291</ele>
        <time>2012-06-09T08:40:55Z</time>
      </trkpt>
      <trkpt lat="45.7076" lon="6.26836">
        <ele>1292</ele>
        <time>2012-06-09T08:41:03Z</time>
      </trkpt>
      <trkpt lat="45.70756" lon="6.26823">
        <ele>1293.1999511719</ele>
        <time>2012-06-09T08:41:11Z</time>
      </trkpt>
      <trkpt lat="45.70754" lon="6.26809">
        <ele>1294.4000244141</ele>
        <time>2012-06-09T08:41:20Z</time>
      </trkpt>
      <trkpt lat="45.70751" lon="6.26798">
        <ele>1296.4000244141</ele>
        <time>2012-06-09T08:41:27Z</time>
      </trkpt>
      <trkpt lat="45.70747" lon="6.26791">
        <ele>1297.5999755859</ele>
        <time>2012-06-09T08:41:31Z</time>
      </trkpt>
      <trkpt lat="45.70743" lon="6.26784">
        <ele>1298.5999755859</ele>
        <time>2012-06-09T08:41:37Z</time>
      </trkpt>
      <trkpt lat="45.7074" lon="6.26781">
        <ele>1298.5999755859</ele>
        <time>2012-06-09T08:41:39Z</time>
      </trkpt>
      <trkpt lat="45.70733" lon="6.26774">
        <ele>1300.8000488281</ele>
        <time>2012-06-09T08:41:46Z</time>
      </trkpt>
      <trkpt lat="45.70722" lon="6.26764">
        <ele>1301.8000488281</ele>
        <time>2012-06-09T08:41:54Z</time>
      </trkpt>
      <trkpt lat="45.70712" lon="6.2676">
        <ele>1303</ele>
        <time>2012-06-09T08:42:02Z</time>
      </trkpt>
      <trkpt lat="45.7071" lon="6.26757">
        <ele>1304</ele>
        <time>2012-06-09T08:42:06Z</time>
      </trkpt>
      <trkpt lat="45.70699" lon="6.26748">
        <ele>1305</ele>
        <time>2012-06-09T08:42:15Z</time>
      </trkpt>
      <trkpt lat="45.70687" lon="6.2673">
        <ele>1307.1999511719</ele>
        <time>2012-06-09T08:42:27Z</time>
      </trkpt>
      <trkpt lat="45.70684" lon="6.26726">
        <ele>1308.4000244141</ele>
        <time>2012-06-09T08:42:30Z</time>
      </trkpt>
      <trkpt lat="45.70682" lon="6.2672">
        <ele>1309.4000244141</ele>
        <time>2012-06-09T08:42:35Z</time>
      </trkpt>
      <trkpt lat="45.7068" lon="6.26712">
        <ele>1310.4000244141</ele>
        <time>2012-06-09T08:42:40Z</time>
      </trkpt>
      <trkpt lat="45.70672" lon="6.26696">
        <ele>1311.4000244141</ele>
        <time>2012-06-09T08:42:50Z</time>
      </trkpt>
      <trkpt lat="45.70672" lon="6.26694">
        <ele>1311.4000244141</ele>
        <time>2012-06-09T08:42:51Z</time>
      </trkpt>
      <trkpt lat="45.70669" lon="6.26687">
        <ele>1312.4000244141</ele>
        <time>2012-06-09T08:42:56Z</time>
      </trkpt>
      <trkpt lat="45.70664" lon="6.26681">
        <ele>1313.4000244141</ele>
        <time>2012-06-09T08:43:00Z</time>
      </trkpt>
      <trkpt lat="45.70656" lon="6.26669">
        <ele>1315.5999755859</ele>
        <time>2012-06-09T08:43:09Z</time>
      </trkpt>
      <trkpt lat="45.70648" lon="6.26659">
        <ele>1317.5999755859</ele>
        <time>2012-06-09T08:43:17Z</time>
      </trkpt>
      <trkpt lat="45.70643" lon="6.26654">
        <ele>1318.5999755859</ele>
        <time>2012-06-09T08:43:21Z</time>
      </trkpt>
      <trkpt lat="45.70638" lon="6.2665">
        <ele>1319.8000488281</ele>
        <time>2012-06-09T08:43:26Z</time>
      </trkpt>
      <trkpt lat="45.70632" lon="6.26645">
        <ele>1320.8000488281</ele>
        <time>2012-06-09T08:43:30Z</time>
      </trkpt>
      <trkpt lat="45.70625" lon="6.26637">
        <ele>1321.8000488281</ele>
        <time>2012-06-09T08:43:37Z</time>
      </trkpt>
      <trkpt lat="45.70624" lon="6.26634">
        <ele>1323</ele>
        <time>2012-06-09T08:43:40Z</time>
      </trkpt>
      <trkpt lat="45.70621" lon="6.26625">
        <ele>1324</ele>
        <time>2012-06-09T08:43:47Z</time>
      </trkpt>
      <trkpt lat="45.7062" lon="6.26623">
        <ele>1325</ele>
        <time>2012-06-09T08:43:48Z</time>
      </trkpt>
      <trkpt lat="45.70617" lon="6.26617">
        <ele>1326.1999511719</ele>
        <time>2012-06-09T08:43:53Z</time>
      </trkpt>
      <trkpt lat="45.70614" lon="6.26604">
        <ele>1328.4000244141</ele>
        <time>2012-06-09T08:44:05Z</time>
      </trkpt>
      <trkpt lat="45.70614" lon="6.26601">
        <ele>1329.4000244141</ele>
        <time>2012-06-09T08:44:07Z</time>
      </trkpt>
      <trkpt lat="45.7061" lon="6.26588">
        <ele>1330.4000244141</ele>
        <time>2012-06-09T08:44:15Z</time>
      </trkpt>
      <trkpt lat="45.70609" lon="6.26583">
        <ele>1331.4000244141</ele>
        <time>2012-06-09T08:44:18Z</time>
      </trkpt>
      <trkpt lat="45.70605" lon="6.26575">
        <ele>1332.4000244141</ele>
        <time>2012-06-09T08:44:24Z</time>
      </trkpt>
      <trkpt lat="45.70603" lon="6.26573">
        <ele>1333.5999755859</ele>
        <time>2012-06-09T08:44:26Z</time>
      </trkpt>
      <trkpt lat="45.70598" lon="6.26564">
        <ele>1334.5999755859</ele>
        <time>2012-06-09T08:44:33Z</time>
      </trkpt>
      <trkpt lat="45.70598" lon="6.26563">
        <ele>1335.5999755859</ele>
        <time>2012-06-09T08:44:36Z</time>
      </trkpt>
      <trkpt lat="45.70599" lon="6.26556">
        <ele>1336.5999755859</ele>
        <time>2012-06-09T08:44:42Z</time>
      </trkpt>
      <trkpt lat="45.70599" lon="6.2654">
        <ele>1339.8000488281</ele>
        <time>2012-06-09T08:44:52Z</time>
      </trkpt>
      <trkpt lat="45.70598" lon="6.26529">
        <ele>1341.8000488281</ele>
        <time>2012-06-09T08:45:01Z</time>
      </trkpt>
      <trkpt lat="45.70591" lon="6.26516">
        <ele>1344</ele>
        <time>2012-06-09T08:45:10Z</time>
      </trkpt>
      <trkpt lat="45.70589" lon="6.26515">
        <ele>1344</ele>
        <time>2012-06-09T08:45:11Z</time>
      </trkpt>
      <trkpt lat="45.70584" lon="6.26496">
        <ele>1346.1999511719</ele>
        <time>2012-06-09T08:45:21Z</time>
      </trkpt>
      <trkpt lat="45.70582" lon="6.26489">
        <ele>1347.4000244141</ele>
        <time>2012-06-09T08:45:25Z</time>
      </trkpt>
      <trkpt lat="45.70579" lon="6.26477">
        <ele>1348.4000244141</ele>
        <time>2012-06-09T08:45:32Z</time>
      </trkpt>
      <trkpt lat="45.70578" lon="6.26471">
        <ele>1349.5999755859</ele>
        <time>2012-06-09T08:45:36Z</time>
      </trkpt>
      <trkpt lat="45.70576" lon="6.2646">
        <ele>1351.5999755859</ele>
        <time>2012-06-09T08:45:45Z</time>
      </trkpt>
      <trkpt lat="45.70573" lon="6.2644">
        <ele>1354.8000488281</ele>
        <time>2012-06-09T08:46:00Z</time>
      </trkpt>
      <trkpt lat="45.70573" lon="6.26439">
        <ele>1354.8000488281</ele>
        <time>2012-06-09T08:46:01Z</time>
      </trkpt>
      <trkpt lat="45.70571" lon="6.26431">
        <ele>1357</ele>
        <time>2012-06-09T08:46:10Z</time>
      </trkpt>
      <trkpt lat="45.70569" lon="6.26428">
        <ele>1358</ele>
        <time>2012-06-09T08:46:13Z</time>
      </trkpt>
      <trkpt lat="45.70564" lon="6.26421">
        <ele>1360</ele>
        <time>2012-06-09T08:46:23Z</time>
      </trkpt>
      <trkpt lat="45.70559" lon="6.26416">
        <ele>1361</ele>
        <time>2012-06-09T08:46:27Z</time>
      </trkpt>
      <trkpt lat="45.70553" lon="6.26409">
        <ele>1362.1999511719</ele>
        <time>2012-06-09T08:46:35Z</time>
      </trkpt>
      <trkpt lat="45.70552" lon="6.26407">
        <ele>1363.1999511719</ele>
        <time>2012-06-09T08:46:37Z</time>
      </trkpt>
      <trkpt lat="45.70548" lon="6.26401">
        <ele>1365.4000244141</ele>
        <time>2012-06-09T08:46:44Z</time>
      </trkpt>
      <trkpt lat="45.70543" lon="6.26392">
        <ele>1367.5999755859</ele>
        <time>2012-06-09T08:46:54Z</time>
      </trkpt>
      <trkpt lat="45.7054" lon="6.26389">
        <ele>1368.8000488281</ele>
        <time>2012-06-09T08:46:57Z</time>
      </trkpt>
      <trkpt lat="45.70538" lon="6.26384">
        <ele>1369.8000488281</ele>
        <time>2012-06-09T08:47:02Z</time>
      </trkpt>
      <trkpt lat="45.70537" lon="6.26383">
        <ele>1369.8000488281</ele>
        <time>2012-06-09T08:47:04Z</time>
      </trkpt>
      <trkpt lat="45.70534" lon="6.26378">
        <ele>1370.8000488281</ele>
        <time>2012-06-09T08:47:08Z</time>
      </trkpt>
      <trkpt lat="45.70533" lon="6.26373">
        <ele>1371.8000488281</ele>
        <time>2012-06-09T08:47:13Z</time>
      </trkpt>
      <trkpt lat="45.70531" lon="6.26363">
        <ele>1374</ele>
        <time>2012-06-09T08:47:21Z</time>
      </trkpt>
      <trkpt lat="45.70531" lon="6.26361">
        <ele>1374</ele>
        <time>2012-06-09T08:47:24Z</time>
      </trkpt>
      <trkpt lat="45.70528" lon="6.26351">
        <ele>1376.1999511719</ele>
        <time>2012-06-09T08:47:32Z</time>
      </trkpt>
      <trkpt lat="45.70521" lon="6.26331">
        <ele>1379.4000244141</ele>
        <time>2012-06-09T08:47:46Z</time>
      </trkpt>
      <trkpt lat="45.7052" lon="6.2633">
        <ele>1379.4000244141</ele>
        <time>2012-06-09T08:47:47Z</time>
      </trkpt>
      <trkpt lat="45.70511" lon="6.26317">
        <ele>1380.5999755859</ele>
        <time>2012-06-09T08:47:57Z</time>
      </trkpt>
      <trkpt lat="45.70506" lon="6.26313">
        <ele>1381.5999755859</ele>
        <time>2012-06-09T08:48:02Z</time>
      </trkpt>
      <trkpt lat="45.705" lon="6.26306">
        <ele>1384</ele>
        <time>2012-06-09T08:48:10Z</time>
      </trkpt>
      <trkpt lat="45.70499" lon="6.26305">
        <ele>1384</ele>
        <time>2012-06-09T08:48:11Z</time>
      </trkpt>
      <trkpt lat="45.7049" lon="6.26294">
        <ele>1386</ele>
        <time>2012-06-09T08:48:22Z</time>
      </trkpt>
      <trkpt lat="45.70488" lon="6.26291">
        <ele>1386</ele>
        <time>2012-06-09T08:48:24Z</time>
      </trkpt>
      <trkpt lat="45.70486" lon="6.26285">
        <ele>1387.1999511719</ele>
        <time>2012-06-09T08:48:28Z</time>
      </trkpt>
      <trkpt lat="45.70478" lon="6.26271">
        <ele>1389.1999511719</ele>
        <time>2012-06-09T08:48:39Z</time>
      </trkpt>
      <trkpt lat="45.70475" lon="6.26268">
        <ele>1390.1999511719</ele>
        <time>2012-06-09T08:48:43Z</time>
      </trkpt>
      <trkpt lat="45.7047" lon="6.26262">
        <ele>1391.4000244141</ele>
        <time>2012-06-09T08:48:49Z</time>
      </trkpt>
      <trkpt lat="45.70469" lon="6.26261">
        <ele>1392.4000244141</ele>
        <time>2012-06-09T08:48:50Z</time>
      </trkpt>
      <trkpt lat="45.70464" lon="6.26256">
        <ele>1393.5999755859</ele>
        <time>2012-06-09T08:48:56Z</time>
      </trkpt>
      <trkpt lat="45.70458" lon="6.2625">
        <ele>1395.5999755859</ele>
        <time>2012-06-09T08:49:03Z</time>
      </trkpt>
      <trkpt lat="45.70447" lon="6.26244">
        <ele>1397.8000488281</ele>
        <time>2012-06-09T08:49:14Z</time>
      </trkpt>
      <trkpt lat="45.70445" lon="6.26243">
        <ele>1398.8000488281</ele>
        <time>2012-06-09T08:49:16Z</time>
      </trkpt>
      <trkpt lat="45.70438" lon="6.26242">
        <ele>1401</ele>
        <time>2012-06-09T08:49:24Z</time>
      </trkpt>
      <trkpt lat="45.70423" lon="6.26242">
        <ele>1404.4000244141</ele>
        <time>2012-06-09T08:49:39Z</time>
      </trkpt>
      <trkpt lat="45.70421" lon="6.26242">
        <ele>1404.4000244141</ele>
        <time>2012-06-09T08:49:45Z</time>
      </trkpt>
      <trkpt lat="45.70421" lon="6.26235">
        <ele>1404.4000244141</ele>
        <time>2012-06-09T08:50:05Z</time>
      </trkpt>
      <trkpt lat="45.70419" lon="6.26227">
        <ele>1405.5999755859</ele>
        <time>2012-06-09T08:50:11Z</time>
      </trkpt>
      <trkpt lat="45.70423" lon="6.26217">
        <ele>1406.5999755859</ele>
        <time>2012-06-09T08:50:21Z</time>
      </trkpt>
      <trkpt lat="45.70425" lon="6.26214">
        <ele>1407.5999755859</ele>
        <time>2012-06-09T08:50:24Z</time>
      </trkpt>
      <trkpt lat="45.7043" lon="6.26205">
        <ele>1408.8000488281</ele>
        <time>2012-06-09T08:50:32Z</time>
      </trkpt>
      <trkpt lat="45.70431" lon="6.26204">
        <ele>1409.8000488281</ele>
        <time>2012-06-09T08:50:36Z</time>
      </trkpt>
      <trkpt lat="45.70441" lon="6.26198">
        <ele>1411.8000488281</ele>
        <time>2012-06-09T08:50:44Z</time>
      </trkpt>
      <trkpt lat="45.70449" lon="6.26194">
        <ele>1414</ele>
        <time>2012-06-09T08:50:52Z</time>
      </trkpt>
      <trkpt lat="45.7045" lon="6.26193">
        <ele>1415.1999511719</ele>
        <time>2012-06-09T08:50:55Z</time>
      </trkpt>
      <trkpt lat="45.70456" lon="6.26189">
        <ele>1417.1999511719</ele>
        <time>2012-06-09T08:51:04Z</time>
      </trkpt>
      <trkpt lat="45.70461" lon="6.26186">
        <ele>1418.4000244141</ele>
        <time>2012-06-09T08:51:08Z</time>
      </trkpt>
      <trkpt lat="45.70466" lon="6.26176">
        <ele>1420.4000244141</ele>
        <time>2012-06-09T08:51:17Z</time>
      </trkpt>
      <trkpt lat="45.70465" lon="6.26172">
        <ele>1420.4000244141</ele>
        <time>2012-06-09T08:51:21Z</time>
      </trkpt>
      <trkpt lat="45.70456" lon="6.26166">
        <ele>1422.4000244141</ele>
        <time>2012-06-09T08:51:30Z</time>
      </trkpt>
      <trkpt lat="45.70455" lon="6.26166">
        <ele>1422.4000244141</ele>
        <time>2012-06-09T08:51:31Z</time>
      </trkpt>
      <trkpt lat="45.70449" lon="6.26166">
        <ele>1424.5999755859</ele>
        <time>2012-06-09T08:51:38Z</time>
      </trkpt>
      <trkpt lat="45.70436" lon="6.26161">
        <ele>1427.8000488281</ele>
        <time>2012-06-09T08:51:55Z</time>
      </trkpt>
      <trkpt lat="45.70435" lon="6.2616">
        <ele>1427.8000488281</ele>
        <time>2012-06-09T08:51:56Z</time>
      </trkpt>
      <trkpt lat="45.70424" lon="6.26158">
        <ele>1429.8000488281</ele>
        <time>2012-06-09T08:52:07Z</time>
      </trkpt>
      <trkpt lat="45.7042" lon="6.26158">
        <ele>1431</ele>
        <time>2012-06-09T08:52:11Z</time>
      </trkpt>
      <trkpt lat="45.70411" lon="6.26156">
        <ele>1432</ele>
        <time>2012-06-09T08:52:19Z</time>
      </trkpt>
      <trkpt lat="45.7041" lon="6.26156">
        <ele>1433</ele>
        <time>2012-06-09T08:52:20Z</time>
      </trkpt>
      <trkpt lat="45.70405" lon="6.26153">
        <ele>1434.1999511719</ele>
        <time>2012-06-09T08:52:27Z</time>
      </trkpt>
      <trkpt lat="45.70404" lon="6.26152">
        <ele>1435.1999511719</ele>
        <time>2012-06-09T08:52:30Z</time>
      </trkpt>
      <trkpt lat="45.704" lon="6.26151">
        <ele>1436.1999511719</ele>
        <time>2012-06-09T08:52:37Z</time>
      </trkpt>
      <trkpt lat="45.70392" lon="6.26148">
        <ele>1438.4000244141</ele>
        <time>2012-06-09T08:52:49Z</time>
      </trkpt>
      <trkpt lat="45.70389" lon="6.26145">
        <ele>1439.5999755859</ele>
        <time>2012-06-09T08:52:54Z</time>
      </trkpt>
      <trkpt lat="45.7038" lon="6.26139">
        <ele>1441.5999755859</ele>
        <time>2012-06-09T08:53:03Z</time>
      </trkpt>
      <trkpt lat="45.7038" lon="6.26138">
        <ele>1441.5999755859</ele>
        <time>2012-06-09T08:53:04Z</time>
      </trkpt>
      <trkpt lat="45.70372" lon="6.26133">
        <ele>1442.5999755859</ele>
        <time>2012-06-09T08:53:11Z</time>
      </trkpt>
      <trkpt lat="45.70371" lon="6.26131">
        <ele>1443.5999755859</ele>
        <time>2012-06-09T08:53:15Z</time>
      </trkpt>
      <trkpt lat="45.70361" lon="6.26128">
        <ele>1445.8000488281</ele>
        <time>2012-06-09T08:53:23Z</time>
      </trkpt>
      <trkpt lat="45.70356" lon="6.26126">
        <ele>1447</ele>
        <time>2012-06-09T08:53:27Z</time>
      </trkpt>
      <trkpt lat="45.70348" lon="6.2612">
        <ele>1449</ele>
        <time>2012-06-09T08:53:37Z</time>
      </trkpt>
      <trkpt lat="45.70342" lon="6.26107">
        <ele>1451.1999511719</ele>
        <time>2012-06-09T08:53:49Z</time>
      </trkpt>
      <trkpt lat="45.7034" lon="6.26106">
        <ele>1451.1999511719</ele>
        <time>2012-06-09T08:53:50Z</time>
      </trkpt>
      <trkpt lat="45.70333" lon="6.26104">
        <ele>1452.4000244141</ele>
        <time>2012-06-09T08:53:56Z</time>
      </trkpt>
      <trkpt lat="45.70332" lon="6.26103">
        <ele>1453.4000244141</ele>
        <time>2012-06-09T08:53:59Z</time>
      </trkpt>
      <trkpt lat="45.70325" lon="6.26098">
        <ele>1454.4000244141</ele>
        <time>2012-06-09T08:54:04Z</time>
      </trkpt>
      <trkpt lat="45.70321" lon="6.26098">
        <ele>1455.5999755859</ele>
        <time>2012-06-09T08:54:08Z</time>
      </trkpt>
      <trkpt lat="45.70322" lon="6.26093">
        <ele>1456.5999755859</ele>
        <time>2012-06-09T08:54:12Z</time>
      </trkpt>
      <trkpt lat="45.70317" lon="6.26086">
        <ele>1457.8000488281</ele>
        <time>2012-06-09T08:54:18Z</time>
      </trkpt>
      <trkpt lat="45.70308" lon="6.26083">
        <ele>1458.8000488281</ele>
        <time>2012-06-09T08:54:24Z</time>
      </trkpt>
      <trkpt lat="45.70301" lon="6.26074">
        <ele>1461</ele>
        <time>2012-06-09T08:54:33Z</time>
      </trkpt>
      <trkpt lat="45.70299" lon="6.26072">
        <ele>1461</ele>
        <time>2012-06-09T08:54:35Z</time>
      </trkpt>
      <trkpt lat="45.70295" lon="6.26067">
        <ele>1462</ele>
        <time>2012-06-09T08:54:41Z</time>
      </trkpt>
      <trkpt lat="45.70296" lon="6.26065">
        <ele>1462</ele>
        <time>2012-06-09T08:54:43Z</time>
      </trkpt>
      <trkpt lat="45.70285" lon="6.26063">
        <ele>1463</ele>
        <time>2012-06-09T08:54:50Z</time>
      </trkpt>
      <trkpt lat="45.70278" lon="6.26061">
        <ele>1464</ele>
        <time>2012-06-09T08:54:56Z</time>
      </trkpt>
      <trkpt lat="45.70267" lon="6.26058">
        <ele>1467.1999511719</ele>
        <time>2012-06-09T08:55:06Z</time>
      </trkpt>
      <trkpt lat="45.70261" lon="6.26057">
        <ele>1467.1999511719</ele>
        <time>2012-06-09T08:55:10Z</time>
      </trkpt>
      <trkpt lat="45.70256" lon="6.26053">
        <ele>1469.1999511719</ele>
        <time>2012-06-09T08:55:16Z</time>
      </trkpt>
      <trkpt lat="45.70248" lon="6.26044">
        <ele>1471.1999511719</ele>
        <time>2012-06-09T08:55:26Z</time>
      </trkpt>
      <trkpt lat="45.70246" lon="6.26041">
        <ele>1472.1999511719</ele>
        <time>2012-06-09T08:55:29Z</time>
      </trkpt>
      <trkpt lat="45.7024" lon="6.26037">
        <ele>1473.4000244141</ele>
        <time>2012-06-09T08:55:34Z</time>
      </trkpt>
      <trkpt lat="45.70235" lon="6.26038">
        <ele>1473.4000244141</ele>
        <time>2012-06-09T08:55:37Z</time>
      </trkpt>
      <trkpt lat="45.70229" lon="6.26034">
        <ele>1474.4000244141</ele>
        <time>2012-06-09T08:55:42Z</time>
      </trkpt>
      <trkpt lat="45.7023" lon="6.26033">
        <ele>1475.4000244141</ele>
        <time>2012-06-09T08:55:43Z</time>
      </trkpt>
      <trkpt lat="45.70226" lon="6.26029">
        <ele>1476.5999755859</ele>
        <time>2012-06-09T08:55:48Z</time>
      </trkpt>
      <trkpt lat="45.7022" lon="6.26028">
        <ele>1477.5999755859</ele>
        <time>2012-06-09T08:55:52Z</time>
      </trkpt>
      <trkpt lat="45.70213" lon="6.26024">
        <ele>1478.5999755859</ele>
        <time>2012-06-09T08:55:58Z</time>
      </trkpt>
      <trkpt lat="45.70211" lon="6.26015">
        <ele>1480.8000488281</ele>
        <time>2012-06-09T08:56:06Z</time>
      </trkpt>
      <trkpt lat="45.70209" lon="6.2601">
        <ele>1481.8000488281</ele>
        <time>2012-06-09T08:56:13Z</time>
      </trkpt>
      <trkpt lat="45.70201" lon="6.25997">
        <ele>1485.1999511719</ele>
        <time>2012-06-09T08:56:24Z</time>
      </trkpt>
      <trkpt lat="45.70201" lon="6.25995">
        <ele>1485.1999511719</ele>
        <time>2012-06-09T08:56:25Z</time>
      </trkpt>
      <trkpt lat="45.702" lon="6.25986">
        <ele>1487.1999511719</ele>
        <time>2012-06-09T08:56:32Z</time>
      </trkpt>
      <trkpt lat="45.70205" lon="6.25976">
        <ele>1488.1999511719</ele>
        <time>2012-06-09T08:56:41Z</time>
      </trkpt>
      <trkpt lat="45.7021" lon="6.25971">
        <ele>1490.1999511719</ele>
        <time>2012-06-09T08:56:47Z</time>
      </trkpt>
      <trkpt lat="45.70212" lon="6.25969">
        <ele>1490.1999511719</ele>
        <time>2012-06-09T08:56:50Z</time>
      </trkpt>
      <trkpt lat="45.70218" lon="6.25968">
        <ele>1492.8000488281</ele>
        <time>2012-06-09T08:56:57Z</time>
      </trkpt>
      <trkpt lat="45.70229" lon="6.25958">
        <ele>1495</ele>
        <time>2012-06-09T08:57:11Z</time>
      </trkpt>
      <trkpt lat="45.7023" lon="6.25957">
        <ele>1496.1999511719</ele>
        <time>2012-06-09T08:57:12Z</time>
      </trkpt>
      <trkpt lat="45.70226" lon="6.25945">
        <ele>1498.1999511719</ele>
        <time>2012-06-09T08:57:22Z</time>
      </trkpt>
      <trkpt lat="45.70221" lon="6.25939">
        <ele>1498.1999511719</ele>
        <time>2012-06-09T08:57:29Z</time>
      </trkpt>
      <trkpt lat="45.70214" lon="6.25933">
        <ele>1500.4000244141</ele>
        <time>2012-06-09T08:57:36Z</time>
      </trkpt>
      <trkpt lat="45.70212" lon="6.25932">
        <ele>1501.5999755859</ele>
        <time>2012-06-09T08:57:38Z</time>
      </trkpt>
      <trkpt lat="45.70203" lon="6.25926">
        <ele>1502.5999755859</ele>
        <time>2012-06-09T08:57:49Z</time>
      </trkpt>
      <trkpt lat="45.70195" lon="6.25925">
        <ele>1502.5999755859</ele>
        <time>2012-06-09T08:57:57Z</time>
      </trkpt>
      <trkpt lat="45.70185" lon="6.25923">
        <ele>1504.5999755859</ele>
        <time>2012-06-09T08:58:06Z</time>
      </trkpt>
      <trkpt lat="45.70175" lon="6.25919">
        <ele>1506.8000488281</ele>
        <time>2012-06-09T08:58:15Z</time>
      </trkpt>
      <trkpt lat="45.70171" lon="6.25919">
        <ele>1507.8000488281</ele>
        <time>2012-06-09T08:58:19Z</time>
      </trkpt>
      <trkpt lat="45.70167" lon="6.2592">
        <ele>1509</ele>
        <time>2012-06-09T08:58:24Z</time>
      </trkpt>
      <trkpt lat="45.70165" lon="6.2592">
        <ele>1510</ele>
        <time>2012-06-09T08:58:26Z</time>
      </trkpt>
      <trkpt lat="45.70159" lon="6.25921">
        <ele>1512.1999511719</ele>
        <time>2012-06-09T08:58:35Z</time>
      </trkpt>
      <trkpt lat="45.70151" lon="6.25919">
        <ele>1513.1999511719</ele>
        <time>2012-06-09T08:58:42Z</time>
      </trkpt>
      <trkpt lat="45.70143" lon="6.25915">
        <ele>1515.4000244141</ele>
        <time>2012-06-09T08:58:50Z</time>
      </trkpt>
      <trkpt lat="45.7014" lon="6.25913">
        <ele>1515.4000244141</ele>
        <time>2012-06-09T08:58:52Z</time>
      </trkpt>
      <trkpt lat="45.70135" lon="6.25911">
        <ele>1516.5999755859</ele>
        <time>2012-06-09T08:58:57Z</time>
      </trkpt>
      <trkpt lat="45.70122" lon="6.25897">
        <ele>1521</ele>
        <time>2012-06-09T08:59:14Z</time>
      </trkpt>
      <trkpt lat="45.70119" lon="6.25891">
        <ele>1522.1999511719</ele>
        <time>2012-06-09T08:59:18Z</time>
      </trkpt>
      <trkpt lat="45.70113" lon="6.25881">
        <ele>1522.1999511719</ele>
        <time>2012-06-09T08:59:25Z</time>
      </trkpt>
      <trkpt lat="45.70108" lon="6.25873">
        <ele>1524.1999511719</ele>
        <time>2012-06-09T08:59:32Z</time>
      </trkpt>
      <trkpt lat="45.70102" lon="6.25863">
        <ele>1525.4000244141</ele>
        <time>2012-06-09T08:59:40Z</time>
      </trkpt>
      <trkpt lat="45.70101" lon="6.25861">
        <ele>1526.4000244141</ele>
        <time>2012-06-09T08:59:41Z</time>
      </trkpt>
      <trkpt lat="45.70093" lon="6.25849">
        <ele>1528.5999755859</ele>
        <time>2012-06-09T08:59:52Z</time>
      </trkpt>
      <trkpt lat="45.70089" lon="6.25845">
        <ele>1529.5999755859</ele>
        <time>2012-06-09T08:59:58Z</time>
      </trkpt>
      <trkpt lat="45.70084" lon="6.25839">
        <ele>1531.5999755859</ele>
        <time>2012-06-09T09:00:06Z</time>
      </trkpt>
      <trkpt lat="45.70078" lon="6.25828">
        <ele>1533.5999755859</ele>
        <time>2012-06-09T09:00:17Z</time>
      </trkpt>
      <trkpt lat="45.70075" lon="6.2582">
        <ele>1534.5999755859</ele>
        <time>2012-06-09T09:00:24Z</time>
      </trkpt>
      <trkpt lat="45.7007" lon="6.25808">
        <ele>1537.8000488281</ele>
        <time>2012-06-09T09:00:34Z</time>
      </trkpt>
      <trkpt lat="45.70067" lon="6.25804">
        <ele>1537.8000488281</ele>
        <time>2012-06-09T09:00:37Z</time>
      </trkpt>
      <trkpt lat="45.70062" lon="6.25797">
        <ele>1540.1999511719</ele>
        <time>2012-06-09T09:00:45Z</time>
      </trkpt>
      <trkpt lat="45.70059" lon="6.25794">
        <ele>1541.1999511719</ele>
        <time>2012-06-09T09:00:49Z</time>
      </trkpt>
      <trkpt lat="45.7005" lon="6.2578">
        <ele>1544.4000244141</ele>
        <time>2012-06-09T09:01:03Z</time>
      </trkpt>
      <trkpt lat="45.70048" lon="6.25778">
        <ele>1544.4000244141</ele>
        <time>2012-06-09T09:01:05Z</time>
      </trkpt>
      <trkpt lat="45.70043" lon="6.25771">
        <ele>1546.5999755859</ele>
        <time>2012-06-09T09:01:12Z</time>
      </trkpt>
      <trkpt lat="45.70036" lon="6.2576">
        <ele>1548.5999755859</ele>
        <time>2012-06-09T09:01:23Z</time>
      </trkpt>
      <trkpt lat="45.70036" lon="6.25759">
        <ele>1548.5999755859</ele>
        <time>2012-06-09T09:01:24Z</time>
      </trkpt>
      <trkpt lat="45.70032" lon="6.25752">
        <ele>1550.8000488281</ele>
        <time>2012-06-09T09:01:31Z</time>
      </trkpt>
      <trkpt lat="45.70029" lon="6.25749">
        <ele>1551.8000488281</ele>
        <time>2012-06-09T09:01:35Z</time>
      </trkpt>
      <trkpt lat="45.70023" lon="6.25742">
        <ele>1552.8000488281</ele>
        <time>2012-06-09T09:01:44Z</time>
      </trkpt>
      <trkpt lat="45.70021" lon="6.25741">
        <ele>1552.8000488281</ele>
        <time>2012-06-09T09:01:46Z</time>
      </trkpt>
      <trkpt lat="45.70018" lon="6.25736">
        <ele>1555</ele>
        <time>2012-06-09T09:01:51Z</time>
      </trkpt>
      <trkpt lat="45.70015" lon="6.25733">
        <ele>1555</ele>
        <time>2012-06-09T09:01:56Z</time>
      </trkpt>
      <trkpt lat="45.70011" lon="6.25728">
        <ele>1557</ele>
        <time>2012-06-09T09:02:02Z</time>
      </trkpt>
      <trkpt lat="45.70004" lon="6.25722">
        <ele>1558</ele>
        <time>2012-06-09T09:02:10Z</time>
      </trkpt>
      <trkpt lat="45.7" lon="6.25717">
        <ele>1560.1999511719</ele>
        <time>2012-06-09T09:02:16Z</time>
      </trkpt>
      <trkpt lat="45.69993" lon="6.25711">
        <ele>1561.1999511719</ele>
        <time>2012-06-09T09:02:24Z</time>
      </trkpt>
      <trkpt lat="45.69991" lon="6.25709">
        <ele>1562.1999511719</ele>
        <time>2012-06-09T09:02:27Z</time>
      </trkpt>
      <trkpt lat="45.69983" lon="6.25705">
        <ele>1564.4000244141</ele>
        <time>2012-06-09T09:02:36Z</time>
      </trkpt>
      <trkpt lat="45.69979" lon="6.25703">
        <ele>1565.4000244141</ele>
        <time>2012-06-09T09:02:41Z</time>
      </trkpt>
      <trkpt lat="45.69971" lon="6.25697">
        <ele>1567.5999755859</ele>
        <time>2012-06-09T09:02:51Z</time>
      </trkpt>
      <trkpt lat="45.69968" lon="6.25696">
        <ele>1568.5999755859</ele>
        <time>2012-06-09T09:02:54Z</time>
      </trkpt>
      <trkpt lat="45.69959" lon="6.2569">
        <ele>1569.5999755859</ele>
        <time>2012-06-09T09:03:05Z</time>
      </trkpt>
      <trkpt lat="45.69948" lon="6.25685">
        <ele>1572.8000488281</ele>
        <time>2012-06-09T09:03:17Z</time>
      </trkpt>
      <trkpt lat="45.69947" lon="6.25684">
        <ele>1572.8000488281</ele>
        <time>2012-06-09T09:03:18Z</time>
      </trkpt>
      <trkpt lat="45.6994" lon="6.25681">
        <ele>1573.8000488281</ele>
        <time>2012-06-09T09:03:26Z</time>
      </trkpt>
      <trkpt lat="45.69933" lon="6.25676">
        <ele>1575.8000488281</ele>
        <time>2012-06-09T09:03:33Z</time>
      </trkpt>
      <trkpt lat="45.69926" lon="6.25672">
        <ele>1576.8000488281</ele>
        <time>2012-06-09T09:03:41Z</time>
      </trkpt>
      <trkpt lat="45.69925" lon="6.2567">
        <ele>1578</ele>
        <time>2012-06-09T09:03:42Z</time>
      </trkpt>
      <trkpt lat="45.69915" lon="6.25665">
        <ele>1580</ele>
        <time>2012-06-09T09:03:53Z</time>
      </trkpt>
      <trkpt lat="45.69911" lon="6.25662">
        <ele>1581.1999511719</ele>
        <time>2012-06-09T09:03:59Z</time>
      </trkpt>
      <trkpt lat="45.69904" lon="6.25658">
        <ele>1583.4000244141</ele>
        <time>2012-06-09T09:04:07Z</time>
      </trkpt>
      <trkpt lat="45.69901" lon="6.25652">
        <ele>1584.4000244141</ele>
        <time>2012-06-09T09:04:15Z</time>
      </trkpt>
      <trkpt lat="45.69903" lon="6.25646">
        <ele>1585.4000244141</ele>
        <time>2012-06-09T09:04:21Z</time>
      </trkpt>
      <trkpt lat="45.6991" lon="6.25634">
        <ele>1587.5999755859</ele>
        <time>2012-06-09T09:04:31Z</time>
      </trkpt>
      <trkpt lat="45.69915" lon="6.2563">
        <ele>1587.5999755859</ele>
        <time>2012-06-09T09:04:36Z</time>
      </trkpt>
      <trkpt lat="45.69924" lon="6.25622">
        <ele>1589.5999755859</ele>
        <time>2012-06-09T09:04:45Z</time>
      </trkpt>
      <trkpt lat="45.69928" lon="6.25614">
        <ele>1590.5999755859</ele>
        <time>2012-06-09T09:04:53Z</time>
      </trkpt>
      <trkpt lat="45.69929" lon="6.25608">
        <ele>1592.5999755859</ele>
        <time>2012-06-09T09:04:58Z</time>
      </trkpt>
      <trkpt lat="45.69926" lon="6.25603">
        <ele>1593.5999755859</ele>
        <time>2012-06-09T09:05:03Z</time>
      </trkpt>
      <trkpt lat="45.69922" lon="6.25599">
        <ele>1594.8000488281</ele>
        <time>2012-06-09T09:05:08Z</time>
      </trkpt>
      <trkpt lat="45.69911" lon="6.2559">
        <ele>1596.8000488281</ele>
        <time>2012-06-09T09:05:20Z</time>
      </trkpt>
      <trkpt lat="45.69906" lon="6.25587">
        <ele>1596.8000488281</ele>
        <time>2012-06-09T09:05:25Z</time>
      </trkpt>
      <trkpt lat="45.69898" lon="6.25581">
        <ele>1598.8000488281</ele>
        <time>2012-06-09T09:05:34Z</time>
      </trkpt>
      <trkpt lat="45.69892" lon="6.25575">
        <ele>1601</ele>
        <time>2012-06-09T09:05:41Z</time>
      </trkpt>
      <trkpt lat="45.69884" lon="6.25567">
        <ele>1602</ele>
        <time>2012-06-09T09:05:51Z</time>
      </trkpt>
      <trkpt lat="45.69881" lon="6.25562">
        <ele>1603</ele>
        <time>2012-06-09T09:05:55Z</time>
      </trkpt>
      <trkpt lat="45.69875" lon="6.25556">
        <ele>1604</ele>
        <time>2012-06-09T09:06:03Z</time>
      </trkpt>
      <trkpt lat="45.69869" lon="6.25549">
        <ele>1605.1999511719</ele>
        <time>2012-06-09T09:06:10Z</time>
      </trkpt>
      <trkpt lat="45.69866" lon="6.25545">
        <ele>1607.1999511719</ele>
        <time>2012-06-09T09:06:15Z</time>
      </trkpt>
      <trkpt lat="45.69857" lon="6.25536">
        <ele>1608.4000244141</ele>
        <time>2012-06-09T09:06:27Z</time>
      </trkpt>
      <trkpt lat="45.69854" lon="6.25533">
        <ele>1609.4000244141</ele>
        <time>2012-06-09T09:06:31Z</time>
      </trkpt>
      <trkpt lat="45.69847" lon="6.25526">
        <ele>1610.5999755859</ele>
        <time>2012-06-09T09:06:40Z</time>
      </trkpt>
      <trkpt lat="45.69846" lon="6.25526">
        <ele>1611.5999755859</ele>
        <time>2012-06-09T09:06:41Z</time>
      </trkpt>
      <trkpt lat="45.69833" lon="6.25511">
        <ele>1613.5999755859</ele>
        <time>2012-06-09T09:06:58Z</time>
      </trkpt>
      <trkpt lat="45.69826" lon="6.25505">
        <ele>1615.5999755859</ele>
        <time>2012-06-09T09:07:06Z</time>
      </trkpt>
      <trkpt lat="45.69818" lon="6.255">
        <ele>1616.5999755859</ele>
        <time>2012-06-09T09:07:14Z</time>
      </trkpt>
      <trkpt lat="45.69814" lon="6.25499">
        <ele>1617.5999755859</ele>
        <time>2012-06-09T09:07:18Z</time>
      </trkpt>
      <trkpt lat="45.69806" lon="6.25492">
        <ele>1618.8000488281</ele>
        <time>2012-06-09T09:07:27Z</time>
      </trkpt>
      <trkpt lat="45.69801" lon="6.25479">
        <ele>1620.8000488281</ele>
        <time>2012-06-09T09:07:38Z</time>
      </trkpt>
      <trkpt lat="45.69802" lon="6.25476">
        <ele>1622</ele>
        <time>2012-06-09T09:07:40Z</time>
      </trkpt>
      <trkpt lat="45.69806" lon="6.25469">
        <ele>1623</ele>
        <time>2012-06-09T09:07:46Z</time>
      </trkpt>
      <trkpt lat="45.69812" lon="6.25464">
        <ele>1624</ele>
        <time>2012-06-09T09:07:52Z</time>
      </trkpt>
      <trkpt lat="45.69822" lon="6.25459">
        <ele>1626.1999511719</ele>
        <time>2012-06-09T09:08:01Z</time>
      </trkpt>
      <trkpt lat="45.69827" lon="6.25457">
        <ele>1626.1999511719</ele>
        <time>2012-06-09T09:08:05Z</time>
      </trkpt>
      <trkpt lat="45.69832" lon="6.25452">
        <ele>1627.1999511719</ele>
        <time>2012-06-09T09:08:10Z</time>
      </trkpt>
      <trkpt lat="45.69837" lon="6.25449">
        <ele>1627.1999511719</ele>
        <time>2012-06-09T09:08:15Z</time>
      </trkpt>
      <trkpt lat="45.69849" lon="6.25438">
        <ele>1629.5999755859</ele>
        <time>2012-06-09T09:08:27Z</time>
      </trkpt>
      <trkpt lat="45.69859" lon="6.25431">
        <ele>1631.5999755859</ele>
        <time>2012-06-09T09:08:38Z</time>
      </trkpt>
      <trkpt lat="45.69866" lon="6.25429">
        <ele>1632.5999755859</ele>
        <time>2012-06-09T09:08:45Z</time>
      </trkpt>
      <trkpt lat="45.69874" lon="6.25427">
        <ele>1633.5999755859</ele>
        <time>2012-06-09T09:08:52Z</time>
      </trkpt>
      <trkpt lat="45.69877" lon="6.25427">
        <ele>1634.8000488281</ele>
        <time>2012-06-09T09:08:54Z</time>
      </trkpt>
      <trkpt lat="45.69883" lon="6.25424">
        <ele>1635.8000488281</ele>
        <time>2012-06-09T09:08:59Z</time>
      </trkpt>
      <trkpt lat="45.69897" lon="6.25421">
        <ele>1636.8000488281</ele>
        <time>2012-06-09T09:09:10Z</time>
      </trkpt>
      <trkpt lat="45.69908" lon="6.25419">
        <ele>1637.8000488281</ele>
        <time>2012-06-09T09:09:19Z</time>
      </trkpt>
      <trkpt lat="45.69913" lon="6.25419">
        <ele>1639</ele>
        <time>2012-06-09T09:09:23Z</time>
      </trkpt>
      <trkpt lat="45.69922" lon="6.25416">
        <ele>1640</ele>
        <time>2012-06-09T09:09:31Z</time>
      </trkpt>
      <trkpt lat="45.69942" lon="6.25412">
        <ele>1643.1999511719</ele>
        <time>2012-06-09T09:09:49Z</time>
      </trkpt>
      <trkpt lat="45.69943" lon="6.25405">
        <ele>1644.1999511719</ele>
        <time>2012-06-09T09:09:55Z</time>
      </trkpt>
      <trkpt lat="45.69938" lon="6.25394">
        <ele>1645.1999511719</ele>
        <time>2012-06-09T09:10:04Z</time>
      </trkpt>
      <trkpt lat="45.6993" lon="6.25384">
        <ele>1646.4000244141</ele>
        <time>2012-06-09T09:10:12Z</time>
      </trkpt>
      <trkpt lat="45.69917" lon="6.25381">
        <ele>1648.5999755859</ele>
        <time>2012-06-09T09:10:23Z</time>
      </trkpt>
      <trkpt lat="45.69912" lon="6.25381">
        <ele>1649.5999755859</ele>
        <time>2012-06-09T09:10:28Z</time>
      </trkpt>
      <trkpt lat="45.69904" lon="6.25377">
        <ele>1651.5999755859</ele>
        <time>2012-06-09T09:10:35Z</time>
      </trkpt>
      <trkpt lat="45.69898" lon="6.25375">
        <ele>1652.8000488281</ele>
        <time>2012-06-09T09:10:41Z</time>
      </trkpt>
      <trkpt lat="45.69892" lon="6.25371">
        <ele>1653.8000488281</ele>
        <time>2012-06-09T09:10:47Z</time>
      </trkpt>
      <trkpt lat="45.69883" lon="6.25362">
        <ele>1655.8000488281</ele>
        <time>2012-06-09T09:10:57Z</time>
      </trkpt>
      <trkpt lat="45.6988" lon="6.2536">
        <ele>1657</ele>
        <time>2012-06-09T09:11:00Z</time>
      </trkpt>
      <trkpt lat="45.69874" lon="6.25353">
        <ele>1658</ele>
        <time>2012-06-09T09:11:08Z</time>
      </trkpt>
      <trkpt lat="45.69874" lon="6.25352">
        <ele>1659</ele>
        <time>2012-06-09T09:11:09Z</time>
      </trkpt>
      <trkpt lat="45.69867" lon="6.25343">
        <ele>1660</ele>
        <time>2012-06-09T09:11:17Z</time>
      </trkpt>
      <trkpt lat="45.69863" lon="6.25338">
        <ele>1661.1999511719</ele>
        <time>2012-06-09T09:11:22Z</time>
      </trkpt>
      <trkpt lat="45.69856" lon="6.25331">
        <ele>1663.1999511719</ele>
        <time>2012-06-09T09:11:30Z</time>
      </trkpt>
      <trkpt lat="45.69855" lon="6.25329">
        <ele>1664.4000244141</ele>
        <time>2012-06-09T09:11:32Z</time>
      </trkpt>
      <trkpt lat="45.69851" lon="6.25326">
        <ele>1665.4000244141</ele>
        <time>2012-06-09T09:11:36Z</time>
      </trkpt>
      <trkpt lat="45.69838" lon="6.25312">
        <ele>1667.5999755859</ele>
        <time>2012-06-09T09:11:51Z</time>
      </trkpt>
      <trkpt lat="45.69838" lon="6.2531">
        <ele>1667.5999755859</ele>
        <time>2012-06-09T09:11:52Z</time>
      </trkpt>
      <trkpt lat="45.6983" lon="6.25305">
        <ele>1668.5999755859</ele>
        <time>2012-06-09T09:12:00Z</time>
      </trkpt>
      <trkpt lat="45.69826" lon="6.25302">
        <ele>1669.8000488281</ele>
        <time>2012-06-09T09:12:03Z</time>
      </trkpt>
      <trkpt lat="45.69818" lon="6.25296">
        <ele>1670.8000488281</ele>
        <time>2012-06-09T09:12:13Z</time>
      </trkpt>
      <trkpt lat="45.69817" lon="6.25295">
        <ele>1671.8000488281</ele>
        <time>2012-06-09T09:12:14Z</time>
      </trkpt>
      <trkpt lat="45.69808" lon="6.25289">
        <ele>1674</ele>
        <time>2012-06-09T09:12:24Z</time>
      </trkpt>
      <trkpt lat="45.69804" lon="6.25286">
        <ele>1675</ele>
        <time>2012-06-09T09:12:29Z</time>
      </trkpt>
      <trkpt lat="45.6979" lon="6.25274">
        <ele>1677.1999511719</ele>
        <time>2012-06-09T09:12:44Z</time>
      </trkpt>
      <trkpt lat="45.69778" lon="6.25258">
        <ele>1679.4000244141</ele>
        <time>2012-06-09T09:12:59Z</time>
      </trkpt>
      <trkpt lat="45.69773" lon="6.2525">
        <ele>1680.4000244141</ele>
        <time>2012-06-09T09:13:06Z</time>
      </trkpt>
      <trkpt lat="45.69765" lon="6.25239">
        <ele>1682.4000244141</ele>
        <time>2012-06-09T09:13:16Z</time>
      </trkpt>
      <trkpt lat="45.6976" lon="6.25232">
        <ele>1683.4000244141</ele>
        <time>2012-06-09T09:13:22Z</time>
      </trkpt>
      <trkpt lat="45.69746" lon="6.25215">
        <ele>1686.4000244141</ele>
        <time>2012-06-09T09:13:38Z</time>
      </trkpt>
      <trkpt lat="45.69741" lon="6.25209">
        <ele>1687.5999755859</ele>
        <time>2012-06-09T09:13:43Z</time>
      </trkpt>
      <trkpt lat="45.69733" lon="6.252">
        <ele>1689.5999755859</ele>
        <time>2012-06-09T09:13:53Z</time>
      </trkpt>
      <trkpt lat="45.6973" lon="6.25196">
        <ele>1689.5999755859</ele>
        <time>2012-06-09T09:13:56Z</time>
      </trkpt>
      <trkpt lat="45.69723" lon="6.25187">
        <ele>1691.8000488281</ele>
        <time>2012-06-09T09:14:05Z</time>
      </trkpt>
      <trkpt lat="45.69707" lon="6.25175">
        <ele>1693.8000488281</ele>
        <time>2012-06-09T09:14:22Z</time>
      </trkpt>
      <trkpt lat="45.69705" lon="6.25175">
        <ele>1694.8000488281</ele>
        <time>2012-06-09T09:14:24Z</time>
      </trkpt>
      <trkpt lat="45.69694" lon="6.25179">
        <ele>1697</ele>
        <time>2012-06-09T09:14:35Z</time>
      </trkpt>
      <trkpt lat="45.69687" lon="6.25184">
        <ele>1698</ele>
        <time>2012-06-09T09:14:41Z</time>
      </trkpt>
      <trkpt lat="45.6967" lon="6.25195">
        <ele>1700.1999511719</ele>
        <time>2012-06-09T09:14:57Z</time>
      </trkpt>
      <trkpt lat="45.69666" lon="6.25197">
        <ele>1701.1999511719</ele>
        <time>2012-06-09T09:15:01Z</time>
      </trkpt>
      <trkpt lat="45.69651" lon="6.25201">
        <ele>1703.4000244141</ele>
        <time>2012-06-09T09:15:14Z</time>
      </trkpt>
      <trkpt lat="45.69641" lon="6.25206">
        <ele>1704.4000244141</ele>
        <time>2012-06-09T09:15:22Z</time>
      </trkpt>
      <trkpt lat="45.69624" lon="6.25217">
        <ele>1707.5999755859</ele>
        <time>2012-06-09T09:15:37Z</time>
      </trkpt>
      <trkpt lat="45.69607" lon="6.25223">
        <ele>1709.8000488281</ele>
        <time>2012-06-09T09:15:52Z</time>
      </trkpt>
      <trkpt lat="45.69602" lon="6.25228">
        <ele>1710.8000488281</ele>
        <time>2012-06-09T09:15:57Z</time>
      </trkpt>
      <trkpt lat="45.69592" lon="6.2523">
        <ele>1712.8000488281</ele>
        <time>2012-06-09T09:16:05Z</time>
      </trkpt>
      <trkpt lat="45.69585" lon="6.25235">
        <ele>1712.8000488281</ele>
        <time>2012-06-09T09:16:12Z</time>
      </trkpt>
      <trkpt lat="45.69573" lon="6.2524">
        <ele>1715</ele>
        <time>2012-06-09T09:16:21Z</time>
      </trkpt>
      <trkpt lat="45.69564" lon="6.25242">
        <ele>1716</ele>
        <time>2012-06-09T09:16:29Z</time>
      </trkpt>
      <trkpt lat="45.69553" lon="6.25241">
        <ele>1717.1999511719</ele>
        <time>2012-06-09T09:16:37Z</time>
      </trkpt>
      <trkpt lat="45.69551" lon="6.25241">
        <ele>1718.4000244141</ele>
        <time>2012-06-09T09:16:39Z</time>
      </trkpt>
      <trkpt lat="45.69546" lon="6.2524">
        <ele>1719.5999755859</ele>
        <time>2012-06-09T09:16:43Z</time>
      </trkpt>
      <trkpt lat="45.69526" lon="6.25227">
        <ele>1722.8000488281</ele>
        <time>2012-06-09T09:17:01Z</time>
      </trkpt>
      <trkpt lat="45.69524" lon="6.25227">
        <ele>1722.8000488281</ele>
        <time>2012-06-09T09:17:03Z</time>
      </trkpt>
      <trkpt lat="45.69512" lon="6.2522">
        <ele>1724.1999511719</ele>
        <time>2012-06-09T09:17:14Z</time>
      </trkpt>
      <trkpt lat="45.69505" lon="6.25217">
        <ele>1724.1999511719</ele>
        <time>2012-06-09T09:17:20Z</time>
      </trkpt>
      <trkpt lat="45.69497" lon="6.25213">
        <ele>1725.4000244141</ele>
        <time>2012-06-09T09:17:28Z</time>
      </trkpt>
      <trkpt lat="45.69496" lon="6.25212">
        <ele>1726.4000244141</ele>
        <time>2012-06-09T09:17:29Z</time>
      </trkpt>
      <trkpt lat="45.69489" lon="6.25208">
        <ele>1727.4000244141</ele>
        <time>2012-06-09T09:17:36Z</time>
      </trkpt>
      <trkpt lat="45.69481" lon="6.25204">
        <ele>1728.4000244141</ele>
        <time>2012-06-09T09:17:44Z</time>
      </trkpt>
      <trkpt lat="45.69475" lon="6.25206">
        <ele>1730.5999755859</ele>
        <time>2012-06-09T09:17:51Z</time>
      </trkpt>
      <trkpt lat="45.69467" lon="6.25217">
        <ele>1732.5999755859</ele>
        <time>2012-06-09T09:18:03Z</time>
      </trkpt>
      <trkpt lat="45.69463" lon="6.25223">
        <ele>1733.8000488281</ele>
        <time>2012-06-09T09:18:09Z</time>
      </trkpt>
      <trkpt lat="45.69457" lon="6.25234">
        <ele>1735.8000488281</ele>
        <time>2012-06-09T09:18:20Z</time>
      </trkpt>
      <trkpt lat="45.69453" lon="6.25239">
        <ele>1735.8000488281</ele>
        <time>2012-06-09T09:18:25Z</time>
      </trkpt>
      <trkpt lat="45.69449" lon="6.25246">
        <ele>1736.8000488281</ele>
        <time>2012-06-09T09:18:31Z</time>
      </trkpt>
      <trkpt lat="45.69442" lon="6.25259">
        <ele>1736.8000488281</ele>
        <time>2012-06-09T09:18:40Z</time>
      </trkpt>
      <trkpt lat="45.69434" lon="6.25278">
        <ele>1736.8000488281</ele>
        <time>2012-06-09T09:18:53Z</time>
      </trkpt>
      <trkpt lat="45.69433" lon="6.25278">
        <ele>1736.8000488281</ele>
        <time>2012-06-09T09:18:54Z</time>
      </trkpt>
      <trkpt lat="45.69416" lon="6.25289">
        <ele>1738</ele>
        <time>2012-06-09T09:19:05Z</time>
      </trkpt>
      <trkpt lat="45.69372" lon="6.25319">
        <ele>1739</ele>
        <time>2012-06-09T09:19:27Z</time>
      </trkpt>
      <trkpt lat="45.69372" lon="6.25319">
        <ele>1739</ele>
        <time>2012-06-09T09:19:28Z</time>
      </trkpt>
      <trkpt lat="45.6936" lon="6.25326">
        <ele>1740.1999511719</ele>
        <time>2012-06-09T09:19:45Z</time>
      </trkpt>
      <trkpt lat="45.69352" lon="6.25329">
        <ele>1741.1999511719</ele>
        <time>2012-06-09T09:19:49Z</time>
      </trkpt>
      <trkpt lat="45.69336" lon="6.25335">
        <ele>1742.4000244141</ele>
        <time>2012-06-09T09:19:57Z</time>
      </trkpt>
      <trkpt lat="45.69334" lon="6.25335">
        <ele>1742.4000244141</ele>
        <time>2012-06-09T09:19:58Z</time>
      </trkpt>
      <trkpt lat="45.69321" lon="6.25341">
        <ele>1743.4000244141</ele>
        <time>2012-06-09T09:20:06Z</time>
      </trkpt>
      <trkpt lat="45.69311" lon="6.25344">
        <ele>1744.4000244141</ele>
        <time>2012-06-09T09:20:14Z</time>
      </trkpt>
      <trkpt lat="45.69292" lon="6.25348">
        <ele>1746.4000244141</ele>
        <time>2012-06-09T09:20:29Z</time>
      </trkpt>
      <trkpt lat="45.69278" lon="6.2535">
        <ele>1748.5999755859</ele>
        <time>2012-06-09T09:20:40Z</time>
      </trkpt>
      <trkpt lat="45.69266" lon="6.25353">
        <ele>1749.5999755859</ele>
        <time>2012-06-09T09:20:49Z</time>
      </trkpt>
      <trkpt lat="45.69249" lon="6.25357">
        <ele>1750.8000488281</ele>
        <time>2012-06-09T09:21:02Z</time>
      </trkpt>
      <trkpt lat="45.69245" lon="6.25358">
        <ele>1750.8000488281</ele>
        <time>2012-06-09T09:21:05Z</time>
      </trkpt>
      <trkpt lat="45.69215" lon="6.25363">
        <ele>1753.8000488281</ele>
        <time>2012-06-09T09:21:27Z</time>
      </trkpt>
      <trkpt lat="45.69208" lon="6.25365">
        <ele>1755</ele>
        <time>2012-06-09T09:21:33Z</time>
      </trkpt>
      <trkpt lat="45.69192" lon="6.25368">
        <ele>1757</ele>
        <time>2012-06-09T09:21:46Z</time>
      </trkpt>
      <trkpt lat="45.6919" lon="6.25369">
        <ele>1757</ele>
        <time>2012-06-09T09:21:48Z</time>
      </trkpt>
      <trkpt lat="45.69182" lon="6.25377">
        <ele>1759</ele>
        <time>2012-06-09T09:21:56Z</time>
      </trkpt>
      <trkpt lat="45.69167" lon="6.25387">
        <ele>1762.1999511719</ele>
        <time>2012-06-09T09:22:12Z</time>
      </trkpt>
      <trkpt lat="45.69163" lon="6.25389">
        <ele>1762.1999511719</ele>
        <time>2012-06-09T09:22:16Z</time>
      </trkpt>
      <trkpt lat="45.69156" lon="6.25392">
        <ele>1764.4000244141</ele>
        <time>2012-06-09T09:22:24Z</time>
      </trkpt>
      <trkpt lat="45.69152" lon="6.25395">
        <ele>1765.4000244141</ele>
        <time>2012-06-09T09:22:28Z</time>
      </trkpt>
      <trkpt lat="45.69142" lon="6.25399">
        <ele>1768.5999755859</ele>
        <time>2012-06-09T09:22:40Z</time>
      </trkpt>
      <trkpt lat="45.69139" lon="6.25401">
        <ele>1768.5999755859</ele>
        <time>2012-06-09T09:22:44Z</time>
      </trkpt>
      <trkpt lat="45.69131" lon="6.25405">
        <ele>1770.5999755859</ele>
        <time>2012-06-09T09:22:53Z</time>
      </trkpt>
      <trkpt lat="45.6913" lon="6.25407">
        <ele>1771.5999755859</ele>
        <time>2012-06-09T09:22:57Z</time>
      </trkpt>
      <trkpt lat="45.69116" lon="6.25407">
        <ele>1773.8000488281</ele>
        <time>2012-06-09T09:23:11Z</time>
      </trkpt>
      <trkpt lat="45.69102" lon="6.25403">
        <ele>1775</ele>
        <time>2012-06-09T09:23:24Z</time>
      </trkpt>
      <trkpt lat="45.69094" lon="6.25403">
        <ele>1775</ele>
        <time>2012-06-09T09:23:30Z</time>
      </trkpt>
      <trkpt lat="45.69069" lon="6.25402">
        <ele>1777.4000244141</ele>
        <time>2012-06-09T09:23:41Z</time>
      </trkpt>
      <trkpt lat="45.69056" lon="6.25398">
        <ele>1777.4000244141</ele>
        <time>2012-06-09T09:23:47Z</time>
      </trkpt>
      <trkpt lat="45.69022" lon="6.254">
        <ele>1778.4000244141</ele>
        <time>2012-06-09T09:24:03Z</time>
      </trkpt>
      <trkpt lat="45.69005" lon="6.25396">
        <ele>1778.4000244141</ele>
        <time>2012-06-09T09:24:14Z</time>
      </trkpt>
      <trkpt lat="45.68981" lon="6.25387">
        <ele>1779.5999755859</ele>
        <time>2012-06-09T09:24:31Z</time>
      </trkpt>
      <trkpt lat="45.68975" lon="6.25385">
        <ele>1779.5999755859</ele>
        <time>2012-06-09T09:24:35Z</time>
      </trkpt>
      <trkpt lat="45.68957" lon="6.25378">
        <ele>1780.5999755859</ele>
        <time>2012-06-09T09:24:48Z</time>
      </trkpt>
      <trkpt lat="45.68936" lon="6.25382">
        <ele>1781.5999755859</ele>
        <time>2012-06-09T09:25:05Z</time>
      </trkpt>
      <trkpt lat="45.68934" lon="6.25383">
        <ele>1782.5999755859</ele>
        <time>2012-06-09T09:25:06Z</time>
      </trkpt>
      <trkpt lat="45.68922" lon="6.25385">
        <ele>1783.8000488281</ele>
        <time>2012-06-09T09:25:12Z</time>
      </trkpt>
      <trkpt lat="45.68911" lon="6.25382">
        <ele>1783.8000488281</ele>
        <time>2012-06-09T09:25:18Z</time>
      </trkpt>
      <trkpt lat="45.68905" lon="6.25365">
        <ele>1783.8000488281</ele>
        <time>2012-06-09T09:25:24Z</time>
      </trkpt>
      <trkpt lat="45.68896" lon="6.25358">
        <ele>1783.8000488281</ele>
        <time>2012-06-09T09:25:28Z</time>
      </trkpt>
      <trkpt lat="45.68877" lon="6.25333">
        <ele>1784.8000488281</ele>
        <time>2012-06-09T09:25:43Z</time>
      </trkpt>
      <trkpt lat="45.6888" lon="6.25321">
        <ele>1784.8000488281</ele>
        <time>2012-06-09T09:25:48Z</time>
      </trkpt>
      <trkpt lat="45.68892" lon="6.25288">
        <ele>1784.8000488281</ele>
        <time>2012-06-09T09:26:01Z</time>
      </trkpt>
      <trkpt lat="45.68859" lon="6.25243">
        <ele>1787</ele>
        <time>2012-06-09T09:26:21Z</time>
      </trkpt>
      <trkpt lat="45.68846" lon="6.25228">
        <ele>1788</ele>
        <time>2012-06-09T09:26:28Z</time>
      </trkpt>
      <trkpt lat="45.68835" lon="6.25212">
        <ele>1789.1999511719</ele>
        <time>2012-06-09T09:26:36Z</time>
      </trkpt>
      <trkpt lat="45.68834" lon="6.25205">
        <ele>1789.1999511719</ele>
        <time>2012-06-09T09:26:39Z</time>
      </trkpt>
      <trkpt lat="45.68829" lon="6.25172">
        <ele>1789.1999511719</ele>
        <time>2012-06-09T09:26:50Z</time>
      </trkpt>
      <trkpt lat="45.68827" lon="6.25164">
        <ele>1789.1999511719</ele>
        <time>2012-06-09T09:26:55Z</time>
      </trkpt>
      <trkpt lat="45.68826" lon="6.25147">
        <ele>1789.1999511719</ele>
        <time>2012-06-09T09:27:05Z</time>
      </trkpt>
      <trkpt lat="45.68825" lon="6.25143">
        <ele>1789.1999511719</ele>
        <time>2012-06-09T09:27:08Z</time>
      </trkpt>
      <trkpt lat="45.68822" lon="6.25131">
        <ele>1791.1999511719</ele>
        <time>2012-06-09T09:27:16Z</time>
      </trkpt>
      <trkpt lat="45.68809" lon="6.25128">
        <ele>1793.1999511719</ele>
        <time>2012-06-09T09:27:29Z</time>
      </trkpt>
      <trkpt lat="45.68803" lon="6.25124">
        <ele>1793.1999511719</ele>
        <time>2012-06-09T09:27:35Z</time>
      </trkpt>
      <trkpt lat="45.68803" lon="6.25114">
        <ele>1793.1999511719</ele>
        <time>2012-06-09T09:27:41Z</time>
      </trkpt>
      <trkpt lat="45.68804" lon="6.25108">
        <ele>1794.5999755859</ele>
        <time>2012-06-09T09:27:45Z</time>
      </trkpt>
      <trkpt lat="45.68804" lon="6.25094">
        <ele>1795.5999755859</ele>
        <time>2012-06-09T09:27:54Z</time>
      </trkpt>
      <trkpt lat="45.68804" lon="6.25091">
        <ele>1796.5999755859</ele>
        <time>2012-06-09T09:27:56Z</time>
      </trkpt>
      <trkpt lat="45.68803" lon="6.25081">
        <ele>1797.8000488281</ele>
        <time>2012-06-09T09:28:03Z</time>
      </trkpt>
      <trkpt lat="45.68802" lon="6.25072">
        <ele>1797.8000488281</ele>
        <time>2012-06-09T09:28:09Z</time>
      </trkpt>
      <trkpt lat="45.68811" lon="6.25057">
        <ele>1798.8000488281</ele>
        <time>2012-06-09T09:28:22Z</time>
      </trkpt>
      <trkpt lat="45.68813" lon="6.2505">
        <ele>1799.8000488281</ele>
        <time>2012-06-09T09:28:28Z</time>
      </trkpt>
      <trkpt lat="45.68813" lon="6.25043">
        <ele>1802</ele>
        <time>2012-06-09T09:28:34Z</time>
      </trkpt>
      <trkpt lat="45.68814" lon="6.25036">
        <ele>1803</ele>
        <time>2012-06-09T09:28:41Z</time>
      </trkpt>
      <trkpt lat="45.68813" lon="6.25031">
        <ele>1804</ele>
        <time>2012-06-09T09:28:45Z</time>
      </trkpt>
      <trkpt lat="45.68813" lon="6.25018">
        <ele>1806</ele>
        <time>2012-06-09T09:28:54Z</time>
      </trkpt>
      <trkpt lat="45.68813" lon="6.25016">
        <ele>1806</ele>
        <time>2012-06-09T09:28:56Z</time>
      </trkpt>
      <trkpt lat="45.68814" lon="6.24985">
        <ele>1807.1999511719</ele>
        <time>2012-06-09T09:29:13Z</time>
      </trkpt>
      <trkpt lat="45.68813" lon="6.24978">
        <ele>1808.1999511719</ele>
        <time>2012-06-09T09:29:17Z</time>
      </trkpt>
      <trkpt lat="45.68806" lon="6.24965">
        <ele>1809.4000244141</ele>
        <time>2012-06-09T09:29:26Z</time>
      </trkpt>
      <trkpt lat="45.68783" lon="6.24935">
        <ele>1811.4000244141</ele>
        <time>2012-06-09T09:29:50Z</time>
      </trkpt>
      <trkpt lat="45.68781" lon="6.24932">
        <ele>1811.4000244141</ele>
        <time>2012-06-09T09:29:52Z</time>
      </trkpt>
      <trkpt lat="45.68774" lon="6.2492">
        <ele>1812.5999755859</ele>
        <time>2012-06-09T09:30:01Z</time>
      </trkpt>
      <trkpt lat="45.68763" lon="6.24907">
        <ele>1813.5999755859</ele>
        <time>2012-06-09T09:30:12Z</time>
      </trkpt>
      <trkpt lat="45.68756" lon="6.24896">
        <ele>1814.5999755859</ele>
        <time>2012-06-09T09:30:21Z</time>
      </trkpt>
      <trkpt lat="45.68754" lon="6.24894">
        <ele>1815.8000488281</ele>
        <time>2012-06-09T09:30:23Z</time>
      </trkpt>
      <trkpt lat="45.68746" lon="6.24886">
        <ele>1816.8000488281</ele>
        <time>2012-06-09T09:30:32Z</time>
      </trkpt>
      <trkpt lat="45.68742" lon="6.24882">
        <ele>1817.8000488281</ele>
        <time>2012-06-09T09:30:36Z</time>
      </trkpt>
      <trkpt lat="45.68737" lon="6.24872">
        <ele>1820</ele>
        <time>2012-06-09T09:30:45Z</time>
      </trkpt>
      <trkpt lat="45.68727" lon="6.24857">
        <ele>1823.1999511719</ele>
        <time>2012-06-09T09:30:58Z</time>
      </trkpt>
      <trkpt lat="45.68725" lon="6.24853">
        <ele>1824.1999511719</ele>
        <time>2012-06-09T09:31:02Z</time>
      </trkpt>
      <trkpt lat="45.68727" lon="6.24846">
        <ele>1825.4000244141</ele>
        <time>2012-06-09T09:31:10Z</time>
      </trkpt>
      <trkpt lat="45.68729" lon="6.24845">
        <ele>1825.4000244141</ele>
        <time>2012-06-09T09:31:13Z</time>
      </trkpt>
      <trkpt lat="45.68736" lon="6.24836">
        <ele>1827.5999755859</ele>
        <time>2012-06-09T09:31:24Z</time>
      </trkpt>
      <trkpt lat="45.68732" lon="6.2483">
        <ele>1828.5999755859</ele>
        <time>2012-06-09T09:31:30Z</time>
      </trkpt>
      <trkpt lat="45.68717" lon="6.24823">
        <ele>1830.5999755859</ele>
        <time>2012-06-09T09:31:45Z</time>
      </trkpt>
      <trkpt lat="45.68714" lon="6.24823">
        <ele>1830.5999755859</ele>
        <time>2012-06-09T09:31:47Z</time>
      </trkpt>
      <trkpt lat="45.68705" lon="6.24826">
        <ele>1832.8000488281</ele>
        <time>2012-06-09T09:31:56Z</time>
      </trkpt>
      <trkpt lat="45.68693" lon="6.24829">
        <ele>1835.8000488281</ele>
        <time>2012-06-09T09:32:10Z</time>
      </trkpt>
      <trkpt lat="45.68691" lon="6.24829">
        <ele>1835.8000488281</ele>
        <time>2012-06-09T09:32:12Z</time>
      </trkpt>
      <trkpt lat="45.68688" lon="6.24827">
        <ele>1838</ele>
        <time>2012-06-09T09:32:21Z</time>
      </trkpt>
      <trkpt lat="45.68688" lon="6.24826">
        <ele>1838</ele>
        <time>2012-06-09T09:32:23Z</time>
      </trkpt>
      <trkpt lat="45.68693" lon="6.24818">
        <ele>1839</ele>
        <time>2012-06-09T09:32:32Z</time>
      </trkpt>
      <trkpt lat="45.68693" lon="6.24817">
        <ele>1840</ele>
        <time>2012-06-09T09:32:33Z</time>
      </trkpt>
      <trkpt lat="45.68694" lon="6.24811">
        <ele>1841</ele>
        <time>2012-06-09T09:32:39Z</time>
      </trkpt>
      <trkpt lat="45.68696" lon="6.24807">
        <ele>1843.1999511719</ele>
        <time>2012-06-09T09:32:45Z</time>
      </trkpt>
      <trkpt lat="45.687" lon="6.24799">
        <ele>1845.1999511719</ele>
        <time>2012-06-09T09:32:55Z</time>
      </trkpt>
      <trkpt lat="45.68696" lon="6.24794">
        <ele>1847.4000244141</ele>
        <time>2012-06-09T09:33:08Z</time>
      </trkpt>
      <trkpt lat="45.68699" lon="6.24786">
        <ele>1848.4000244141</ele>
        <time>2012-06-09T09:33:16Z</time>
      </trkpt>
      <trkpt lat="45.68696" lon="6.24777">
        <ele>1851.5999755859</ele>
        <time>2012-06-09T09:33:28Z</time>
      </trkpt>
      <trkpt lat="45.68693" lon="6.24773">
        <ele>1851.5999755859</ele>
        <time>2012-06-09T09:33:31Z</time>
      </trkpt>
      <trkpt lat="45.68689" lon="6.24769">
        <ele>1853.5999755859</ele>
        <time>2012-06-09T09:33:37Z</time>
      </trkpt>
      <trkpt lat="45.68685" lon="6.24766">
        <ele>1854.8000488281</ele>
        <time>2012-06-09T09:33:43Z</time>
      </trkpt>
      <trkpt lat="45.68675" lon="6.2476">
        <ele>1856.8000488281</ele>
        <time>2012-06-09T09:33:54Z</time>
      </trkpt>
      <trkpt lat="45.68675" lon="6.24759">
        <ele>1856.8000488281</ele>
        <time>2012-06-09T09:33:55Z</time>
      </trkpt>
      <trkpt lat="45.68669" lon="6.24758">
        <ele>1858.8000488281</ele>
        <time>2012-06-09T09:34:03Z</time>
      </trkpt>
      <trkpt lat="45.68654" lon="6.24749">
        <ele>1862.1999511719</ele>
        <time>2012-06-09T09:34:18Z</time>
      </trkpt>
      <trkpt lat="45.68653" lon="6.24748">
        <ele>1862.1999511719</ele>
        <time>2012-06-09T09:34:20Z</time>
      </trkpt>
      <trkpt lat="45.68642" lon="6.24738">
        <ele>1864.4000244141</ele>
        <time>2012-06-09T09:34:30Z</time>
      </trkpt>
      <trkpt lat="45.68629" lon="6.24729">
        <ele>1864.4000244141</ele>
        <time>2012-06-09T09:34:37Z</time>
      </trkpt>
      <trkpt lat="45.68602" lon="6.24715">
        <ele>1865.4000244141</ele>
        <time>2012-06-09T09:34:55Z</time>
      </trkpt>
      <trkpt lat="45.68599" lon="6.24713">
        <ele>1865.4000244141</ele>
        <time>2012-06-09T09:34:59Z</time>
      </trkpt>
      <trkpt lat="45.6859" lon="6.24706">
        <ele>1867.5999755859</ele>
        <time>2012-06-09T09:35:08Z</time>
      </trkpt>
      <trkpt lat="45.68587" lon="6.24703">
        <ele>1868.5999755859</ele>
        <time>2012-06-09T09:35:12Z</time>
      </trkpt>
      <trkpt lat="45.68581" lon="6.24696">
        <ele>1870.8000488281</ele>
        <time>2012-06-09T09:35:20Z</time>
      </trkpt>
      <trkpt lat="45.68575" lon="6.24686">
        <ele>1873</ele>
        <time>2012-06-09T09:35:29Z</time>
      </trkpt>
      <trkpt lat="45.68572" lon="6.24683">
        <ele>1873</ele>
        <time>2012-06-09T09:35:33Z</time>
      </trkpt>
      <trkpt lat="45.68567" lon="6.24678">
        <ele>1875.1999511719</ele>
        <time>2012-06-09T09:35:40Z</time>
      </trkpt>
      <trkpt lat="45.68564" lon="6.24674">
        <ele>1875.1999511719</ele>
        <time>2012-06-09T09:35:44Z</time>
      </trkpt>
      <trkpt lat="45.6856" lon="6.24669">
        <ele>1876.4000244141</ele>
        <time>2012-06-09T09:35:49Z</time>
      </trkpt>
      <trkpt lat="45.68552" lon="6.24661">
        <ele>1876.4000244141</ele>
        <time>2012-06-09T09:35:56Z</time>
      </trkpt>
      <trkpt lat="45.68542" lon="6.24652">
        <ele>1878.4000244141</ele>
        <time>2012-06-09T09:36:05Z</time>
      </trkpt>
      <trkpt lat="45.68541" lon="6.24652">
        <ele>1878.4000244141</ele>
        <time>2012-06-09T09:36:06Z</time>
      </trkpt>
      <trkpt lat="45.68534" lon="6.24644">
        <ele>1880.5999755859</ele>
        <time>2012-06-09T09:36:14Z</time>
      </trkpt>
      <trkpt lat="45.68522" lon="6.24639">
        <ele>1882.5999755859</ele>
        <time>2012-06-09T09:36:26Z</time>
      </trkpt>
      <trkpt lat="45.68511" lon="6.24638">
        <ele>1882.5999755859</ele>
        <time>2012-06-09T09:36:32Z</time>
      </trkpt>
      <trkpt lat="45.68496" lon="6.24638">
        <ele>1878.5999755859</ele>
        <time>2012-06-09T09:36:40Z</time>
      </trkpt>
      <trkpt lat="45.6849" lon="6.24641">
        <ele>1877.1999511719</ele>
        <time>2012-06-09T09:36:43Z</time>
      </trkpt>
      <trkpt lat="45.6848" lon="6.24644">
        <ele>1875</ele>
        <time>2012-06-09T09:36:48Z</time>
      </trkpt>
      <trkpt lat="45.68476" lon="6.24644">
        <ele>1873.5999755859</ele>
        <time>2012-06-09T09:36:50Z</time>
      </trkpt>
      <trkpt lat="45.68462" lon="6.24648">
        <ele>1870</ele>
        <time>2012-06-09T09:36:57Z</time>
      </trkpt>
      <trkpt lat="45.68458" lon="6.24647">
        <ele>1869</ele>
        <time>2012-06-09T09:36:59Z</time>
      </trkpt>
      <trkpt lat="45.68452" lon="6.24644">
        <ele>1866.8000488281</ele>
        <time>2012-06-09T09:37:02Z</time>
      </trkpt>
      <trkpt lat="45.68433" lon="6.24638">
        <ele>1864.4000244141</ele>
        <time>2012-06-09T09:37:11Z</time>
      </trkpt>
      <trkpt lat="45.68427" lon="6.24634">
        <ele>1862</ele>
        <time>2012-06-09T09:37:14Z</time>
      </trkpt>
      <trkpt lat="45.68417" lon="6.24626">
        <ele>1858.5999755859</ele>
        <time>2012-06-09T09:37:21Z</time>
      </trkpt>
      <trkpt lat="45.68412" lon="6.24623">
        <ele>1857.1999511719</ele>
        <time>2012-06-09T09:37:24Z</time>
      </trkpt>
      <trkpt lat="45.68398" lon="6.24615">
        <ele>1854</ele>
        <time>2012-06-09T09:37:31Z</time>
      </trkpt>
      <trkpt lat="45.68391" lon="6.24611">
        <ele>1853</ele>
        <time>2012-06-09T09:37:35Z</time>
      </trkpt>
      <trkpt lat="45.68385" lon="6.24605">
        <ele>1850.8000488281</ele>
        <time>2012-06-09T09:37:39Z</time>
      </trkpt>
      <trkpt lat="45.68384" lon="6.24604">
        <ele>1850.8000488281</ele>
        <time>2012-06-09T09:37:40Z</time>
      </trkpt>
      <trkpt lat="45.68375" lon="6.24603">
        <ele>1849.4000244141</ele>
        <time>2012-06-09T09:37:44Z</time>
      </trkpt>
      <trkpt lat="45.68341" lon="6.24595">
        <ele>1844.4000244141</ele>
        <time>2012-06-09T09:37:59Z</time>
      </trkpt>
      <trkpt lat="45.68338" lon="6.24595">
        <ele>1842.5999755859</ele>
        <time>2012-06-09T09:38:00Z</time>
      </trkpt>
      <trkpt lat="45.68324" lon="6.24591">
        <ele>1840.1999511719</ele>
        <time>2012-06-09T09:38:07Z</time>
      </trkpt>
      <trkpt lat="45.68316" lon="6.24593">
        <ele>1839</ele>
        <time>2012-06-09T09:38:12Z</time>
      </trkpt>
      <trkpt lat="45.68306" lon="6.24596">
        <ele>1836.4000244141</ele>
        <time>2012-06-09T09:38:19Z</time>
      </trkpt>
      <trkpt lat="45.68302" lon="6.24595">
        <ele>1836.4000244141</ele>
        <time>2012-06-09T09:38:23Z</time>
      </trkpt>
      <trkpt lat="45.68304" lon="6.24587">
        <ele>1835.4000244141</ele>
        <time>2012-06-09T09:38:39Z</time>
      </trkpt>
      <trkpt lat="45.68309" lon="6.24576">
        <ele>1833.1999511719</ele>
        <time>2012-06-09T09:38:44Z</time>
      </trkpt>
      <trkpt lat="45.68317" lon="6.24566">
        <ele>1831</ele>
        <time>2012-06-09T09:38:49Z</time>
      </trkpt>
      <trkpt lat="45.6833" lon="6.24556">
        <ele>1827.5999755859</ele>
        <time>2012-06-09T09:38:56Z</time>
      </trkpt>
      <trkpt lat="45.68336" lon="6.24551">
        <ele>1826.4000244141</ele>
        <time>2012-06-09T09:38:59Z</time>
      </trkpt>
      <trkpt lat="45.68347" lon="6.24544">
        <ele>1823.5999755859</ele>
        <time>2012-06-09T09:39:05Z</time>
      </trkpt>
      <trkpt lat="45.68351" lon="6.2454">
        <ele>1823.5999755859</ele>
        <time>2012-06-09T09:39:07Z</time>
      </trkpt>
      <trkpt lat="45.68364" lon="6.24527">
        <ele>1820.1999511719</ele>
        <time>2012-06-09T09:39:14Z</time>
      </trkpt>
      <trkpt lat="45.68371" lon="6.24521">
        <ele>1818</ele>
        <time>2012-06-09T09:39:18Z</time>
      </trkpt>
      <trkpt lat="45.68384" lon="6.24509">
        <ele>1814.5999755859</ele>
        <time>2012-06-09T09:39:27Z</time>
      </trkpt>
      <trkpt lat="45.68387" lon="6.24506">
        <ele>1813.5999755859</ele>
        <time>2012-06-09T09:39:29Z</time>
      </trkpt>
      <trkpt lat="45.68399" lon="6.24495">
        <ele>1809.5999755859</ele>
        <time>2012-06-09T09:39:37Z</time>
      </trkpt>
      <trkpt lat="45.68414" lon="6.24485">
        <ele>1806.4000244141</ele>
        <time>2012-06-09T09:39:48Z</time>
      </trkpt>
      <trkpt lat="45.68416" lon="6.24484">
        <ele>1806.4000244141</ele>
        <time>2012-06-09T09:39:50Z</time>
      </trkpt>
      <trkpt lat="45.68422" lon="6.24479">
        <ele>1804</ele>
        <time>2012-06-09T09:39:55Z</time>
      </trkpt>
      <trkpt lat="45.68427" lon="6.24467">
        <ele>1802.8000488281</ele>
        <time>2012-06-09T09:40:01Z</time>
      </trkpt>
      <trkpt lat="45.68437" lon="6.24453">
        <ele>1800.4000244141</ele>
        <time>2012-06-09T09:40:09Z</time>
      </trkpt>
      <trkpt lat="45.6844" lon="6.24449">
        <ele>1799.4000244141</ele>
        <time>2012-06-09T09:40:11Z</time>
      </trkpt>
      <trkpt lat="45.68445" lon="6.24441">
        <ele>1796.8000488281</ele>
        <time>2012-06-09T09:40:16Z</time>
      </trkpt>
      <trkpt lat="45.6845" lon="6.24436">
        <ele>1795.4000244141</ele>
        <time>2012-06-09T09:40:20Z</time>
      </trkpt>
      <trkpt lat="45.68461" lon="6.24427">
        <ele>1793</ele>
        <time>2012-06-09T09:40:27Z</time>
      </trkpt>
      <trkpt lat="45.68472" lon="6.2442">
        <ele>1789.1999511719</ele>
        <time>2012-06-09T09:40:34Z</time>
      </trkpt>
      <trkpt lat="45.68477" lon="6.24417">
        <ele>1788.1999511719</ele>
        <time>2012-06-09T09:40:36Z</time>
      </trkpt>
      <trkpt lat="45.68487" lon="6.24411">
        <ele>1785.4000244141</ele>
        <time>2012-06-09T09:40:41Z</time>
      </trkpt>
      <trkpt lat="45.68489" lon="6.2441">
        <ele>1784</ele>
        <time>2012-06-09T09:40:42Z</time>
      </trkpt>
      <trkpt lat="45.68482" lon="6.24403">
        <ele>1783</ele>
        <time>2012-06-09T09:40:48Z</time>
      </trkpt>
      <trkpt lat="45.68479" lon="6.24401">
        <ele>1780.5999755859</ele>
        <time>2012-06-09T09:40:50Z</time>
      </trkpt>
      <trkpt lat="45.68488" lon="6.24392">
        <ele>1778.1999511719</ele>
        <time>2012-06-09T09:40:56Z</time>
      </trkpt>
      <trkpt lat="45.6849" lon="6.24391">
        <ele>1778.1999511719</ele>
        <time>2012-06-09T09:40:57Z</time>
      </trkpt>
      <trkpt lat="45.68496" lon="6.24388">
        <ele>1775.5999755859</ele>
        <time>2012-06-09T09:41:01Z</time>
      </trkpt>
      <trkpt lat="45.68506" lon="6.24376">
        <ele>1771</ele>
        <time>2012-06-09T09:41:10Z</time>
      </trkpt>
      <trkpt lat="45.6851" lon="6.24372">
        <ele>1771</ele>
        <time>2012-06-09T09:41:13Z</time>
      </trkpt>
      <trkpt lat="45.68511" lon="6.24365">
        <ele>1767.8000488281</ele>
        <time>2012-06-09T09:41:16Z</time>
      </trkpt>
      <trkpt lat="45.68515" lon="6.24349">
        <ele>1765.5999755859</ele>
        <time>2012-06-09T09:41:21Z</time>
      </trkpt>
      <trkpt lat="45.68524" lon="6.24327">
        <ele>1762</ele>
        <time>2012-06-09T09:41:28Z</time>
      </trkpt>
      <trkpt lat="45.68526" lon="6.24324">
        <ele>1762</ele>
        <time>2012-06-09T09:41:29Z</time>
      </trkpt>
      <trkpt lat="45.68535" lon="6.24305">
        <ele>1759.8000488281</ele>
        <time>2012-06-09T09:41:36Z</time>
      </trkpt>
      <trkpt lat="45.68538" lon="6.24295">
        <ele>1758.4000244141</ele>
        <time>2012-06-09T09:41:39Z</time>
      </trkpt>
      <trkpt lat="45.68543" lon="6.24263">
        <ele>1755.1999511719</ele>
        <time>2012-06-09T09:41:48Z</time>
      </trkpt>
      <trkpt lat="45.68537" lon="6.24231">
        <ele>1758.1999511719</ele>
        <time>2012-06-09T09:42:00Z</time>
      </trkpt>
      <trkpt lat="45.68534" lon="6.24218">
        <ele>1759.4000244141</ele>
        <time>2012-06-09T09:42:05Z</time>
      </trkpt>
      <trkpt lat="45.6853" lon="6.24186">
        <ele>1759.4000244141</ele>
        <time>2012-06-09T09:42:17Z</time>
      </trkpt>
      <trkpt lat="45.68528" lon="6.24178">
        <ele>1760.5999755859</ele>
        <time>2012-06-09T09:42:20Z</time>
      </trkpt>
      <trkpt lat="45.6852" lon="6.24149">
        <ele>1761.8000488281</ele>
        <time>2012-06-09T09:42:37Z</time>
      </trkpt>
      <trkpt lat="45.68519" lon="6.24141">
        <ele>1762.8000488281</ele>
        <time>2012-06-09T09:42:41Z</time>
      </trkpt>
      <trkpt lat="45.68519" lon="6.24119">
        <ele>1764</ele>
        <time>2012-06-09T09:42:52Z</time>
      </trkpt>
      <trkpt lat="45.68518" lon="6.2412">
        <ele>1764</ele>
        <time>2012-06-09T09:42:53Z</time>
      </trkpt>
      <trkpt lat="45.68518" lon="6.24116">
        <ele>1764</ele>
        <time>2012-06-09T09:42:58Z</time>
      </trkpt>
      <trkpt lat="45.68513" lon="6.24096">
        <ele>1767</ele>
        <time>2012-06-09T09:43:12Z</time>
      </trkpt>
      <trkpt lat="45.68512" lon="6.24088">
        <ele>1767</ele>
        <time>2012-06-09T09:43:17Z</time>
      </trkpt>
      <trkpt lat="45.6851" lon="6.24076">
        <ele>1768.1999511719</ele>
        <time>2012-06-09T09:43:23Z</time>
      </trkpt>
      <trkpt lat="45.68508" lon="6.24058">
        <ele>1768.1999511719</ele>
        <time>2012-06-09T09:43:28Z</time>
      </trkpt>
      <trkpt lat="45.68513" lon="6.2401">
        <ele>1768.1999511719</ele>
        <time>2012-06-09T09:43:42Z</time>
      </trkpt>
      <trkpt lat="45.68518" lon="6.23994">
        <ele>1768.1999511719</ele>
        <time>2012-06-09T09:43:47Z</time>
      </trkpt>
      <trkpt lat="45.68539" lon="6.23974">
        <ele>1768.1999511719</ele>
        <time>2012-06-09T09:44:02Z</time>
      </trkpt>
      <trkpt lat="45.6854" lon="6.2397">
        <ele>1765</ele>
        <time>2012-06-09T09:44:04Z</time>
      </trkpt>
      <trkpt lat="45.68543" lon="6.23974">
        <ele>1762.8000488281</ele>
        <time>2012-06-09T09:44:09Z</time>
      </trkpt>
      <trkpt lat="45.68551" lon="6.2396">
        <ele>1760.4000244141</ele>
        <time>2012-06-09T09:44:16Z</time>
      </trkpt>
      <trkpt lat="45.68555" lon="6.23946">
        <ele>1759</ele>
        <time>2012-06-09T09:44:21Z</time>
      </trkpt>
      <trkpt lat="45.68558" lon="6.2393">
        <ele>1756.5999755859</ele>
        <time>2012-06-09T09:44:27Z</time>
      </trkpt>
      <trkpt lat="45.68559" lon="6.23926">
        <ele>1755.5999755859</ele>
        <time>2012-06-09T09:44:29Z</time>
      </trkpt>
      <trkpt lat="45.68568" lon="6.23909">
        <ele>1753.1999511719</ele>
        <time>2012-06-09T09:44:36Z</time>
      </trkpt>
      <trkpt lat="45.68573" lon="6.23904">
        <ele>1752.1999511719</ele>
        <time>2012-06-09T09:44:40Z</time>
      </trkpt>
      <trkpt lat="45.68577" lon="6.23901">
        <ele>1750</ele>
        <time>2012-06-09T09:44:44Z</time>
      </trkpt>
      <trkpt lat="45.68577" lon="6.23906">
        <ele>1750</ele>
        <time>2012-06-09T09:44:45Z</time>
      </trkpt>
      <trkpt lat="45.68576" lon="6.2392">
        <ele>1747.5999755859</ele>
        <time>2012-06-09T09:44:51Z</time>
      </trkpt>
      <trkpt lat="45.68583" lon="6.23918">
        <ele>1743.8000488281</ele>
        <time>2012-06-09T09:44:59Z</time>
      </trkpt>
      <trkpt lat="45.68589" lon="6.23909">
        <ele>1743.8000488281</ele>
        <time>2012-06-09T09:45:03Z</time>
      </trkpt>
      <trkpt lat="45.68596" lon="6.23904">
        <ele>1740.5999755859</ele>
        <time>2012-06-09T09:45:09Z</time>
      </trkpt>
      <trkpt lat="45.68593" lon="6.23912">
        <ele>1739.4000244141</ele>
        <time>2012-06-09T09:45:12Z</time>
      </trkpt>
      <trkpt lat="45.68589" lon="6.2393">
        <ele>1738.4000244141</ele>
        <time>2012-06-09T09:45:18Z</time>
      </trkpt>
      <trkpt lat="45.68588" lon="6.23932">
        <ele>1738.4000244141</ele>
        <time>2012-06-09T09:45:19Z</time>
      </trkpt>
      <trkpt lat="45.68589" lon="6.23937">
        <ele>1736</ele>
        <time>2012-06-09T09:45:25Z</time>
      </trkpt>
      <trkpt lat="45.68593" lon="6.23932">
        <ele>1734.8000488281</ele>
        <time>2012-06-09T09:45:28Z</time>
      </trkpt>
      <trkpt lat="45.68602" lon="6.23922">
        <ele>1732.8000488281</ele>
        <time>2012-06-09T09:45:33Z</time>
      </trkpt>
      <trkpt lat="45.68613" lon="6.23911">
        <ele>1730.1999511719</ele>
        <time>2012-06-09T09:45:43Z</time>
      </trkpt>
      <trkpt lat="45.6861" lon="6.23921">
        <ele>1729.1999511719</ele>
        <time>2012-06-09T09:45:48Z</time>
      </trkpt>
      <trkpt lat="45.68609" lon="6.23933">
        <ele>1727.8000488281</ele>
        <time>2012-06-09T09:45:52Z</time>
      </trkpt>
      <trkpt lat="45.68608" lon="6.23938">
        <ele>1726.8000488281</ele>
        <time>2012-06-09T09:45:54Z</time>
      </trkpt>
      <trkpt lat="45.68608" lon="6.23939">
        <ele>1724.1999511719</ele>
        <time>2012-06-09T09:46:01Z</time>
      </trkpt>
      <trkpt lat="45.68615" lon="6.23932">
        <ele>1723.1999511719</ele>
        <time>2012-06-09T09:46:05Z</time>
      </trkpt>
      <trkpt lat="45.68622" lon="6.2392">
        <ele>1722.1999511719</ele>
        <time>2012-06-09T09:46:10Z</time>
      </trkpt>
      <trkpt lat="45.68626" lon="6.23918">
        <ele>1722.1999511719</ele>
        <time>2012-06-09T09:46:12Z</time>
      </trkpt>
      <trkpt lat="45.68634" lon="6.23911">
        <ele>1721.1999511719</ele>
        <time>2012-06-09T09:46:18Z</time>
      </trkpt>
      <trkpt lat="45.68649" lon="6.23897">
        <ele>1717.5999755859</ele>
        <time>2012-06-09T09:46:29Z</time>
      </trkpt>
      <trkpt lat="45.6865" lon="6.23903">
        <ele>1717.5999755859</ele>
        <time>2012-06-09T09:46:31Z</time>
      </trkpt>
      <trkpt lat="45.68643" lon="6.2392">
        <ele>1714</ele>
        <time>2012-06-09T09:46:38Z</time>
      </trkpt>
      <trkpt lat="45.68642" lon="6.23923">
        <ele>1712.5999755859</ele>
        <time>2012-06-09T09:46:40Z</time>
      </trkpt>
      <trkpt lat="45.68649" lon="6.23916">
        <ele>1710.1999511719</ele>
        <time>2012-06-09T09:46:46Z</time>
      </trkpt>
      <trkpt lat="45.68651" lon="6.23915">
        <ele>1710.1999511719</ele>
        <time>2012-06-09T09:46:47Z</time>
      </trkpt>
      <trkpt lat="45.68665" lon="6.23902">
        <ele>1706.4000244141</ele>
        <time>2012-06-09T09:46:55Z</time>
      </trkpt>
      <trkpt lat="45.68675" lon="6.23897">
        <ele>1705</ele>
        <time>2012-06-09T09:47:01Z</time>
      </trkpt>
      <trkpt lat="45.6868" lon="6.23897">
        <ele>1703.8000488281</ele>
        <time>2012-06-09T09:47:07Z</time>
      </trkpt>
      <trkpt lat="45.68667" lon="6.23921">
        <ele>1700.1999511719</ele>
        <time>2012-06-09T09:47:18Z</time>
      </trkpt>
      <trkpt lat="45.68664" lon="6.23933">
        <ele>1698</ele>
        <time>2012-06-09T09:47:23Z</time>
      </trkpt>
      <trkpt lat="45.68663" lon="6.23948">
        <ele>1695.5999755859</ele>
        <time>2012-06-09T09:47:30Z</time>
      </trkpt>
      <trkpt lat="45.68663" lon="6.23951">
        <ele>1694.4000244141</ele>
        <time>2012-06-09T09:47:31Z</time>
      </trkpt>
      <trkpt lat="45.68665" lon="6.23953">
        <ele>1693.4000244141</ele>
        <time>2012-06-09T09:47:34Z</time>
      </trkpt>
      <trkpt lat="45.68669" lon="6.23946">
        <ele>1692.1999511719</ele>
        <time>2012-06-09T09:47:38Z</time>
      </trkpt>
      <trkpt lat="45.68676" lon="6.23939">
        <ele>1690.1999511719</ele>
        <time>2012-06-09T09:47:43Z</time>
      </trkpt>
      <trkpt lat="45.6868" lon="6.23935">
        <ele>1689</ele>
        <time>2012-06-09T09:47:46Z</time>
      </trkpt>
      <trkpt lat="45.6869" lon="6.23923">
        <ele>1688</ele>
        <time>2012-06-09T09:47:54Z</time>
      </trkpt>
      <trkpt lat="45.68707" lon="6.23901">
        <ele>1684.5999755859</ele>
        <time>2012-06-09T09:48:06Z</time>
      </trkpt>
      <trkpt lat="45.68708" lon="6.239">
        <ele>1683.1999511719</ele>
        <time>2012-06-09T09:48:07Z</time>
      </trkpt>
      <trkpt lat="45.6871" lon="6.23906">
        <ele>1681.8000488281</ele>
        <time>2012-06-09T09:48:12Z</time>
      </trkpt>
      <trkpt lat="45.68707" lon="6.23913">
        <ele>1680.5999755859</ele>
        <time>2012-06-09T09:48:16Z</time>
      </trkpt>
      <trkpt lat="45.68702" lon="6.2393">
        <ele>1678.5999755859</ele>
        <time>2012-06-09T09:48:22Z</time>
      </trkpt>
      <trkpt lat="45.68702" lon="6.23933">
        <ele>1678.5999755859</ele>
        <time>2012-06-09T09:48:23Z</time>
      </trkpt>
      <trkpt lat="45.68698" lon="6.23953">
        <ele>1675.4000244141</ele>
        <time>2012-06-09T09:48:32Z</time>
      </trkpt>
      <trkpt lat="45.68703" lon="6.2395">
        <ele>1674.1999511719</ele>
        <time>2012-06-09T09:48:45Z</time>
      </trkpt>
      <trkpt lat="45.68713" lon="6.23934">
        <ele>1673.1999511719</ele>
        <time>2012-06-09T09:48:54Z</time>
      </trkpt>
      <trkpt lat="45.68728" lon="6.23919">
        <ele>1670.5999755859</ele>
        <time>2012-06-09T09:49:04Z</time>
      </trkpt>
      <trkpt lat="45.68734" lon="6.23912">
        <ele>1668.4000244141</ele>
        <time>2012-06-09T09:49:08Z</time>
      </trkpt>
      <trkpt lat="45.68743" lon="6.23903">
        <ele>1667.1999511719</ele>
        <time>2012-06-09T09:49:13Z</time>
      </trkpt>
      <trkpt lat="45.68746" lon="6.23901">
        <ele>1667.1999511719</ele>
        <time>2012-06-09T09:49:14Z</time>
      </trkpt>
      <trkpt lat="45.68753" lon="6.23897">
        <ele>1664.4000244141</ele>
        <time>2012-06-09T09:49:17Z</time>
      </trkpt>
      <trkpt lat="45.68762" lon="6.23894">
        <ele>1663</ele>
        <time>2012-06-09T09:49:21Z</time>
      </trkpt>
      <trkpt lat="45.68767" lon="6.23892">
        <ele>1662</ele>
        <time>2012-06-09T09:49:24Z</time>
      </trkpt>
      <trkpt lat="45.68772" lon="6.23891">
        <ele>1660.8000488281</ele>
        <time>2012-06-09T09:49:26Z</time>
      </trkpt>
      <trkpt lat="45.68787" lon="6.23884">
        <ele>1659.5999755859</ele>
        <time>2012-06-09T09:49:32Z</time>
      </trkpt>
      <trkpt lat="45.68816" lon="6.2388">
        <ele>1654</ele>
        <time>2012-06-09T09:49:43Z</time>
      </trkpt>
      <trkpt lat="45.68824" lon="6.23876">
        <ele>1652.8000488281</ele>
        <time>2012-06-09T09:49:46Z</time>
      </trkpt>
      <trkpt lat="45.68843" lon="6.2387">
        <ele>1649.1999511719</ele>
        <time>2012-06-09T09:49:52Z</time>
      </trkpt>
      <trkpt lat="45.6886" lon="6.2387">
        <ele>1646.8000488281</ele>
        <time>2012-06-09T09:49:58Z</time>
      </trkpt>
      <trkpt lat="45.6887" lon="6.2387">
        <ele>1644.4000244141</ele>
        <time>2012-06-09T09:50:03Z</time>
      </trkpt>
      <trkpt lat="45.68876" lon="6.2387">
        <ele>1644.4000244141</ele>
        <time>2012-06-09T09:50:05Z</time>
      </trkpt>
      <trkpt lat="45.68888" lon="6.23867">
        <ele>1642.1999511719</ele>
        <time>2012-06-09T09:50:10Z</time>
      </trkpt>
      <trkpt lat="45.68892" lon="6.23861">
        <ele>1642.1999511719</ele>
        <time>2012-06-09T09:50:14Z</time>
      </trkpt>
      <trkpt lat="45.68886" lon="6.23851">
        <ele>1639.8000488281</ele>
        <time>2012-06-09T09:50:18Z</time>
      </trkpt>
      <trkpt lat="45.68879" lon="6.23827">
        <ele>1636.1999511719</ele>
        <time>2012-06-09T09:50:26Z</time>
      </trkpt>
      <trkpt lat="45.68885" lon="6.23821">
        <ele>1634.8000488281</ele>
        <time>2012-06-09T09:50:30Z</time>
      </trkpt>
      <trkpt lat="45.68902" lon="6.23808">
        <ele>1632</ele>
        <time>2012-06-09T09:50:38Z</time>
      </trkpt>
      <trkpt lat="45.6891" lon="6.23807">
        <ele>1631</ele>
        <time>2012-06-09T09:50:41Z</time>
      </trkpt>
      <trkpt lat="45.68926" lon="6.23807">
        <ele>1628.4000244141</ele>
        <time>2012-06-09T09:50:47Z</time>
      </trkpt>
      <trkpt lat="45.68937" lon="6.2381">
        <ele>1626.1999511719</ele>
        <time>2012-06-09T09:50:51Z</time>
      </trkpt>
      <trkpt lat="45.68944" lon="6.238">
        <ele>1625</ele>
        <time>2012-06-09T09:50:56Z</time>
      </trkpt>
      <trkpt lat="45.68944" lon="6.23793">
        <ele>1623.4000244141</ele>
        <time>2012-06-09T09:50:58Z</time>
      </trkpt>
      <trkpt lat="45.68948" lon="6.23782">
        <ele>1622</ele>
        <time>2012-06-09T09:51:02Z</time>
      </trkpt>
      <trkpt lat="45.6896" lon="6.23773">
        <ele>1619.5999755859</ele>
        <time>2012-06-09T09:51:08Z</time>
      </trkpt>
      <trkpt lat="45.68965" lon="6.23773">
        <ele>1618.4000244141</ele>
        <time>2012-06-09T09:51:10Z</time>
      </trkpt>
      <trkpt lat="45.68977" lon="6.23775">
        <ele>1616.1999511719</ele>
        <time>2012-06-09T09:51:15Z</time>
      </trkpt>
      <trkpt lat="45.68984" lon="6.23771">
        <ele>1615.1999511719</ele>
        <time>2012-06-09T09:51:19Z</time>
      </trkpt>
      <trkpt lat="45.68989" lon="6.23761">
        <ele>1613.5999755859</ele>
        <time>2012-06-09T09:51:22Z</time>
      </trkpt>
      <trkpt lat="45.6899" lon="6.23748">
        <ele>1612.1999511719</ele>
        <time>2012-06-09T09:51:26Z</time>
      </trkpt>
      <trkpt lat="45.68987" lon="6.23717">
        <ele>1611.1999511719</ele>
        <time>2012-06-09T09:51:34Z</time>
      </trkpt>
      <trkpt lat="45.68986" lon="6.237">
        <ele>1610</ele>
        <time>2012-06-09T09:51:39Z</time>
      </trkpt>
      <trkpt lat="45.68983" lon="6.23683">
        <ele>1608.5999755859</ele>
        <time>2012-06-09T09:51:44Z</time>
      </trkpt>
      <trkpt lat="45.68987" lon="6.23658">
        <ele>1608.5999755859</ele>
        <time>2012-06-09T09:51:54Z</time>
      </trkpt>
      <trkpt lat="45.68996" lon="6.23651">
        <ele>1607.1999511719</ele>
        <time>2012-06-09T09:51:58Z</time>
      </trkpt>
      <trkpt lat="45.6901" lon="6.23649">
        <ele>1603.8000488281</ele>
        <time>2012-06-09T09:52:05Z</time>
      </trkpt>
      <trkpt lat="45.69012" lon="6.23657">
        <ele>1603.8000488281</ele>
        <time>2012-06-09T09:52:08Z</time>
      </trkpt>
      <trkpt lat="45.6902" lon="6.2366">
        <ele>1601.1999511719</ele>
        <time>2012-06-09T09:52:12Z</time>
      </trkpt>
      <trkpt lat="45.69024" lon="6.23664">
        <ele>1600</ele>
        <time>2012-06-09T09:52:15Z</time>
      </trkpt>
      <trkpt lat="45.69034" lon="6.23673">
        <ele>1597.5999755859</ele>
        <time>2012-06-09T09:52:21Z</time>
      </trkpt>
      <trkpt lat="45.69041" lon="6.23684">
        <ele>1597.5999755859</ele>
        <time>2012-06-09T09:52:25Z</time>
      </trkpt>
      <trkpt lat="45.69051" lon="6.23692">
        <ele>1594</ele>
        <time>2012-06-09T09:52:32Z</time>
      </trkpt>
      <trkpt lat="45.69057" lon="6.23668">
        <ele>1589</ele>
        <time>2012-06-09T09:52:46Z</time>
      </trkpt>
      <trkpt lat="45.69061" lon="6.23671">
        <ele>1587.5999755859</ele>
        <time>2012-06-09T09:52:48Z</time>
      </trkpt>
      <trkpt lat="45.69069" lon="6.23684">
        <ele>1586.4000244141</ele>
        <time>2012-06-09T09:52:54Z</time>
      </trkpt>
      <trkpt lat="45.69074" lon="6.23693">
        <ele>1585.4000244141</ele>
        <time>2012-06-09T09:52:57Z</time>
      </trkpt>
      <trkpt lat="45.6908" lon="6.237">
        <ele>1584</ele>
        <time>2012-06-09T09:53:01Z</time>
      </trkpt>
      <trkpt lat="45.69084" lon="6.23704">
        <ele>1582.8000488281</ele>
        <time>2012-06-09T09:53:03Z</time>
      </trkpt>
      <trkpt lat="45.69093" lon="6.23709">
        <ele>1580.5999755859</ele>
        <time>2012-06-09T09:53:09Z</time>
      </trkpt>
      <trkpt lat="45.69097" lon="6.23713">
        <ele>1579.5999755859</ele>
        <time>2012-06-09T09:53:12Z</time>
      </trkpt>
      <trkpt lat="45.69105" lon="6.23722">
        <ele>1578</ele>
        <time>2012-06-09T09:53:18Z</time>
      </trkpt>
      <trkpt lat="45.69116" lon="6.23718">
        <ele>1575.8000488281</ele>
        <time>2012-06-09T09:53:26Z</time>
      </trkpt>
      <trkpt lat="45.69117" lon="6.23707">
        <ele>1574.4000244141</ele>
        <time>2012-06-09T09:53:30Z</time>
      </trkpt>
      <trkpt lat="45.6912" lon="6.23697">
        <ele>1572</ele>
        <time>2012-06-09T09:53:35Z</time>
      </trkpt>
      <trkpt lat="45.69124" lon="6.23697">
        <ele>1572</ele>
        <time>2012-06-09T09:53:37Z</time>
      </trkpt>
      <trkpt lat="45.69133" lon="6.23695">
        <ele>1569.8000488281</ele>
        <time>2012-06-09T09:53:41Z</time>
      </trkpt>
      <trkpt lat="45.69142" lon="6.23694">
        <ele>1568.5999755859</ele>
        <time>2012-06-09T09:53:46Z</time>
      </trkpt>
      <trkpt lat="45.69151" lon="6.23688">
        <ele>1566.4000244141</ele>
        <time>2012-06-09T09:53:51Z</time>
      </trkpt>
      <trkpt lat="45.69156" lon="6.23683">
        <ele>1566.4000244141</ele>
        <time>2012-06-09T09:53:54Z</time>
      </trkpt>
      <trkpt lat="45.69162" lon="6.23677">
        <ele>1565.1999511719</ele>
        <time>2012-06-09T09:53:57Z</time>
      </trkpt>
      <trkpt lat="45.69165" lon="6.23653">
        <ele>1561.1999511719</ele>
        <time>2012-06-09T09:54:06Z</time>
      </trkpt>
      <trkpt lat="45.6917" lon="6.2364">
        <ele>1561.1999511719</ele>
        <time>2012-06-09T09:54:10Z</time>
      </trkpt>
      <trkpt lat="45.69183" lon="6.23632">
        <ele>1559</ele>
        <time>2012-06-09T09:54:17Z</time>
      </trkpt>
      <trkpt lat="45.69188" lon="6.23633">
        <ele>1557.5999755859</ele>
        <time>2012-06-09T09:54:20Z</time>
      </trkpt>
      <trkpt lat="45.69193" lon="6.2364">
        <ele>1556.5999755859</ele>
        <time>2012-06-09T09:54:23Z</time>
      </trkpt>
      <trkpt lat="45.69196" lon="6.2364">
        <ele>1556.5999755859</ele>
        <time>2012-06-09T09:54:24Z</time>
      </trkpt>
      <trkpt lat="45.69203" lon="6.23659">
        <ele>1554.1999511719</ele>
        <time>2012-06-09T09:54:31Z</time>
      </trkpt>
      <trkpt lat="45.69202" lon="6.23664">
        <ele>1553.1999511719</ele>
        <time>2012-06-09T09:54:33Z</time>
      </trkpt>
      <trkpt lat="45.69202" lon="6.23677">
        <ele>1551</ele>
        <time>2012-06-09T09:54:38Z</time>
      </trkpt>
      <trkpt lat="45.69201" lon="6.23699">
        <ele>1548.8000488281</ele>
        <time>2012-06-09T09:54:46Z</time>
      </trkpt>
      <trkpt lat="45.69199" lon="6.23705">
        <ele>1547.4000244141</ele>
        <time>2012-06-09T09:54:49Z</time>
      </trkpt>
      <trkpt lat="45.69195" lon="6.23719">
        <ele>1546.1999511719</ele>
        <time>2012-06-09T09:54:53Z</time>
      </trkpt>
      <trkpt lat="45.69197" lon="6.23721">
        <ele>1546.1999511719</ele>
        <time>2012-06-09T09:54:54Z</time>
      </trkpt>
      <trkpt lat="45.69201" lon="6.23727">
        <ele>1545</ele>
        <time>2012-06-09T09:54:58Z</time>
      </trkpt>
      <trkpt lat="45.69206" lon="6.2374">
        <ele>1543.8000488281</ele>
        <time>2012-06-09T09:55:02Z</time>
      </trkpt>
      <trkpt lat="45.69209" lon="6.23752">
        <ele>1542.4000244141</ele>
        <time>2012-06-09T09:55:07Z</time>
      </trkpt>
      <trkpt lat="45.69209" lon="6.23754">
        <ele>1541.4000244141</ele>
        <time>2012-06-09T09:55:08Z</time>
      </trkpt>
      <trkpt lat="45.69207" lon="6.23778">
        <ele>1539</ele>
        <time>2012-06-09T09:55:16Z</time>
      </trkpt>
      <trkpt lat="45.69193" lon="6.23792">
        <ele>1535.5999755859</ele>
        <time>2012-06-09T09:55:26Z</time>
      </trkpt>
      <trkpt lat="45.69191" lon="6.23792">
        <ele>1534.4000244141</ele>
        <time>2012-06-09T09:55:27Z</time>
      </trkpt>
      <trkpt lat="45.69186" lon="6.23797">
        <ele>1533.4000244141</ele>
        <time>2012-06-09T09:55:36Z</time>
      </trkpt>
      <trkpt lat="45.69189" lon="6.23797">
        <ele>1532.1999511719</ele>
        <time>2012-06-09T09:55:38Z</time>
      </trkpt>
      <trkpt lat="45.69204" lon="6.23796">
        <ele>1529.8000488281</ele>
        <time>2012-06-09T09:55:46Z</time>
      </trkpt>
      <trkpt lat="45.69207" lon="6.23795">
        <ele>1529.8000488281</ele>
        <time>2012-06-09T09:55:47Z</time>
      </trkpt>
      <trkpt lat="45.69218" lon="6.23784">
        <ele>1527.5999755859</ele>
        <time>2012-06-09T09:55:52Z</time>
      </trkpt>
      <trkpt lat="45.69222" lon="6.23783">
        <ele>1526.5999755859</ele>
        <time>2012-06-09T09:55:54Z</time>
      </trkpt>
      <trkpt lat="45.69237" lon="6.2377">
        <ele>1524.4000244141</ele>
        <time>2012-06-09T09:56:00Z</time>
      </trkpt>
      <trkpt lat="45.69241" lon="6.23748">
        <ele>1520.4000244141</ele>
        <time>2012-06-09T09:56:08Z</time>
      </trkpt>
      <trkpt lat="45.69238" lon="6.23732">
        <ele>1519.1999511719</ele>
        <time>2012-06-09T09:56:14Z</time>
      </trkpt>
      <trkpt lat="45.6924" lon="6.23723">
        <ele>1517.8000488281</ele>
        <time>2012-06-09T09:56:18Z</time>
      </trkpt>
      <trkpt lat="45.6924" lon="6.23716">
        <ele>1517.8000488281</ele>
        <time>2012-06-09T09:56:21Z</time>
      </trkpt>
      <trkpt lat="45.69244" lon="6.237">
        <ele>1515.5999755859</ele>
        <time>2012-06-09T09:56:26Z</time>
      </trkpt>
      <trkpt lat="45.69249" lon="6.23694">
        <ele>1514</ele>
        <time>2012-06-09T09:56:30Z</time>
      </trkpt>
      <trkpt lat="45.69257" lon="6.23673">
        <ele>1511.8000488281</ele>
        <time>2012-06-09T09:56:39Z</time>
      </trkpt>
      <trkpt lat="45.69259" lon="6.23667">
        <ele>1511.8000488281</ele>
        <time>2012-06-09T09:56:42Z</time>
      </trkpt>
      <trkpt lat="45.69259" lon="6.23661">
        <ele>1510.8000488281</ele>
        <time>2012-06-09T09:56:46Z</time>
      </trkpt>
      <trkpt lat="45.69265" lon="6.23665">
        <ele>1507.5999755859</ele>
        <time>2012-06-09T09:56:55Z</time>
      </trkpt>
      <trkpt lat="45.69265" lon="6.23674">
        <ele>1507.5999755859</ele>
        <time>2012-06-09T09:56:58Z</time>
      </trkpt>
      <trkpt lat="45.69264" lon="6.23689">
        <ele>1504.1999511719</ele>
        <time>2012-06-09T09:57:03Z</time>
      </trkpt>
      <trkpt lat="45.69265" lon="6.23691">
        <ele>1504.1999511719</ele>
        <time>2012-06-09T09:57:05Z</time>
      </trkpt>
      <trkpt lat="45.69268" lon="6.23678">
        <ele>1503</ele>
        <time>2012-06-09T09:57:09Z</time>
      </trkpt>
      <trkpt lat="45.69271" lon="6.23669">
        <ele>1503</ele>
        <time>2012-06-09T09:57:12Z</time>
      </trkpt>
      <trkpt lat="45.69275" lon="6.23665">
        <ele>1500.1999511719</ele>
        <time>2012-06-09T09:57:16Z</time>
      </trkpt>
      <trkpt lat="45.69273" lon="6.2368">
        <ele>1499.1999511719</ele>
        <time>2012-06-09T09:57:20Z</time>
      </trkpt>
      <trkpt lat="45.69273" lon="6.23696">
        <ele>1497</ele>
        <time>2012-06-09T09:57:25Z</time>
      </trkpt>
      <trkpt lat="45.69273" lon="6.23719">
        <ele>1494.8000488281</ele>
        <time>2012-06-09T09:57:33Z</time>
      </trkpt>
      <trkpt lat="45.6928" lon="6.23711">
        <ele>1493.4000244141</ele>
        <time>2012-06-09T09:57:37Z</time>
      </trkpt>
      <trkpt lat="45.69286" lon="6.23696">
        <ele>1489.8000488281</ele>
        <time>2012-06-09T09:57:42Z</time>
      </trkpt>
      <trkpt lat="45.69289" lon="6.23686">
        <ele>1489.8000488281</ele>
        <time>2012-06-09T09:57:45Z</time>
      </trkpt>
      <trkpt lat="45.69301" lon="6.23678">
        <ele>1487</ele>
        <time>2012-06-09T09:57:51Z</time>
      </trkpt>
      <trkpt lat="45.6931" lon="6.23672">
        <ele>1485</ele>
        <time>2012-06-09T09:57:55Z</time>
      </trkpt>
      <trkpt lat="45.69322" lon="6.23664">
        <ele>1482.5999755859</ele>
        <time>2012-06-09T09:58:02Z</time>
      </trkpt>
      <trkpt lat="45.69327" lon="6.23664">
        <ele>1481.4000244141</ele>
        <time>2012-06-09T09:58:04Z</time>
      </trkpt>
      <trkpt lat="45.6934" lon="6.2366">
        <ele>1479.1999511719</ele>
        <time>2012-06-09T09:58:11Z</time>
      </trkpt>
      <trkpt lat="45.69357" lon="6.23654">
        <ele>1475.8000488281</ele>
        <time>2012-06-09T09:58:20Z</time>
      </trkpt>
      <trkpt lat="45.69363" lon="6.23656">
        <ele>1475.8000488281</ele>
        <time>2012-06-09T09:58:22Z</time>
      </trkpt>
      <trkpt lat="45.69356" lon="6.23669">
        <ele>1473.4000244141</ele>
        <time>2012-06-09T09:58:28Z</time>
      </trkpt>
      <trkpt lat="45.69356" lon="6.23675">
        <ele>1472.1999511719</ele>
        <time>2012-06-09T09:58:30Z</time>
      </trkpt>
      <trkpt lat="45.69358" lon="6.23681">
        <ele>1469.8000488281</ele>
        <time>2012-06-09T09:58:36Z</time>
      </trkpt>
      <trkpt lat="45.69361" lon="6.23681">
        <ele>1469.8000488281</ele>
        <time>2012-06-09T09:58:38Z</time>
      </trkpt>
      <trkpt lat="45.69367" lon="6.23686">
        <ele>1468.8000488281</ele>
        <time>2012-06-09T09:58:41Z</time>
      </trkpt>
      <trkpt lat="45.69364" lon="6.23695">
        <ele>1466</ele>
        <time>2012-06-09T09:58:45Z</time>
      </trkpt>
      <trkpt lat="45.69365" lon="6.23703">
        <ele>1464.5999755859</ele>
        <time>2012-06-09T09:58:52Z</time>
      </trkpt>
      <trkpt lat="45.69379" lon="6.23712">
        <ele>1461.1999511719</ele>
        <time>2012-06-09T09:58:59Z</time>
      </trkpt>
      <trkpt lat="45.69382" lon="6.23713">
        <ele>1459</ele>
        <time>2012-06-09T09:59:01Z</time>
      </trkpt>
      <trkpt lat="45.69389" lon="6.23718">
        <ele>1458</ele>
        <time>2012-06-09T09:59:06Z</time>
      </trkpt>
      <trkpt lat="45.69391" lon="6.23719">
        <ele>1456.5999755859</ele>
        <time>2012-06-09T09:59:07Z</time>
      </trkpt>
      <trkpt lat="45.69395" lon="6.23723">
        <ele>1454.1999511719</ele>
        <time>2012-06-09T09:59:12Z</time>
      </trkpt>
      <trkpt lat="45.69399" lon="6.23726">
        <ele>1453.1999511719</ele>
        <time>2012-06-09T09:59:15Z</time>
      </trkpt>
      <trkpt lat="45.69409" lon="6.23728">
        <ele>1451</ele>
        <time>2012-06-09T09:59:19Z</time>
      </trkpt>
      <trkpt lat="45.69412" lon="6.23728">
        <ele>1450</ele>
        <time>2012-06-09T09:59:20Z</time>
      </trkpt>
      <trkpt lat="45.69425" lon="6.23732">
        <ele>1448.8000488281</ele>
        <time>2012-06-09T09:59:26Z</time>
      </trkpt>
      <trkpt lat="45.69446" lon="6.23744">
        <ele>1446.1999511719</ele>
        <time>2012-06-09T09:59:36Z</time>
      </trkpt>
      <trkpt lat="45.69448" lon="6.23744">
        <ele>1446.1999511719</ele>
        <time>2012-06-09T09:59:37Z</time>
      </trkpt>
      <trkpt lat="45.69464" lon="6.23746">
        <ele>1446.1999511719</ele>
        <time>2012-06-09T09:59:45Z</time>
      </trkpt>
      <trkpt lat="45.69474" lon="6.23748">
        <ele>1444.8000488281</ele>
        <time>2012-06-09T09:59:50Z</time>
      </trkpt>
      <trkpt lat="45.69485" lon="6.23752">
        <ele>1442.5999755859</ele>
        <time>2012-06-09T09:59:55Z</time>
      </trkpt>
      <trkpt lat="45.69487" lon="6.23752">
        <ele>1441.4000244141</ele>
        <time>2012-06-09T09:59:56Z</time>
      </trkpt>
      <trkpt lat="45.69479" lon="6.23762">
        <ele>1439</ele>
        <time>2012-06-09T10:00:03Z</time>
      </trkpt>
      <trkpt lat="45.6948" lon="6.23764">
        <ele>1438</ele>
        <time>2012-06-09T10:00:07Z</time>
      </trkpt>
      <trkpt lat="45.69487" lon="6.23767">
        <ele>1435.5999755859</ele>
        <time>2012-06-09T10:00:12Z</time>
      </trkpt>
      <trkpt lat="45.69497" lon="6.23767">
        <ele>1433.5999755859</ele>
        <time>2012-06-09T10:00:17Z</time>
      </trkpt>
      <trkpt lat="45.69503" lon="6.2377">
        <ele>1432.5999755859</ele>
        <time>2012-06-09T10:00:20Z</time>
      </trkpt>
      <trkpt lat="45.6952" lon="6.23781">
        <ele>1430</ele>
        <time>2012-06-09T10:00:28Z</time>
      </trkpt>
      <trkpt lat="45.69523" lon="6.23783">
        <ele>1429</ele>
        <time>2012-06-09T10:00:29Z</time>
      </trkpt>
      <trkpt lat="45.69534" lon="6.23787">
        <ele>1427.8000488281</ele>
        <time>2012-06-09T10:00:33Z</time>
      </trkpt>
      <trkpt lat="45.69539" lon="6.2379">
        <ele>1427.8000488281</ele>
        <time>2012-06-09T10:00:36Z</time>
      </trkpt>
      <trkpt lat="45.69552" lon="6.23799">
        <ele>1426.5999755859</ele>
        <time>2012-06-09T10:00:42Z</time>
      </trkpt>
      <trkpt lat="45.69554" lon="6.23798">
        <ele>1426.5999755859</ele>
        <time>2012-06-09T10:00:43Z</time>
      </trkpt>
      <trkpt lat="45.69557" lon="6.23803">
        <ele>1423.8000488281</ele>
        <time>2012-06-09T10:00:46Z</time>
      </trkpt>
      <trkpt lat="45.69546" lon="6.23811">
        <ele>1420.5999755859</ele>
        <time>2012-06-09T10:00:54Z</time>
      </trkpt>
      <trkpt lat="45.69543" lon="6.23812">
        <ele>1420.5999755859</ele>
        <time>2012-06-09T10:00:57Z</time>
      </trkpt>
      <trkpt lat="45.69541" lon="6.2382">
        <ele>1418.1999511719</ele>
        <time>2012-06-09T10:01:01Z</time>
      </trkpt>
      <trkpt lat="45.69534" lon="6.23823">
        <ele>1417</ele>
        <time>2012-06-09T10:01:06Z</time>
      </trkpt>
      <trkpt lat="45.69531" lon="6.23827">
        <ele>1414.8000488281</ele>
        <time>2012-06-09T10:01:09Z</time>
      </trkpt>
      <trkpt lat="45.69528" lon="6.2383">
        <ele>1413.8000488281</ele>
        <time>2012-06-09T10:01:11Z</time>
      </trkpt>
      <trkpt lat="45.6953" lon="6.23836">
        <ele>1412.5999755859</ele>
        <time>2012-06-09T10:01:16Z</time>
      </trkpt>
      <trkpt lat="45.69538" lon="6.23843">
        <ele>1411.5999755859</ele>
        <time>2012-06-09T10:01:21Z</time>
      </trkpt>
      <trkpt lat="45.69545" lon="6.23849">
        <ele>1409.1999511719</ele>
        <time>2012-06-09T10:01:25Z</time>
      </trkpt>
      <trkpt lat="45.69563" lon="6.23854">
        <ele>1404</ele>
        <time>2012-06-09T10:01:33Z</time>
      </trkpt>
      <trkpt lat="45.69572" lon="6.23859">
        <ele>1402.8000488281</ele>
        <time>2012-06-09T10:01:37Z</time>
      </trkpt>
      <trkpt lat="45.69568" lon="6.23868">
        <ele>1400.4000244141</ele>
        <time>2012-06-09T10:01:42Z</time>
      </trkpt>
      <trkpt lat="45.69567" lon="6.23869">
        <ele>1399.4000244141</ele>
        <time>2012-06-09T10:01:43Z</time>
      </trkpt>
      <trkpt lat="45.69557" lon="6.23875">
        <ele>1395.8000488281</ele>
        <time>2012-06-09T10:01:48Z</time>
      </trkpt>
      <trkpt lat="45.69553" lon="6.23878">
        <ele>1394.5999755859</ele>
        <time>2012-06-09T10:01:52Z</time>
      </trkpt>
      <trkpt lat="45.69544" lon="6.23878">
        <ele>1393.4000244141</ele>
        <time>2012-06-09T10:01:56Z</time>
      </trkpt>
      <trkpt lat="45.69538" lon="6.23877">
        <ele>1391.8000488281</ele>
        <time>2012-06-09T10:01:59Z</time>
      </trkpt>
      <trkpt lat="45.69517" lon="6.23882">
        <ele>1390.8000488281</ele>
        <time>2012-06-09T10:02:08Z</time>
      </trkpt>
      <trkpt lat="45.69497" lon="6.23881">
        <ele>1387.1999511719</ele>
        <time>2012-06-09T10:02:16Z</time>
      </trkpt>
      <trkpt lat="45.69496" lon="6.23879">
        <ele>1387.1999511719</ele>
        <time>2012-06-09T10:02:17Z</time>
      </trkpt>
      <trkpt lat="45.69493" lon="6.23879">
        <ele>1386</ele>
        <time>2012-06-09T10:02:22Z</time>
      </trkpt>
      <trkpt lat="45.69497" lon="6.2388">
        <ele>1385</ele>
        <time>2012-06-09T10:02:24Z</time>
      </trkpt>
      <trkpt lat="45.695" lon="6.23886">
        <ele>1383.8000488281</ele>
        <time>2012-06-09T10:02:28Z</time>
      </trkpt>
      <trkpt lat="45.695" lon="6.23888">
        <ele>1382.5999755859</ele>
        <time>2012-06-09T10:02:29Z</time>
      </trkpt>
      <trkpt lat="45.69507" lon="6.23903">
        <ele>1381.4000244141</ele>
        <time>2012-06-09T10:02:35Z</time>
      </trkpt>
      <trkpt lat="45.69511" lon="6.23902">
        <ele>1380.1999511719</ele>
        <time>2012-06-09T10:02:38Z</time>
      </trkpt>
      <trkpt lat="45.69516" lon="6.23908">
        <ele>1378.5999755859</ele>
        <time>2012-06-09T10:02:41Z</time>
      </trkpt>
      <trkpt lat="45.69524" lon="6.23909">
        <ele>1377.5999755859</ele>
        <time>2012-06-09T10:02:47Z</time>
      </trkpt>
      <trkpt lat="45.69525" lon="6.2391">
        <ele>1375.1999511719</ele>
        <time>2012-06-09T10:02:49Z</time>
      </trkpt>
      <trkpt lat="45.69542" lon="6.23918">
        <ele>1374</ele>
        <time>2012-06-09T10:02:55Z</time>
      </trkpt>
      <trkpt lat="45.69543" lon="6.23919">
        <ele>1373</ele>
        <time>2012-06-09T10:02:56Z</time>
      </trkpt>
      <trkpt lat="45.69552" lon="6.23921">
        <ele>1371.5999755859</ele>
        <time>2012-06-09T10:03:01Z</time>
      </trkpt>
      <trkpt lat="45.69564" lon="6.23925">
        <ele>1370.4000244141</ele>
        <time>2012-06-09T10:03:06Z</time>
      </trkpt>
      <trkpt lat="45.69579" lon="6.23924">
        <ele>1368.1999511719</ele>
        <time>2012-06-09T10:03:11Z</time>
      </trkpt>
      <trkpt lat="45.69581" lon="6.23923">
        <ele>1366.5999755859</ele>
        <time>2012-06-09T10:03:12Z</time>
      </trkpt>
      <trkpt lat="45.69595" lon="6.23918">
        <ele>1365.4000244141</ele>
        <time>2012-06-09T10:03:18Z</time>
      </trkpt>
      <trkpt lat="45.69605" lon="6.23917">
        <ele>1362</ele>
        <time>2012-06-09T10:03:26Z</time>
      </trkpt>
      <trkpt lat="45.69608" lon="6.23918">
        <ele>1362</ele>
        <time>2012-06-09T10:03:27Z</time>
      </trkpt>
      <trkpt lat="45.69627" lon="6.23926">
        <ele>1360.5999755859</ele>
        <time>2012-06-09T10:03:34Z</time>
      </trkpt>
      <trkpt lat="45.69635" lon="6.23934">
        <ele>1358</ele>
        <time>2012-06-09T10:03:38Z</time>
      </trkpt>
      <trkpt lat="45.69642" lon="6.23941">
        <ele>1356.8000488281</ele>
        <time>2012-06-09T10:03:42Z</time>
      </trkpt>
      <trkpt lat="45.69644" lon="6.23941">
        <ele>1355.4000244141</ele>
        <time>2012-06-09T10:03:43Z</time>
      </trkpt>
      <trkpt lat="45.69654" lon="6.23943">
        <ele>1354</ele>
        <time>2012-06-09T10:03:49Z</time>
      </trkpt>
      <trkpt lat="45.69663" lon="6.23946">
        <ele>1351.4000244141</ele>
        <time>2012-06-09T10:03:53Z</time>
      </trkpt>
      <trkpt lat="45.69681" lon="6.23944">
        <ele>1350.1999511719</ele>
        <time>2012-06-09T10:04:00Z</time>
      </trkpt>
      <trkpt lat="45.69697" lon="6.23941">
        <ele>1347</ele>
        <time>2012-06-09T10:04:07Z</time>
      </trkpt>
      <trkpt lat="45.69705" lon="6.23938">
        <ele>1346</ele>
        <time>2012-06-09T10:04:10Z</time>
      </trkpt>
      <trkpt lat="45.69717" lon="6.23936">
        <ele>1344.8000488281</ele>
        <time>2012-06-09T10:04:14Z</time>
      </trkpt>
      <trkpt lat="45.69721" lon="6.23935">
        <ele>1343.5999755859</ele>
        <time>2012-06-09T10:04:16Z</time>
      </trkpt>
      <trkpt lat="45.6974" lon="6.23925">
        <ele>1341.1999511719</ele>
        <time>2012-06-09T10:04:23Z</time>
      </trkpt>
      <trkpt lat="45.69745" lon="6.23927">
        <ele>1340</ele>
        <time>2012-06-09T10:04:25Z</time>
      </trkpt>
      <trkpt lat="45.69759" lon="6.23934">
        <ele>1339</ele>
        <time>2012-06-09T10:04:29Z</time>
      </trkpt>
      <trkpt lat="45.69769" lon="6.23939">
        <ele>1337.8000488281</ele>
        <time>2012-06-09T10:04:32Z</time>
      </trkpt>
      <trkpt lat="45.69781" lon="6.23939">
        <ele>1335.4000244141</ele>
        <time>2012-06-09T10:04:38Z</time>
      </trkpt>
      <trkpt lat="45.69808" lon="6.23943">
        <ele>1330.5999755859</ele>
        <time>2012-06-09T10:04:50Z</time>
      </trkpt>
      <trkpt lat="45.69808" lon="6.23942">
        <ele>1330.5999755859</ele>
        <time>2012-06-09T10:04:51Z</time>
      </trkpt>
      <trkpt lat="45.6982" lon="6.23949">
        <ele>1328.4000244141</ele>
        <time>2012-06-09T10:04:56Z</time>
      </trkpt>
      <trkpt lat="45.69833" lon="6.23958">
        <ele>1326.8000488281</ele>
        <time>2012-06-09T10:05:01Z</time>
      </trkpt>
      <trkpt lat="45.69843" lon="6.2396">
        <ele>1325.5999755859</ele>
        <time>2012-06-09T10:05:05Z</time>
      </trkpt>
      <trkpt lat="45.69843" lon="6.23959">
        <ele>1325.5999755859</ele>
        <time>2012-06-09T10:05:06Z</time>
      </trkpt>
      <trkpt lat="45.69856" lon="6.23955">
        <ele>1323</ele>
        <time>2012-06-09T10:05:13Z</time>
      </trkpt>
      <trkpt lat="45.6986" lon="6.23955">
        <ele>1321.8000488281</ele>
        <time>2012-06-09T10:05:15Z</time>
      </trkpt>
      <trkpt lat="45.69882" lon="6.23956">
        <ele>1319.4000244141</ele>
        <time>2012-06-09T10:05:23Z</time>
      </trkpt>
      <trkpt lat="45.6989" lon="6.23966">
        <ele>1317.1999511719</ele>
        <time>2012-06-09T10:05:28Z</time>
      </trkpt>
      <trkpt lat="45.69894" lon="6.23969">
        <ele>1316</ele>
        <time>2012-06-09T10:05:31Z</time>
      </trkpt>
      <trkpt lat="45.69903" lon="6.23974">
        <ele>1313.5999755859</ele>
        <time>2012-06-09T10:05:39Z</time>
      </trkpt>
      <trkpt lat="45.69903" lon="6.23978">
        <ele>1313.5999755859</ele>
        <time>2012-06-09T10:05:41Z</time>
      </trkpt>
      <trkpt lat="45.69901" lon="6.23988">
        <ele>1311.4000244141</ele>
        <time>2012-06-09T10:05:45Z</time>
      </trkpt>
      <trkpt lat="45.69901" lon="6.23998">
        <ele>1310.1999511719</ele>
        <time>2012-06-09T10:05:49Z</time>
      </trkpt>
      <trkpt lat="45.69909" lon="6.24015">
        <ele>1307.8000488281</ele>
        <time>2012-06-09T10:05:55Z</time>
      </trkpt>
      <trkpt lat="45.69914" lon="6.24014">
        <ele>1307.8000488281</ele>
        <time>2012-06-09T10:05:57Z</time>
      </trkpt>
      <trkpt lat="45.69923" lon="6.24018">
        <ele>1305.4000244141</ele>
        <time>2012-06-09T10:06:01Z</time>
      </trkpt>
      <trkpt lat="45.6995" lon="6.24008">
        <ele>1300.8000488281</ele>
        <time>2012-06-09T10:06:12Z</time>
      </trkpt>
      <trkpt lat="45.69953" lon="6.24006">
        <ele>1300.8000488281</ele>
        <time>2012-06-09T10:06:13Z</time>
      </trkpt>
      <trkpt lat="45.69968" lon="6.24002">
        <ele>1299.5999755859</ele>
        <time>2012-06-09T10:06:19Z</time>
      </trkpt>
      <trkpt lat="45.69974" lon="6.23999">
        <ele>1298.4000244141</ele>
        <time>2012-06-09T10:06:21Z</time>
      </trkpt>
      <trkpt lat="45.69989" lon="6.24003">
        <ele>1296</ele>
        <time>2012-06-09T10:06:27Z</time>
      </trkpt>
      <trkpt lat="45.69995" lon="6.24006">
        <ele>1295</ele>
        <time>2012-06-09T10:06:29Z</time>
      </trkpt>
      <trkpt lat="45.70006" lon="6.24014">
        <ele>1293.8000488281</ele>
        <time>2012-06-09T10:06:33Z</time>
      </trkpt>
      <trkpt lat="45.70016" lon="6.2402">
        <ele>1291.5999755859</ele>
        <time>2012-06-09T10:06:37Z</time>
      </trkpt>
      <trkpt lat="45.70033" lon="6.2402">
        <ele>1289</ele>
        <time>2012-06-09T10:06:45Z</time>
      </trkpt>
      <trkpt lat="45.70048" lon="6.24019">
        <ele>1286.4000244141</ele>
        <time>2012-06-09T10:06:51Z</time>
      </trkpt>
      <trkpt lat="45.70053" lon="6.24016">
        <ele>1285.4000244141</ele>
        <time>2012-06-09T10:06:53Z</time>
      </trkpt>
      <trkpt lat="45.70066" lon="6.24014">
        <ele>1284.4000244141</ele>
        <time>2012-06-09T10:06:57Z</time>
      </trkpt>
      <trkpt lat="45.7007" lon="6.24014">
        <ele>1283</ele>
        <time>2012-06-09T10:06:59Z</time>
      </trkpt>
      <trkpt lat="45.70084" lon="6.24003">
        <ele>1280.1999511719</ele>
        <time>2012-06-09T10:07:07Z</time>
      </trkpt>
      <trkpt lat="45.70093" lon="6.24002">
        <ele>1278.8000488281</ele>
        <time>2012-06-09T10:07:11Z</time>
      </trkpt>
      <trkpt lat="45.70109" lon="6.24001">
        <ele>1276.5999755859</ele>
        <time>2012-06-09T10:07:17Z</time>
      </trkpt>
      <trkpt lat="45.70113" lon="6.24">
        <ele>1276.5999755859</ele>
        <time>2012-06-09T10:07:19Z</time>
      </trkpt>
      <trkpt lat="45.70124" lon="6.23995">
        <ele>1274.4000244141</ele>
        <time>2012-06-09T10:07:24Z</time>
      </trkpt>
      <trkpt lat="45.70147" lon="6.24001">
        <ele>1271</ele>
        <time>2012-06-09T10:07:33Z</time>
      </trkpt>
      <trkpt lat="45.70152" lon="6.24001">
        <ele>1271</ele>
        <time>2012-06-09T10:07:36Z</time>
      </trkpt>
      <trkpt lat="45.70158" lon="6.24002">
        <ele>1268.8000488281</ele>
        <time>2012-06-09T10:07:40Z</time>
      </trkpt>
      <trkpt lat="45.70171" lon="6.23999">
        <ele>1266.1999511719</ele>
        <time>2012-06-09T10:07:45Z</time>
      </trkpt>
      <trkpt lat="45.7018" lon="6.23985">
        <ele>1265.1999511719</ele>
        <time>2012-06-09T10:07:51Z</time>
      </trkpt>
      <trkpt lat="45.70183" lon="6.23983">
        <ele>1263.5999755859</ele>
        <time>2012-06-09T10:07:52Z</time>
      </trkpt>
      <trkpt lat="45.70201" lon="6.2398">
        <ele>1261.5999755859</ele>
        <time>2012-06-09T10:07:59Z</time>
      </trkpt>
      <trkpt lat="45.7021" lon="6.23989">
        <ele>1259.4000244141</ele>
        <time>2012-06-09T10:08:03Z</time>
      </trkpt>
      <trkpt lat="45.70223" lon="6.24">
        <ele>1258.1999511719</ele>
        <time>2012-06-09T10:08:08Z</time>
      </trkpt>
      <trkpt lat="45.70239" lon="6.24022">
        <ele>1254.4000244141</ele>
        <time>2012-06-09T10:08:17Z</time>
      </trkpt>
      <trkpt lat="45.70247" lon="6.24032">
        <ele>1253.4000244141</ele>
        <time>2012-06-09T10:08:21Z</time>
      </trkpt>
      <trkpt lat="45.70254" lon="6.24037">
        <ele>1252.1999511719</ele>
        <time>2012-06-09T10:08:25Z</time>
      </trkpt>
      <trkpt lat="45.70253" lon="6.24037">
        <ele>1251.1999511719</ele>
        <time>2012-06-09T10:08:26Z</time>
      </trkpt>
      <trkpt lat="45.70248" lon="6.24029">
        <ele>1249</ele>
        <time>2012-06-09T10:08:31Z</time>
      </trkpt>
      <trkpt lat="45.70245" lon="6.24025">
        <ele>1247.8000488281</ele>
        <time>2012-06-09T10:08:34Z</time>
      </trkpt>
      <trkpt lat="45.70234" lon="6.24017">
        <ele>1245.4000244141</ele>
        <time>2012-06-09T10:08:40Z</time>
      </trkpt>
      <trkpt lat="45.7023" lon="6.24021">
        <ele>1245.4000244141</ele>
        <time>2012-06-09T10:08:42Z</time>
      </trkpt>
      <trkpt lat="45.70223" lon="6.24029">
        <ele>1243.1999511719</ele>
        <time>2012-06-09T10:08:46Z</time>
      </trkpt>
      <trkpt lat="45.70212" lon="6.2405">
        <ele>1239.4000244141</ele>
        <time>2012-06-09T10:08:55Z</time>
      </trkpt>
      <trkpt lat="45.70211" lon="6.24055">
        <ele>1239.4000244141</ele>
        <time>2012-06-09T10:08:56Z</time>
      </trkpt>
      <trkpt lat="45.70211" lon="6.24063">
        <ele>1238.1999511719</ele>
        <time>2012-06-09T10:09:00Z</time>
      </trkpt>
      <trkpt lat="45.70207" lon="6.24067">
        <ele>1236.8000488281</ele>
        <time>2012-06-09T10:09:03Z</time>
      </trkpt>
      <trkpt lat="45.70195" lon="6.24077">
        <ele>1235.5999755859</ele>
        <time>2012-06-09T10:09:09Z</time>
      </trkpt>
      <trkpt lat="45.70193" lon="6.2408">
        <ele>1234.5999755859</ele>
        <time>2012-06-09T10:09:10Z</time>
      </trkpt>
      <trkpt lat="45.7018" lon="6.24101">
        <ele>1231.1999511719</ele>
        <time>2012-06-09T10:09:18Z</time>
      </trkpt>
      <trkpt lat="45.70186" lon="6.24099">
        <ele>1230.1999511719</ele>
        <time>2012-06-09T10:09:22Z</time>
      </trkpt>
      <trkpt lat="45.70196" lon="6.24097">
        <ele>1228.8000488281</ele>
        <time>2012-06-09T10:09:27Z</time>
      </trkpt>
      <trkpt lat="45.70212" lon="6.2409">
        <ele>1224.1999511719</ele>
        <time>2012-06-09T10:09:35Z</time>
      </trkpt>
      <trkpt lat="45.70218" lon="6.24091">
        <ele>1223.1999511719</ele>
        <time>2012-06-09T10:09:38Z</time>
      </trkpt>
      <trkpt lat="45.70227" lon="6.24088">
        <ele>1221</ele>
        <time>2012-06-09T10:09:42Z</time>
      </trkpt>
      <trkpt lat="45.70228" lon="6.24089">
        <ele>1221</ele>
        <time>2012-06-09T10:09:43Z</time>
      </trkpt>
      <trkpt lat="45.70243" lon="6.24089">
        <ele>1220</ele>
        <time>2012-06-09T10:09:49Z</time>
      </trkpt>
      <trkpt lat="45.70251" lon="6.24089">
        <ele>1218.8000488281</ele>
        <time>2012-06-09T10:09:53Z</time>
      </trkpt>
      <trkpt lat="45.70258" lon="6.24093">
        <ele>1216.5999755859</ele>
        <time>2012-06-09T10:09:57Z</time>
      </trkpt>
      <trkpt lat="45.70261" lon="6.24093">
        <ele>1214.1999511719</ele>
        <time>2012-06-09T10:09:59Z</time>
      </trkpt>
      <trkpt lat="45.70273" lon="6.24098">
        <ele>1213.1999511719</ele>
        <time>2012-06-09T10:10:03Z</time>
      </trkpt>
      <trkpt lat="45.70304" lon="6.24104">
        <ele>1210.8000488281</ele>
        <time>2012-06-09T10:10:13Z</time>
      </trkpt>
      <trkpt lat="45.70306" lon="6.24106">
        <ele>1209.5999755859</ele>
        <time>2012-06-09T10:10:14Z</time>
      </trkpt>
      <trkpt lat="45.70316" lon="6.24109">
        <ele>1208.5999755859</ele>
        <time>2012-06-09T10:10:21Z</time>
      </trkpt>
      <trkpt lat="45.7032" lon="6.24113">
        <ele>1208.5999755859</ele>
        <time>2012-06-09T10:10:27Z</time>
      </trkpt>
      <trkpt lat="45.70321" lon="6.24111">
        <ele>1208.5999755859</ele>
        <time>2012-06-09T10:10:47Z</time>
      </trkpt>
      <trkpt lat="45.70326" lon="6.24109">
        <ele>1208.5999755859</ele>
        <time>2012-06-09T10:10:53Z</time>
      </trkpt>
      <trkpt lat="45.70343" lon="6.24104">
        <ele>1208.5999755859</ele>
        <time>2012-06-09T10:11:06Z</time>
      </trkpt>
      <trkpt lat="45.70354" lon="6.241">
        <ele>1208.5999755859</ele>
        <time>2012-06-09T10:11:15Z</time>
      </trkpt>
      <trkpt lat="45.70356" lon="6.241">
        <ele>1208.5999755859</ele>
        <time>2012-06-09T10:11:19Z</time>
      </trkpt>
      <trkpt lat="45.70372" lon="6.24097">
        <ele>1208.5999755859</ele>
        <time>2012-06-09T10:11:32Z</time>
      </trkpt>
      <trkpt lat="45.7038" lon="6.24096">
        <ele>1211.5999755859</ele>
        <time>2012-06-09T10:11:37Z</time>
      </trkpt>
      <trkpt lat="45.70392" lon="6.24098">
        <ele>1212.5999755859</ele>
        <time>2012-06-09T10:11:47Z</time>
      </trkpt>
      <trkpt lat="45.70395" lon="6.24098">
        <ele>1212.5999755859</ele>
        <time>2012-06-09T10:11:49Z</time>
      </trkpt>
      <trkpt lat="45.70405" lon="6.24101">
        <ele>1212.5999755859</ele>
        <time>2012-06-09T10:11:58Z</time>
      </trkpt>
      <trkpt lat="45.70409" lon="6.24103">
        <ele>1213.8000488281</ele>
        <time>2012-06-09T10:12:04Z</time>
      </trkpt>
      <trkpt lat="45.70424" lon="6.241">
        <ele>1214.8000488281</ele>
        <time>2012-06-09T10:12:21Z</time>
      </trkpt>
      <trkpt lat="45.70427" lon="6.24099">
        <ele>1214.8000488281</ele>
        <time>2012-06-09T10:12:23Z</time>
      </trkpt>
      <trkpt lat="45.70434" lon="6.24092">
        <ele>1217</ele>
        <time>2012-06-09T10:12:32Z</time>
      </trkpt>
      <trkpt lat="45.70448" lon="6.24098">
        <ele>1220.1999511719</ele>
        <time>2012-06-09T10:12:47Z</time>
      </trkpt>
      <trkpt lat="45.70453" lon="6.24097">
        <ele>1220.1999511719</ele>
        <time>2012-06-09T10:12:50Z</time>
      </trkpt>
      <trkpt lat="45.70462" lon="6.24095">
        <ele>1222.4000244141</ele>
        <time>2012-06-09T10:12:59Z</time>
      </trkpt>
      <trkpt lat="45.70467" lon="6.24091">
        <ele>1223.4000244141</ele>
        <time>2012-06-09T10:13:06Z</time>
      </trkpt>
      <trkpt lat="45.70474" lon="6.24094">
        <ele>1224.5999755859</ele>
        <time>2012-06-09T10:13:12Z</time>
      </trkpt>
      <trkpt lat="45.70477" lon="6.24093">
        <ele>1225.5999755859</ele>
        <time>2012-06-09T10:13:16Z</time>
      </trkpt>
      <trkpt lat="45.70485" lon="6.24089">
        <ele>1226.5999755859</ele>
        <time>2012-06-09T10:13:23Z</time>
      </trkpt>
      <trkpt lat="45.70491" lon="6.24088">
        <ele>1227.5999755859</ele>
        <time>2012-06-09T10:13:27Z</time>
      </trkpt>
      <trkpt lat="45.70504" lon="6.24088">
        <ele>1228.5999755859</ele>
        <time>2012-06-09T10:13:37Z</time>
      </trkpt>
      <trkpt lat="45.70519" lon="6.24086">
        <ele>1230.8000488281</ele>
        <time>2012-06-09T10:13:48Z</time>
      </trkpt>
      <trkpt lat="45.70525" lon="6.24083">
        <ele>1231.8000488281</ele>
        <time>2012-06-09T10:13:53Z</time>
      </trkpt>
      <trkpt lat="45.70538" lon="6.24084">
        <ele>1232.8000488281</ele>
        <time>2012-06-09T10:14:04Z</time>
      </trkpt>
      <trkpt lat="45.70538" lon="6.24085">
        <ele>1234</ele>
        <time>2012-06-09T10:14:06Z</time>
      </trkpt>
      <trkpt lat="45.7055" lon="6.24083">
        <ele>1235</ele>
        <time>2012-06-09T10:14:15Z</time>
      </trkpt>
      <trkpt lat="45.70556" lon="6.24081">
        <ele>1236</ele>
        <time>2012-06-09T10:14:21Z</time>
      </trkpt>
      <trkpt lat="45.70565" lon="6.2408">
        <ele>1238.1999511719</ele>
        <time>2012-06-09T10:14:30Z</time>
      </trkpt>
      <trkpt lat="45.70567" lon="6.24076">
        <ele>1238.1999511719</ele>
        <time>2012-06-09T10:14:34Z</time>
      </trkpt>
      <trkpt lat="45.70576" lon="6.24067">
        <ele>1240.1999511719</ele>
        <time>2012-06-09T10:14:43Z</time>
      </trkpt>
      <trkpt lat="45.70591" lon="6.24073">
        <ele>1242.4000244141</ele>
        <time>2012-06-09T10:14:56Z</time>
      </trkpt>
      <trkpt lat="45.70594" lon="6.24075">
        <ele>1243.4000244141</ele>
        <time>2012-06-09T10:14:59Z</time>
      </trkpt>
      <trkpt lat="45.70602" lon="6.24082">
        <ele>1245.5999755859</ele>
        <time>2012-06-09T10:15:11Z</time>
      </trkpt>
      <trkpt lat="45.70613" lon="6.24086">
        <ele>1247.5999755859</ele>
        <time>2012-06-09T10:15:21Z</time>
      </trkpt>
      <trkpt lat="45.70619" lon="6.2409">
        <ele>1248.8000488281</ele>
        <time>2012-06-09T10:15:29Z</time>
      </trkpt>
      <trkpt lat="45.70626" lon="6.24091">
        <ele>1250</ele>
        <time>2012-06-09T10:15:34Z</time>
      </trkpt>
      <trkpt lat="45.70639" lon="6.24092">
        <ele>1251</ele>
        <time>2012-06-09T10:15:44Z</time>
      </trkpt>
      <trkpt lat="45.70642" lon="6.24094">
        <ele>1251</ele>
        <time>2012-06-09T10:15:48Z</time>
      </trkpt>
      <trkpt lat="45.70649" lon="6.24092">
        <ele>1252</ele>
        <time>2012-06-09T10:15:57Z</time>
      </trkpt>
      <trkpt lat="45.70657" lon="6.24088">
        <ele>1254.1999511719</ele>
        <time>2012-06-09T10:16:08Z</time>
      </trkpt>
      <trkpt lat="45.70661" lon="6.24084">
        <ele>1255.1999511719</ele>
        <time>2012-06-09T10:16:13Z</time>
      </trkpt>
      <trkpt lat="45.70673" lon="6.24074">
        <ele>1256.1999511719</ele>
        <time>2012-06-09T10:16:22Z</time>
      </trkpt>
      <trkpt lat="45.70676" lon="6.24072">
        <ele>1257.1999511719</ele>
        <time>2012-06-09T10:16:24Z</time>
      </trkpt>
      <trkpt lat="45.70691" lon="6.24071">
        <ele>1258.1999511719</ele>
        <time>2012-06-09T10:16:32Z</time>
      </trkpt>
      <trkpt lat="45.70699" lon="6.24071">
        <ele>1259.4000244141</ele>
        <time>2012-06-09T10:16:39Z</time>
      </trkpt>
      <trkpt lat="45.7071" lon="6.24073">
        <ele>1261.4000244141</ele>
        <time>2012-06-09T10:16:48Z</time>
      </trkpt>
      <trkpt lat="45.70712" lon="6.24072">
        <ele>1261.4000244141</ele>
        <time>2012-06-09T10:16:50Z</time>
      </trkpt>
      <trkpt lat="45.70721" lon="6.24074">
        <ele>1263.8000488281</ele>
        <time>2012-06-09T10:16:59Z</time>
      </trkpt>
      <trkpt lat="45.70733" lon="6.24074">
        <ele>1264.8000488281</ele>
        <time>2012-06-09T10:17:12Z</time>
      </trkpt>
      <trkpt lat="45.70739" lon="6.24073">
        <ele>1264.8000488281</ele>
        <time>2012-06-09T10:17:15Z</time>
      </trkpt>
      <trkpt lat="45.70746" lon="6.24073">
        <ele>1265.8000488281</ele>
        <time>2012-06-09T10:17:22Z</time>
      </trkpt>
      <trkpt lat="45.70752" lon="6.24071">
        <ele>1266.8000488281</ele>
        <time>2012-06-09T10:17:27Z</time>
      </trkpt>
      <trkpt lat="45.70756" lon="6.24072">
        <ele>1267.8000488281</ele>
        <time>2012-06-09T10:17:32Z</time>
      </trkpt>
      <trkpt lat="45.70757" lon="6.24071">
        <ele>1269</ele>
        <time>2012-06-09T10:17:34Z</time>
      </trkpt>
      <trkpt lat="45.70764" lon="6.24067">
        <ele>1269</ele>
        <time>2012-06-09T10:17:40Z</time>
      </trkpt>
      <trkpt lat="45.70766" lon="6.24067">
        <ele>1270</ele>
        <time>2012-06-09T10:17:45Z</time>
      </trkpt>
      <trkpt lat="45.70773" lon="6.24069">
        <ele>1272</ele>
        <time>2012-06-09T10:17:51Z</time>
      </trkpt>
      <trkpt lat="45.7078" lon="6.24071">
        <ele>1274.1999511719</ele>
        <time>2012-06-09T10:18:00Z</time>
      </trkpt>
      <trkpt lat="45.7079" lon="6.24077">
        <ele>1274.1999511719</ele>
        <time>2012-06-09T10:18:08Z</time>
      </trkpt>
      <trkpt lat="45.70799" lon="6.24076">
        <ele>1275.4000244141</ele>
        <time>2012-06-09T10:18:15Z</time>
      </trkpt>
      <trkpt lat="45.708" lon="6.24075">
        <ele>1276.4000244141</ele>
        <time>2012-06-09T10:18:17Z</time>
      </trkpt>
      <trkpt lat="45.70805" lon="6.24078">
        <ele>1276.4000244141</ele>
        <time>2012-06-09T10:18:23Z</time>
      </trkpt>
      <trkpt lat="45.70812" lon="6.24081">
        <ele>1277.4000244141</ele>
        <time>2012-06-09T10:18:28Z</time>
      </trkpt>
      <trkpt lat="45.70816" lon="6.24083">
        <ele>1278.4000244141</ele>
        <time>2012-06-09T10:18:34Z</time>
      </trkpt>
      <trkpt lat="45.70818" lon="6.24083">
        <ele>1279.4000244141</ele>
        <time>2012-06-09T10:18:35Z</time>
      </trkpt>
      <trkpt lat="45.70825" lon="6.24085">
        <ele>1280.5999755859</ele>
        <time>2012-06-09T10:18:43Z</time>
      </trkpt>
      <trkpt lat="45.70838" lon="6.24085">
        <ele>1282.5999755859</ele>
        <time>2012-06-09T10:18:56Z</time>
      </trkpt>
      <trkpt lat="45.70841" lon="6.24086">
        <ele>1282.5999755859</ele>
        <time>2012-06-09T10:18:58Z</time>
      </trkpt>
      <trkpt lat="45.70849" lon="6.24085">
        <ele>1284.8000488281</ele>
        <time>2012-06-09T10:19:08Z</time>
      </trkpt>
      <trkpt lat="45.70854" lon="6.24085">
        <ele>1284.8000488281</ele>
        <time>2012-06-09T10:19:16Z</time>
      </trkpt>
      <trkpt lat="45.7086" lon="6.24087">
        <ele>1286.8000488281</ele>
        <time>2012-06-09T10:19:23Z</time>
      </trkpt>
      <trkpt lat="45.70865" lon="6.24089">
        <ele>1286.8000488281</ele>
        <time>2012-06-09T10:19:27Z</time>
      </trkpt>
      <trkpt lat="45.70878" lon="6.24088">
        <ele>1288.8000488281</ele>
        <time>2012-06-09T10:19:37Z</time>
      </trkpt>
      <trkpt lat="45.70882" lon="6.2409">
        <ele>1289.8000488281</ele>
        <time>2012-06-09T10:19:42Z</time>
      </trkpt>
      <trkpt lat="45.70894" lon="6.24095">
        <ele>1292</ele>
        <time>2012-06-09T10:19:55Z</time>
      </trkpt>
      <trkpt lat="45.70909" lon="6.24095">
        <ele>1294</ele>
        <time>2012-06-09T10:20:05Z</time>
      </trkpt>
      <trkpt lat="45.70911" lon="6.24093">
        <ele>1294</ele>
        <time>2012-06-09T10:20:08Z</time>
      </trkpt>
      <trkpt lat="45.70926" lon="6.24095">
        <ele>1296.1999511719</ele>
        <time>2012-06-09T10:20:20Z</time>
      </trkpt>
      <trkpt lat="45.70931" lon="6.24093">
        <ele>1296.1999511719</ele>
        <time>2012-06-09T10:20:25Z</time>
      </trkpt>
      <trkpt lat="45.70942" lon="6.24104">
        <ele>1297.4000244141</ele>
        <time>2012-06-09T10:20:35Z</time>
      </trkpt>
      <trkpt lat="45.70945" lon="6.24111">
        <ele>1298.4000244141</ele>
        <time>2012-06-09T10:20:40Z</time>
      </trkpt>
      <trkpt lat="45.70953" lon="6.2412">
        <ele>1300.4000244141</ele>
        <time>2012-06-09T10:20:49Z</time>
      </trkpt>
      <trkpt lat="45.70954" lon="6.2412">
        <ele>1300.4000244141</ele>
        <time>2012-06-09T10:20:50Z</time>
      </trkpt>
      <trkpt lat="45.70961" lon="6.24123">
        <ele>1301.4000244141</ele>
        <time>2012-06-09T10:20:57Z</time>
      </trkpt>
      <trkpt lat="45.70978" lon="6.24138">
        <ele>1302.4000244141</ele>
        <time>2012-06-09T10:21:12Z</time>
      </trkpt>
      <trkpt lat="45.70983" lon="6.24143">
        <ele>1299.1999511719</ele>
        <time>2012-06-09T10:21:15Z</time>
      </trkpt>
      <trkpt lat="45.70989" lon="6.2415">
        <ele>1297</ele>
        <time>2012-06-09T10:21:19Z</time>
      </trkpt>
      <trkpt lat="45.70993" lon="6.24154">
        <ele>1296</ele>
        <time>2012-06-09T10:21:21Z</time>
      </trkpt>
      <trkpt lat="45.71" lon="6.24162">
        <ele>1293.5999755859</ele>
        <time>2012-06-09T10:21:25Z</time>
      </trkpt>
      <trkpt lat="45.71002" lon="6.24163">
        <ele>1292.5999755859</ele>
        <time>2012-06-09T10:21:26Z</time>
      </trkpt>
      <trkpt lat="45.7101" lon="6.24163">
        <ele>1291.5999755859</ele>
        <time>2012-06-09T10:21:32Z</time>
      </trkpt>
      <trkpt lat="45.71019" lon="6.24164">
        <ele>1291.5999755859</ele>
        <time>2012-06-09T10:21:40Z</time>
      </trkpt>
      <trkpt lat="45.71022" lon="6.24168">
        <ele>1291.5999755859</ele>
        <time>2012-06-09T10:21:46Z</time>
      </trkpt>
      <trkpt lat="45.71024" lon="6.24185">
        <ele>1289.1999511719</ele>
        <time>2012-06-09T10:21:57Z</time>
      </trkpt>
      <trkpt lat="45.71029" lon="6.2419">
        <ele>1289.1999511719</ele>
        <time>2012-06-09T10:22:04Z</time>
      </trkpt>
      <trkpt lat="45.71031" lon="6.24208">
        <ele>1289.1999511719</ele>
        <time>2012-06-09T10:22:11Z</time>
      </trkpt>
      <trkpt lat="45.71032" lon="6.24209">
        <ele>1289.1999511719</ele>
        <time>2012-06-09T10:22:13Z</time>
      </trkpt>
      <trkpt lat="45.71031" lon="6.24222">
        <ele>1289.1999511719</ele>
        <time>2012-06-09T10:22:22Z</time>
      </trkpt>
      <trkpt lat="45.71035" lon="6.24226">
        <ele>1292.1999511719</ele>
        <time>2012-06-09T10:22:28Z</time>
      </trkpt>
      <trkpt lat="45.71041" lon="6.24224">
        <ele>1294.1999511719</ele>
        <time>2012-06-09T10:22:39Z</time>
      </trkpt>
      <trkpt lat="45.71041" lon="6.24222">
        <ele>1295.4000244141</ele>
        <time>2012-06-09T10:22:41Z</time>
      </trkpt>
      <trkpt lat="45.71046" lon="6.24219">
        <ele>1296.4000244141</ele>
        <time>2012-06-09T10:22:51Z</time>
      </trkpt>
      <trkpt lat="45.71053" lon="6.24219">
        <ele>1299.5999755859</ele>
        <time>2012-06-09T10:23:07Z</time>
      </trkpt>
      <trkpt lat="45.71053" lon="6.24218">
        <ele>1300.5999755859</ele>
        <time>2012-06-09T10:23:08Z</time>
      </trkpt>
      <trkpt lat="45.71061" lon="6.24221">
        <ele>1303.8000488281</ele>
        <time>2012-06-09T10:23:25Z</time>
      </trkpt>
      <trkpt lat="45.71064" lon="6.24221">
        <ele>1305</ele>
        <time>2012-06-09T10:23:32Z</time>
      </trkpt>
      <trkpt lat="45.71072" lon="6.24224">
        <ele>1306</ele>
        <time>2012-06-09T10:23:41Z</time>
      </trkpt>
      <trkpt lat="45.71073" lon="6.24224">
        <ele>1307</ele>
        <time>2012-06-09T10:23:42Z</time>
      </trkpt>
      <trkpt lat="45.71079" lon="6.24226">
        <ele>1308.1999511719</ele>
        <time>2012-06-09T10:23:52Z</time>
      </trkpt>
      <trkpt lat="45.71083" lon="6.24225">
        <ele>1310.4000244141</ele>
        <time>2012-06-09T10:23:58Z</time>
      </trkpt>
      <trkpt lat="45.71096" lon="6.2423">
        <ele>1311.4000244141</ele>
        <time>2012-06-09T10:24:10Z</time>
      </trkpt>
      <trkpt lat="45.71102" lon="6.24243">
        <ele>1312.5999755859</ele>
        <time>2012-06-09T10:24:22Z</time>
      </trkpt>
      <trkpt lat="45.71107" lon="6.24253">
        <ele>1312.5999755859</ele>
        <time>2012-06-09T10:24:28Z</time>
      </trkpt>
      <trkpt lat="45.7111" lon="6.24257">
        <ele>1314.5999755859</ele>
        <time>2012-06-09T10:24:35Z</time>
      </trkpt>
      <trkpt lat="45.71111" lon="6.24259">
        <ele>1314.5999755859</ele>
        <time>2012-06-09T10:24:37Z</time>
      </trkpt>
      <trkpt lat="45.71116" lon="6.24263">
        <ele>1316.5999755859</ele>
        <time>2012-06-09T10:24:43Z</time>
      </trkpt>
      <trkpt lat="45.71117" lon="6.24267">
        <ele>1317.8000488281</ele>
        <time>2012-06-09T10:24:49Z</time>
      </trkpt>
      <trkpt lat="45.71118" lon="6.24274">
        <ele>1319.8000488281</ele>
        <time>2012-06-09T10:25:00Z</time>
      </trkpt>
      <trkpt lat="45.71118" lon="6.24276">
        <ele>1320.8000488281</ele>
        <time>2012-06-09T10:25:04Z</time>
      </trkpt>
      <trkpt lat="45.71116" lon="6.24282">
        <ele>1323</ele>
        <time>2012-06-09T10:25:14Z</time>
      </trkpt>
      <trkpt lat="45.71118" lon="6.24296">
        <ele>1327</ele>
        <time>2012-06-09T10:25:32Z</time>
      </trkpt>
      <trkpt lat="45.71118" lon="6.24297">
        <ele>1328</ele>
        <time>2012-06-09T10:25:34Z</time>
      </trkpt>
      <trkpt lat="45.71118" lon="6.24302">
        <ele>1329.1999511719</ele>
        <time>2012-06-09T10:25:42Z</time>
      </trkpt>
      <trkpt lat="45.71117" lon="6.24305">
        <ele>1331.1999511719</ele>
        <time>2012-06-09T10:25:47Z</time>
      </trkpt>
      <trkpt lat="45.71115" lon="6.24312">
        <ele>1332.1999511719</ele>
        <time>2012-06-09T10:25:56Z</time>
      </trkpt>
      <trkpt lat="45.71115" lon="6.24314">
        <ele>1333.4000244141</ele>
        <time>2012-06-09T10:25:58Z</time>
      </trkpt>
      <trkpt lat="45.71113" lon="6.24322">
        <ele>1334.5999755859</ele>
        <time>2012-06-09T10:26:09Z</time>
      </trkpt>
      <trkpt lat="45.71113" lon="6.24327">
        <ele>1336.5999755859</ele>
        <time>2012-06-09T10:26:15Z</time>
      </trkpt>
      <trkpt lat="45.71111" lon="6.24336">
        <ele>1337.5999755859</ele>
        <time>2012-06-09T10:26:25Z</time>
      </trkpt>
      <trkpt lat="45.71115" lon="6.24346">
        <ele>1340.8000488281</ele>
        <time>2012-06-09T10:26:39Z</time>
      </trkpt>
      <trkpt lat="45.71119" lon="6.24348">
        <ele>1341.8000488281</ele>
        <time>2012-06-09T10:26:44Z</time>
      </trkpt>
      <trkpt lat="45.71121" lon="6.24349">
        <ele>1344</ele>
        <time>2012-06-09T10:26:51Z</time>
      </trkpt>
      <trkpt lat="45.71123" lon="6.2435">
        <ele>1345.1999511719</ele>
        <time>2012-06-09T10:26:55Z</time>
      </trkpt>
      <trkpt lat="45.71127" lon="6.24353">
        <ele>1346.1999511719</ele>
        <time>2012-06-09T10:27:02Z</time>
      </trkpt>
      <trkpt lat="45.71129" lon="6.24355">
        <ele>1347.4000244141</ele>
        <time>2012-06-09T10:27:07Z</time>
      </trkpt>
      <trkpt lat="45.71131" lon="6.2435">
        <ele>1349.4000244141</ele>
        <time>2012-06-09T10:27:18Z</time>
      </trkpt>
      <trkpt lat="45.71132" lon="6.24349">
        <ele>1350.4000244141</ele>
        <time>2012-06-09T10:27:19Z</time>
      </trkpt>
      <trkpt lat="45.71136" lon="6.24347">
        <ele>1352.5999755859</ele>
        <time>2012-06-09T10:27:31Z</time>
      </trkpt>
      <trkpt lat="45.7114" lon="6.24354">
        <ele>1356</ele>
        <time>2012-06-09T10:27:46Z</time>
      </trkpt>
      <trkpt lat="45.71139" lon="6.24357">
        <ele>1356</ele>
        <time>2012-06-09T10:27:49Z</time>
      </trkpt>
      <trkpt lat="45.71142" lon="6.24359">
        <ele>1358.1999511719</ele>
        <time>2012-06-09T10:27:58Z</time>
      </trkpt>
      <trkpt lat="45.71142" lon="6.24356">
        <ele>1359.4000244141</ele>
        <time>2012-06-09T10:28:04Z</time>
      </trkpt>
      <trkpt lat="45.71143" lon="6.24351">
        <ele>1361.5999755859</ele>
        <time>2012-06-09T10:28:11Z</time>
      </trkpt>
      <trkpt lat="45.71143" lon="6.24346">
        <ele>1361.5999755859</ele>
        <time>2012-06-09T10:28:16Z</time>
      </trkpt>
      <trkpt lat="45.71148" lon="6.24344">
        <ele>1363.5999755859</ele>
        <time>2012-06-09T10:28:22Z</time>
      </trkpt>
      <trkpt lat="45.71155" lon="6.24341">
        <ele>1363.5999755859</ele>
        <time>2012-06-09T10:28:31Z</time>
      </trkpt>
      <trkpt lat="45.71164" lon="6.24337">
        <ele>1366.5999755859</ele>
        <time>2012-06-09T10:28:44Z</time>
      </trkpt>
      <trkpt lat="45.71174" lon="6.24333">
        <ele>1368.8000488281</ele>
        <time>2012-06-09T10:28:56Z</time>
      </trkpt>
      <trkpt lat="45.71179" lon="6.24329">
        <ele>1371</ele>
        <time>2012-06-09T10:29:05Z</time>
      </trkpt>
      <trkpt lat="45.71185" lon="6.24324">
        <ele>1372</ele>
        <time>2012-06-09T10:29:13Z</time>
      </trkpt>
      <trkpt lat="45.71187" lon="6.24323">
        <ele>1373.1999511719</ele>
        <time>2012-06-09T10:29:15Z</time>
      </trkpt>
      <trkpt lat="45.71194" lon="6.24317">
        <ele>1374.1999511719</ele>
        <time>2012-06-09T10:29:26Z</time>
      </trkpt>
      <trkpt lat="45.71197" lon="6.24315">
        <ele>1375.1999511719</ele>
        <time>2012-06-09T10:29:31Z</time>
      </trkpt>
      <trkpt lat="45.71199" lon="6.24313">
        <ele>1377.1999511719</ele>
        <time>2012-06-09T10:29:37Z</time>
      </trkpt>
      <trkpt lat="45.71201" lon="6.24312">
        <ele>1377.1999511719</ele>
        <time>2012-06-09T10:29:41Z</time>
      </trkpt>
      <trkpt lat="45.71208" lon="6.24305">
        <ele>1379.1999511719</ele>
        <time>2012-06-09T10:29:51Z</time>
      </trkpt>
      <trkpt lat="45.71212" lon="6.24298">
        <ele>1381.4000244141</ele>
        <time>2012-06-09T10:30:04Z</time>
      </trkpt>
      <trkpt lat="45.71213" lon="6.24297">
        <ele>1382.5999755859</ele>
        <time>2012-06-09T10:30:08Z</time>
      </trkpt>
      <trkpt lat="45.71214" lon="6.24294">
        <ele>1383.5999755859</ele>
        <time>2012-06-09T10:30:14Z</time>
      </trkpt>
      <trkpt lat="45.71215" lon="6.2429">
        <ele>1384.5999755859</ele>
        <time>2012-06-09T10:30:19Z</time>
      </trkpt>
      <trkpt lat="45.71215" lon="6.24285">
        <ele>1386.5999755859</ele>
        <time>2012-06-09T10:30:27Z</time>
      </trkpt>
      <trkpt lat="45.71215" lon="6.24285">
        <ele>1386.5999755859</ele>
        <time>2012-06-09T10:30:28Z</time>
      </trkpt>
      <trkpt lat="45.71223" lon="6.24284">
        <ele>1388.8000488281</ele>
        <time>2012-06-09T10:30:38Z</time>
      </trkpt>
      <trkpt lat="45.71229" lon="6.24282">
        <ele>1391</ele>
        <time>2012-06-09T10:30:48Z</time>
      </trkpt>
      <trkpt lat="45.71237" lon="6.24276">
        <ele>1392</ele>
        <time>2012-06-09T10:30:59Z</time>
      </trkpt>
      <trkpt lat="45.71243" lon="6.24266">
        <ele>1394</ele>
        <time>2012-06-09T10:31:12Z</time>
      </trkpt>
      <trkpt lat="45.71247" lon="6.24259">
        <ele>1395</ele>
        <time>2012-06-09T10:31:20Z</time>
      </trkpt>
      <trkpt lat="45.7125" lon="6.24261">
        <ele>1397.1999511719</ele>
        <time>2012-06-09T10:31:32Z</time>
      </trkpt>
      <trkpt lat="45.7125" lon="6.24262">
        <ele>1398.1999511719</ele>
        <time>2012-06-09T10:31:35Z</time>
      </trkpt>
      <trkpt lat="45.71251" lon="6.24269">
        <ele>1399.1999511719</ele>
        <time>2012-06-09T10:31:46Z</time>
      </trkpt>
      <trkpt lat="45.71254" lon="6.24272">
        <ele>1400.4000244141</ele>
        <time>2012-06-09T10:31:51Z</time>
      </trkpt>
      <trkpt lat="45.71258" lon="6.24277">
        <ele>1403.4000244141</ele>
        <time>2012-06-09T10:32:03Z</time>
      </trkpt>
      <trkpt lat="45.71258" lon="6.24278">
        <ele>1403.4000244141</ele>
        <time>2012-06-09T10:32:05Z</time>
      </trkpt>
      <trkpt lat="45.71258" lon="6.24284">
        <ele>1405.4000244141</ele>
        <time>2012-06-09T10:32:14Z</time>
      </trkpt>
      <trkpt lat="45.71264" lon="6.24302">
        <ele>1408.8000488281</ele>
        <time>2012-06-09T10:32:30Z</time>
      </trkpt>
      <trkpt lat="45.71265" lon="6.24305">
        <ele>1408.8000488281</ele>
        <time>2012-06-09T10:32:33Z</time>
      </trkpt>
      <trkpt lat="45.71261" lon="6.24318">
        <ele>1409.8000488281</ele>
        <time>2012-06-09T10:32:46Z</time>
      </trkpt>
      <trkpt lat="45.71261" lon="6.24322">
        <ele>1410.8000488281</ele>
        <time>2012-06-09T10:32:50Z</time>
      </trkpt>
      <trkpt lat="45.71258" lon="6.2433">
        <ele>1413</ele>
        <time>2012-06-09T10:32:58Z</time>
      </trkpt>
      <trkpt lat="45.71257" lon="6.24336">
        <ele>1413</ele>
        <time>2012-06-09T10:33:03Z</time>
      </trkpt>
      <trkpt lat="45.71255" lon="6.24344">
        <ele>1415.1999511719</ele>
        <time>2012-06-09T10:33:10Z</time>
      </trkpt>
      <trkpt lat="45.71255" lon="6.24354">
        <ele>1416.1999511719</ele>
        <time>2012-06-09T10:33:17Z</time>
      </trkpt>
      <trkpt lat="45.71257" lon="6.24355">
        <ele>1417.4000244141</ele>
        <time>2012-06-09T10:33:26Z</time>
      </trkpt>
      <trkpt lat="45.71263" lon="6.24355">
        <ele>1420.4000244141</ele>
        <time>2012-06-09T10:33:36Z</time>
      </trkpt>
      <trkpt lat="45.71266" lon="6.24356">
        <ele>1421.5999755859</ele>
        <time>2012-06-09T10:33:41Z</time>
      </trkpt>
      <trkpt lat="45.71266" lon="6.24363">
        <ele>1423.8000488281</ele>
        <time>2012-06-09T10:33:49Z</time>
      </trkpt>
      <trkpt lat="45.71267" lon="6.24367">
        <ele>1423.8000488281</ele>
        <time>2012-06-09T10:33:52Z</time>
      </trkpt>
      <trkpt lat="45.71278" lon="6.24382">
        <ele>1426</ele>
        <time>2012-06-09T10:34:06Z</time>
      </trkpt>
      <trkpt lat="45.71283" lon="6.24388">
        <ele>1426</ele>
        <time>2012-06-09T10:34:12Z</time>
      </trkpt>
      <trkpt lat="45.71299" lon="6.24402">
        <ele>1426</ele>
        <time>2012-06-09T10:34:30Z</time>
      </trkpt>
      <trkpt lat="45.713" lon="6.24403">
        <ele>1426</ele>
        <time>2012-06-09T10:34:31Z</time>
      </trkpt>
      <trkpt lat="45.7132" lon="6.24428">
        <ele>1426</ele>
        <time>2012-06-09T10:34:45Z</time>
      </trkpt>
      <trkpt lat="45.71345" lon="6.24467">
        <ele>1421.8000488281</ele>
        <time>2012-06-09T10:35:04Z</time>
      </trkpt>
      <trkpt lat="45.71346" lon="6.24468">
        <ele>1421.8000488281</ele>
        <time>2012-06-09T10:35:05Z</time>
      </trkpt>
      <trkpt lat="45.71361" lon="6.24488">
        <ele>1421.8000488281</ele>
        <time>2012-06-09T10:35:16Z</time>
      </trkpt>
      <trkpt lat="45.71367" lon="6.24498">
        <ele>1420.5999755859</ele>
        <time>2012-06-09T10:35:20Z</time>
      </trkpt>
      <trkpt lat="45.71388" lon="6.24512">
        <ele>1420.5999755859</ele>
        <time>2012-06-09T10:35:31Z</time>
      </trkpt>
      <trkpt lat="45.714" lon="6.24515">
        <ele>1420.5999755859</ele>
        <time>2012-06-09T10:35:37Z</time>
      </trkpt>
      <trkpt lat="45.71421" lon="6.24521">
        <ele>1420.5999755859</ele>
        <time>2012-06-09T10:35:46Z</time>
      </trkpt>
      <trkpt lat="45.71434" lon="6.2451">
        <ele>1418.4000244141</ele>
        <time>2012-06-09T10:35:52Z</time>
      </trkpt>
      <trkpt lat="45.71444" lon="6.24507">
        <ele>1418.4000244141</ele>
        <time>2012-06-09T10:35:57Z</time>
      </trkpt>
      <trkpt lat="45.7147" lon="6.24509">
        <ele>1418.4000244141</ele>
        <time>2012-06-09T10:36:10Z</time>
      </trkpt>
      <trkpt lat="45.71476" lon="6.24516">
        <ele>1418.4000244141</ele>
        <time>2012-06-09T10:36:15Z</time>
      </trkpt>
      <trkpt lat="45.7149" lon="6.24517">
        <ele>1418.4000244141</ele>
        <time>2012-06-09T10:36:23Z</time>
      </trkpt>
      <trkpt lat="45.71495" lon="6.24517">
        <ele>1418.4000244141</ele>
        <time>2012-06-09T10:36:28Z</time>
      </trkpt>
      <trkpt lat="45.71511" lon="6.24523">
        <ele>1418.4000244141</ele>
        <time>2012-06-09T10:36:38Z</time>
      </trkpt>
      <trkpt lat="45.71521" lon="6.2453">
        <ele>1418.4000244141</ele>
        <time>2012-06-09T10:36:45Z</time>
      </trkpt>
      <trkpt lat="45.71526" lon="6.24536">
        <ele>1421.4000244141</ele>
        <time>2012-06-09T10:36:52Z</time>
      </trkpt>
      <trkpt lat="45.71526" lon="6.24539">
        <ele>1422.5999755859</ele>
        <time>2012-06-09T10:36:54Z</time>
      </trkpt>
      <trkpt lat="45.7153" lon="6.24548">
        <ele>1423.5999755859</ele>
        <time>2012-06-09T10:37:02Z</time>
      </trkpt>
      <trkpt lat="45.71542" lon="6.24559">
        <ele>1425.8000488281</ele>
        <time>2012-06-09T10:37:16Z</time>
      </trkpt>
      <trkpt lat="45.71545" lon="6.24559">
        <ele>1425.8000488281</ele>
        <time>2012-06-09T10:37:18Z</time>
      </trkpt>
      <trkpt lat="45.71549" lon="6.24567">
        <ele>1427.8000488281</ele>
        <time>2012-06-09T10:37:25Z</time>
      </trkpt>
      <trkpt lat="45.7155" lon="6.2457">
        <ele>1427.8000488281</ele>
        <time>2012-06-09T10:37:28Z</time>
      </trkpt>
      <trkpt lat="45.71556" lon="6.24574">
        <ele>1428.8000488281</ele>
        <time>2012-06-09T10:37:34Z</time>
      </trkpt>
      <trkpt lat="45.7156" lon="6.24578">
        <ele>1428.8000488281</ele>
        <time>2012-06-09T10:37:39Z</time>
      </trkpt>
      <trkpt lat="45.71566" lon="6.24579">
        <ele>1430.8000488281</ele>
        <time>2012-06-09T10:37:44Z</time>
      </trkpt>
      <trkpt lat="45.71572" lon="6.24577">
        <ele>1431.8000488281</ele>
        <time>2012-06-09T10:37:50Z</time>
      </trkpt>
      <trkpt lat="45.71585" lon="6.24575">
        <ele>1434</ele>
        <time>2012-06-09T10:38:01Z</time>
      </trkpt>
      <trkpt lat="45.71593" lon="6.24576">
        <ele>1436</ele>
        <time>2012-06-09T10:38:11Z</time>
      </trkpt>
      <trkpt lat="45.71596" lon="6.24576">
        <ele>1437</ele>
        <time>2012-06-09T10:38:15Z</time>
      </trkpt>
      <trkpt lat="45.71613" lon="6.2458">
        <ele>1439.1999511719</ele>
        <time>2012-06-09T10:38:27Z</time>
      </trkpt>
      <trkpt lat="45.71618" lon="6.24583">
        <ele>1439.1999511719</ele>
        <time>2012-06-09T10:38:31Z</time>
      </trkpt>
      <trkpt lat="45.7163" lon="6.24591">
        <ele>1441.1999511719</ele>
        <time>2012-06-09T10:38:44Z</time>
      </trkpt>
      <trkpt lat="45.71634" lon="6.24595">
        <ele>1442.1999511719</ele>
        <time>2012-06-09T10:38:50Z</time>
      </trkpt>
      <trkpt lat="45.71638" lon="6.24601">
        <ele>1443.1999511719</ele>
        <time>2012-06-09T10:38:56Z</time>
      </trkpt>
      <trkpt lat="45.71639" lon="6.24602">
        <ele>1444.4000244141</ele>
        <time>2012-06-09T10:38:57Z</time>
      </trkpt>
      <trkpt lat="45.71645" lon="6.24608">
        <ele>1445.4000244141</ele>
        <time>2012-06-09T10:39:03Z</time>
      </trkpt>
      <trkpt lat="45.71652" lon="6.24621">
        <ele>1447.4000244141</ele>
        <time>2012-06-09T10:39:16Z</time>
      </trkpt>
      <trkpt lat="45.71653" lon="6.24622">
        <ele>1447.4000244141</ele>
        <time>2012-06-09T10:39:17Z</time>
      </trkpt>
      <trkpt lat="45.71658" lon="6.24633">
        <ele>1448.5999755859</ele>
        <time>2012-06-09T10:39:27Z</time>
      </trkpt>
      <trkpt lat="45.71666" lon="6.24636">
        <ele>1448.5999755859</ele>
        <time>2012-06-09T10:39:33Z</time>
      </trkpt>
      <trkpt lat="45.71671" lon="6.2464">
        <ele>1449.5999755859</ele>
        <time>2012-06-09T10:39:40Z</time>
      </trkpt>
      <trkpt lat="45.71672" lon="6.24643">
        <ele>1450.5999755859</ele>
        <time>2012-06-09T10:39:43Z</time>
      </trkpt>
      <trkpt lat="45.71683" lon="6.24656">
        <ele>1451.8000488281</ele>
        <time>2012-06-09T10:39:54Z</time>
      </trkpt>
      <trkpt lat="45.71686" lon="6.24664">
        <ele>1451.8000488281</ele>
        <time>2012-06-09T10:39:59Z</time>
      </trkpt>
      <trkpt lat="45.7169" lon="6.24676">
        <ele>1452.8000488281</ele>
        <time>2012-06-09T10:40:08Z</time>
      </trkpt>
      <trkpt lat="45.71701" lon="6.24689">
        <ele>1453.8000488281</ele>
        <time>2012-06-09T10:40:22Z</time>
      </trkpt>
      <trkpt lat="45.71705" lon="6.24693">
        <ele>1455</ele>
        <time>2012-06-09T10:40:26Z</time>
      </trkpt>
      <trkpt lat="45.71708" lon="6.24702">
        <ele>1456</ele>
        <time>2012-06-09T10:40:33Z</time>
      </trkpt>
      <trkpt lat="45.71709" lon="6.24703">
        <ele>1456</ele>
        <time>2012-06-09T10:40:34Z</time>
      </trkpt>
      <trkpt lat="45.71716" lon="6.24715">
        <ele>1458.1999511719</ele>
        <time>2012-06-09T10:40:45Z</time>
      </trkpt>
      <trkpt lat="45.71718" lon="6.24724">
        <ele>1459.4000244141</ele>
        <time>2012-06-09T10:40:52Z</time>
      </trkpt>
      <trkpt lat="45.71723" lon="6.24734">
        <ele>1460.4000244141</ele>
        <time>2012-06-09T10:41:01Z</time>
      </trkpt>
      <trkpt lat="45.71728" lon="6.24741">
        <ele>1461.5999755859</ele>
        <time>2012-06-09T10:41:06Z</time>
      </trkpt>
      <trkpt lat="45.71742" lon="6.24748">
        <ele>1462.5999755859</ele>
        <time>2012-06-09T10:41:16Z</time>
      </trkpt>
      <trkpt lat="45.71768" lon="6.24759">
        <ele>1463.5999755859</ele>
        <time>2012-06-09T10:41:31Z</time>
      </trkpt>
      <trkpt lat="45.71779" lon="6.24763">
        <ele>1463.5999755859</ele>
        <time>2012-06-09T10:41:36Z</time>
      </trkpt>
      <trkpt lat="45.71804" lon="6.24779">
        <ele>1464.8000488281</ele>
        <time>2012-06-09T10:41:47Z</time>
      </trkpt>
      <trkpt lat="45.71826" lon="6.2479">
        <ele>1465.8000488281</ele>
        <time>2012-06-09T10:41:56Z</time>
      </trkpt>
      <trkpt lat="45.71858" lon="6.24812">
        <ele>1465.8000488281</ele>
        <time>2012-06-09T10:42:12Z</time>
      </trkpt>
      <trkpt lat="45.71867" lon="6.24818">
        <ele>1465.8000488281</ele>
        <time>2012-06-09T10:42:18Z</time>
      </trkpt>
      <trkpt lat="45.71888" lon="6.24813">
        <ele>1467</ele>
        <time>2012-06-09T10:42:29Z</time>
      </trkpt>
      <trkpt lat="45.71903" lon="6.24803">
        <ele>1467</ele>
        <time>2012-06-09T10:42:41Z</time>
      </trkpt>
      <trkpt lat="45.7191" lon="6.24802">
        <ele>1467</ele>
        <time>2012-06-09T10:42:52Z</time>
      </trkpt>
      <trkpt lat="45.7191" lon="6.248">
        <ele>1467</ele>
        <time>2012-06-09T10:43:12Z</time>
      </trkpt>
      <trkpt lat="45.71909" lon="6.248">
        <ele>1467</ele>
        <time>2012-06-09T10:43:17Z</time>
      </trkpt>
      <trkpt lat="45.71909" lon="6.24799">
        <ele>1467</ele>
        <time>2012-06-09T10:43:31Z</time>
      </trkpt>
      <trkpt lat="45.71908" lon="6.24799">
        <ele>1467</ele>
        <time>2012-06-09T10:43:37Z</time>
      </trkpt>
      <trkpt lat="45.71906" lon="6.24797">
        <ele>1467</ele>
        <time>2012-06-09T10:44:00Z</time>
      </trkpt>
      <trkpt lat="45.71906" lon="6.24799">
        <ele>1467</ele>
        <time>2012-06-09T10:44:09Z</time>
      </trkpt>
      <trkpt lat="45.71903" lon="6.24815">
        <ele>1467</ele>
        <time>2012-06-09T10:44:18Z</time>
      </trkpt>
      <trkpt lat="45.719" lon="6.24826">
        <ele>1467</ele>
        <time>2012-06-09T10:44:21Z</time>
      </trkpt>
      <trkpt lat="45.71897" lon="6.24849">
        <ele>1467</ele>
        <time>2012-06-09T10:44:29Z</time>
      </trkpt>
      <trkpt lat="45.71908" lon="6.24877">
        <ele>1461.4000244141</ele>
        <time>2012-06-09T10:44:38Z</time>
      </trkpt>
      <trkpt lat="45.71916" lon="6.24887">
        <ele>1460.1999511719</ele>
        <time>2012-06-09T10:44:42Z</time>
      </trkpt>
      <trkpt lat="45.71927" lon="6.24904">
        <ele>1456.4000244141</ele>
        <time>2012-06-09T10:44:48Z</time>
      </trkpt>
      <trkpt lat="45.7193" lon="6.2491">
        <ele>1455</ele>
        <time>2012-06-09T10:44:50Z</time>
      </trkpt>
      <trkpt lat="45.71947" lon="6.24932">
        <ele>1451.8000488281</ele>
        <time>2012-06-09T10:44:59Z</time>
      </trkpt>
      <trkpt lat="45.71951" lon="6.24939">
        <ele>1451.8000488281</ele>
        <time>2012-06-09T10:45:01Z</time>
      </trkpt>
      <trkpt lat="45.71975" lon="6.24984">
        <ele>1449.1999511719</ele>
        <time>2012-06-09T10:45:15Z</time>
      </trkpt>
      <trkpt lat="45.71978" lon="6.2499">
        <ele>1448</ele>
        <time>2012-06-09T10:45:17Z</time>
      </trkpt>
      <trkpt lat="45.71994" lon="6.25014">
        <ele>1445.5999755859</ele>
        <time>2012-06-09T10:45:25Z</time>
      </trkpt>
      <trkpt lat="45.72023" lon="6.25039">
        <ele>1445.5999755859</ele>
        <time>2012-06-09T10:45:41Z</time>
      </trkpt>
      <trkpt lat="45.72035" lon="6.25054">
        <ele>1445.5999755859</ele>
        <time>2012-06-09T10:45:52Z</time>
      </trkpt>
      <trkpt lat="45.72039" lon="6.25062">
        <ele>1449.8000488281</ele>
        <time>2012-06-09T10:45:58Z</time>
      </trkpt>
      <trkpt lat="45.72042" lon="6.25067">
        <ele>1450.8000488281</ele>
        <time>2012-06-09T10:46:01Z</time>
      </trkpt>
      <trkpt lat="45.72049" lon="6.25083">
        <ele>1453</ele>
        <time>2012-06-09T10:46:13Z</time>
      </trkpt>
      <trkpt lat="45.72051" lon="6.25088">
        <ele>1454.1999511719</ele>
        <time>2012-06-09T10:46:17Z</time>
      </trkpt>
      <trkpt lat="45.72052" lon="6.25093">
        <ele>1455.4000244141</ele>
        <time>2012-06-09T10:46:20Z</time>
      </trkpt>
      <trkpt lat="45.72054" lon="6.25098">
        <ele>1455.4000244141</ele>
        <time>2012-06-09T10:46:24Z</time>
      </trkpt>
      <trkpt lat="45.72059" lon="6.25109">
        <ele>1457.4000244141</ele>
        <time>2012-06-09T10:46:31Z</time>
      </trkpt>
      <trkpt lat="45.72066" lon="6.25119">
        <ele>1459.5999755859</ele>
        <time>2012-06-09T10:46:40Z</time>
      </trkpt>
      <trkpt lat="45.72068" lon="6.25123">
        <ele>1460.5999755859</ele>
        <time>2012-06-09T10:46:44Z</time>
      </trkpt>
      <trkpt lat="45.72075" lon="6.25134">
        <ele>1461.5999755859</ele>
        <time>2012-06-09T10:46:54Z</time>
      </trkpt>
      <trkpt lat="45.72078" lon="6.25139">
        <ele>1462.5999755859</ele>
        <time>2012-06-09T10:46:58Z</time>
      </trkpt>
      <trkpt lat="45.72083" lon="6.25144">
        <ele>1463.8000488281</ele>
        <time>2012-06-09T10:47:04Z</time>
      </trkpt>
      <trkpt lat="45.72085" lon="6.25145">
        <ele>1463.8000488281</ele>
        <time>2012-06-09T10:47:06Z</time>
      </trkpt>
      <trkpt lat="45.72087" lon="6.25149">
        <ele>1464.8000488281</ele>
        <time>2012-06-09T10:47:11Z</time>
      </trkpt>
      <trkpt lat="45.72093" lon="6.25154">
        <ele>1465.8000488281</ele>
        <time>2012-06-09T10:47:16Z</time>
      </trkpt>
      <trkpt lat="45.72099" lon="6.25165">
        <ele>1467.8000488281</ele>
        <time>2012-06-09T10:47:24Z</time>
      </trkpt>
      <trkpt lat="45.7211" lon="6.25189">
        <ele>1469.8000488281</ele>
        <time>2012-06-09T10:47:39Z</time>
      </trkpt>
      <trkpt lat="45.72112" lon="6.25202">
        <ele>1471</ele>
        <time>2012-06-09T10:47:46Z</time>
      </trkpt>
      <trkpt lat="45.72113" lon="6.25227">
        <ele>1472</ele>
        <time>2012-06-09T10:47:59Z</time>
      </trkpt>
      <trkpt lat="45.72115" lon="6.2525">
        <ele>1472</ele>
        <time>2012-06-09T10:48:05Z</time>
      </trkpt>
      <trkpt lat="45.7212" lon="6.25278">
        <ele>1467.8000488281</ele>
        <time>2012-06-09T10:48:13Z</time>
      </trkpt>
      <trkpt lat="45.72123" lon="6.25288">
        <ele>1466.5999755859</ele>
        <time>2012-06-09T10:48:16Z</time>
      </trkpt>
      <trkpt lat="45.72124" lon="6.25308">
        <ele>1464.4000244141</ele>
        <time>2012-06-09T10:48:21Z</time>
      </trkpt>
      <trkpt lat="45.72122" lon="6.25327">
        <ele>1464.4000244141</ele>
        <time>2012-06-09T10:48:27Z</time>
      </trkpt>
      <trkpt lat="45.72127" lon="6.25354">
        <ele>1462.4000244141</ele>
        <time>2012-06-09T10:48:35Z</time>
      </trkpt>
      <trkpt lat="45.72134" lon="6.25389">
        <ele>1465.5999755859</ele>
        <time>2012-06-09T10:48:49Z</time>
      </trkpt>
      <trkpt lat="45.72136" lon="6.25397">
        <ele>1466.5999755859</ele>
        <time>2012-06-09T10:48:54Z</time>
      </trkpt>
      <trkpt lat="45.72139" lon="6.25413">
        <ele>1466.5999755859</ele>
        <time>2012-06-09T10:49:04Z</time>
      </trkpt>
      <trkpt lat="45.72136" lon="6.25422">
        <ele>1467.5999755859</ele>
        <time>2012-06-09T10:49:09Z</time>
      </trkpt>
      <trkpt lat="45.72136" lon="6.25439">
        <ele>1467.5999755859</ele>
        <time>2012-06-09T10:49:19Z</time>
      </trkpt>
      <trkpt lat="45.72135" lon="6.25443">
        <ele>1468.8000488281</ele>
        <time>2012-06-09T10:49:21Z</time>
      </trkpt>
      <trkpt lat="45.72133" lon="6.25457">
        <ele>1469.8000488281</ele>
        <time>2012-06-09T10:49:28Z</time>
      </trkpt>
      <trkpt lat="45.72131" lon="6.25467">
        <ele>1469.8000488281</ele>
        <time>2012-06-09T10:49:34Z</time>
      </trkpt>
      <trkpt lat="45.72129" lon="6.25475">
        <ele>1472</ele>
        <time>2012-06-09T10:49:39Z</time>
      </trkpt>
      <trkpt lat="45.72128" lon="6.25489">
        <ele>1473</ele>
        <time>2012-06-09T10:49:49Z</time>
      </trkpt>
      <trkpt lat="45.72127" lon="6.25498">
        <ele>1474.1999511719</ele>
        <time>2012-06-09T10:49:54Z</time>
      </trkpt>
      <trkpt lat="45.72125" lon="6.25518">
        <ele>1475.1999511719</ele>
        <time>2012-06-09T10:50:05Z</time>
      </trkpt>
      <trkpt lat="45.72126" lon="6.25521">
        <ele>1476.1999511719</ele>
        <time>2012-06-09T10:50:06Z</time>
      </trkpt>
      <trkpt lat="45.72128" lon="6.25543">
        <ele>1476.1999511719</ele>
        <time>2012-06-09T10:50:13Z</time>
      </trkpt>
      <trkpt lat="45.72123" lon="6.2556">
        <ele>1476.1999511719</ele>
        <time>2012-06-09T10:50:18Z</time>
      </trkpt>
      <trkpt lat="45.72118" lon="6.25598">
        <ele>1472.8000488281</ele>
        <time>2012-06-09T10:50:28Z</time>
      </trkpt>
      <trkpt lat="45.72118" lon="6.25609">
        <ele>1472.8000488281</ele>
        <time>2012-06-09T10:50:31Z</time>
      </trkpt>
      <trkpt lat="45.72119" lon="6.25634">
        <ele>1472.8000488281</ele>
        <time>2012-06-09T10:50:39Z</time>
      </trkpt>
      <trkpt lat="45.72133" lon="6.25687">
        <ele>1472.8000488281</ele>
        <time>2012-06-09T10:50:57Z</time>
      </trkpt>
      <trkpt lat="45.72133" lon="6.25691">
        <ele>1472.8000488281</ele>
        <time>2012-06-09T10:50:58Z</time>
      </trkpt>
      <trkpt lat="45.72143" lon="6.25711">
        <ele>1476</ele>
        <time>2012-06-09T10:51:06Z</time>
      </trkpt>
      <trkpt lat="45.72155" lon="6.25722">
        <ele>1476</ele>
        <time>2012-06-09T10:51:13Z</time>
      </trkpt>
      <trkpt lat="45.72178" lon="6.25742">
        <ele>1476</ele>
        <time>2012-06-09T10:51:29Z</time>
      </trkpt>
      <trkpt lat="45.72182" lon="6.25746">
        <ele>1476</ele>
        <time>2012-06-09T10:51:33Z</time>
      </trkpt>
      <trkpt lat="45.72193" lon="6.25754">
        <ele>1477</ele>
        <time>2012-06-09T10:51:42Z</time>
      </trkpt>
      <trkpt lat="45.72199" lon="6.25762">
        <ele>1477</ele>
        <time>2012-06-09T10:51:49Z</time>
      </trkpt>
      <trkpt lat="45.72204" lon="6.25768">
        <ele>1478.1999511719</ele>
        <time>2012-06-09T10:51:55Z</time>
      </trkpt>
      <trkpt lat="45.72207" lon="6.25776">
        <ele>1480.4000244141</ele>
        <time>2012-06-09T10:52:02Z</time>
      </trkpt>
      <trkpt lat="45.72208" lon="6.25788">
        <ele>1481.5999755859</ele>
        <time>2012-06-09T10:52:08Z</time>
      </trkpt>
      <trkpt lat="45.7221" lon="6.25799">
        <ele>1482.5999755859</ele>
        <time>2012-06-09T10:52:16Z</time>
      </trkpt>
      <trkpt lat="45.72212" lon="6.25803">
        <ele>1483.8000488281</ele>
        <time>2012-06-09T10:52:19Z</time>
      </trkpt>
      <trkpt lat="45.72218" lon="6.25816">
        <ele>1484.8000488281</ele>
        <time>2012-06-09T10:52:28Z</time>
      </trkpt>
      <trkpt lat="45.72225" lon="6.25823">
        <ele>1485.8000488281</ele>
        <time>2012-06-09T10:52:35Z</time>
      </trkpt>
      <trkpt lat="45.72239" lon="6.25836">
        <ele>1486.8000488281</ele>
        <time>2012-06-09T10:52:48Z</time>
      </trkpt>
      <trkpt lat="45.72247" lon="6.25841">
        <ele>1488</ele>
        <time>2012-06-09T10:52:54Z</time>
      </trkpt>
      <trkpt lat="45.72253" lon="6.25847">
        <ele>1489</ele>
        <time>2012-06-09T10:53:01Z</time>
      </trkpt>
      <trkpt lat="45.72287" lon="6.25866">
        <ele>1488.4000244141</ele>
        <time>2012-06-09T10:53:22Z</time>
      </trkpt>
      <trkpt lat="45.7229" lon="6.25867">
        <ele>1488.4000244141</ele>
        <time>2012-06-09T10:53:23Z</time>
      </trkpt>
      <trkpt lat="45.72312" lon="6.25878">
        <ele>1485.8000488281</ele>
        <time>2012-06-09T10:53:31Z</time>
      </trkpt>
      <trkpt lat="45.72325" lon="6.25894">
        <ele>1485.8000488281</ele>
        <time>2012-06-09T10:53:38Z</time>
      </trkpt>
      <trkpt lat="45.7234" lon="6.25905">
        <ele>1485.8000488281</ele>
        <time>2012-06-09T10:53:47Z</time>
      </trkpt>
      <trkpt lat="45.72344" lon="6.25906">
        <ele>1489.1999511719</ele>
        <time>2012-06-09T10:53:49Z</time>
      </trkpt>
      <trkpt lat="45.72359" lon="6.25911">
        <ele>1489.1999511719</ele>
        <time>2012-06-09T10:53:56Z</time>
      </trkpt>
      <trkpt lat="45.72368" lon="6.25914">
        <ele>1489.1999511719</ele>
        <time>2012-06-09T10:54:00Z</time>
      </trkpt>
      <trkpt lat="45.72377" lon="6.25917">
        <ele>1485</ele>
        <time>2012-06-09T10:54:04Z</time>
      </trkpt>
      <trkpt lat="45.72413" lon="6.25951">
        <ele>1485</ele>
        <time>2012-06-09T10:54:20Z</time>
      </trkpt>
      <trkpt lat="45.72434" lon="6.25963">
        <ele>1485</ele>
        <time>2012-06-09T10:54:30Z</time>
      </trkpt>
      <trkpt lat="45.72464" lon="6.25999">
        <ele>1485</ele>
        <time>2012-06-09T10:54:46Z</time>
      </trkpt>
      <trkpt lat="45.7247" lon="6.26017">
        <ele>1485</ele>
        <time>2012-06-09T10:54:52Z</time>
      </trkpt>
      <trkpt lat="45.72488" lon="6.26048">
        <ele>1485</ele>
        <time>2012-06-09T10:55:04Z</time>
      </trkpt>
      <trkpt lat="45.72495" lon="6.2606">
        <ele>1483.4000244141</ele>
        <time>2012-06-09T10:55:09Z</time>
      </trkpt>
      <trkpt lat="45.72526" lon="6.26085">
        <ele>1483.4000244141</ele>
        <time>2012-06-09T10:55:26Z</time>
      </trkpt>
      <trkpt lat="45.72533" lon="6.2609">
        <ele>1482.4000244141</ele>
        <time>2012-06-09T10:55:30Z</time>
      </trkpt>
      <trkpt lat="45.72556" lon="6.26118">
        <ele>1482.4000244141</ele>
        <time>2012-06-09T10:55:43Z</time>
      </trkpt>
      <trkpt lat="45.72622" lon="6.26148">
        <ele>1482.4000244141</ele>
        <time>2012-06-09T10:56:15Z</time>
      </trkpt>
      <trkpt lat="45.72633" lon="6.26148">
        <ele>1482.4000244141</ele>
        <time>2012-06-09T10:56:20Z</time>
      </trkpt>
      <trkpt lat="45.72676" lon="6.26164">
        <ele>1482.4000244141</ele>
        <time>2012-06-09T10:56:38Z</time>
      </trkpt>
      <trkpt lat="45.72687" lon="6.26173">
        <ele>1480.4000244141</ele>
        <time>2012-06-09T10:56:43Z</time>
      </trkpt>
      <trkpt lat="45.72709" lon="6.26189">
        <ele>1480.4000244141</ele>
        <time>2012-06-09T10:57:00Z</time>
      </trkpt>
      <trkpt lat="45.72717" lon="6.26193">
        <ele>1480.4000244141</ele>
        <time>2012-06-09T10:57:07Z</time>
      </trkpt>
      <trkpt lat="45.72742" lon="6.26208">
        <ele>1476.8000488281</ele>
        <time>2012-06-09T10:57:18Z</time>
      </trkpt>
      <trkpt lat="45.72757" lon="6.26217">
        <ele>1474.5999755859</ele>
        <time>2012-06-09T10:57:24Z</time>
      </trkpt>
      <trkpt lat="45.72766" lon="6.26227">
        <ele>1472</ele>
        <time>2012-06-09T10:57:29Z</time>
      </trkpt>
      <trkpt lat="45.7278" lon="6.26256">
        <ele>1469</ele>
        <time>2012-06-09T10:57:39Z</time>
      </trkpt>
      <trkpt lat="45.72787" lon="6.26269">
        <ele>1466.8000488281</ele>
        <time>2012-06-09T10:57:44Z</time>
      </trkpt>
      <trkpt lat="45.72802" lon="6.26282">
        <ele>1463.4000244141</ele>
        <time>2012-06-09T10:57:52Z</time>
      </trkpt>
      <trkpt lat="45.72804" lon="6.26283">
        <ele>1463.4000244141</ele>
        <time>2012-06-09T10:57:53Z</time>
      </trkpt>
      <trkpt lat="45.72822" lon="6.26285">
        <ele>1461.1999511719</ele>
        <time>2012-06-09T10:58:01Z</time>
      </trkpt>
      <trkpt lat="45.72838" lon="6.26285">
        <ele>1460.1999511719</ele>
        <time>2012-06-09T10:58:08Z</time>
      </trkpt>
      <trkpt lat="45.72855" lon="6.26284">
        <ele>1459.1999511719</ele>
        <time>2012-06-09T10:58:15Z</time>
      </trkpt>
      <trkpt lat="45.72867" lon="6.26288">
        <ele>1459.1999511719</ele>
        <time>2012-06-09T10:58:20Z</time>
      </trkpt>
      <trkpt lat="45.7288" lon="6.26292">
        <ele>1458.8000488281</ele>
        <time>2012-06-09T10:58:26Z</time>
      </trkpt>
      <trkpt lat="45.7291" lon="6.26319">
        <ele>1457.1999511719</ele>
        <time>2012-06-09T10:58:41Z</time>
      </trkpt>
      <trkpt lat="45.72916" lon="6.26323">
        <ele>1456.1999511719</ele>
        <time>2012-06-09T10:58:44Z</time>
      </trkpt>
      <trkpt lat="45.72932" lon="6.26332">
        <ele>1455</ele>
        <time>2012-06-09T10:58:51Z</time>
      </trkpt>
      <trkpt lat="45.72942" lon="6.26339">
        <ele>1452.8000488281</ele>
        <time>2012-06-09T10:58:56Z</time>
      </trkpt>
      <trkpt lat="45.72954" lon="6.26352">
        <ele>1450.5999755859</ele>
        <time>2012-06-09T10:59:02Z</time>
      </trkpt>
      <trkpt lat="45.7296" lon="6.26356">
        <ele>1449.4000244141</ele>
        <time>2012-06-09T10:59:05Z</time>
      </trkpt>
      <trkpt lat="45.72966" lon="6.2636">
        <ele>1448.4000244141</ele>
        <time>2012-06-09T10:59:09Z</time>
      </trkpt>
      <trkpt lat="45.72972" lon="6.26361">
        <ele>1447.1999511719</ele>
        <time>2012-06-09T10:59:12Z</time>
      </trkpt>
      <trkpt lat="45.72979" lon="6.26359">
        <ele>1446.1999511719</ele>
        <time>2012-06-09T10:59:16Z</time>
      </trkpt>
      <trkpt lat="45.72996" lon="6.26354">
        <ele>1443</ele>
        <time>2012-06-09T10:59:26Z</time>
      </trkpt>
      <trkpt lat="45.73001" lon="6.26356">
        <ele>1440.4000244141</ele>
        <time>2012-06-09T10:59:29Z</time>
      </trkpt>
      <trkpt lat="45.73007" lon="6.26372">
        <ele>1439.4000244141</ele>
        <time>2012-06-09T10:59:36Z</time>
      </trkpt>
      <trkpt lat="45.73007" lon="6.26375">
        <ele>1438.4000244141</ele>
        <time>2012-06-09T10:59:37Z</time>
      </trkpt>
      <trkpt lat="45.73012" lon="6.26396">
        <ele>1436</ele>
        <time>2012-06-09T10:59:44Z</time>
      </trkpt>
      <trkpt lat="45.73014" lon="6.26406">
        <ele>1434.8000488281</ele>
        <time>2012-06-09T10:59:47Z</time>
      </trkpt>
      <trkpt lat="45.73017" lon="6.26422">
        <ele>1432.4000244141</ele>
        <time>2012-06-09T10:59:53Z</time>
      </trkpt>
      <trkpt lat="45.73018" lon="6.26423">
        <ele>1430</ele>
        <time>2012-06-09T10:59:54Z</time>
      </trkpt>
      <trkpt lat="45.73034" lon="6.26429">
        <ele>1426.4000244141</ele>
        <time>2012-06-09T11:00:02Z</time>
      </trkpt>
      <trkpt lat="45.73052" lon="6.2643">
        <ele>1420.4000244141</ele>
        <time>2012-06-09T11:00:13Z</time>
      </trkpt>
      <trkpt lat="45.73057" lon="6.26429">
        <ele>1418.8000488281</ele>
        <time>2012-06-09T11:00:16Z</time>
      </trkpt>
      <trkpt lat="45.73064" lon="6.26435">
        <ele>1416.4000244141</ele>
        <time>2012-06-09T11:00:20Z</time>
      </trkpt>
      <trkpt lat="45.73067" lon="6.26446">
        <ele>1414</ele>
        <time>2012-06-09T11:00:24Z</time>
      </trkpt>
      <trkpt lat="45.73061" lon="6.26471">
        <ele>1410.1999511719</ele>
        <time>2012-06-09T11:00:33Z</time>
      </trkpt>
      <trkpt lat="45.7306" lon="6.26473">
        <ele>1409</ele>
        <time>2012-06-09T11:00:34Z</time>
      </trkpt>
      <trkpt lat="45.73046" lon="6.26483">
        <ele>1406.5999755859</ele>
        <time>2012-06-09T11:00:41Z</time>
      </trkpt>
      <trkpt lat="45.73038" lon="6.2649">
        <ele>1404.4000244141</ele>
        <time>2012-06-09T11:00:45Z</time>
      </trkpt>
      <trkpt lat="45.73019" lon="6.26498">
        <ele>1402.4000244141</ele>
        <time>2012-06-09T11:00:53Z</time>
      </trkpt>
      <trkpt lat="45.73024" lon="6.26512">
        <ele>1401.4000244141</ele>
        <time>2012-06-09T11:01:00Z</time>
      </trkpt>
      <trkpt lat="45.73038" lon="6.26517">
        <ele>1399.8000488281</ele>
        <time>2012-06-09T11:01:06Z</time>
      </trkpt>
      <trkpt lat="45.73051" lon="6.26521">
        <ele>1396.5999755859</ele>
        <time>2012-06-09T11:01:12Z</time>
      </trkpt>
      <trkpt lat="45.73052" lon="6.26527">
        <ele>1395.4000244141</ele>
        <time>2012-06-09T11:01:14Z</time>
      </trkpt>
      <trkpt lat="45.73037" lon="6.26538">
        <ele>1394.1999511719</ele>
        <time>2012-06-09T11:01:21Z</time>
      </trkpt>
      <trkpt lat="45.73023" lon="6.26544">
        <ele>1393</ele>
        <time>2012-06-09T11:01:27Z</time>
      </trkpt>
      <trkpt lat="45.73004" lon="6.26549">
        <ele>1390.8000488281</ele>
        <time>2012-06-09T11:01:35Z</time>
      </trkpt>
      <trkpt lat="45.73" lon="6.2655">
        <ele>1389.8000488281</ele>
        <time>2012-06-09T11:01:37Z</time>
      </trkpt>
      <trkpt lat="45.72985" lon="6.26564">
        <ele>1386.5999755859</ele>
        <time>2012-06-09T11:01:45Z</time>
      </trkpt>
      <trkpt lat="45.72968" lon="6.26577">
        <ele>1382.4000244141</ele>
        <time>2012-06-09T11:01:53Z</time>
      </trkpt>
      <trkpt lat="45.72961" lon="6.26582">
        <ele>1381.1999511719</ele>
        <time>2012-06-09T11:01:56Z</time>
      </trkpt>
      <trkpt lat="45.72943" lon="6.26595">
        <ele>1378.8000488281</ele>
        <time>2012-06-09T11:02:05Z</time>
      </trkpt>
      <trkpt lat="45.72932" lon="6.26603">
        <ele>1377.5999755859</ele>
        <time>2012-06-09T11:02:10Z</time>
      </trkpt>
      <trkpt lat="45.72921" lon="6.26612">
        <ele>1375.4000244141</ele>
        <time>2012-06-09T11:02:16Z</time>
      </trkpt>
      <trkpt lat="45.72917" lon="6.26616">
        <ele>1374.4000244141</ele>
        <time>2012-06-09T11:02:18Z</time>
      </trkpt>
      <trkpt lat="45.72905" lon="6.26625">
        <ele>1372</ele>
        <time>2012-06-09T11:02:24Z</time>
      </trkpt>
      <trkpt lat="45.72899" lon="6.2663">
        <ele>1369.4000244141</ele>
        <time>2012-06-09T11:02:27Z</time>
      </trkpt>
      <trkpt lat="45.72885" lon="6.26639">
        <ele>1366</ele>
        <time>2012-06-09T11:02:33Z</time>
      </trkpt>
      <trkpt lat="45.72866" lon="6.2666">
        <ele>1363.5999755859</ele>
        <time>2012-06-09T11:02:43Z</time>
      </trkpt>
      <trkpt lat="45.7286" lon="6.26664">
        <ele>1360.5999755859</ele>
        <time>2012-06-09T11:02:46Z</time>
      </trkpt>
      <trkpt lat="45.7285" lon="6.26674">
        <ele>1357.4000244141</ele>
        <time>2012-06-09T11:02:51Z</time>
      </trkpt>
      <trkpt lat="45.72846" lon="6.26678">
        <ele>1356.4000244141</ele>
        <time>2012-06-09T11:02:53Z</time>
      </trkpt>
      <trkpt lat="45.72824" lon="6.26703">
        <ele>1355.4000244141</ele>
        <time>2012-06-09T11:03:04Z</time>
      </trkpt>
      <trkpt lat="45.72814" lon="6.26716">
        <ele>1354.4000244141</ele>
        <time>2012-06-09T11:03:09Z</time>
      </trkpt>
      <trkpt lat="45.72805" lon="6.26724">
        <ele>1352</ele>
        <time>2012-06-09T11:03:14Z</time>
      </trkpt>
      <trkpt lat="45.72798" lon="6.26735">
        <ele>1352</ele>
        <time>2012-06-09T11:03:18Z</time>
      </trkpt>
      <trkpt lat="45.72768" lon="6.26762">
        <ele>1347.5999755859</ele>
        <time>2012-06-09T11:03:30Z</time>
      </trkpt>
      <trkpt lat="45.72751" lon="6.26779">
        <ele>1344</ele>
        <time>2012-06-09T11:03:38Z</time>
      </trkpt>
      <trkpt lat="45.72746" lon="6.26784">
        <ele>1342.5999755859</ele>
        <time>2012-06-09T11:03:40Z</time>
      </trkpt>
      <trkpt lat="45.7274" lon="6.26802">
        <ele>1340.4000244141</ele>
        <time>2012-06-09T11:03:46Z</time>
      </trkpt>
      <trkpt lat="45.72745" lon="6.2682">
        <ele>1337.8000488281</ele>
        <time>2012-06-09T11:03:51Z</time>
      </trkpt>
      <trkpt lat="45.72753" lon="6.26832">
        <ele>1335.5999755859</ele>
        <time>2012-06-09T11:03:55Z</time>
      </trkpt>
      <trkpt lat="45.72758" lon="6.26836">
        <ele>1335.5999755859</ele>
        <time>2012-06-09T11:03:57Z</time>
      </trkpt>
      <trkpt lat="45.72772" lon="6.26849">
        <ele>1333.1999511719</ele>
        <time>2012-06-09T11:04:04Z</time>
      </trkpt>
      <trkpt lat="45.72777" lon="6.26856">
        <ele>1329.5999755859</ele>
        <time>2012-06-09T11:04:07Z</time>
      </trkpt>
      <trkpt lat="45.7279" lon="6.26869">
        <ele>1325.5999755859</ele>
        <time>2012-06-09T11:04:13Z</time>
      </trkpt>
      <trkpt lat="45.72808" lon="6.26876">
        <ele>1320.8000488281</ele>
        <time>2012-06-09T11:04:22Z</time>
      </trkpt>
      <trkpt lat="45.72811" lon="6.26878">
        <ele>1318.1999511719</ele>
        <time>2012-06-09T11:04:24Z</time>
      </trkpt>
      <trkpt lat="45.72825" lon="6.26883">
        <ele>1314.4000244141</ele>
        <time>2012-06-09T11:04:30Z</time>
      </trkpt>
      <trkpt lat="45.72838" lon="6.26886">
        <ele>1313</ele>
        <time>2012-06-09T11:04:35Z</time>
      </trkpt>
      <trkpt lat="45.72847" lon="6.26886">
        <ele>1310.4000244141</ele>
        <time>2012-06-09T11:04:39Z</time>
      </trkpt>
      <trkpt lat="45.7286" lon="6.26885">
        <ele>1309.4000244141</ele>
        <time>2012-06-09T11:04:44Z</time>
      </trkpt>
      <trkpt lat="45.72894" lon="6.26888">
        <ele>1305.8000488281</ele>
        <time>2012-06-09T11:04:57Z</time>
      </trkpt>
      <trkpt lat="45.72896" lon="6.26888">
        <ele>1304.8000488281</ele>
        <time>2012-06-09T11:04:58Z</time>
      </trkpt>
      <trkpt lat="45.72912" lon="6.2689">
        <ele>1302.4000244141</ele>
        <time>2012-06-09T11:05:03Z</time>
      </trkpt>
      <trkpt lat="45.7294" lon="6.26887">
        <ele>1300.1999511719</ele>
        <time>2012-06-09T11:05:16Z</time>
      </trkpt>
      <trkpt lat="45.7295" lon="6.2689">
        <ele>1298.8000488281</ele>
        <time>2012-06-09T11:05:20Z</time>
      </trkpt>
      <trkpt lat="45.72965" lon="6.26895">
        <ele>1296.5999755859</ele>
        <time>2012-06-09T11:05:26Z</time>
      </trkpt>
      <trkpt lat="45.72976" lon="6.26897">
        <ele>1293.5999755859</ele>
        <time>2012-06-09T11:05:30Z</time>
      </trkpt>
      <trkpt lat="45.72989" lon="6.26897">
        <ele>1293.5999755859</ele>
        <time>2012-06-09T11:05:35Z</time>
      </trkpt>
      <trkpt lat="45.72992" lon="6.26899">
        <ele>1293.5999755859</ele>
        <time>2012-06-09T11:05:36Z</time>
      </trkpt>
      <trkpt lat="45.73014" lon="6.26904">
        <ele>1293.5999755859</ele>
        <time>2012-06-09T11:05:46Z</time>
      </trkpt>
      <trkpt lat="45.73031" lon="6.26901">
        <ele>1293.5999755859</ele>
        <time>2012-06-09T11:05:53Z</time>
      </trkpt>
      <trkpt lat="45.73064" lon="6.26902">
        <ele>1293.5999755859</ele>
        <time>2012-06-09T11:06:03Z</time>
      </trkpt>
      <trkpt lat="45.7308" lon="6.26927">
        <ele>1288.8000488281</ele>
        <time>2012-06-09T11:06:12Z</time>
      </trkpt>
      <trkpt lat="45.7309" lon="6.26936">
        <ele>1286.5999755859</ele>
        <time>2012-06-09T11:06:16Z</time>
      </trkpt>
      <trkpt lat="45.73113" lon="6.2695">
        <ele>1283.4000244141</ele>
        <time>2012-06-09T11:06:24Z</time>
      </trkpt>
      <trkpt lat="45.73117" lon="6.26952">
        <ele>1283.4000244141</ele>
        <time>2012-06-09T11:06:26Z</time>
      </trkpt>
      <trkpt lat="45.73136" lon="6.26957">
        <ele>1279</ele>
        <time>2012-06-09T11:06:34Z</time>
      </trkpt>
      <trkpt lat="45.73147" lon="6.26956">
        <ele>1279</ele>
        <time>2012-06-09T11:06:39Z</time>
      </trkpt>
      <trkpt lat="45.73159" lon="6.26963">
        <ele>1276.4000244141</ele>
        <time>2012-06-09T11:06:46Z</time>
      </trkpt>
      <trkpt lat="45.73159" lon="6.26964">
        <ele>1276.4000244141</ele>
        <time>2012-06-09T11:06:49Z</time>
      </trkpt>
      <trkpt lat="45.73156" lon="6.26964">
        <ele>1275.4000244141</ele>
        <time>2012-06-09T11:07:08Z</time>
      </trkpt>
      <trkpt lat="45.73199" lon="6.26953">
        <ele>1273.1999511719</ele>
        <time>2012-06-09T11:07:26Z</time>
      </trkpt>
      <trkpt lat="45.73213" lon="6.26959">
        <ele>1273.1999511719</ele>
        <time>2012-06-09T11:07:31Z</time>
      </trkpt>
      <trkpt lat="45.73232" lon="6.26954">
        <ele>1270.1999511719</ele>
        <time>2012-06-09T11:07:39Z</time>
      </trkpt>
      <trkpt lat="45.73235" lon="6.26955">
        <ele>1270.1999511719</ele>
        <time>2012-06-09T11:07:41Z</time>
      </trkpt>
      <trkpt lat="45.73239" lon="6.2696">
        <ele>1270.1999511719</ele>
        <time>2012-06-09T11:07:45Z</time>
      </trkpt>
      <trkpt lat="45.73246" lon="6.26962">
        <ele>1270.1999511719</ele>
        <time>2012-06-09T11:07:49Z</time>
      </trkpt>
      <trkpt lat="45.73262" lon="6.26961">
        <ele>1269</ele>
        <time>2012-06-09T11:07:56Z</time>
      </trkpt>
      <trkpt lat="45.73282" lon="6.26958">
        <ele>1266.8000488281</ele>
        <time>2012-06-09T11:08:04Z</time>
      </trkpt>
      <trkpt lat="45.73305" lon="6.26953">
        <ele>1265.8000488281</ele>
        <time>2012-06-09T11:08:13Z</time>
      </trkpt>
      <trkpt lat="45.73344" lon="6.26932">
        <ele>1265.8000488281</ele>
        <time>2012-06-09T11:08:31Z</time>
      </trkpt>
      <trkpt lat="45.73358" lon="6.26925">
        <ele>1265.8000488281</ele>
        <time>2012-06-09T11:08:39Z</time>
      </trkpt>
      <trkpt lat="45.73363" lon="6.26918">
        <ele>1269</ele>
        <time>2012-06-09T11:08:46Z</time>
      </trkpt>
      <trkpt lat="45.73368" lon="6.26918">
        <ele>1269</ele>
        <time>2012-06-09T11:08:51Z</time>
      </trkpt>
      <trkpt lat="45.73383" lon="6.26919">
        <ele>1270</ele>
        <time>2012-06-09T11:09:03Z</time>
      </trkpt>
      <trkpt lat="45.73386" lon="6.26915">
        <ele>1271</ele>
        <time>2012-06-09T11:09:08Z</time>
      </trkpt>
      <trkpt lat="45.73386" lon="6.2688">
        <ele>1267.8000488281</ele>
        <time>2012-06-09T11:09:20Z</time>
      </trkpt>
      <trkpt lat="45.73388" lon="6.26879">
        <ele>1267.8000488281</ele>
        <time>2012-06-09T11:09:21Z</time>
      </trkpt>
      <trkpt lat="45.73392" lon="6.26868">
        <ele>1265.1999511719</ele>
        <time>2012-06-09T11:09:26Z</time>
      </trkpt>
      <trkpt lat="45.73394" lon="6.26844">
        <ele>1260.1999511719</ele>
        <time>2012-06-09T11:09:34Z</time>
      </trkpt>
      <trkpt lat="45.73395" lon="6.26842">
        <ele>1259.1999511719</ele>
        <time>2012-06-09T11:09:35Z</time>
      </trkpt>
      <trkpt lat="45.73396" lon="6.26833">
        <ele>1257.8000488281</ele>
        <time>2012-06-09T11:09:40Z</time>
      </trkpt>
      <trkpt lat="45.73395" lon="6.26823">
        <ele>1254.8000488281</ele>
        <time>2012-06-09T11:09:43Z</time>
      </trkpt>
      <trkpt lat="45.73395" lon="6.26811">
        <ele>1251.5999755859</ele>
        <time>2012-06-09T11:09:49Z</time>
      </trkpt>
      <trkpt lat="45.73394" lon="6.26805">
        <ele>1250.5999755859</ele>
        <time>2012-06-09T11:09:51Z</time>
      </trkpt>
      <trkpt lat="45.73393" lon="6.26798">
        <ele>1248</ele>
        <time>2012-06-09T11:09:54Z</time>
      </trkpt>
      <trkpt lat="45.73392" lon="6.26789">
        <ele>1246</ele>
        <time>2012-06-09T11:09:58Z</time>
      </trkpt>
      <trkpt lat="45.73389" lon="6.26782">
        <ele>1243.4000244141</ele>
        <time>2012-06-09T11:10:03Z</time>
      </trkpt>
      <trkpt lat="45.73389" lon="6.26773">
        <ele>1241.1999511719</ele>
        <time>2012-06-09T11:10:08Z</time>
      </trkpt>
      <trkpt lat="45.73396" lon="6.26775">
        <ele>1240.1999511719</ele>
        <time>2012-06-09T11:10:12Z</time>
      </trkpt>
      <trkpt lat="45.73408" lon="6.26782">
        <ele>1237.8000488281</ele>
        <time>2012-06-09T11:10:20Z</time>
      </trkpt>
      <trkpt lat="45.7341" lon="6.26783">
        <ele>1236.4000244141</ele>
        <time>2012-06-09T11:10:21Z</time>
      </trkpt>
      <trkpt lat="45.73427" lon="6.26793">
        <ele>1234</ele>
        <time>2012-06-09T11:10:29Z</time>
      </trkpt>
      <trkpt lat="45.73434" lon="6.26802">
        <ele>1234</ele>
        <time>2012-06-09T11:10:33Z</time>
      </trkpt>
      <trkpt lat="45.73437" lon="6.26807">
        <ele>1230.5999755859</ele>
        <time>2012-06-09T11:10:39Z</time>
      </trkpt>
      <trkpt lat="45.7344" lon="6.26812">
        <ele>1230.5999755859</ele>
        <time>2012-06-09T11:10:41Z</time>
      </trkpt>
      <trkpt lat="45.73448" lon="6.26834">
        <ele>1228.1999511719</ele>
        <time>2012-06-09T11:10:49Z</time>
      </trkpt>
      <trkpt lat="45.73461" lon="6.26867">
        <ele>1225.8000488281</ele>
        <time>2012-06-09T11:11:01Z</time>
      </trkpt>
      <trkpt lat="45.73461" lon="6.26871">
        <ele>1224.5999755859</ele>
        <time>2012-06-09T11:11:02Z</time>
      </trkpt>
      <trkpt lat="45.73469" lon="6.2688">
        <ele>1223.5999755859</ele>
        <time>2012-06-09T11:11:06Z</time>
      </trkpt>
      <trkpt lat="45.73472" lon="6.26891">
        <ele>1223.5999755859</ele>
        <time>2012-06-09T11:11:10Z</time>
      </trkpt>
      <trkpt lat="45.73475" lon="6.269">
        <ele>1221.1999511719</ele>
        <time>2012-06-09T11:11:14Z</time>
      </trkpt>
      <trkpt lat="45.73476" lon="6.26906">
        <ele>1221.1999511719</ele>
        <time>2012-06-09T11:11:16Z</time>
      </trkpt>
      <trkpt lat="45.73477" lon="6.26918">
        <ele>1220.1999511719</ele>
        <time>2012-06-09T11:11:22Z</time>
      </trkpt>
      <trkpt lat="45.73477" lon="6.2693">
        <ele>1219.1999511719</ele>
        <time>2012-06-09T11:11:26Z</time>
      </trkpt>
      <trkpt lat="45.73485" lon="6.26946">
        <ele>1217</ele>
        <time>2012-06-09T11:11:34Z</time>
      </trkpt>
      <trkpt lat="45.73491" lon="6.26965">
        <ele>1214.5999755859</ele>
        <time>2012-06-09T11:11:43Z</time>
      </trkpt>
      <trkpt lat="45.73494" lon="6.26974">
        <ele>1212.5999755859</ele>
        <time>2012-06-09T11:11:46Z</time>
      </trkpt>
      <trkpt lat="45.73501" lon="6.26984">
        <ele>1210.1999511719</ele>
        <time>2012-06-09T11:11:51Z</time>
      </trkpt>
      <trkpt lat="45.73501" lon="6.26987">
        <ele>1210.1999511719</ele>
        <time>2012-06-09T11:11:52Z</time>
      </trkpt>
      <trkpt lat="45.73513" lon="6.27008">
        <ele>1209.1999511719</ele>
        <time>2012-06-09T11:12:01Z</time>
      </trkpt>
      <trkpt lat="45.73518" lon="6.27017">
        <ele>1208</ele>
        <time>2012-06-09T11:12:05Z</time>
      </trkpt>
      <trkpt lat="45.73524" lon="6.27021">
        <ele>1205.8000488281</ele>
        <time>2012-06-09T11:12:08Z</time>
      </trkpt>
      <trkpt lat="45.73526" lon="6.27023">
        <ele>1204.8000488281</ele>
        <time>2012-06-09T11:12:11Z</time>
      </trkpt>
      <trkpt lat="45.73525" lon="6.27018">
        <ele>1202.4000244141</ele>
        <time>2012-06-09T11:12:17Z</time>
      </trkpt>
      <trkpt lat="45.73521" lon="6.26996">
        <ele>1197.8000488281</ele>
        <time>2012-06-09T11:12:26Z</time>
      </trkpt>
      <trkpt lat="45.73519" lon="6.26989">
        <ele>1196.5999755859</ele>
        <time>2012-06-09T11:12:29Z</time>
      </trkpt>
      <trkpt lat="45.73519" lon="6.2698">
        <ele>1195.4000244141</ele>
        <time>2012-06-09T11:12:32Z</time>
      </trkpt>
      <trkpt lat="45.73516" lon="6.26971">
        <ele>1194.1999511719</ele>
        <time>2012-06-09T11:12:35Z</time>
      </trkpt>
      <trkpt lat="45.73514" lon="6.26958">
        <ele>1193</ele>
        <time>2012-06-09T11:12:40Z</time>
      </trkpt>
      <trkpt lat="45.73514" lon="6.26953">
        <ele>1191.8000488281</ele>
        <time>2012-06-09T11:12:41Z</time>
      </trkpt>
      <trkpt lat="45.73514" lon="6.26937">
        <ele>1190.5999755859</ele>
        <time>2012-06-09T11:12:47Z</time>
      </trkpt>
      <trkpt lat="45.73514" lon="6.26926">
        <ele>1189.4000244141</ele>
        <time>2012-06-09T11:12:51Z</time>
      </trkpt>
      <trkpt lat="45.73516" lon="6.26922">
        <ele>1187</ele>
        <time>2012-06-09T11:12:55Z</time>
      </trkpt>
      <trkpt lat="45.73525" lon="6.269">
        <ele>1184.8000488281</ele>
        <time>2012-06-09T11:13:03Z</time>
      </trkpt>
      <trkpt lat="45.73526" lon="6.26895">
        <ele>1184.8000488281</ele>
        <time>2012-06-09T11:13:05Z</time>
      </trkpt>
      <trkpt lat="45.73528" lon="6.26876">
        <ele>1181.4000244141</ele>
        <time>2012-06-09T11:13:12Z</time>
      </trkpt>
      <trkpt lat="45.73529" lon="6.26873">
        <ele>1181.4000244141</ele>
        <time>2012-06-09T11:13:13Z</time>
      </trkpt>
      <trkpt lat="45.73532" lon="6.26862">
        <ele>1179</ele>
        <time>2012-06-09T11:13:19Z</time>
      </trkpt>
      <trkpt lat="45.7353" lon="6.2685">
        <ele>1178</ele>
        <time>2012-06-09T11:13:23Z</time>
      </trkpt>
      <trkpt lat="45.73525" lon="6.26839">
        <ele>1176.8000488281</ele>
        <time>2012-06-09T11:13:28Z</time>
      </trkpt>
      <trkpt lat="45.73526" lon="6.26836">
        <ele>1175.5999755859</ele>
        <time>2012-06-09T11:13:29Z</time>
      </trkpt>
      <trkpt lat="45.73522" lon="6.26825">
        <ele>1174.5999755859</ele>
        <time>2012-06-09T11:13:36Z</time>
      </trkpt>
      <trkpt lat="45.73524" lon="6.26805">
        <ele>1171.1999511719</ele>
        <time>2012-06-09T11:13:44Z</time>
      </trkpt>
      <trkpt lat="45.73525" lon="6.268">
        <ele>1171.1999511719</ele>
        <time>2012-06-09T11:13:46Z</time>
      </trkpt>
      <trkpt lat="45.73525" lon="6.26791">
        <ele>1170</ele>
        <time>2012-06-09T11:13:50Z</time>
      </trkpt>
      <trkpt lat="45.73528" lon="6.26787">
        <ele>1168.1999511719</ele>
        <time>2012-06-09T11:13:53Z</time>
      </trkpt>
      <trkpt lat="45.73527" lon="6.26771">
        <ele>1168.1999511719</ele>
        <time>2012-06-09T11:14:01Z</time>
      </trkpt>
      <trkpt lat="45.73528" lon="6.26768">
        <ele>1167.1999511719</ele>
        <time>2012-06-09T11:14:02Z</time>
      </trkpt>
      <trkpt lat="45.73532" lon="6.26758">
        <ele>1166.1999511719</ele>
        <time>2012-06-09T11:14:07Z</time>
      </trkpt>
      <trkpt lat="45.7353" lon="6.26747">
        <ele>1165</ele>
        <time>2012-06-09T11:14:12Z</time>
      </trkpt>
      <trkpt lat="45.73525" lon="6.26729">
        <ele>1162.8000488281</ele>
        <time>2012-06-09T11:14:19Z</time>
      </trkpt>
      <trkpt lat="45.73517" lon="6.26712">
        <ele>1160.1999511719</ele>
        <time>2012-06-09T11:14:27Z</time>
      </trkpt>
      <trkpt lat="45.73522" lon="6.26714">
        <ele>1158</ele>
        <time>2012-06-09T11:14:32Z</time>
      </trkpt>
      <trkpt lat="45.73533" lon="6.26721">
        <ele>1156.8000488281</ele>
        <time>2012-06-09T11:14:39Z</time>
      </trkpt>
      <trkpt lat="45.73534" lon="6.26723">
        <ele>1155.5999755859</ele>
        <time>2012-06-09T11:14:40Z</time>
      </trkpt>
      <trkpt lat="45.73541" lon="6.26737">
        <ele>1153</ele>
        <time>2012-06-09T11:14:48Z</time>
      </trkpt>
      <trkpt lat="45.73541" lon="6.26744">
        <ele>1152</ele>
        <time>2012-06-09T11:14:52Z</time>
      </trkpt>
      <trkpt lat="45.73545" lon="6.26758">
        <ele>1149.4000244141</ele>
        <time>2012-06-09T11:14:58Z</time>
      </trkpt>
      <trkpt lat="45.73547" lon="6.26761">
        <ele>1148.4000244141</ele>
        <time>2012-06-09T11:14:59Z</time>
      </trkpt>
      <trkpt lat="45.73551" lon="6.26774">
        <ele>1147.4000244141</ele>
        <time>2012-06-09T11:15:05Z</time>
      </trkpt>
      <trkpt lat="45.73556" lon="6.26784">
        <ele>1145.1999511719</ele>
        <time>2012-06-09T11:15:14Z</time>
      </trkpt>
      <trkpt lat="45.73558" lon="6.26786">
        <ele>1144</ele>
        <time>2012-06-09T11:15:15Z</time>
      </trkpt>
      <trkpt lat="45.73567" lon="6.26801">
        <ele>1141.8000488281</ele>
        <time>2012-06-09T11:15:22Z</time>
      </trkpt>
      <trkpt lat="45.73569" lon="6.26808">
        <ele>1140.4000244141</ele>
        <time>2012-06-09T11:15:25Z</time>
      </trkpt>
      <trkpt lat="45.73574" lon="6.26818">
        <ele>1138</ele>
        <time>2012-06-09T11:15:30Z</time>
      </trkpt>
      <trkpt lat="45.73577" lon="6.26825">
        <ele>1136.4000244141</ele>
        <time>2012-06-09T11:15:33Z</time>
      </trkpt>
      <trkpt lat="45.73584" lon="6.26846">
        <ele>1135.4000244141</ele>
        <time>2012-06-09T11:15:40Z</time>
      </trkpt>
      <trkpt lat="45.73583" lon="6.26852">
        <ele>1133</ele>
        <time>2012-06-09T11:15:42Z</time>
      </trkpt>
      <trkpt lat="45.73583" lon="6.26881">
        <ele>1130.5999755859</ele>
        <time>2012-06-09T11:15:51Z</time>
      </trkpt>
      <trkpt lat="45.73586" lon="6.26889">
        <ele>1128.5999755859</ele>
        <time>2012-06-09T11:15:55Z</time>
      </trkpt>
      <trkpt lat="45.73588" lon="6.26903">
        <ele>1126</ele>
        <time>2012-06-09T11:16:01Z</time>
      </trkpt>
      <trkpt lat="45.73589" lon="6.26913">
        <ele>1124.8000488281</ele>
        <time>2012-06-09T11:16:06Z</time>
      </trkpt>
      <trkpt lat="45.73592" lon="6.26922">
        <ele>1123.8000488281</ele>
        <time>2012-06-09T11:16:10Z</time>
      </trkpt>
      <trkpt lat="45.736" lon="6.26934">
        <ele>1122.8000488281</ele>
        <time>2012-06-09T11:16:16Z</time>
      </trkpt>
      <trkpt lat="45.736" lon="6.26937">
        <ele>1121.8000488281</ele>
        <time>2012-06-09T11:16:19Z</time>
      </trkpt>
      <trkpt lat="45.73603" lon="6.26945">
        <ele>1119.4000244141</ele>
        <time>2012-06-09T11:16:23Z</time>
      </trkpt>
      <trkpt lat="45.73605" lon="6.26953">
        <ele>1118.1999511719</ele>
        <time>2012-06-09T11:16:26Z</time>
      </trkpt>
      <trkpt lat="45.73614" lon="6.26967">
        <ele>1116.1999511719</ele>
        <time>2012-06-09T11:16:33Z</time>
      </trkpt>
      <trkpt lat="45.73632" lon="6.26986">
        <ele>1112.8000488281</ele>
        <time>2012-06-09T11:16:52Z</time>
      </trkpt>
      <trkpt lat="45.73635" lon="6.26996">
        <ele>1111.5999755859</ele>
        <time>2012-06-09T11:16:56Z</time>
      </trkpt>
      <trkpt lat="45.73646" lon="6.27015">
        <ele>1109</ele>
        <time>2012-06-09T11:17:04Z</time>
      </trkpt>
      <trkpt lat="45.73648" lon="6.27021">
        <ele>1106.5999755859</ele>
        <time>2012-06-09T11:17:07Z</time>
      </trkpt>
      <trkpt lat="45.73653" lon="6.27033">
        <ele>1105.5999755859</ele>
        <time>2012-06-09T11:17:12Z</time>
      </trkpt>
      <trkpt lat="45.73653" lon="6.27035">
        <ele>1104.4000244141</ele>
        <time>2012-06-09T11:17:13Z</time>
      </trkpt>
      <trkpt lat="45.73658" lon="6.27058">
        <ele>1101.8000488281</ele>
        <time>2012-06-09T11:17:20Z</time>
      </trkpt>
      <trkpt lat="45.73657" lon="6.27071">
        <ele>1099.5999755859</ele>
        <time>2012-06-09T11:17:24Z</time>
      </trkpt>
      <trkpt lat="45.73659" lon="6.27084">
        <ele>1097.4000244141</ele>
        <time>2012-06-09T11:17:28Z</time>
      </trkpt>
      <trkpt lat="45.73665" lon="6.27102">
        <ele>1093.5999755859</ele>
        <time>2012-06-09T11:17:36Z</time>
      </trkpt>
      <trkpt lat="45.73671" lon="6.27113">
        <ele>1092.4000244141</ele>
        <time>2012-06-09T11:17:40Z</time>
      </trkpt>
      <trkpt lat="45.73679" lon="6.27126">
        <ele>1090.1999511719</ele>
        <time>2012-06-09T11:17:46Z</time>
      </trkpt>
      <trkpt lat="45.73682" lon="6.27132">
        <ele>1089</ele>
        <time>2012-06-09T11:17:48Z</time>
      </trkpt>
      <trkpt lat="45.73691" lon="6.27145">
        <ele>1086.8000488281</ele>
        <time>2012-06-09T11:17:54Z</time>
      </trkpt>
      <trkpt lat="45.73697" lon="6.27151">
        <ele>1085.8000488281</ele>
        <time>2012-06-09T11:17:57Z</time>
      </trkpt>
      <trkpt lat="45.73699" lon="6.27159">
        <ele>1082.4000244141</ele>
        <time>2012-06-09T11:18:02Z</time>
      </trkpt>
      <trkpt lat="45.73701" lon="6.27165">
        <ele>1082.4000244141</ele>
        <time>2012-06-09T11:18:04Z</time>
      </trkpt>
      <trkpt lat="45.73702" lon="6.2718">
        <ele>1080.1999511719</ele>
        <time>2012-06-09T11:18:11Z</time>
      </trkpt>
      <trkpt lat="45.7372" lon="6.27197">
        <ele>1076.4000244141</ele>
        <time>2012-06-09T11:18:22Z</time>
      </trkpt>
      <trkpt lat="45.73727" lon="6.27207">
        <ele>1075.1999511719</ele>
        <time>2012-06-09T11:18:26Z</time>
      </trkpt>
      <trkpt lat="45.73739" lon="6.27222">
        <ele>1072.4000244141</ele>
        <time>2012-06-09T11:18:33Z</time>
      </trkpt>
      <trkpt lat="45.73743" lon="6.27232">
        <ele>1070</ele>
        <time>2012-06-09T11:18:38Z</time>
      </trkpt>
      <trkpt lat="45.73753" lon="6.27242">
        <ele>1068</ele>
        <time>2012-06-09T11:18:44Z</time>
      </trkpt>
      <trkpt lat="45.73755" lon="6.27245">
        <ele>1066.8000488281</ele>
        <time>2012-06-09T11:18:46Z</time>
      </trkpt>
      <trkpt lat="45.73758" lon="6.27255">
        <ele>1064.8000488281</ele>
        <time>2012-06-09T11:18:50Z</time>
      </trkpt>
      <trkpt lat="45.73763" lon="6.27267">
        <ele>1062.8000488281</ele>
        <time>2012-06-09T11:18:55Z</time>
      </trkpt>
      <trkpt lat="45.73768" lon="6.27277">
        <ele>1060.1999511719</ele>
        <time>2012-06-09T11:19:00Z</time>
      </trkpt>
      <trkpt lat="45.73777" lon="6.27293">
        <ele>1057</ele>
        <time>2012-06-09T11:19:06Z</time>
      </trkpt>
      <trkpt lat="45.73781" lon="6.27304">
        <ele>1055.8000488281</ele>
        <time>2012-06-09T11:19:10Z</time>
      </trkpt>
      <trkpt lat="45.73785" lon="6.27313">
        <ele>1053.4000244141</ele>
        <time>2012-06-09T11:19:13Z</time>
      </trkpt>
      <trkpt lat="45.73788" lon="6.27318">
        <ele>1052</ele>
        <time>2012-06-09T11:19:15Z</time>
      </trkpt>
      <trkpt lat="45.7379" lon="6.27325">
        <ele>1050</ele>
        <time>2012-06-09T11:19:18Z</time>
      </trkpt>
      <trkpt lat="45.73794" lon="6.27335">
        <ele>1049</ele>
        <time>2012-06-09T11:19:21Z</time>
      </trkpt>
      <trkpt lat="45.73797" lon="6.27345">
        <ele>1046.5999755859</ele>
        <time>2012-06-09T11:19:25Z</time>
      </trkpt>
      <trkpt lat="45.73799" lon="6.27348">
        <ele>1046.5999755859</ele>
        <time>2012-06-09T11:19:27Z</time>
      </trkpt>
      <trkpt lat="45.73799" lon="6.27359">
        <ele>1044.1999511719</ele>
        <time>2012-06-09T11:19:31Z</time>
      </trkpt>
      <trkpt lat="45.73802" lon="6.27376">
        <ele>1041</ele>
        <time>2012-06-09T11:19:38Z</time>
      </trkpt>
      <trkpt lat="45.73803" lon="6.27379">
        <ele>1041</ele>
        <time>2012-06-09T11:19:39Z</time>
      </trkpt>
      <trkpt lat="45.73808" lon="6.27392">
        <ele>1038.5999755859</ele>
        <time>2012-06-09T11:19:44Z</time>
      </trkpt>
      <trkpt lat="45.73815" lon="6.27402">
        <ele>1037.5999755859</ele>
        <time>2012-06-09T11:19:48Z</time>
      </trkpt>
      <trkpt lat="45.73818" lon="6.2741">
        <ele>1035.1999511719</ele>
        <time>2012-06-09T11:19:52Z</time>
      </trkpt>
      <trkpt lat="45.73819" lon="6.27412">
        <ele>1035.1999511719</ele>
        <time>2012-06-09T11:19:53Z</time>
      </trkpt>
      <trkpt lat="45.73823" lon="6.27423">
        <ele>1031.8000488281</ele>
        <time>2012-06-09T11:19:58Z</time>
      </trkpt>
      <trkpt lat="45.73828" lon="6.27437">
        <ele>1029.1999511719</ele>
        <time>2012-06-09T11:20:04Z</time>
      </trkpt>
      <trkpt lat="45.7383" lon="6.2745">
        <ele>1028.1999511719</ele>
        <time>2012-06-09T11:20:09Z</time>
      </trkpt>
      <trkpt lat="45.73831" lon="6.27464">
        <ele>1025</ele>
        <time>2012-06-09T11:20:15Z</time>
      </trkpt>
      <trkpt lat="45.73833" lon="6.27468">
        <ele>1025</ele>
        <time>2012-06-09T11:20:17Z</time>
      </trkpt>
      <trkpt lat="45.73836" lon="6.27479">
        <ele>1022.5999755859</ele>
        <time>2012-06-09T11:20:22Z</time>
      </trkpt>
      <trkpt lat="45.7384" lon="6.27482">
        <ele>1021.5999755859</ele>
        <time>2012-06-09T11:20:24Z</time>
      </trkpt>
      <trkpt lat="45.73842" lon="6.27488">
        <ele>1020.4000244141</ele>
        <time>2012-06-09T11:20:27Z</time>
      </trkpt>
      <trkpt lat="45.73843" lon="6.27491">
        <ele>1018.200012207</ele>
        <time>2012-06-09T11:20:30Z</time>
      </trkpt>
      <trkpt lat="45.73847" lon="6.275">
        <ele>1018.200012207</ele>
        <time>2012-06-09T11:20:36Z</time>
      </trkpt>
      <trkpt lat="45.73848" lon="6.27502">
        <ele>1016.5999755859</ele>
        <time>2012-06-09T11:20:37Z</time>
      </trkpt>
      <trkpt lat="45.73851" lon="6.27504">
        <ele>1016.5999755859</ele>
        <time>2012-06-09T11:20:46Z</time>
      </trkpt>
      <trkpt lat="45.73866" lon="6.27525">
        <ele>1014</ele>
        <time>2012-06-09T11:20:57Z</time>
      </trkpt>
      <trkpt lat="45.73869" lon="6.27527">
        <ele>1013</ele>
        <time>2012-06-09T11:20:58Z</time>
      </trkpt>
      <trkpt lat="45.73877" lon="6.27543">
        <ele>1011.5999755859</ele>
        <time>2012-06-09T11:21:04Z</time>
      </trkpt>
      <trkpt lat="45.73878" lon="6.27548">
        <ele>1010</ele>
        <time>2012-06-09T11:21:06Z</time>
      </trkpt>
      <trkpt lat="45.73885" lon="6.27558">
        <ele>1008</ele>
        <time>2012-06-09T11:21:11Z</time>
      </trkpt>
      <trkpt lat="45.73886" lon="6.27559">
        <ele>1006.5999755859</ele>
        <time>2012-06-09T11:21:12Z</time>
      </trkpt>
      <trkpt lat="45.73896" lon="6.27578">
        <ele>1005.200012207</ele>
        <time>2012-06-09T11:21:18Z</time>
      </trkpt>
      <trkpt lat="45.73903" lon="6.27589">
        <ele>1002.5999755859</ele>
        <time>2012-06-09T11:21:21Z</time>
      </trkpt>
      <trkpt lat="45.7391" lon="6.27605">
        <ele>999.79998779297</ele>
        <time>2012-06-09T11:21:26Z</time>
      </trkpt>
      <trkpt lat="45.73922" lon="6.27627">
        <ele>996.79998779297</ele>
        <time>2012-06-09T11:21:34Z</time>
      </trkpt>
      <trkpt lat="45.73924" lon="6.27636">
        <ele>995.59997558594</ele>
        <time>2012-06-09T11:21:37Z</time>
      </trkpt>
      <trkpt lat="45.73927" lon="6.27662">
        <ele>992.20001220703</ele>
        <time>2012-06-09T11:21:44Z</time>
      </trkpt>
      <trkpt lat="45.73927" lon="6.27667">
        <ele>992.20001220703</ele>
        <time>2012-06-09T11:21:45Z</time>
      </trkpt>
      <trkpt lat="45.73932" lon="6.27687">
        <ele>990</ele>
        <time>2012-06-09T11:21:50Z</time>
      </trkpt>
      <trkpt lat="45.7393" lon="6.27702">
        <ele>989</ele>
        <time>2012-06-09T11:21:54Z</time>
      </trkpt>
      <trkpt lat="45.73928" lon="6.27717">
        <ele>986.79998779297</ele>
        <time>2012-06-09T11:21:58Z</time>
      </trkpt>
      <trkpt lat="45.73926" lon="6.27727">
        <ele>985.20001220703</ele>
        <time>2012-06-09T11:22:01Z</time>
      </trkpt>
      <trkpt lat="45.73922" lon="6.27744">
        <ele>981.79998779297</ele>
        <time>2012-06-09T11:22:06Z</time>
      </trkpt>
      <trkpt lat="45.73912" lon="6.27772">
        <ele>974.40002441406</ele>
        <time>2012-06-09T11:22:14Z</time>
      </trkpt>
      <trkpt lat="45.73909" lon="6.27774">
        <ele>974.40002441406</ele>
        <time>2012-06-09T11:22:15Z</time>
      </trkpt>
      <trkpt lat="45.73899" lon="6.27785">
        <ele>971.40002441406</ele>
        <time>2012-06-09T11:22:20Z</time>
      </trkpt>
      <trkpt lat="45.73891" lon="6.27796">
        <ele>969.20001220703</ele>
        <time>2012-06-09T11:22:24Z</time>
      </trkpt>
      <trkpt lat="45.73881" lon="6.27805">
        <ele>967</ele>
        <time>2012-06-09T11:22:30Z</time>
      </trkpt>
      <trkpt lat="45.7388" lon="6.27806">
        <ele>967</ele>
        <time>2012-06-09T11:22:31Z</time>
      </trkpt>
      <trkpt lat="45.73875" lon="6.27812">
        <ele>964.59997558594</ele>
        <time>2012-06-09T11:22:34Z</time>
      </trkpt>
      <trkpt lat="45.73868" lon="6.27817">
        <ele>964.59997558594</ele>
        <time>2012-06-09T11:22:38Z</time>
      </trkpt>
      <trkpt lat="45.73857" lon="6.27828">
        <ele>964.59997558594</ele>
        <time>2012-06-09T11:22:44Z</time>
      </trkpt>
      <trkpt lat="45.73841" lon="6.2785">
        <ele>963.40002441406</ele>
        <time>2012-06-09T11:22:53Z</time>
      </trkpt>
      <trkpt lat="45.73835" lon="6.2786">
        <ele>962.40002441406</ele>
        <time>2012-06-09T11:22:57Z</time>
      </trkpt>
      <trkpt lat="45.73822" lon="6.2787">
        <ele>960</ele>
        <time>2012-06-09T11:23:05Z</time>
      </trkpt>
      <trkpt lat="45.73821" lon="6.27872">
        <ele>960</ele>
        <time>2012-06-09T11:23:06Z</time>
      </trkpt>
      <trkpt lat="45.73816" lon="6.27876">
        <ele>957.79998779297</ele>
        <time>2012-06-09T11:23:11Z</time>
      </trkpt>
      <trkpt lat="45.73811" lon="6.2788">
        <ele>955.59997558594</ele>
        <time>2012-06-09T11:23:15Z</time>
      </trkpt>
      <trkpt lat="45.73801" lon="6.27893">
        <ele>951.79998779297</ele>
        <time>2012-06-09T11:23:22Z</time>
      </trkpt>
      <trkpt lat="45.73798" lon="6.27898">
        <ele>950.79998779297</ele>
        <time>2012-06-09T11:23:24Z</time>
      </trkpt>
      <trkpt lat="45.73783" lon="6.2791">
        <ele>949.20001220703</ele>
        <time>2012-06-09T11:23:31Z</time>
      </trkpt>
      <trkpt lat="45.73766" lon="6.27938">
        <ele>944.20001220703</ele>
        <time>2012-06-09T11:23:42Z</time>
      </trkpt>
      <trkpt lat="45.73759" lon="6.27948">
        <ele>944.20001220703</ele>
        <time>2012-06-09T11:23:46Z</time>
      </trkpt>
      <trkpt lat="45.73749" lon="6.27963">
        <ele>943</ele>
        <time>2012-06-09T11:23:52Z</time>
      </trkpt>
      <trkpt lat="45.73731" lon="6.27985">
        <ele>943</ele>
        <time>2012-06-09T11:24:01Z</time>
      </trkpt>
      <trkpt lat="45.73717" lon="6.27998">
        <ele>940.59997558594</ele>
        <time>2012-06-09T11:24:07Z</time>
      </trkpt>
      <trkpt lat="45.73715" lon="6.28003">
        <ele>940.59997558594</ele>
        <time>2012-06-09T11:24:09Z</time>
      </trkpt>
      <trkpt lat="45.73705" lon="6.28014">
        <ele>938.59997558594</ele>
        <time>2012-06-09T11:24:15Z</time>
      </trkpt>
      <trkpt lat="45.737" lon="6.2802">
        <ele>936.40002441406</ele>
        <time>2012-06-09T11:24:20Z</time>
      </trkpt>
      <trkpt lat="45.73694" lon="6.28029">
        <ele>935.40002441406</ele>
        <time>2012-06-09T11:24:25Z</time>
      </trkpt>
      <trkpt lat="45.73679" lon="6.28043">
        <ele>930.20001220703</ele>
        <time>2012-06-09T11:24:33Z</time>
      </trkpt>
      <trkpt lat="45.73676" lon="6.28045">
        <ele>929.20001220703</ele>
        <time>2012-06-09T11:24:35Z</time>
      </trkpt>
      <trkpt lat="45.73669" lon="6.28055">
        <ele>928</ele>
        <time>2012-06-09T11:24:39Z</time>
      </trkpt>
      <trkpt lat="45.73667" lon="6.28058">
        <ele>927</ele>
        <time>2012-06-09T11:24:40Z</time>
      </trkpt>
      <trkpt lat="45.73659" lon="6.28077">
        <ele>924.59997558594</ele>
        <time>2012-06-09T11:24:47Z</time>
      </trkpt>
      <trkpt lat="45.73657" lon="6.28083">
        <ele>924.59997558594</ele>
        <time>2012-06-09T11:24:49Z</time>
      </trkpt>
      <trkpt lat="45.73657" lon="6.28102">
        <ele>921.59997558594</ele>
        <time>2012-06-09T11:24:56Z</time>
      </trkpt>
      <trkpt lat="45.73657" lon="6.28111">
        <ele>921.59997558594</ele>
        <time>2012-06-09T11:24:59Z</time>
      </trkpt>
      <trkpt lat="45.73652" lon="6.28126">
        <ele>919.20001220703</ele>
        <time>2012-06-09T11:25:06Z</time>
      </trkpt>
      <trkpt lat="45.7364" lon="6.28146">
        <ele>915.59997558594</ele>
        <time>2012-06-09T11:25:18Z</time>
      </trkpt>
      <trkpt lat="45.7364" lon="6.28147">
        <ele>914.20001220703</ele>
        <time>2012-06-09T11:25:19Z</time>
      </trkpt>
      <trkpt lat="45.73646" lon="6.28147">
        <ele>912</ele>
        <time>2012-06-09T11:25:24Z</time>
      </trkpt>
      <trkpt lat="45.73648" lon="6.28147">
        <ele>910.79998779297</ele>
        <time>2012-06-09T11:25:27Z</time>
      </trkpt>
      <trkpt lat="45.73657" lon="6.28141">
        <ele>907</ele>
        <time>2012-06-09T11:25:35Z</time>
      </trkpt>
      <trkpt lat="45.73659" lon="6.28139">
        <ele>907</ele>
        <time>2012-06-09T11:25:36Z</time>
      </trkpt>
      <trkpt lat="45.73663" lon="6.28131">
        <ele>904.79998779297</ele>
        <time>2012-06-09T11:25:41Z</time>
      </trkpt>
      <trkpt lat="45.73675" lon="6.2813">
        <ele>902.40002441406</ele>
        <time>2012-06-09T11:25:47Z</time>
      </trkpt>
      <trkpt lat="45.73682" lon="6.2813">
        <ele>901</ele>
        <time>2012-06-09T11:25:51Z</time>
      </trkpt>
      <trkpt lat="45.73691" lon="6.28135">
        <ele>898.79998779297</ele>
        <time>2012-06-09T11:26:00Z</time>
      </trkpt>
      <trkpt lat="45.73695" lon="6.28138">
        <ele>897.79998779297</ele>
        <time>2012-06-09T11:26:04Z</time>
      </trkpt>
      <trkpt lat="45.73691" lon="6.28145">
        <ele>895.40002441406</ele>
        <time>2012-06-09T11:26:10Z</time>
      </trkpt>
      <trkpt lat="45.73689" lon="6.28146">
        <ele>895.40002441406</ele>
        <time>2012-06-09T11:26:12Z</time>
      </trkpt>
      <trkpt lat="45.73684" lon="6.28155">
        <ele>893.40002441406</ele>
        <time>2012-06-09T11:26:18Z</time>
      </trkpt>
      <trkpt lat="45.73682" lon="6.28158">
        <ele>893.40002441406</ele>
        <time>2012-06-09T11:26:21Z</time>
      </trkpt>
      <trkpt lat="45.73675" lon="6.28169">
        <ele>891.79998779297</ele>
        <time>2012-06-09T11:26:27Z</time>
      </trkpt>
      <trkpt lat="45.73674" lon="6.28171">
        <ele>890.59997558594</ele>
        <time>2012-06-09T11:26:30Z</time>
      </trkpt>
      <trkpt lat="45.73675" lon="6.28171">
        <ele>889.59997558594</ele>
        <time>2012-06-09T11:26:34Z</time>
      </trkpt>
      <trkpt lat="45.73698" lon="6.28169">
        <ele>885</ele>
        <time>2012-06-09T11:26:47Z</time>
      </trkpt>
      <trkpt lat="45.73701" lon="6.28169">
        <ele>883.79998779297</ele>
        <time>2012-06-09T11:26:49Z</time>
      </trkpt>
      <trkpt lat="45.73697" lon="6.2818">
        <ele>882.40002441406</ele>
        <time>2012-06-09T11:26:58Z</time>
      </trkpt>
      <trkpt lat="45.73684" lon="6.28196">
        <ele>881.40002441406</ele>
        <time>2012-06-09T11:27:06Z</time>
      </trkpt>
      <trkpt lat="45.73664" lon="6.2822">
        <ele>881.40002441406</ele>
        <time>2012-06-09T11:27:18Z</time>
      </trkpt>
      <trkpt lat="45.73661" lon="6.28225">
        <ele>881.40002441406</ele>
        <time>2012-06-09T11:27:20Z</time>
      </trkpt>
      <trkpt lat="45.73642" lon="6.28247">
        <ele>880.40002441406</ele>
        <time>2012-06-09T11:27:31Z</time>
      </trkpt>
      <trkpt lat="45.7363" lon="6.28262">
        <ele>880.40002441406</ele>
        <time>2012-06-09T11:27:38Z</time>
      </trkpt>
      <trkpt lat="45.73601" lon="6.28291">
        <ele>879</ele>
        <time>2012-06-09T11:27:53Z</time>
      </trkpt>
      <trkpt lat="45.73576" lon="6.28329">
        <ele>877.79998779297</ele>
        <time>2012-06-09T11:28:08Z</time>
      </trkpt>
      <trkpt lat="45.73558" lon="6.28354">
        <ele>875.59997558594</ele>
        <time>2012-06-09T11:28:18Z</time>
      </trkpt>
      <trkpt lat="45.73541" lon="6.28368">
        <ele>873.20001220703</ele>
        <time>2012-06-09T11:28:25Z</time>
      </trkpt>
      <trkpt lat="45.73532" lon="6.28377">
        <ele>873.20001220703</ele>
        <time>2012-06-09T11:28:29Z</time>
      </trkpt>
      <trkpt lat="45.73517" lon="6.28395">
        <ele>870</ele>
        <time>2012-06-09T11:28:37Z</time>
      </trkpt>
      <trkpt lat="45.73508" lon="6.28404">
        <ele>869</ele>
        <time>2012-06-09T11:28:41Z</time>
      </trkpt>
      <trkpt lat="45.73488" lon="6.28429">
        <ele>866.79998779297</ele>
        <time>2012-06-09T11:28:50Z</time>
      </trkpt>
      <trkpt lat="45.73479" lon="6.28439">
        <ele>866.79998779297</ele>
        <time>2012-06-09T11:28:54Z</time>
      </trkpt>
      <trkpt lat="45.73454" lon="6.28461">
        <ele>863.59997558594</ele>
        <time>2012-06-09T11:29:05Z</time>
      </trkpt>
      <trkpt lat="45.73437" lon="6.28477">
        <ele>861</ele>
        <time>2012-06-09T11:29:13Z</time>
      </trkpt>
      <trkpt lat="45.73433" lon="6.28481">
        <ele>861</ele>
        <time>2012-06-09T11:29:15Z</time>
      </trkpt>
      <trkpt lat="45.73401" lon="6.28518">
        <ele>861</ele>
        <time>2012-06-09T11:29:29Z</time>
      </trkpt>
      <trkpt lat="45.73383" lon="6.2854">
        <ele>861</ele>
        <time>2012-06-09T11:29:38Z</time>
      </trkpt>
      <trkpt lat="45.73377" lon="6.28543">
        <ele>858.79998779297</ele>
        <time>2012-06-09T11:29:42Z</time>
      </trkpt>
      <trkpt lat="45.73376" lon="6.28545">
        <ele>858.79998779297</ele>
        <time>2012-06-09T11:29:46Z</time>
      </trkpt>
      <trkpt lat="45.73366" lon="6.2856">
        <ele>857.79998779297</ele>
        <time>2012-06-09T11:29:54Z</time>
      </trkpt>
      <trkpt lat="45.73357" lon="6.28574">
        <ele>857.79998779297</ele>
        <time>2012-06-09T11:29:59Z</time>
      </trkpt>
      <trkpt lat="45.73345" lon="6.2859">
        <ele>856.79998779297</ele>
        <time>2012-06-09T11:30:05Z</time>
      </trkpt>
      <trkpt lat="45.73327" lon="6.28625">
        <ele>854.59997558594</ele>
        <time>2012-06-09T11:30:15Z</time>
      </trkpt>
      <trkpt lat="45.73313" lon="6.2866">
        <ele>854.59997558594</ele>
        <time>2012-06-09T11:30:26Z</time>
      </trkpt>
      <trkpt lat="45.733" lon="6.28693">
        <ele>853.40002441406</ele>
        <time>2012-06-09T11:30:35Z</time>
      </trkpt>
      <trkpt lat="45.73295" lon="6.28709">
        <ele>853.40002441406</ele>
        <time>2012-06-09T11:30:39Z</time>
      </trkpt>
      <trkpt lat="45.7329" lon="6.28731">
        <ele>852.40002441406</ele>
        <time>2012-06-09T11:30:45Z</time>
      </trkpt>
      <trkpt lat="45.73291" lon="6.28752">
        <ele>851</ele>
        <time>2012-06-09T11:30:51Z</time>
      </trkpt>
      <trkpt lat="45.73297" lon="6.28778">
        <ele>851</ele>
        <time>2012-06-09T11:30:58Z</time>
      </trkpt>
      <trkpt lat="45.73297" lon="6.28782">
        <ele>851</ele>
        <time>2012-06-09T11:30:59Z</time>
      </trkpt>
      <trkpt lat="45.73301" lon="6.28808">
        <ele>849.79998779297</ele>
        <time>2012-06-09T11:31:06Z</time>
      </trkpt>
      <trkpt lat="45.73314" lon="6.28855">
        <ele>847.40002441406</ele>
        <time>2012-06-09T11:31:19Z</time>
      </trkpt>
      <trkpt lat="45.73314" lon="6.28863">
        <ele>847.40002441406</ele>
        <time>2012-06-09T11:31:21Z</time>
      </trkpt>
      <trkpt lat="45.73324" lon="6.28912">
        <ele>846.40002441406</ele>
        <time>2012-06-09T11:31:34Z</time>
      </trkpt>
      <trkpt lat="45.73323" lon="6.28936">
        <ele>845</ele>
        <time>2012-06-09T11:31:40Z</time>
      </trkpt>
      <trkpt lat="45.73306" lon="6.28959">
        <ele>843.79998779297</ele>
        <time>2012-06-09T11:31:49Z</time>
      </trkpt>
      <trkpt lat="45.73303" lon="6.28961">
        <ele>842.59997558594</ele>
        <time>2012-06-09T11:31:50Z</time>
      </trkpt>
      <trkpt lat="45.7328" lon="6.28971">
        <ele>840.20001220703</ele>
        <time>2012-06-09T11:31:59Z</time>
      </trkpt>
      <trkpt lat="45.73272" lon="6.28974">
        <ele>839</ele>
        <time>2012-06-09T11:32:02Z</time>
      </trkpt>
      <trkpt lat="45.73253" lon="6.28986">
        <ele>836.59997558594</ele>
        <time>2012-06-09T11:32:10Z</time>
      </trkpt>
      <trkpt lat="45.73231" lon="6.29007">
        <ele>835.59997558594</ele>
        <time>2012-06-09T11:32:19Z</time>
      </trkpt>
      <trkpt lat="45.73224" lon="6.29014">
        <ele>834.20001220703</ele>
        <time>2012-06-09T11:32:22Z</time>
      </trkpt>
      <trkpt lat="45.732" lon="6.29043">
        <ele>833.20001220703</ele>
        <time>2012-06-09T11:32:33Z</time>
      </trkpt>
      <trkpt lat="45.73196" lon="6.29047">
        <ele>832</ele>
        <time>2012-06-09T11:32:35Z</time>
      </trkpt>
      <trkpt lat="45.73165" lon="6.29075">
        <ele>832</ele>
        <time>2012-06-09T11:32:49Z</time>
      </trkpt>
      <trkpt lat="45.73157" lon="6.29079">
        <ele>830.79998779297</ele>
        <time>2012-06-09T11:32:53Z</time>
      </trkpt>
      <trkpt lat="45.73127" lon="6.29103">
        <ele>830.79998779297</ele>
        <time>2012-06-09T11:33:07Z</time>
      </trkpt>
      <trkpt lat="45.73126" lon="6.29105">
        <ele>830.79998779297</ele>
        <time>2012-06-09T11:33:08Z</time>
      </trkpt>
      <trkpt lat="45.73115" lon="6.29116">
        <ele>829.79998779297</ele>
        <time>2012-06-09T11:33:16Z</time>
      </trkpt>
      <trkpt lat="45.73129" lon="6.29117">
        <ele>827.59997558594</ele>
        <time>2012-06-09T11:33:33Z</time>
      </trkpt>
      <trkpt lat="45.73131" lon="6.29116">
        <ele>827.59997558594</ele>
        <time>2012-06-09T11:33:34Z</time>
      </trkpt>
      <trkpt lat="45.73176" lon="6.29097">
        <ele>826.40002441406</ele>
        <time>2012-06-09T11:33:51Z</time>
      </trkpt>
      <trkpt lat="45.73193" lon="6.29089">
        <ele>825</ele>
        <time>2012-06-09T11:33:57Z</time>
      </trkpt>
      <trkpt lat="45.73221" lon="6.29082">
        <ele>824</ele>
        <time>2012-06-09T11:34:07Z</time>
      </trkpt>
      <trkpt lat="45.73225" lon="6.29081">
        <ele>822.59997558594</ele>
        <time>2012-06-09T11:34:09Z</time>
      </trkpt>
      <trkpt lat="45.73244" lon="6.291">
        <ele>821.20001220703</ele>
        <time>2012-06-09T11:34:19Z</time>
      </trkpt>
      <trkpt lat="45.7325" lon="6.29105">
        <ele>820</ele>
        <time>2012-06-09T11:34:22Z</time>
      </trkpt>
      <trkpt lat="45.73257" lon="6.29108">
        <ele>817.79998779297</ele>
        <time>2012-06-09T11:34:25Z</time>
      </trkpt>
      <trkpt lat="45.73281" lon="6.29115">
        <ele>814</ele>
        <time>2012-06-09T11:34:34Z</time>
      </trkpt>
      <trkpt lat="45.73287" lon="6.29119">
        <ele>812.79998779297</ele>
        <time>2012-06-09T11:34:37Z</time>
      </trkpt>
      <trkpt lat="45.73293" lon="6.29121">
        <ele>811.40002441406</ele>
        <time>2012-06-09T11:34:42Z</time>
      </trkpt>
      <trkpt lat="45.73294" lon="6.29123">
        <ele>810.40002441406</ele>
        <time>2012-06-09T11:34:44Z</time>
      </trkpt>
      <trkpt lat="45.7331" lon="6.29133">
        <ele>806.59997558594</ele>
        <time>2012-06-09T11:34:51Z</time>
      </trkpt>
      <trkpt lat="45.73322" lon="6.29134">
        <ele>804.40002441406</ele>
        <time>2012-06-09T11:34:56Z</time>
      </trkpt>
      <trkpt lat="45.73329" lon="6.29131">
        <ele>802.20001220703</ele>
        <time>2012-06-09T11:35:01Z</time>
      </trkpt>
      <trkpt lat="45.73332" lon="6.29129">
        <ele>801</ele>
        <time>2012-06-09T11:35:02Z</time>
      </trkpt>
      <trkpt lat="45.73355" lon="6.29126">
        <ele>798.79998779297</ele>
        <time>2012-06-09T11:35:10Z</time>
      </trkpt>
      <trkpt lat="45.7338" lon="6.2912">
        <ele>795.40002441406</ele>
        <time>2012-06-09T11:35:18Z</time>
      </trkpt>
      <trkpt lat="45.73381" lon="6.2912">
        <ele>795.40002441406</ele>
        <time>2012-06-09T11:35:19Z</time>
      </trkpt>
      <trkpt lat="45.73382" lon="6.29121">
        <ele>792.79998779297</ele>
        <time>2012-06-09T11:35:22Z</time>
      </trkpt>
      <trkpt lat="45.73387" lon="6.29124">
        <ele>791.79998779297</ele>
        <time>2012-06-09T11:35:24Z</time>
      </trkpt>
      <trkpt lat="45.73403" lon="6.29128">
        <ele>789.59997558594</ele>
        <time>2012-06-09T11:35:30Z</time>
      </trkpt>
      <trkpt lat="45.73405" lon="6.29128">
        <ele>788.40002441406</ele>
        <time>2012-06-09T11:35:31Z</time>
      </trkpt>
      <trkpt lat="45.73416" lon="6.29131">
        <ele>786</ele>
        <time>2012-06-09T11:35:35Z</time>
      </trkpt>
      <trkpt lat="45.73426" lon="6.29134">
        <ele>783.59997558594</ele>
        <time>2012-06-09T11:35:38Z</time>
      </trkpt>
      <trkpt lat="45.73436" lon="6.29141">
        <ele>781.20001220703</ele>
        <time>2012-06-09T11:35:42Z</time>
      </trkpt>
      <trkpt lat="45.73449" lon="6.2915">
        <ele>779.20001220703</ele>
        <time>2012-06-09T11:35:49Z</time>
      </trkpt>
      <trkpt lat="45.73452" lon="6.29156">
        <ele>776.59997558594</ele>
        <time>2012-06-09T11:35:51Z</time>
      </trkpt>
      <trkpt lat="45.73466" lon="6.29168">
        <ele>773</ele>
        <time>2012-06-09T11:35:58Z</time>
      </trkpt>
      <trkpt lat="45.73467" lon="6.29168">
        <ele>773</ele>
        <time>2012-06-09T11:35:59Z</time>
      </trkpt>
      <trkpt lat="45.73477" lon="6.2917">
        <ele>770.59997558594</ele>
        <time>2012-06-09T11:36:03Z</time>
      </trkpt>
      <trkpt lat="45.73487" lon="6.2917">
        <ele>768.20001220703</ele>
        <time>2012-06-09T11:36:08Z</time>
      </trkpt>
      <trkpt lat="45.73498" lon="6.29168">
        <ele>766</ele>
        <time>2012-06-09T11:36:13Z</time>
      </trkpt>
      <trkpt lat="45.735" lon="6.29168">
        <ele>764.59997558594</ele>
        <time>2012-06-09T11:36:14Z</time>
      </trkpt>
      <trkpt lat="45.73507" lon="6.29167">
        <ele>761.79998779297</ele>
        <time>2012-06-09T11:36:19Z</time>
      </trkpt>
      <trkpt lat="45.7352" lon="6.29167">
        <ele>756</ele>
        <time>2012-06-09T11:36:27Z</time>
      </trkpt>
      <trkpt lat="45.73525" lon="6.29168">
        <ele>755</ele>
        <time>2012-06-09T11:36:32Z</time>
      </trkpt>
      <trkpt lat="45.73536" lon="6.29167">
        <ele>751</ele>
        <time>2012-06-09T11:36:39Z</time>
      </trkpt>
      <trkpt lat="45.73544" lon="6.29167">
        <ele>748.59997558594</ele>
        <time>2012-06-09T11:36:42Z</time>
      </trkpt>
      <trkpt lat="45.73556" lon="6.29171">
        <ele>746.40002441406</ele>
        <time>2012-06-09T11:36:48Z</time>
      </trkpt>
      <trkpt lat="45.73557" lon="6.29172">
        <ele>746.40002441406</ele>
        <time>2012-06-09T11:36:49Z</time>
      </trkpt>
      <trkpt lat="45.73566" lon="6.29173">
        <ele>744</ele>
        <time>2012-06-09T11:36:53Z</time>
      </trkpt>
      <trkpt lat="45.73575" lon="6.29173">
        <ele>742.79998779297</ele>
        <time>2012-06-09T11:36:56Z</time>
      </trkpt>
      <trkpt lat="45.73585" lon="6.29172">
        <ele>741.40002441406</ele>
        <time>2012-06-09T11:37:01Z</time>
      </trkpt>
      <trkpt lat="45.73599" lon="6.2917">
        <ele>737.59997558594</ele>
        <time>2012-06-09T11:37:08Z</time>
      </trkpt>
      <trkpt lat="45.73605" lon="6.29167">
        <ele>737.59997558594</ele>
        <time>2012-06-09T11:37:10Z</time>
      </trkpt>
      <trkpt lat="45.73619" lon="6.29161">
        <ele>735</ele>
        <time>2012-06-09T11:37:15Z</time>
      </trkpt>
      <trkpt lat="45.73622" lon="6.29159">
        <ele>733.79998779297</ele>
        <time>2012-06-09T11:37:16Z</time>
      </trkpt>
      <trkpt lat="45.7364" lon="6.29148">
        <ele>731.59997558594</ele>
        <time>2012-06-09T11:37:22Z</time>
      </trkpt>
      <trkpt lat="45.73646" lon="6.29145">
        <ele>730</ele>
        <time>2012-06-09T11:37:25Z</time>
      </trkpt>
      <trkpt lat="45.73653" lon="6.29138">
        <ele>727.40002441406</ele>
        <time>2012-06-09T11:37:28Z</time>
      </trkpt>
      <trkpt lat="45.73661" lon="6.29135">
        <ele>727.40002441406</ele>
        <time>2012-06-09T11:37:30Z</time>
      </trkpt>
      <trkpt lat="45.73676" lon="6.2913">
        <ele>726.20001220703</ele>
        <time>2012-06-09T11:37:35Z</time>
      </trkpt>
      <trkpt lat="45.73702" lon="6.29125">
        <ele>722.40002441406</ele>
        <time>2012-06-09T11:37:46Z</time>
      </trkpt>
      <trkpt lat="45.73707" lon="6.29123">
        <ele>721.20001220703</ele>
        <time>2012-06-09T11:37:48Z</time>
      </trkpt>
      <trkpt lat="45.73723" lon="6.29123">
        <ele>719.20001220703</ele>
        <time>2012-06-09T11:37:56Z</time>
      </trkpt>
      <trkpt lat="45.73733" lon="6.29116">
        <ele>717.59997558594</ele>
        <time>2012-06-09T11:38:01Z</time>
      </trkpt>
      <trkpt lat="45.7374" lon="6.29107">
        <ele>717.59997558594</ele>
        <time>2012-06-09T11:38:06Z</time>
      </trkpt>
      <trkpt lat="45.73743" lon="6.29099">
        <ele>716.40002441406</ele>
        <time>2012-06-09T11:38:08Z</time>
      </trkpt>
      <trkpt lat="45.7376" lon="6.29081">
        <ele>714.79998779297</ele>
        <time>2012-06-09T11:38:15Z</time>
      </trkpt>
      <trkpt lat="45.73776" lon="6.29063">
        <ele>714.79998779297</ele>
        <time>2012-06-09T11:38:23Z</time>
      </trkpt>
      <trkpt lat="45.73786" lon="6.29053">
        <ele>714.79998779297</ele>
        <time>2012-06-09T11:38:27Z</time>
      </trkpt>
      <trkpt lat="45.73794" lon="6.29031">
        <ele>712.40002441406</ele>
        <time>2012-06-09T11:38:33Z</time>
      </trkpt>
      <trkpt lat="45.738" lon="6.29018">
        <ele>710.79998779297</ele>
        <time>2012-06-09T11:38:36Z</time>
      </trkpt>
      <trkpt lat="45.73807" lon="6.28998">
        <ele>708.40002441406</ele>
        <time>2012-06-09T11:38:42Z</time>
      </trkpt>
      <trkpt lat="45.73808" lon="6.28985">
        <ele>708.40002441406</ele>
        <time>2012-06-09T11:38:45Z</time>
      </trkpt>
      <trkpt lat="45.73816" lon="6.28969">
        <ele>705.59997558594</ele>
        <time>2012-06-09T11:38:50Z</time>
      </trkpt>
      <trkpt lat="45.73823" lon="6.28958">
        <ele>703.40002441406</ele>
        <time>2012-06-09T11:38:53Z</time>
      </trkpt>
      <trkpt lat="45.73831" lon="6.28947">
        <ele>702</ele>
        <time>2012-06-09T11:38:57Z</time>
      </trkpt>
      <trkpt lat="45.73834" lon="6.28944">
        <ele>700.59997558594</ele>
        <time>2012-06-09T11:38:58Z</time>
      </trkpt>
      <trkpt lat="45.73851" lon="6.28928">
        <ele>697</ele>
        <time>2012-06-09T11:39:06Z</time>
      </trkpt>
      <trkpt lat="45.73869" lon="6.28907">
        <ele>691.79998779297</ele>
        <time>2012-06-09T11:39:15Z</time>
      </trkpt>
      <trkpt lat="45.7387" lon="6.28906">
        <ele>690.59997558594</ele>
        <time>2012-06-09T11:39:16Z</time>
      </trkpt>
      <trkpt lat="45.73878" lon="6.28903">
        <ele>687.79998779297</ele>
        <time>2012-06-09T11:39:20Z</time>
      </trkpt>
      <trkpt lat="45.73888" lon="6.28901">
        <ele>686.59997558594</ele>
        <time>2012-06-09T11:39:23Z</time>
      </trkpt>
      <trkpt lat="45.73898" lon="6.28893">
        <ele>684.20001220703</ele>
        <time>2012-06-09T11:39:27Z</time>
      </trkpt>
      <trkpt lat="45.73901" lon="6.28891">
        <ele>683.20001220703</ele>
        <time>2012-06-09T11:39:28Z</time>
      </trkpt>
      <trkpt lat="45.73915" lon="6.28875">
        <ele>680.20001220703</ele>
        <time>2012-06-09T11:39:34Z</time>
      </trkpt>
      <trkpt lat="45.73932" lon="6.28854">
        <ele>677.79998779297</ele>
        <time>2012-06-09T11:39:43Z</time>
      </trkpt>
      <trkpt lat="45.73948" lon="6.28859">
        <ele>676.59997558594</ele>
        <time>2012-06-09T11:39:49Z</time>
      </trkpt>
      <trkpt lat="45.7396" lon="6.28865">
        <ele>674.40002441406</ele>
        <time>2012-06-09T11:39:54Z</time>
      </trkpt>
      <trkpt lat="45.73969" lon="6.28865">
        <ele>672.20001220703</ele>
        <time>2012-06-09T11:39:57Z</time>
      </trkpt>
      <trkpt lat="45.73988" lon="6.28861">
        <ele>669.79998779297</ele>
        <time>2012-06-09T11:40:04Z</time>
      </trkpt>
      <trkpt lat="45.73996" lon="6.28857">
        <ele>668.59997558594</ele>
        <time>2012-06-09T11:40:08Z</time>
      </trkpt>
      <trkpt lat="45.74009" lon="6.28844">
        <ele>668.59997558594</ele>
        <time>2012-06-09T11:40:16Z</time>
      </trkpt>
      <trkpt lat="45.74019" lon="6.28834">
        <ele>668.59997558594</ele>
        <time>2012-06-09T11:40:21Z</time>
      </trkpt>
      <trkpt lat="45.74034" lon="6.28825">
        <ele>666.40002441406</ele>
        <time>2012-06-09T11:40:28Z</time>
      </trkpt>
      <trkpt lat="45.74041" lon="6.28817">
        <ele>665.40002441406</ele>
        <time>2012-06-09T11:40:31Z</time>
      </trkpt>
      <trkpt lat="45.74052" lon="6.28802">
        <ele>664.40002441406</ele>
        <time>2012-06-09T11:40:37Z</time>
      </trkpt>
      <trkpt lat="45.74072" lon="6.28782">
        <ele>661</ele>
        <time>2012-06-09T11:40:46Z</time>
      </trkpt>
      <trkpt lat="45.74076" lon="6.28776">
        <ele>659.79998779297</ele>
        <time>2012-06-09T11:40:48Z</time>
      </trkpt>
      <trkpt lat="45.74087" lon="6.28758">
        <ele>658.59997558594</ele>
        <time>2012-06-09T11:40:54Z</time>
      </trkpt>
      <trkpt lat="45.74093" lon="6.28753">
        <ele>656.59997558594</ele>
        <time>2012-06-09T11:40:56Z</time>
      </trkpt>
      <trkpt lat="45.74104" lon="6.28739">
        <ele>654.20001220703</ele>
        <time>2012-06-09T11:41:02Z</time>
      </trkpt>
      <trkpt lat="45.74105" lon="6.28736">
        <ele>654.20001220703</ele>
        <time>2012-06-09T11:41:03Z</time>
      </trkpt>
      <trkpt lat="45.74107" lon="6.28723">
        <ele>651.79998779297</ele>
        <time>2012-06-09T11:41:07Z</time>
      </trkpt>
      <trkpt lat="45.74113" lon="6.28712">
        <ele>650.59997558594</ele>
        <time>2012-06-09T11:41:11Z</time>
      </trkpt>
      <trkpt lat="45.7412" lon="6.28704">
        <ele>649.40002441406</ele>
        <time>2012-06-09T11:41:17Z</time>
      </trkpt>
      <trkpt lat="45.7413" lon="6.28691">
        <ele>646.79998779297</ele>
        <time>2012-06-09T11:41:25Z</time>
      </trkpt>
      <trkpt lat="45.74137" lon="6.28684">
        <ele>645.40002441406</ele>
        <time>2012-06-09T11:41:29Z</time>
      </trkpt>
      <trkpt lat="45.74148" lon="6.28673">
        <ele>644.40002441406</ele>
        <time>2012-06-09T11:41:35Z</time>
      </trkpt>
      <trkpt lat="45.74157" lon="6.28669">
        <ele>644.40002441406</ele>
        <time>2012-06-09T11:41:38Z</time>
      </trkpt>
      <trkpt lat="45.74167" lon="6.28661">
        <ele>642.20001220703</ele>
        <time>2012-06-09T11:41:44Z</time>
      </trkpt>
      <trkpt lat="45.74184" lon="6.28656">
        <ele>640</ele>
        <time>2012-06-09T11:41:51Z</time>
      </trkpt>
      <trkpt lat="45.74212" lon="6.28638">
        <ele>639</ele>
        <time>2012-06-09T11:42:02Z</time>
      </trkpt>
      <trkpt lat="45.74215" lon="6.28637">
        <ele>639</ele>
        <time>2012-06-09T11:42:03Z</time>
      </trkpt>
      <trkpt lat="45.74234" lon="6.28628">
        <ele>636.40002441406</ele>
        <time>2012-06-09T11:42:10Z</time>
      </trkpt>
      <trkpt lat="45.74254" lon="6.28616">
        <ele>633.59997558594</ele>
        <time>2012-06-09T11:42:17Z</time>
      </trkpt>
      <trkpt lat="45.74258" lon="6.28614">
        <ele>633.59997558594</ele>
        <time>2012-06-09T11:42:19Z</time>
      </trkpt>
      <trkpt lat="45.74271" lon="6.28605">
        <ele>632.20001220703</ele>
        <time>2012-06-09T11:42:27Z</time>
      </trkpt>
      <trkpt lat="45.74281" lon="6.28599">
        <ele>631.20001220703</ele>
        <time>2012-06-09T11:42:32Z</time>
      </trkpt>
      <trkpt lat="45.74291" lon="6.28593">
        <ele>629</ele>
        <time>2012-06-09T11:42:37Z</time>
      </trkpt>
      <trkpt lat="45.74297" lon="6.28589">
        <ele>627.79998779297</ele>
        <time>2012-06-09T11:42:40Z</time>
      </trkpt>
      <trkpt lat="45.74311" lon="6.28581">
        <ele>625.40002441406</ele>
        <time>2012-06-09T11:42:46Z</time>
      </trkpt>
      <trkpt lat="45.74326" lon="6.2858">
        <ele>624.40002441406</ele>
        <time>2012-06-09T11:42:51Z</time>
      </trkpt>
      <trkpt lat="45.74333" lon="6.28581">
        <ele>622.79998779297</ele>
        <time>2012-06-09T11:42:55Z</time>
      </trkpt>
      <trkpt lat="45.74346" lon="6.28586">
        <ele>620.40002441406</ele>
        <time>2012-06-09T11:43:00Z</time>
      </trkpt>
      <trkpt lat="45.74359" lon="6.28581">
        <ele>619</ele>
        <time>2012-06-09T11:43:04Z</time>
      </trkpt>
      <trkpt lat="45.74375" lon="6.28575">
        <ele>618</ele>
        <time>2012-06-09T11:43:11Z</time>
      </trkpt>
      <trkpt lat="45.74383" lon="6.2857">
        <ele>616</ele>
        <time>2012-06-09T11:43:15Z</time>
      </trkpt>
      <trkpt lat="45.74396" lon="6.28566">
        <ele>612.79998779297</ele>
        <time>2012-06-09T11:43:20Z</time>
      </trkpt>
      <trkpt lat="45.74408" lon="6.28559">
        <ele>610.40002441406</ele>
        <time>2012-06-09T11:43:24Z</time>
      </trkpt>
      <trkpt lat="45.74421" lon="6.28552">
        <ele>608.40002441406</ele>
        <time>2012-06-09T11:43:29Z</time>
      </trkpt>
      <trkpt lat="45.74424" lon="6.2855">
        <ele>607.20001220703</ele>
        <time>2012-06-09T11:43:30Z</time>
      </trkpt>
      <trkpt lat="45.74441" lon="6.28556">
        <ele>604.79998779297</ele>
        <time>2012-06-09T11:43:36Z</time>
      </trkpt>
      <trkpt lat="45.74462" lon="6.28557">
        <ele>601.40002441406</ele>
        <time>2012-06-09T11:43:47Z</time>
      </trkpt>
      <trkpt lat="45.74468" lon="6.28552">
        <ele>600.20001220703</ele>
        <time>2012-06-09T11:43:49Z</time>
      </trkpt>
      <trkpt lat="45.74501" lon="6.28511">
        <ele>597</ele>
        <time>2012-06-09T11:44:04Z</time>
      </trkpt>
      <trkpt lat="45.74507" lon="6.285">
        <ele>596</ele>
        <time>2012-06-09T11:44:08Z</time>
      </trkpt>
      <trkpt lat="45.74525" lon="6.28473">
        <ele>593.59997558594</ele>
        <time>2012-06-09T11:44:18Z</time>
      </trkpt>
      <trkpt lat="45.74528" lon="6.28468">
        <ele>592.59997558594</ele>
        <time>2012-06-09T11:44:20Z</time>
      </trkpt>
      <trkpt lat="45.74547" lon="6.2846">
        <ele>592.59997558594</ele>
        <time>2012-06-09T11:44:28Z</time>
      </trkpt>
      <trkpt lat="45.74556" lon="6.2846">
        <ele>591.20001220703</ele>
        <time>2012-06-09T11:44:33Z</time>
      </trkpt>
      <trkpt lat="45.74583" lon="6.28484">
        <ele>589.20001220703</ele>
        <time>2012-06-09T11:44:44Z</time>
      </trkpt>
      <trkpt lat="45.74626" lon="6.28542">
        <ele>588</ele>
        <time>2012-06-09T11:45:06Z</time>
      </trkpt>
      <trkpt lat="45.74643" lon="6.28575">
        <ele>586.20001220703</ele>
        <time>2012-06-09T11:45:17Z</time>
      </trkpt>
      <trkpt lat="45.74657" lon="6.28616">
        <ele>586.20001220703</ele>
        <time>2012-06-09T11:45:29Z</time>
      </trkpt>
      <trkpt lat="45.74663" lon="6.28636">
        <ele>586.20001220703</ele>
        <time>2012-06-09T11:45:35Z</time>
      </trkpt>
      <trkpt lat="45.74684" lon="6.28704">
        <ele>586.20001220703</ele>
        <time>2012-06-09T11:45:54Z</time>
      </trkpt>
      <trkpt lat="45.74698" lon="6.28747">
        <ele>586.20001220703</ele>
        <time>2012-06-09T11:46:06Z</time>
      </trkpt>
      <trkpt lat="45.74718" lon="6.2881">
        <ele>585.20001220703</ele>
        <time>2012-06-09T11:46:24Z</time>
      </trkpt>
      <trkpt lat="45.74726" lon="6.28831">
        <ele>585.20001220703</ele>
        <time>2012-06-09T11:46:30Z</time>
      </trkpt>
      <trkpt lat="45.74744" lon="6.28877">
        <ele>585.20001220703</ele>
        <time>2012-06-09T11:46:44Z</time>
      </trkpt>
      <trkpt lat="45.74772" lon="6.28973">
        <ele>585.20001220703</ele>
        <time>2012-06-09T11:47:12Z</time>
      </trkpt>
      <trkpt lat="45.7478" lon="6.28992">
        <ele>585.20001220703</ele>
        <time>2012-06-09T11:47:18Z</time>
      </trkpt>
      <trkpt lat="45.74793" lon="6.29016">
        <ele>585.20001220703</ele>
        <time>2012-06-09T11:47:25Z</time>
      </trkpt>
      <trkpt lat="45.74807" lon="6.29047">
        <ele>585.20001220703</ele>
        <time>2012-06-09T11:47:34Z</time>
      </trkpt>
      <trkpt lat="45.74846" lon="6.29062">
        <ele>585.20001220703</ele>
        <time>2012-06-09T11:47:49Z</time>
      </trkpt>
      <trkpt lat="45.74859" lon="6.29057">
        <ele>585.20001220703</ele>
        <time>2012-06-09T11:47:54Z</time>
      </trkpt>
      <trkpt lat="45.74896" lon="6.29038">
        <ele>585.20001220703</ele>
        <time>2012-06-09T11:48:10Z</time>
      </trkpt>
      <trkpt lat="45.74895" lon="6.29054">
        <ele>585.20001220703</ele>
        <time>2012-06-09T11:48:14Z</time>
      </trkpt>
      <trkpt lat="45.74884" lon="6.29103">
        <ele>585.20001220703</ele>
        <time>2012-06-09T11:48:26Z</time>
      </trkpt>
      <trkpt lat="45.74876" lon="6.29185">
        <ele>585.20001220703</ele>
        <time>2012-06-09T11:48:45Z</time>
      </trkpt>
      <trkpt lat="45.74873" lon="6.29201">
        <ele>583.20001220703</ele>
        <time>2012-06-09T11:48:49Z</time>
      </trkpt>
      <trkpt lat="45.74867" lon="6.29257">
        <ele>583.20001220703</ele>
        <time>2012-06-09T11:49:02Z</time>
      </trkpt>
      <trkpt lat="45.74864" lon="6.29277">
        <ele>583.20001220703</ele>
        <time>2012-06-09T11:49:07Z</time>
      </trkpt>
      <trkpt lat="45.74854" lon="6.29344">
        <ele>583.20001220703</ele>
        <time>2012-06-09T11:49:24Z</time>
      </trkpt>
      <trkpt lat="45.74842" lon="6.29377">
        <ele>583.20001220703</ele>
        <time>2012-06-09T11:49:34Z</time>
      </trkpt>
      <trkpt lat="45.74793" lon="6.2941">
        <ele>583.20001220703</ele>
        <time>2012-06-09T11:49:50Z</time>
      </trkpt>
      <trkpt lat="45.74778" lon="6.29419">
        <ele>583.20001220703</ele>
        <time>2012-06-09T11:49:55Z</time>
      </trkpt>
      <trkpt lat="45.74769" lon="6.29422">
        <ele>585.20001220703</ele>
        <time>2012-06-09T11:49:59Z</time>
      </trkpt>
      <trkpt lat="45.74716" lon="6.29388">
        <ele>585.20001220703</ele>
        <time>2012-06-09T11:50:22Z</time>
      </trkpt>
    </trkseg>
  </trk>
</gpx>